# Wetter Temperatur Luftdruck Luftfeuchtigkeit Sichtweite Windgeschwindigkeit Windrichtung Zeit
1 Clouds 1 1015 69 10000 5 270 22:26 24.01.2020
2 Clouds 1 1015 69 10000 5 270 21:57 24.01.2020
3 Clouds 1 1015 69 10000 5 270 21:57 24.01.2020
4 Clouds 1 1015 69 10000 6 270 21:39 24.01.2020
5 Clouds 1 1015 69 10000 6 270 21:18 24.01.2020
6 Clouds 1 1015 69 10000 5 260 20:43 24.01.2020
7 Clouds 1 1015 69 10000 5 260 20:21 24.01.2020
8 Clouds 2 1015 69 10000 5 260 19:58 24.01.2020
9 Clouds 2 1016 69 10000 6 260 19:39 24.01.2020
10 Clouds 2 1016 69 10000 6 260 19:21 24.01.2020
11 Clouds 2 1016 69 10000 4 260 18:44 24.01.2020
12 Clouds 2 1016 69 10000 5 260 18:25 24.01.2020
13 Clouds 2 1016 74 10000 5 260 17:59 24.01.2020
14 Clouds 2 1016 69 10000 6 260 17:41 24.01.2020
15 Clouds 2 1016 69 10000 6 260 17:20 24.01.2020
16 Clouds 3 1016 69 10000 4 250 16:40 24.01.2020
17 Clouds 3 1016 69 10000 4 250 16:21 24.01.2020
18 Clouds 3 1016 69 10000 4 260 15:56 24.01.2020
19 Clouds 3 1017 64 10000 6 260 15:38 24.01.2020
20 Clouds 3 1017 64 10000 6 260 15:19 24.01.2020
21 Clouds 4 1017 69 10000 9 260 14:41 24.01.2020
22 Clouds 3 1017 74 10000 7 270 14:22 24.01.2020
23 Clouds 3 1018 74 10000 7 270 13:45 24.01.2020
24 Rain 3 1018 74 10000 7 270 13:24 24.01.2020
25 Rain 2 1018 74 10000 8 270 12:45 24.01.2020
26 Rain 2 1018 74 10000 7 260 12:45 24.01.2020
27 Clouds 2 1018 74 10000 8 270 12:24 24.01.2020
28 Clouds 1 1019 80 10000 8 270 11:59 24.01.2020
29 Clouds 2 1019 74 10000 7 270 11:40 24.01.2020
30 Clouds 1 1019 74 10000 7 270 11:18 24.01.2020
31 Clouds 1 1020 74 10000 8 270 10:43 24.01.2020
32 Clouds 1 1020 74 10000 8 270 10:21 24.01.2020
33 Clouds 1 1020 81 10000 7 270 09:56 24.01.2020
34 Clouds 0 1020 81 10000 7 270 09:37 24.01.2020
35 Clouds 1 1020 81 10000 7 270 09:18 24.01.2020
36 Clouds 0 1020 81 10000 7 290 08:40 24.01.2020
37 Clouds 0 1020 78 10000 7 290 08:19 24.01.2020
38 Clouds 0 1020 78 10000 10 280 07:49 24.01.2020
39 Clouds 0 1020 78 10000 7 280 07:24 24.01.2020
40 Clouds 0 1021 78 10000 7 270 06:46 24.01.2020
41 Clouds 0 1021 78 10000 7 270 06:28 24.01.2020
42 Clouds 0 1021 78 10000 5 260 05:43 24.01.2020
43 Clouds 0 1022 83 10000 5 260 03:55 24.01.2020
44 Clouds 0 1023 83 10000 5 270 02:43 24.01.2020
45 Clouds 0 1023 86 10000 5 270 02:23 24.01.2020
46 Clouds 0 1023 86 10000 4 270 01:39 24.01.2020
47 Clouds 0 1024 85 10000 4 270 00:54 24.01.2020
48 Clouds 0 1024 80 10000 4 270 00:19 24.01.2020
49 Clouds -1 1024 86 10000 3 260 23:45 23.01.2020
50 Clouds -1 1024 86 10000 3 260 23:27 23.01.2020
51 Clouds -1 1024 86 10000 3 290 22:59 23.01.2020
52 Clouds -1 1024 80 10000 4 290 22:37 23.01.2020
53 Clouds -1 1024 80 10000 4 290 22:19 23.01.2020
54 Clouds -1 1024 74 10000 4 300 21:56 23.01.2020
55 Clouds -1 1024 74 10000 4 300 21:38 23.01.2020
56 Clouds -1 1024 74 10000 4 300 21:19 23.01.2020
57 Clouds 0 1024 75 10000 5 300 20:56 23.01.2020
58 Clouds 0 1024 75 10000 5 310 20:37 23.01.2020
59 Clouds 0 1024 73 10000 5 310 20:19 23.01.2020
60 Clouds 0 1023 64 10000 6 310 19:44 23.01.2020
61 Clouds 0 1023 64 10000 6 310 19:24 23.01.2020
62 Clouds 0 1023 64 10000 6 310 18:59 23.01.2020
63 Clouds 1 1022 64 10000 6 310 18:39 23.01.2020
64 Clouds 1 1022 64 10000 6 310 18:20 23.01.2020
65 Clouds 1 1022 64 10000 7 310 17:57 23.01.2020
66 Clouds 1 1022 64 10000 6 310 17:39 23.01.2020
67 Clouds 1 1022 69 10000 7 310 17:19 23.01.2020
68 Clouds 1 1021 69 10000 8 310 16:39 23.01.2020
69 Clouds 1 1021 69 10000 8 310 16:20 23.01.2020
70 Rain 1 1021 69 10000 8 310 15:58 23.01.2020
71 Rain 1 1021 69 10000 8 310 15:40 23.01.2020
72 Rain 1 1021 69 10000 8 310 15:19 23.01.2020
73 Rain 1 1021 69 10000 8 310 15:19 23.01.2020
74 Clouds 1 1021 69 10000 9 310 14:59 23.01.2020
75 Clouds 1 1021 69 10000 10 310 14:41 23.01.2020
76 Clouds 1 1021 69 10000 10 310 14:23 23.01.2020
77 Clouds 1 1020 69 10000 8 310 13:59 23.01.2020
78 Clouds 1 1020 74 10000 8 310 13:38 23.01.2020
79 Snow 1 1020 63 5000 8 320 13:19 23.01.2020
80 Snow 1 1020 69 9000 8 320 12:46 23.01.2020
81 Snow 1 1020 69 9000 8 320 12:25 23.01.2020
82 Snow 1 1020 69 10000 8 320 11:57 23.01.2020
83 Clouds 1 1020 64 10000 9 320 11:38 23.01.2020
84 Clouds 1 1020 64 10000 9 320 11:19 23.01.2020
85 Clouds 1 1020 64 10000 10 330 10:44 23.01.2020
86 Clouds 1 1020 64 10000 10 320 10:22 23.01.2020
87 Clouds 1 1020 64 10000 8 330 09:57 23.01.2020
88 Clouds 1 1019 55 10000 8 330 09:36 23.01.2020
89 Clouds 0 1019 55 10000 9 330 09:18 23.01.2020
90 Clouds 0 1018 55 10000 9 320 08:40 23.01.2020
91 Clouds 0 1018 76 10000 9 320 08:22 23.01.2020
92 Snow 0 1017 76 10000 8 320 07:45 23.01.2020
93 Snow 0 1017 76 10000 8 320 07:26 23.01.2020
94 Snow 0 1016 76 10000 8 320 06:52 23.01.2020
95 Snow 0 1016 76 9000 8 310 06:22 23.01.2020
96 Snow 0 1015 74 9000 7 310 05:57 23.01.2020
97 Clouds 1 1014 74 10000 7 320 04:24 23.01.2020
98 Snow 1 1014 80 10000 8 320 02:34 23.01.2020
99 Snow 1 1013 74 10000 7 320 01:33 23.01.2020
100 Clouds 1 1013 80 10000 8 320 00:27 23.01.2020
101 Clouds 1 1012 74 10000 8 320 23:48 22.01.2020
102 Clouds 1 1012 74 10000 8 320 23:30 22.01.2020
103 Snow 1 1011 80 8000 7 340 22:59 22.01.2020
104 Snow 1 1011 86 9000 9 340 22:40 22.01.2020
105 Snow 1 1011 86 9000 9 340 22:22 22.01.2020
106 Snow 1 1010 67 8000 8 330 21:40 22.01.2020
107 Snow 1 1010 67 8000 8 330 21:22 22.01.2020
108 Clouds 2 1009 67 10000 7 310 20:57 22.01.2020
109 Clouds 2 1009 67 10000 7 310 20:57 22.01.2020
110 Clouds 2 1008 67 10000 9 300 20:38 22.01.2020
111 Clouds 2 1008 67 10000 9 300 20:38 22.01.2020
112 Clouds 2 1008 80 10000 9 300 20:20 22.01.2020
113 Rain 2 1008 86 10000 8 290 19:56 22.01.2020
114 Rain 2 1008 86 10000 7 280 19:38 22.01.2020
115 Rain 2 1008 86 10000 7 280 19:18 22.01.2020
116 Clouds 2 1009 86 10000 7 290 18:56 22.01.2020
117 Clouds 2 1009 93 10000 8 290 18:38 22.01.2020
118 Clouds 2 1009 93 10000 8 290 18:19 22.01.2020
119 Snow 2 1009 93 10000 8 290 17:40 22.01.2020
120 Rain 2 1009 93 10000 8 290 17:21 22.01.2020
121 Rain 2 1008 93 7000 8 290 16:58 22.01.2020
122 Clouds 2 1008 93 10000 8 290 16:39 22.01.2020
123 Rain 2 1008 93 10000 8 290 16:21 22.01.2020
124 Rain 2 1008 93 9000 9 280 15:56 22.01.2020
125 Rain 1 1009 93 8000 9 280 15:38 22.01.2020
126 Snow 1 1009 93 8000 9 280 15:19 22.01.2020
127 Rain 1 1009 93 8000 10 280 14:40 22.01.2020
128 Rain 1 1009 93 8000 10 280 14:40 22.01.2020
129 Snow 1 1009 81 9000 10 280 14:21 22.01.2020
130 Snow 1 1009 81 9000 10 280 13:59 22.01.2020
131 Snow 2 1009 80 9000 11 280 13:38 22.01.2020
132 Snow 2 1009 80 9000 11 280 13:19 22.01.2020
133 Clouds 2 1010 100 2900 9 270 12:57 22.01.2020
134 Clouds 2 1010 80 10000 8 280 12:39 22.01.2020
135 Clouds 2 1010 80 10000 8 280 12:20 22.01.2020
136 Snow 2 1011 80 10000 8 290 11:58 22.01.2020
137 Clouds 2 1011 80 10000 8 290 11:39 22.01.2020
138 Clouds 2 1011 80 10000 8 290 11:19 22.01.2020
139 Clouds 2 1012 80 10000 8 280 11:19 22.01.2020
140 Clouds 2 1011 80 10000 8 290 11:19 22.01.2020
141 Clouds 2 1012 80 10000 8 280 10:54 22.01.2020
142 Clouds 2 1012 80 10000 9 280 10:36 22.01.2020
143 Clouds 2 1012 80 10000 9 280 10:18 22.01.2020
144 Clouds 2 1013 88 9000 8 270 09:41 22.01.2020
145 Clouds 2 1013 88 9000 9 270 09:23 22.01.2020
146 Clouds 2 1013 88 9000 9 270 08:57 22.01.2020
147 Clouds 2 1014 93 9000 8 280 08:38 22.01.2020
148 Clouds 2 1014 81 9000 8 280 08:20 22.01.2020
149 Clouds 2 1015 81 10000 8 280 07:46 22.01.2020
150 Clouds 2 1015 81 10000 8 280 07:27 22.01.2020
151 Clouds 3 1015 74 10000 8 280 06:38 22.01.2020
152 Clouds 2 1015 74 10000 8 280 06:20 22.01.2020
153 Clouds 2 1015 74 10000 8 280 06:20 22.01.2020
154 Clouds 4 1018 80 10000 7 300 04:27 22.01.2020
155 Clouds 4 1018 80 10000 7 290 03:29 22.01.2020
156 Clouds 4 1018 69 10000 8 300 02:49 22.01.2020
157 Clouds 4 1020 69 10000 7 300 01:35 22.01.2020
158 Clouds 4 1020 76 10000 7 290 00:42 22.01.2020
159 Clouds 4 1020 76 10000 7 290 00:23 22.01.2020
160 Clouds 4 1021 76 10000 8 300 23:37 21.01.2020
161 Clouds 4 1021 76 10000 8 300 23:37 21.01.2020
162 Clouds 4 1021 69 10000 8 310 23:19 21.01.2020
163 Clouds 4 1021 69 10000 8 310 22:42 21.01.2020
164 Clouds 4 1021 69 10000 8 310 22:24 21.01.2020
165 Clouds 4 1021 69 10000 9 310 21:59 21.01.2020
166 Clouds 4 1021 69 10000 9 310 21:39 21.01.2020
167 Clouds 4 1021 69 10000 9 310 21:21 21.01.2020
168 Clouds 4 1021 64 10000 8 300 20:58 21.01.2020
169 Clouds 4 1021 64 10000 8 300 20:39 21.01.2020
170 Clouds 4 1021 64 10000 9 300 20:20 21.01.2020
171 Clouds 4 1021 64 10000 9 300 19:58 21.01.2020
172 Clouds 4 1021 69 10000 9 290 19:39 21.01.2020
173 Clouds 4 1021 69 10000 9 290 19:21 21.01.2020
174 Clouds 4 1022 65 10000 9 290 18:57 21.01.2020
175 Clouds 4 1022 69 10000 8 290 18:39 21.01.2020
176 Clouds 4 1022 69 10000 8 290 18:39 21.01.2020
177 Clouds 4 1022 69 10000 8 290 18:20 21.01.2020
178 Clouds 4 1022 69 10000 9 270 17:56 21.01.2020
179 Clouds 3 1022 69 10000 7 270 17:38 21.01.2020
180 Clouds 3 1022 69 10000 7 270 17:18 21.01.2020
181 Clouds 4 1022 64 10000 9 280 16:38 21.01.2020
182 Clouds 4 1022 64 10000 9 280 16:19 21.01.2020
183 Clouds 4 1022 64 10000 9 280 16:19 21.01.2020
184 Clouds 4 1023 64 10000 8 280 15:58 21.01.2020
185 Clouds 5 1023 60 10000 8 280 15:38 21.01.2020
186 Clouds 5 1023 60 10000 8 280 15:19 21.01.2020
187 Clouds 5 1024 60 10000 8 290 14:39 21.01.2020
188 Clouds 5 1024 60 10000 8 290 14:39 21.01.2020
189 Clouds 5 1024 60 10000 8 290 14:21 21.01.2020
190 Clouds 5 1024 56 10000 9 290 13:43 21.01.2020
191 Clouds 5 1024 56 10000 9 290 13:20 21.01.2020
192 Clouds 5 1025 56 10000 9 290 12:58 21.01.2020
193 Clouds 5 1025 60 10000 9 280 12:39 21.01.2020
194 Clouds 5 1026 64 10000 9 280 12:21 21.01.2020
195 Clouds 4 1026 64 10000 9 280 11:55 21.01.2020
196 Clouds 4 1026 69 10000 10 270 11:36 21.01.2020
197 Clouds 4 1026 69 10000 10 270 11:18 21.01.2020
198 Clouds 2 1028 74 10000 10 270 10:42 21.01.2020
199 Clouds 2 1028 74 10000 10 270 10:22 21.01.2020
200 Clouds 2 1029 80 10000 8 270 09:43 21.01.2020
201 Clouds 2 1029 80 10000 8 270 09:23 21.01.2020
202 Clouds 1 1029 80 10000 9 270 08:58 21.01.2020
203 Clouds 1 1029 80 10000 9 280 08:40 21.01.2020
204 Clouds 1 1030 76 10000 9 280 08:19 21.01.2020
205 Clouds 0 1030 76 10000 9 280 07:42 21.01.2020
206 Clouds 0 1030 76 10000 9 280 07:42 21.01.2020
207 Clouds 0 1030 76 10000 9 280 07:23 21.01.2020
208 Clouds 0 1030 76 10000 8 280 06:55 21.01.2020
209 Clouds 1 1031 80 10000 7 290 06:37 21.01.2020
210 Clouds 1 1031 80 10000 7 290 05:50 21.01.2020
211 Clouds 1 1032 80 10000 6 290 04:41 21.01.2020
212 Clouds 1 1032 80 10000 7 280 03:40 21.01.2020
213 Clouds 1 1034 80 10000 7 300 02:26 21.01.2020
214 Clouds 1 1034 80 10000 6 290 01:28 21.01.2020
215 Clouds 1 1035 80 10000 6 290 00:40 21.01.2020
216 Clouds 1 1035 80 10000 6 290 00:21 21.01.2020
217 Clouds 1 1035 80 10000 6 290 23:41 20.01.2020
218 Clouds 1 1035 80 10000 6 290 23:19 20.01.2020
219 Clouds 1 1036 80 10000 7 290 22:58 20.01.2020
220 Clouds 1 1036 80 10000 6 300 22:38 20.01.2020
221 Clouds 1 1036 80 10000 6 300 22:38 20.01.2020
222 Clouds 1 1036 80 10000 6 300 22:20 20.01.2020
223 Clouds 1 1036 80 10000 6 300 22:20 20.01.2020
224 Clouds 1 1036 80 10000 6 300 21:58 20.01.2020
225 Clouds 1 1036 80 10000 6 300 21:37 20.01.2020
226 Clouds 1 1036 80 10000 6 300 21:19 20.01.2020
227 Clouds 1 1036 80 10000 7 300 20:57 20.01.2020
228 Clouds 1 1037 80 10000 6 300 20:38 20.01.2020
229 Clouds 1 1037 80 10000 6 300 20:18 20.01.2020
230 Clouds 1 1037 86 10000 6 300 19:56 20.01.2020
231 Clouds 1 1037 80 10000 6 310 19:38 20.01.2020
232 Clouds 1 1037 80 10000 6 310 19:18 20.01.2020
233 Clouds 1 1037 80 10000 6 300 18:44 20.01.2020
234 Clouds 1 1037 80 10000 6 300 18:22 20.01.2020
235 Clouds 1 1037 80 10000 6 300 17:58 20.01.2020
236 Clouds 1 1037 80 10000 6 300 17:36 20.01.2020
237 Clouds 1 1037 80 10000 5 300 17:18 20.01.2020
238 Clouds 1 1037 80 10000 4 290 16:43 20.01.2020
239 Clouds 1 1037 80 10000 4 290 16:25 20.01.2020
240 Clouds 1 1037 80 10000 5 290 15:57 20.01.2020
241 Clouds 1 1037 80 10000 5 300 15:39 20.01.2020
242 Clouds 1 1037 80 10000 5 300 15:20 20.01.2020
243 Clouds 1 1038 74 10000 7 320 14:41 20.01.2020
244 Clouds 1 1038 74 10000 7 320 14:23 20.01.2020
245 Clouds 1 1038 80 10000 6 330 13:59 20.01.2020
246 Clouds 1 1037 80 10000 5 330 13:40 20.01.2020
247 Clouds 1 1037 80 10000 5 330 13:22 20.01.2020
248 Snow 1 1037 86 10000 5 310 12:47 20.01.2020
249 Snow 1 1037 86 10000 5 310 12:28 20.01.2020
250 Clouds 1 1038 87 8000 4 310 11:58 20.01.2020
251 Mist 1 1038 87 5000 5 330 11:39 20.01.2020
252 Clouds 0 1038 86 6000 4 320 11:21 20.01.2020
253 Clouds 0 1038 86 6000 4 320 10:48 20.01.2020
254 Snow 0 1038 100 6000 4 300 10:22 20.01.2020
255 Clouds 0 1038 86 6000 4 310 10:22 20.01.2020
256 Snow 0 1038 100 6000 4 300 09:57 20.01.2020
257 Snow -1 1038 92 3800 3 300 09:38 20.01.2020
258 Snow -1 1038 92 3800 3 300 09:19 20.01.2020
259 Snow -1 1037 92 5000 3 290 08:43 20.01.2020
260 Snow -1 1037 92 5000 3 290 08:25 20.01.2020
261 Snow -1 1037 92 3900 3 290 07:43 20.01.2020
262 Snow -2 1037 92 3900 3 290 07:24 20.01.2020
263 Snow -2 1037 92 7000 3 300 06:46 20.01.2020
264 Clouds -2 1037 92 9000 3 290 06:26 20.01.2020
265 Clouds -2 1037 92 9000 3 300 05:42 20.01.2020
266 Snow -2 1036 92 6000 3 300 05:21 20.01.2020
267 Snow -2 1036 86 5000 2 300 04:41 20.01.2020
268 Clouds -2 1036 86 10000 3 10 02:57 20.01.2020
269 Clouds -2 1036 86 10000 4 320 01:52 20.01.2020
270 Clouds -2 1036 86 10000 3 330 01:26 20.01.2020
271 Clouds -2 1035 86 9000 3 320 00:44 20.01.2020
272 Clouds -2 1035 86 9000 3 320 00:22 20.01.2020
273 Clouds -2 1035 86 9000 3 10 23:39 19.01.2020
274 Clouds -2 1035 86 9000 3 350 23:20 19.01.2020
275 Clouds -2 1035 86 9000 3 10 23:20 19.01.2020
276 Clouds -2 1035 86 9000 3 350 22:56 19.01.2020
277 Clouds -2 1035 86 9000 3 350 22:56 19.01.2020
278 Clouds -2 1035 86 7000 2 20 22:38 19.01.2020
279 Clouds -2 1035 86 7000 2 20 22:20 19.01.2020
280 Clouds -2 1034 86 7000 4 320 21:56 19.01.2020
281 Clouds -2 1034 86 7000 4 320 21:56 19.01.2020
282 Clouds -2 1034 86 6000 2 360 21:38 19.01.2020
283 Clouds -2 1034 86 6000 2 360 21:20 19.01.2020
284 Clouds -2 1034 86 6000 1 0 20:57 19.01.2020
285 Clouds -2 1034 86 6000 1 0 20:38 19.01.2020
286 Clouds -2 1034 86 6000 1 0 20:20 19.01.2020
287 Clouds -2 1034 86 6000 2 280 19:56 19.01.2020
288 Clouds -2 1033 86 6000 2 20 19:38 19.01.2020
289 Clouds -2 1033 86 6000 2 20 19:19 19.01.2020
290 Clouds -2 1033 86 6000 2 360 18:55 19.01.2020
291 Clouds -2 1033 86 6000 2 10 18:37 19.01.2020
292 Clouds -2 1033 92 6000 2 360 18:19 19.01.2020
293 Clouds -2 1033 92 6000 2 360 17:58 19.01.2020
294 Clouds -2 1033 92 7000 2 300 17:39 19.01.2020
295 Clouds -2 1033 92 7000 2 300 17:20 19.01.2020
296 Clouds -2 1032 92 8000 3 340 16:57 19.01.2020
297 Clouds -2 1032 92 8000 2 340 16:38 19.01.2020
298 Clouds -2 1032 92 8000 2 340 16:19 19.01.2020
299 Clouds -2 1032 92 8000 2 280 15:57 19.01.2020
300 Clouds -2 1031 92 8000 2 250 15:37 19.01.2020
301 Clouds -2 1031 92 8000 2 250 15:19 19.01.2020
302 Clouds -2 1031 92 8000 1 0 14:57 19.01.2020
303 Clouds -2 1031 92 9000 0.7 244 14:38 19.01.2020
304 Clouds -2 1031 92 9000 1.2 223 14:18 19.01.2020
305 Clouds -2 1031 86 9000 2 290 13:56 19.01.2020
306 Clouds -2 1030 92 9000 1 0 13:37 19.01.2020
307 Clouds -2 1030 92 9000 1 0 13:18 19.01.2020
308 Clouds -1 1030 92 9000 1 0 12:54 19.01.2020
309 Clouds -1 1030 92 9000 2 270 12:36 19.01.2020
310 Clouds -2 1030 92 9000 2 270 12:18 19.01.2020
311 Clouds -2 1030 92 8000 2 220 11:39 19.01.2020
312 Clouds -2 1030 92 9000 1 0 11:20 19.01.2020
313 Clouds -2 1030 92 9000 1 0 10:55 19.01.2020
314 Clouds -2 1030 92 8000 3 230 10:37 19.01.2020
315 Clouds -2 1030 92 8000 3 230 10:37 19.01.2020
316 Clouds -2 1030 92 9000 2 220 10:18 19.01.2020
317 Clouds -2 1030 92 9000 2 220 10:18 19.01.2020
318 Clouds -2 1030 92 8000 2 240 09:44 19.01.2020
319 Clouds -2 1030 92 8000 2 240 09:25 19.01.2020
320 Clouds -2 1029 92 6000 2 200 08:58 19.01.2020
321 Mist -2 1029 92 4900 2 220 08:39 19.01.2020
322 Mist -2 1029 92 4900 2 220 08:20 19.01.2020
323 Mist -2 1029 92 5000 2 220 07:42 19.01.2020
324 Mist -2 1029 92 5000 2 220 07:21 19.01.2020
325 Clouds -2 1028 92 6000 2 250 06:50 19.01.2020
326 Clouds -2 1028 92 6000 3 240 05:21 19.01.2020
327 Clouds -2 1028 100 6000 2 210 02:43 19.01.2020
328 Clouds -2 1028 100 6000 3 240 02:21 19.01.2020
329 Clouds -2 1028 100 6000 3 230 01:25 19.01.2020
330 Mist -2 1027 100 5000 2 220 00:45 19.01.2020
331 Mist -2 1027 100 5000 2 220 00:27 19.01.2020
332 Mist -2 1027 100 5000 2 220 23:56 18.01.2020
333 Mist -2 1027 100 4500 2 220 23:38 18.01.2020
334 Mist -2 1027 100 4500 2 220 23:18 18.01.2020
335 Mist -2 1028 100 4700 2 190 22:55 18.01.2020
336 Mist -2 1028 100 4200 3 240 22:36 18.01.2020
337 Mist -2 1028 100 4200 3 240 22:18 18.01.2020
338 Mist -2 1028 100 4200 3 240 22:18 18.01.2020
339 Mist -2 1028 100 4300 3 210 21:56 18.01.2020
340 Mist -2 1028 100 4500 2 220 21:36 18.01.2020
341 Mist -2 1028 100 4500 2 220 21:18 18.01.2020
342 Mist -1 1028 100 4300 3 220 20:42 18.01.2020
343 Mist -1 1028 100 4000 3 190 20:20 18.01.2020
344 Mist -1 1028 100 4000 3 190 19:55 18.01.2020
345 Mist -1 1028 100 4000 2 210 19:36 18.01.2020
346 Mist -1 1028 100 4000 2 210 19:36 18.01.2020
347 Mist -1 1028 100 4000 2 210 19:18 18.01.2020
348 Mist -1 1028 100 4400 2 230 18:40 18.01.2020
349 Mist -1 1028 100 4400 2 230 18:21 18.01.2020
350 Mist -1 1028 100 3600 2 200 17:41 18.01.2020
351 Mist -1 1028 100 3600 2 200 17:21 18.01.2020
352 Mist -1 1028 100 4300 3 210 16:57 18.01.2020
353 Mist -1 1028 100 4700 3 220 16:39 18.01.2020
354 Mist -1 1028 100 4700 3 220 16:39 18.01.2020
355 Mist -1 1028 100 4700 3 220 16:21 18.01.2020
356 Mist -1 1028 100 3700 2 200 15:57 18.01.2020
357 Mist -1 1028 100 3500 3 220 15:39 18.01.2020
358 Mist -1 1028 100 3500 3 220 15:20 18.01.2020
359 Clear -1 999 83 0 2.14 184 14:42 18.01.2020
360 Clear -1 999 73 0 2.94 186 14:21 18.01.2020
361 Clear -1 1027 16 0 2.94 186 13:59 18.01.2020
362 Clear -1 1029 97 0 0.45 148 13:39 18.01.2020
363 Mist -1 1029 100 4400 3 210 13:20 18.01.2020
364 Mist -1 1029 100 4400 3 210 12:54 18.01.2020
365 Mist -1 1029 100 4400 3 210 12:54 18.01.2020
366 Mist -1 1029 100 4400 3 210 12:36 18.01.2020
367 Mist -1 1029 100 4400 3 210 12:18 18.01.2020
368 Mist -1 1030 100 3600 2 200 11:43 18.01.2020
369 Mist -1 1030 100 3600 2 200 11:21 18.01.2020
370 Mist -1 1030 100 2400 3 210 10:43 18.01.2020
371 Mist -1 1030 100 2400 3 210 10:22 18.01.2020
372 Mist -1 1030 100 2200 3 170 09:59 18.01.2020
373 Mist -1 1030 100 1300 3 190 09:41 18.01.2020
374 Mist -1 1030 100 1100 2 190 09:19 18.01.2020
375 Mist -2 1030 100 1400 3 200 08:42 18.01.2020
376 Mist -2 1030 100 1400 3 200 08:20 18.01.2020
377 Mist -2 1030 100 1100 2 180 07:59 18.01.2020
378 Mist -2 1031 100 1200 3 220 07:39 18.01.2020
379 Mist -2 1031 100 1900 3 180 06:52 18.01.2020
380 Mist -2 1031 100 1600 4 220 06:33 18.01.2020
381 Mist -2 1031 100 1600 3 170 05:52 18.01.2020
382 Mist -2 1031 100 2000 1 0 04:25 18.01.2020
383 Fog -1 1031 100 1100 2 210 02:38 18.01.2020
384 Fog -1 1031 100 1200 2 160 01:40 18.01.2020
385 Mist -1 1031 100 1400 1 0 00:39 18.01.2020
386 Mist -1 1031 100 1400 1 0 00:20 18.01.2020
387 Mist -1 1032 100 2900 1.53 190 23:58 17.01.2020
388 Mist -1 1032 100 2500 1.53 190 23:39 17.01.2020
389 Fog -2 1032 100 500 1.29 177 23:18 17.01.2020
390 Fog -2 1032 100 450 1.29 177 22:41 17.01.2020
391 Fog -2 1032 100 450 1.29 177 22:19 17.01.2020
392 Fog -2 1032 100 500 2 200 21:55 17.01.2020
393 Fog -2 1032 100 1300 1 180 21:37 17.01.2020
394 Fog -2 1032 100 1300 1 180 21:19 17.01.2020
395 Fog -1 1032 100 250 1 0 20:41 17.01.2020
396 Fog -1 1032 100 250 1 0 20:21 17.01.2020
397 Fog -1 1032 100 250 1 0 20:21 17.01.2020
398 Fog -1 1032 100 1100 1 69 19:58 17.01.2020
399 Mist -1 1033 100 3500 2 220 19:38 17.01.2020
400 Mist -1 1033 100 3500 2 220 19:20 17.01.2020
401 Mist 0 1033 90 3100 2 230 18:58 17.01.2020
402 Mist 0 1033 90 3100 2 230 18:58 17.01.2020
403 Mist 0 1033 90 2600 1 230 18:38 17.01.2020
404 Mist 0 1033 100 2900 2 240 18:20 17.01.2020
405 Mist 0 1032 90 3700 2 270 17:40 17.01.2020
406 Mist 0 1032 85 3700 2 270 17:21 17.01.2020
407 Mist 0 1032 85 5000 2 260 16:57 17.01.2020
408 Mist 0 1032 85 5000 2 260 16:57 17.01.2020
409 Mist 0 1032 85 5000 1 260 16:38 17.01.2020
410 Mist 0 1032 85 4300 2 280 16:18 17.01.2020
411 Mist 0 1032 85 4300 2 280 15:44 17.01.2020
412 Mist 0 1033 85 4200 2 300 15:26 17.01.2020
413 Mist 1 1032 85 3800 2 280 14:44 17.01.2020
414 Mist 1 1032 85 3800 2 280 14:26 17.01.2020
415 Mist 1 1033 81 4300 2 280 13:56 17.01.2020
416 Mist 1 1033 81 4700 3 290 13:37 17.01.2020
417 Mist 1 1033 80 4700 3 290 13:18 17.01.2020
418 Mist 1 1033 80 4700 3 290 13:18 17.01.2020
419 Mist 2 1033 100 3700 2 310 12:42 17.01.2020
420 Mist 1 1033 100 3700 2 310 12:42 17.01.2020
421 Mist 1 1033 100 3700 2 310 12:21 17.01.2020
422 Mist 1 1033 100 2200 2 300 11:38 17.01.2020
423 Mist 1 1033 83 1900 2 270 11:18 17.01.2020
424 Fog 0 1033 100 250 1 0 10:43 17.01.2020
425 Fog 1 1033 100 250 1 0 10:23 17.01.2020
426 Fog 0 1033 100 200 1 0 09:58 17.01.2020
427 Fog 0 1033 100 200 1 0 09:58 17.01.2020
428 Fog 0 1033 83 400 3 280 09:38 17.01.2020
429 Fog 0 1033 83 650 3 310 09:19 17.01.2020
430 Fog 0 1032 83 450 3 290 08:43 17.01.2020
431 Mist 0 1032 94 1200 2 310 08:24 17.01.2020
432 Mist 0 1032 94 1200 2 310 07:53 17.01.2020
433 Mist 0 1032 94 3500 1 0 07:31 17.01.2020
434 Mist 1 1032 94 4800 2 330 06:57 17.01.2020
435 Mist 0 1032 94 4900 2 320 06:38 17.01.2020
436 Mist 1 1031 100 5000 2 310 05:38 17.01.2020
437 Clouds 1 1029 13 0 2.37 325 03:39 17.01.2020
438 Clouds 2 1029 11 0 2.37 325 02:45 17.01.2020
439 Clouds 2 1001 95 0 2.86 317 01:47 17.01.2020
440 Clouds 2 1030 91 0 0.45 249 01:28 17.01.2020
441 Clouds 1 1030 94 6000 4 280 00:46 17.01.2020
442 Clouds 0 1030 94 6000 4 280 00:21 17.01.2020
443 Clouds 1 1030 94 6000 4 280 23:43 16.01.2020
444 Clouds 0 1030 94 6000 4 280 23:25 16.01.2020
445 Clouds 0 1030 89 6000 4 270 22:55 16.01.2020
446 Clouds 0 1029 89 6000 4 270 22:37 16.01.2020
447 Clouds 0 1029 89 6000 4 270 22:18 16.01.2020
448 Clouds 0 1029 89 6000 5 270 21:54 16.01.2020
449 Mist 0 1029 89 5000 5 280 21:36 16.01.2020
450 Clouds 0 1029 89 6000 4 270 21:18 16.01.2020
451 Mist 0 1029 89 5000 4 270 20:40 16.01.2020
452 Mist 0 1029 81 5000 4 270 20:20 16.01.2020
453 Clouds 0 1029 81 6000 4 270 19:57 16.01.2020
454 Clouds 0 1029 81 6000 6 270 19:39 16.01.2020
455 Clouds 0 1029 81 6000 6 270 19:20 16.01.2020
456 Clouds 0 1029 81 7000 6 280 18:56 16.01.2020
457 Clouds 0 1029 81 7000 5 260 18:37 16.01.2020
458 Clouds 0 1029 81 7000 5 260 18:18 16.01.2020
459 Clouds 0 1028 81 7000 5 250 17:56 16.01.2020
460 Clouds 0 1028 81 8000 5 250 17:38 16.01.2020
461 Clouds 0 1028 82 8000 5 250 17:20 16.01.2020
462 Clouds 1 1028 86 9000 5 240 16:40 16.01.2020
463 Clouds 1 1028 86 9000 5 240 16:21 16.01.2020
464 Clouds 1 1028 86 9000 4 240 15:56 16.01.2020
465 Clouds 1 1028 86 10000 5 230 15:38 16.01.2020
466 Clouds 1 1028 86 10000 5 230 15:19 16.01.2020
467 Clouds 1 1028 86 10000 4 240 14:42 16.01.2020
468 Clouds 1 1028 86 10000 4 240 14:23 16.01.2020
469 Clouds 1 1028 86 10000 5 250 13:47 16.01.2020
470 Clouds 1 1028 86 10000 4 240 13:29 16.01.2020
471 Clouds 1 1028 86 9000 4 240 12:57 16.01.2020
472 Clouds 1 1028 86 9000 5 230 12:39 16.01.2020
473 Clouds 1 1028 86 9000 5 230 12:20 16.01.2020
474 Clouds 1 1029 86 9000 6 240 11:42 16.01.2020
475 Clouds 1 1029 86 9000 6 240 11:23 16.01.2020
476 Clouds 1 1029 86 9000 4 230 10:55 16.01.2020
477 Clouds 1 1029 86 8000 5 230 10:37 16.01.2020
478 Clouds 1 1029 86 8000 5 230 10:19 16.01.2020
479 Clouds 1 1029 80 7000 5 220 09:43 16.01.2020
480 Clouds 1 1029 80 7000 5 220 09:24 16.01.2020
481 Clouds 1 1029 80 7000 4 230 08:58 16.01.2020
482 Clouds 1 1029 80 7000 6 230 08:40 16.01.2020
483 Clouds 1 1029 86 7000 6 230 08:19 16.01.2020
484 Clouds 1 1029 86 6000 5 230 07:42 16.01.2020
485 Clouds 1 1029 86 6000 5 230 07:23 16.01.2020
486 Clouds 1 1029 86 7000 5 220 06:52 16.01.2020
487 Clouds 1 1029 86 7000 5 220 06:34 16.01.2020
488 Clouds 1 1029 86 6000 5 220 05:49 16.01.2020
489 Clouds 0 1029 87 6000 5 220 04:50 16.01.2020
490 Clouds 1 1029 86 8000 5 220 03:57 16.01.2020
491 Clouds 1 1029 86 9000 5 220 02:47 16.01.2020
492 Clouds 1 1029 87 10000 4 220 01:34 16.01.2020
493 Clouds 1 1029 87 9000 4 220 00:43 16.01.2020
494 Clouds 2 1029 87 9000 4 220 00:23 16.01.2020
495 Clouds 1 1029 87 9000 4 220 23:45 15.01.2020
496 Clouds 1 1029 85 9000 5 220 23:22 15.01.2020
497 Clouds 2 1030 85 9000 5 220 22:57 15.01.2020
498 Clouds 1 1029 85 7000 5 210 22:38 15.01.2020
499 Clouds 1 1029 85 7000 5 210 22:18 15.01.2020
500 Clouds 1 1030 85 7000 5 210 21:56 15.01.2020
501 Clouds 1 1030 85 7000 5 220 21:37 15.01.2020
502 Clouds 1 1030 85 7000 5 220 21:37 15.01.2020
503 Clouds 1 1030 85 7000 5 220 21:18 15.01.2020
504 Clouds 1 1029 85 7000 5 210 20:55 15.01.2020
505 Clouds 2 1030 85 7000 5 210 20:37 15.01.2020
506 Clouds 2 1030 80 7000 5 210 20:18 15.01.2020
507 Clouds 2 1030 80 7000 5 210 19:54 15.01.2020
508 Clouds 2 1030 80 8000 5 200 19:36 15.01.2020
509 Clouds 2 1030 80 8000 5 200 19:18 15.01.2020
510 Clouds 2 1030 80 8000 5 200 19:18 15.01.2020
511 Clouds 2 1030 80 9000 5 210 18:55 15.01.2020
512 Clouds 2 1030 80 10000 5 210 18:37 15.01.2020
513 Clouds 2 1029 80 9000 5 210 18:19 15.01.2020
514 Clouds 2 1030 80 9000 4 220 17:41 15.01.2020
515 Clouds 2 1030 71 9000 5 220 17:22 15.01.2020
516 Clouds 2 1030 71 9000 5 220 16:57 15.01.2020
517 Clouds 2 1029 71 8000 5 210 16:38 15.01.2020
518 Clouds 2 1029 71 10000 5 200 16:20 15.01.2020
519 Clouds 2 1029 71 8000 5 210 16:20 15.01.2020
520 Clouds 2 1029 71 8000 5 210 16:20 15.01.2020
521 Clouds 2 1029 71 8000 5 210 16:20 15.01.2020
522 Clouds 2 1029 80 9000 5 200 15:43 15.01.2020
523 Clouds 2 1029 80 9000 5 200 15:21 15.01.2020
524 Clouds 2 1029 86 9000 4 200 14:57 15.01.2020
525 Clouds 4 1029 71 10000 5 200 14:39 15.01.2020
526 Clouds 4 1029 63 10000 5 200 14:18 15.01.2020
527 Clouds 4 1029 63 10000 5 200 14:18 15.01.2020
528 Clouds 5 1028 63 10000 4 200 13:44 15.01.2020
529 Clouds 5 1029 65 10000 4 210 13:24 15.01.2020
530 Clouds 5 1029 63 10000 4 210 12:57 15.01.2020
531 Clouds 5 1029 70 10000 5 210 12:39 15.01.2020
532 Clouds 5 1029 70 10000 5 210 12:19 15.01.2020
533 Rain 5 1029 75 10000 4 210 11:55 15.01.2020
534 Clouds 5 1029 63 10000 4 220 11:36 15.01.2020
535 Clouds 5 1029 63 10000 4 220 11:36 15.01.2020
536 Clouds 4 1029 80 10000 5 220 11:18 15.01.2020
537 Clouds 3 1029 86 10000 4 210 10:41 15.01.2020
538 Clouds 3 1029 86 10000 4 210 10:21 15.01.2020
539 Clouds 2 1029 80 9000 4 210 09:42 15.01.2020
540 Clouds 2 1029 80 9000 4 210 09:22 15.01.2020
541 Clouds 1 1029 75 8000 4 200 08:46 15.01.2020
542 Clouds 0 1029 75 8000 4 210 08:28 15.01.2020
543 Clouds -1 1029 91 8000 4 200 07:59 15.01.2020
544 Clouds -1 1028 91 8000 3 200 07:40 15.01.2020
545 Clouds -1 1028 91 8000 3 200 07:21 15.01.2020
546 Clouds -1 1028 91 7000 3 200 06:43 15.01.2020
547 Clouds -1 1028 91 7000 3 200 05:52 15.01.2020
548 Mist -1 1028 100 5000 2 180 03:44 15.01.2020
549 Clouds -1 1028 100 6000 2.53 184 01:50 15.01.2020
550 Mist 0 1027 100 5000 2 140 01:22 15.01.2020
551 Mist -1 1028 100 4200 1 0 00:44 15.01.2020
552 Mist -1 1027 100 3700 1 90 00:25 15.01.2020
553 Mist -1 1027 100 5000 1 0 23:47 14.01.2020
554 Mist -1 1027 100 4000 1 0 23:29 14.01.2020
555 Fog -1 1027 100 3000 1 0 22:58 14.01.2020
556 Mist 0 1027 100 1600 1.97 181 22:40 14.01.2020
557 Mist 0 1027 100 1600 1.97 181 22:19 14.01.2020
558 Mist 0 1027 100 3400 1 0 21:58 14.01.2020
559 Mist -2 1027 100 2100 1 270 21:39 14.01.2020
560 Mist -1 1027 100 2100 1 270 21:19 14.01.2020
561 Fog -1 1027 100 1600 1 0 20:56 14.01.2020
562 Fog 0 1026 100 4100 2 160 20:38 14.01.2020
563 Fog 0 1026 100 4100 2 160 20:18 14.01.2020
564 Fog 0 1026 100 4100 2 160 19:55 14.01.2020
565 Mist 0 1026 100 4300 0.96 168 19:37 14.01.2020
566 Mist 0 1026 100 4300 0.96 168 19:18 14.01.2020
567 Mist 0 1026 100 4300 0.96 168 19:18 14.01.2020
568 Mist 1 1026 92 3600 1 0 18:41 14.01.2020
569 Mist 0 1026 92 3600 1 0 18:20 14.01.2020
570 Mist 0 1026 92 3600 1 0 17:58 14.01.2020
571 Mist 1 1026 93 4400 1 210 17:37 14.01.2020
572 Mist 1 1026 93 4400 1 210 17:18 14.01.2020
573 Clear 2 1025 93 7000 1.19 246 16:43 14.01.2020
574 Clear 3 1025 93 7000 1.19 246 16:23 14.01.2020
575 Clear 3 1025 93 7000 1.19 246 16:23 14.01.2020
576 Clear 3 1025 86 10000 1.19 246 15:58 14.01.2020
577 Clear 5 1025 75 10000 1 0 15:40 14.01.2020
578 Clear 5 1024 75 10000 2 280 15:19 14.01.2020
579 Clear 5 1024 75 10000 2 280 14:44 14.01.2020
580 Clouds 6 1024 70 10000 2 270 14:21 14.01.2020
581 Clouds 6 1024 70 10000 3 280 13:57 14.01.2020
582 Clouds 6 1023 80 10000 3 280 13:38 14.01.2020
583 Clouds 6 1023 80 10000 3 280 13:18 14.01.2020
584 Clouds 5 1024 80 10000 3 280 12:41 14.01.2020
585 Clouds 5 1023 80 10000 4 260 12:21 14.01.2020
586 Clouds 4 1023 80 10000 4 260 11:55 14.01.2020
587 Clouds 4 1023 80 10000 5 270 11:36 14.01.2020
588 Clouds 4 1023 86 10000 4 270 11:18 14.01.2020
589 Clouds 3 1023 86 10000 3 250 10:40 14.01.2020
590 Clouds 3 1023 86 10000 3 250 10:20 14.01.2020
591 Clouds 3 1023 86 10000 3 240 09:58 14.01.2020
592 Clouds 3 1023 86 10000 3 240 09:40 14.01.2020
593 Clouds 3 1023 93 9000 3 240 09:21 14.01.2020
594 Clouds 3 1023 93 9000 3 240 08:48 14.01.2020
595 Clouds 2 1023 93 9000 3 240 08:25 14.01.2020
596 Clouds 2 1023 93 9000 3 230 07:56 14.01.2020
597 Clouds 2 1023 93 9000 3 240 07:34 14.01.2020
598 Clouds 2 1022 93 9000 3 240 06:56 14.01.2020
599 Clouds 2 1022 93 9000 3 220 06:34 14.01.2020
600 Clouds 2 1022 93 10000 3 260 05:28 14.01.2020
601 Clouds 3 1022 93 10000 3 240 03:52 14.01.2020
602 Clouds 3 1022 93 10000 3 240 03:52 14.01.2020
603 Clouds 3 1022 93 9000 2 250 02:50 14.01.2020
604 Clouds 3 1022 86 9000 2 220 01:56 14.01.2020
605 Clouds 3 1022 93 9000 2 240 00:52 14.01.2020
606 Clouds 3 1022 93 8000 3 260 00:33 14.01.2020
607 Clouds 3 1022 86 8000 2 260 23:55 13.01.2020
608 Clouds 3 1022 86 9000 3 260 23:37 13.01.2020
609 Clouds 3 1022 86 9000 3 260 23:18 13.01.2020
610 Clouds 3 1022 86 9000 2 250 22:42 13.01.2020
611 Clouds 3 1022 86 9000 3 260 22:21 13.01.2020
612 Clouds 3 1022 86 9000 3 260 21:57 13.01.2020
613 Clouds 3 1022 86 9000 3 260 21:38 13.01.2020
614 Clouds 3 1022 86 9000 3 260 21:19 13.01.2020
615 Clouds 3 1022 86 10000 3 260 20:59 13.01.2020
616 Clouds 3 1022 86 10000 3 260 20:59 13.01.2020
617 Clouds 3 1022 86 10000 3 260 20:59 13.01.2020
618 Clouds 3 1022 86 10000 3 260 20:41 13.01.2020
619 Clouds 3 1022 86 10000 3 260 20:22 13.01.2020
620 Clouds 3 1022 86 10000 3 260 20:22 13.01.2020
621 Clouds 3 1022 86 10000 3 270 19:59 13.01.2020
622 Clouds 3 1022 86 10000 3 270 19:39 13.01.2020
623 Clouds 3 1022 86 10000 3 270 19:20 13.01.2020
624 Clouds 3 1022 86 10000 3 270 19:20 13.01.2020
625 Clouds 3 1022 86 10000 3 270 18:56 13.01.2020
626 Clouds 3 1021 86 10000 3 260 18:37 13.01.2020
627 Clouds 3 1021 86 10000 3 260 18:19 13.01.2020
628 Clouds 3 1021 86 10000 5 280 17:43 13.01.2020
629 Clouds 3 1021 86 10000 5 280 17:25 13.01.2020
630 Clouds 3 1020 85 0 3.67 283 16:57 13.01.2020
631 Clouds 3 992 85 0 3.67 283 16:38 13.01.2020
632 Clouds 4 1021 85 0 0.45 75 16:20 13.01.2020
633 Clouds 4 1019 85 0 3.67 283 15:44 13.01.2020
634 Clouds 4 1020 84 0 3.67 283 15:24 13.01.2020
635 Clouds 4 1019 85 0 3.67 283 14:59 13.01.2020
636 Clouds 4 1020 82 0 0.89 273 14:39 13.01.2020
637 Clouds 4 1019 85 0 3.67 283 14:39 13.01.2020
638 Clouds 4 1020 82 0 0.89 273 14:39 13.01.2020
639 Clouds 4 1020 84 0 0.45 78 14:20 13.01.2020
640 Clouds 4 1020 84 0 0.89 314 13:55 13.01.2020
641 Clouds 4 1018 75 0 5.42 288 13:37 13.01.2020
642 Clouds 4 991 75 0 5.42 288 13:19 13.01.2020
643 Clouds 3 1019 75 10000 8 300 12:43 13.01.2020
644 Clouds 3 1019 75 10000 8 300 12:23 13.01.2020
645 Clouds 3 1019 75 10000 8 300 11:57 13.01.2020
646 Clouds 3 1019 74 10000 6 290 11:37 13.01.2020
647 Clouds 3 1019 74 10000 6 290 11:19 13.01.2020
648 Clouds 3 1019 74 10000 6 280 10:56 13.01.2020
649 Clouds 3 1019 74 10000 7 270 10:37 13.01.2020
650 Clouds 3 1019 74 10000 7 270 10:19 13.01.2020
651 Clouds 3 1018 80 10000 6 270 09:44 13.01.2020
652 Clouds 2 1018 86 10000 6 270 09:24 13.01.2020
653 Clouds 2 1018 86 10000 6 270 08:57 13.01.2020
654 Clouds 2 1018 86 10000 6 270 08:57 13.01.2020
655 Clouds 1 1018 86 10000 7 270 08:37 13.01.2020
656 Clouds 1 1018 86 10000 5 270 08:18 13.01.2020
657 Clouds 1 1018 86 10000 5 260 07:43 13.01.2020
658 Clouds 1 1018 86 10000 5 260 07:24 13.01.2020
659 Clouds 1 1018 86 10000 5 260 06:37 13.01.2020
660 Clouds 1 1018 86 10000 5 260 06:37 13.01.2020
661 Clouds 1 1019 86 10000 5 260 05:37 13.01.2020
662 Clouds 1 1019 86 10000 5 260 05:18 13.01.2020
663 Clouds 1 1019 86 10000 6 260 03:41 13.01.2020
664 Clouds 0 1020 86 10000 5 260 02:50 13.01.2020
665 Clouds 0 1020 86 10000 5 260 02:30 13.01.2020
666 Clouds 0 1020 86 10000 5 260 01:33 13.01.2020
667 Clouds 0 1020 86 10000 5 250 00:46 13.01.2020
668 Clouds 0 1020 81 10000 5 260 00:26 13.01.2020
669 Clouds 0 1020 86 10000 5 260 23:58 12.01.2020
670 Clouds 0 1021 86 10000 4 250 23:40 12.01.2020
671 Clouds 0 1021 86 10000 4 250 23:21 12.01.2020
672 Clouds 0 1021 86 10000 4 250 22:56 12.01.2020
673 Clouds 1 1021 86 10000 4 250 22:37 12.01.2020
674 Clouds 1 1021 86 10000 4 250 22:18 12.01.2020
675 Clouds 1 1021 86 10000 4 260 21:42 12.01.2020
676 Clouds 1 1021 86 10000 4 260 21:20 12.01.2020
677 Clouds 1 1022 86 10000 8 270 20:59 12.01.2020
678 Clouds 1 1022 86 10000 7 260 20:39 12.01.2020
679 Clouds 1 1022 86 10000 7 260 20:21 12.01.2020
680 Clouds 1 1022 86 10000 7 260 19:57 12.01.2020
681 Clouds 1 1022 86 10000 7 250 19:38 12.01.2020
682 Clouds 1 1022 86 10000 7 250 19:19 12.01.2020
683 Clouds 1 1022 86 10000 7 250 19:19 12.01.2020
684 Clouds 1 1022 80 10000 6 250 18:58 12.01.2020
685 Clouds 1 1023 80 10000 6 250 18:40 12.01.2020
686 Clouds 1 1023 80 10000 6 250 18:21 12.01.2020
687 Clouds 1 1023 80 10000 5 250 17:59 12.01.2020
688 Clouds 1 1023 80 10000 6 250 17:40 12.01.2020
689 Clouds 1 1023 80 10000 6 250 17:19 12.01.2020
690 Clouds 1 1024 80 10000 6 260 16:56 12.01.2020
691 Clouds 0 1024 81 10000 6 250 16:56 12.01.2020
692 Clouds 0 1024 81 10000 6 250 16:37 12.01.2020
693 Clouds 0 1024 81 10000 6 250 16:19 12.01.2020
694 Clouds 0 1024 81 10000 6 250 15:43 12.01.2020
695 Clouds 0 1024 81 10000 7 250 15:24 12.01.2020
696 Clouds 0 1025 81 10000 6 260 14:57 12.01.2020
697 Clouds 1 1025 81 10000 7 260 14:38 12.01.2020
698 Clouds 1 1025 71 10000 7 260 14:20 12.01.2020
699 Clouds 2 1025 80 10000 6 260 13:54 12.01.2020
700 Clouds 1 1025 80 10000 6 250 13:36 12.01.2020
701 Clouds 1 1026 80 10000 6 260 13:18 12.01.2020
702 Clouds 1 1026 80 10000 6 270 12:42 12.01.2020
703 Clouds 2 1026 80 10000 6 270 12:20 12.01.2020
704 Clouds 1 1026 80 10000 5 270 11:59 12.01.2020
705 Clouds 1 1027 80 10000 6 270 11:39 12.01.2020
706 Clouds 1 1027 80 10000 6 270 11:20 12.01.2020
707 Clouds 0 1027 70 10000 5 290 10:42 12.01.2020
708 Clouds 0 1027 70 10000 5 290 10:22 12.01.2020
709 Clouds 0 1027 70 10000 5 320 09:57 12.01.2020
710 Clouds 0 1028 70 10000 6 310 09:39 12.01.2020
711 Clouds 0 1028 70 10000 6 310 09:20 12.01.2020
712 Clouds 0 1027 70 10000 5 310 08:45 12.01.2020
713 Clouds 0 1027 83 10000 4 310 08:21 12.01.2020
714 Clouds -1 1027 92 10000 5 320 07:42 12.01.2020
715 Clouds -1 1027 92 10000 5 320 07:24 12.01.2020
716 Clouds -1 1027 81 10000 4 320 06:49 12.01.2020
717 Clouds -1 1027 81 10000 4 320 06:30 12.01.2020
718 Clouds 0 1027 81 10000 4 320 05:37 12.01.2020
719 Clouds 0 1027 81 10000 5 320 04:30 12.01.2020
720 Clouds 0 1026 81 10000 4 330 03:27 12.01.2020
721 Clouds 0 1026 81 10000 3 330 02:34 12.01.2020
722 Clouds 0 1025 77 10000 4 340 01:55 12.01.2020
723 Clouds 0 1025 80 10000 4 340 01:29 12.01.2020
724 Clouds 1 1024 80 10000 4 10 00:42 12.01.2020
725 Clouds 1 1024 80 10000 4 10 00:20 12.01.2020
726 Clouds 2 1024 74 10000 5 360 23:42 11.01.2020
727 Clouds 2 1024 74 10000 5 360 23:42 11.01.2020
728 Clouds 2 1024 74 10000 5 360 23:42 11.01.2020
729 Clouds 2 1024 74 10000 5 360 23:20 11.01.2020
730 Clouds 2 1024 74 10000 6 360 22:59 11.01.2020
731 Clouds 2 1023 80 10000 5 10 22:41 11.01.2020
732 Clouds 2 1023 80 10000 6 10 22:20 11.01.2020
733 Clouds 2 1023 80 10000 6 10 21:58 11.01.2020
734 Snow 2 1022 73 9000 5 10 21:40 11.01.2020
735 Snow 2 1021 73 10000 6 10 21:18 11.01.2020
736 Clouds 2 1021 73 10000 6 20 20:42 11.01.2020
737 Clouds 2 1021 85 10000 6 20 20:22 11.01.2020
738 Clouds 2 1020 85 10000 8 20 19:58 11.01.2020
739 Clouds 3 1020 86 10000 8 20 19:39 11.01.2020
740 Clouds 3 1020 86 10000 8 20 19:39 11.01.2020
741 Clouds 3 1020 86 10000 8 20 19:21 11.01.2020
742 Drizzle 3 1019 86 6000 8 10 18:59 11.01.2020
743 Clouds 5 1017 93 9000 6 300 18:39 11.01.2020
744 Clouds 5 1017 93 9000 6 300 18:20 11.01.2020
745 Clouds 6 1017 87 10000 6 300 17:58 11.01.2020
746 Clouds 6 1017 87 10000 6 300 17:58 11.01.2020
747 Clouds 6 1016 87 10000 6 290 17:39 11.01.2020
748 Clouds 6 1016 87 10000 6 290 17:19 11.01.2020
749 Clouds 6 1016 87 10000 6 290 16:46 11.01.2020
750 Clouds 6 1016 87 10000 6 290 16:27 11.01.2020
751 Clouds 6 1016 87 10000 6 290 15:59 11.01.2020
752 Clouds 6 1016 87 10000 6 280 15:41 11.01.2020
753 Clouds 6 1016 87 10000 6 280 15:22 11.01.2020
754 Clouds 6 1015 87 10000 6 280 14:57 11.01.2020
755 Clouds 7 1015 81 10000 7 280 14:38 11.01.2020
756 Clouds 7 1015 81 10000 6 280 14:20 11.01.2020
757 Clouds 7 1015 81 10000 6 300 13:41 11.01.2020
758 Clouds 7 1015 81 10000 6 300 13:20 11.01.2020
759 Clouds 7 1015 81 10000 6 290 12:58 11.01.2020
760 Clouds 7 1015 81 10000 6 290 12:40 11.01.2020
761 Clouds 7 1015 81 10000 6 290 12:21 11.01.2020
762 Clouds 6 1015 93 9000 6 280 11:48 11.01.2020
763 Clouds 6 1015 93 9000 6 280 11:26 11.01.2020
764 Clouds 6 1014 93 10000 6 280 10:51 11.01.2020
765 Clouds 6 1015 93 7000 7 280 10:30 11.01.2020
766 Clouds 5 1015 93 7000 7 280 09:58 11.01.2020
767 Clouds 5 1015 93 6000 7 280 09:38 11.01.2020
768 Clouds 5 1015 93 6000 7 280 09:20 11.01.2020
769 Mist 5 1014 93 4200 6 280 08:42 11.01.2020
770 -273 0 0 0 0 0 08:22 11.01.2020
771 Drizzle 4 1014 100 2600 6 270 07:44 11.01.2020
772 Drizzle 4 1014 100 2600 6 270 07:25 11.01.2020
773 Drizzle 4 1014 100 4600 6 270 06:51 11.01.2020
774 Drizzle 4 1014 93 6000 6 270 05:48 11.01.2020
775 Mist 3 1014 100 4800 5 250 04:47 11.01.2020
776 Mist 3 1014 100 4800 5 250 04:28 11.01.2020
777 Mist 3 1015 100 3600 5 260 02:49 11.01.2020
778 Mist 3 1015 100 3300 5 260 02:27 11.01.2020
779 Drizzle 3 1015 100 4500 5 260 01:43 11.01.2020
780 Drizzle 3 1015 100 3900 4 250 01:19 11.01.2020
781 Mist 2 1015 100 4700 4 250 00:40 11.01.2020
782 Drizzle 2 1015 100 3300 4 260 23:59 10.01.2020
783 Drizzle 2 1015 100 2800 4 250 23:40 10.01.2020
784 Drizzle 2 1015 100 2800 4 250 23:22 10.01.2020
785 Drizzle 2 1016 100 2400 4 250 22:58 10.01.2020
786 Drizzle 2 1016 100 3600 4 240 22:40 10.01.2020
787 Drizzle 2 1016 100 3600 4 240 22:20 10.01.2020
788 Drizzle 2 1016 100 2700 4 240 21:57 10.01.2020
789 Drizzle 2 1016 100 2600 3 240 21:37 10.01.2020
790 Drizzle 2 1016 100 2600 3 240 21:19 10.01.2020
791 Drizzle 2 1016 100 2700 3 240 20:43 10.01.2020
792 Drizzle 2 1016 100 2700 3 240 20:24 10.01.2020
793 Drizzle 2 1016 100 3400 2 230 19:58 10.01.2020
794 Drizzle 2 1016 100 3500 3 230 19:38 10.01.2020
795 Drizzle 2 1016 100 3300 3 230 19:19 10.01.2020
796 Drizzle 2 1016 100 3300 3 220 18:43 10.01.2020
797 Drizzle 2 1016 100 3300 3 220 18:19 10.01.2020
798 Drizzle 2 1017 100 3700 3 220 17:57 10.01.2020
799 Drizzle 2 1017 100 3700 3 220 17:57 10.01.2020
800 Drizzle 2 1016 100 3500 3 230 17:39 10.01.2020
801 Drizzle 2 1016 100 3500 3 230 17:20 10.01.2020
802 Drizzle 2 1017 100 3500 4 230 16:57 10.01.2020
803 Mist 2 1017 100 3900 4 220 16:38 10.01.2020
804 Mist 2 1017 100 3900 4 220 16:19 10.01.2020
805 Mist 2 1017 100 5000 4 220 15:56 10.01.2020
806 Rain 2 1017 100 4400 4 220 15:36 10.01.2020
807 Rain 2 1017 100 4400 4 220 15:18 10.01.2020
808 Rain 2 1017 100 3700 3 220 14:55 10.01.2020
809 Rain 2 1017 100 2400 4 220 14:37 10.01.2020
810 Rain 2 1017 100 2400 4 220 14:18 10.01.2020
811 Rain 2 1017 100 2700 4 220 13:43 10.01.2020
812 Rain 2 1017 100 2700 4 220 13:25 10.01.2020
813 Rain 2 1017 100 2700 4 210 12:58 10.01.2020
814 Rain 2 1017 100 5000 4 220 12:39 10.01.2020
815 Rain 2 1017 100 5000 4 220 12:39 10.01.2020
816 Rain 2 1017 100 5000 4 220 12:19 10.01.2020
817 Clouds 2 1018 100 8000 3 220 11:55 10.01.2020
818 Rain 2 1018 100 9000 3 220 11:37 10.01.2020
819 Rain 2 1018 100 9000 3 220 11:18 10.01.2020
820 Rain 2 1019 100 6000 4 210 10:57 10.01.2020
821 Rain 1 1019 100 8000 3 210 10:36 10.01.2020
822 Rain 1 1019 100 8000 3 210 10:18 10.01.2020
823 Rain 1 1019 100 5000 4 180 09:42 10.01.2020
824 Rain 1 1019 100 5000 4 180 09:23 10.01.2020
825 Snow 0 1019 97 5000 2 200 08:43 10.01.2020
826 Snow 0 1019 94 5000 2 200 08:24 10.01.2020
827 Clouds 0 1019 94 6000 2 200 07:47 10.01.2020
828 Clouds 0 1019 94 7000 2 200 07:28 10.01.2020
829 Clouds 0 1019 94 7000 2 200 06:55 10.01.2020
830 Mist 0 1019 94 5000 2 230 06:27 10.01.2020
831 Mist 0 1019 94 1700 3 240 05:52 10.01.2020
832 Mist 1 1020 100 2600 2 230 03:47 10.01.2020
833 Mist 1 1020 100 5000 2 230 03:28 10.01.2020
834 Clouds 1 1020 100 7000 2 240 02:51 10.01.2020
835 Mist 1 1021 100 5000 1 0 01:52 10.01.2020
836 Mist 1 1021 100 4300 1 0 01:28 10.01.2020
837 Mist 1 1021 100 3900 1 0 00:47 10.01.2020
838 Mist 1 1021 100 4200 1 0 00:29 10.01.2020
839 Clouds 1 1020 100 6000 1 0 23:39 09.01.2020
840 Clouds 1 1020 100 6000 1 0 23:39 09.01.2020
841 Clouds 1 1020 100 6000 1 0 23:39 09.01.2020
842 Clouds 1 1020 100 6000 1 0 23:39 09.01.2020
843 Clouds 1 1020 100 6000 1 0 23:20 09.01.2020
844 Clouds 2 1021 100 6000 1 0 22:58 09.01.2020
845 Mist 1 1021 100 3800 1 350 22:39 09.01.2020
846 Mist 2 1021 100 3800 1 350 22:19 09.01.2020
847 Fog 2 1021 100 650 2 320 21:57 09.01.2020
848 Fog 2 1021 100 900 2 320 21:38 09.01.2020
849 Fog 2 1022 100 650 2 300 21:20 09.01.2020
850 Fog 2 1022 100 650 2 300 20:58 09.01.2020
851 Fog 2 1022 100 650 2 300 20:39 09.01.2020
852 Fog 2 1022 100 400 2 290 20:20 09.01.2020
853 Fog 1 1021 100 350 2 290 19:58 09.01.2020
854 Fog 2 1021 100 450 2 290 19:38 09.01.2020
855 Fog 2 1021 100 450 2 290 19:19 09.01.2020
856 Fog 1 1021 100 450 2 280 18:55 09.01.2020
857 Fog 1 1021 100 450 2 280 18:55 09.01.2020
858 Fog 1 1021 100 750 3 270 18:37 09.01.2020
859 Fog 1 1021 100 750 3 270 18:19 09.01.2020
860 Mist 1 1021 100 1300 2 270 17:41 09.01.2020
861 Mist 1 1021 100 1300 2 270 17:41 09.01.2020
862 Mist 1 1021 100 3500 2 290 17:18 09.01.2020
863 Mist 1 1021 100 3500 2 290 16:55 09.01.2020
864 Mist 1 1021 100 4600 3 300 16:36 09.01.2020
865 Mist 1 1021 100 4600 3 300 16:18 09.01.2020
866 Mist 1 1020 100 4500 3 260 15:41 09.01.2020
867 Clouds 1 1020 100 6000 4 270 15:19 09.01.2020
868 Mist 1 1020 100 5000 4 270 14:44 09.01.2020
869 Mist 1 1020 100 5000 4 270 14:22 09.01.2020
870 Mist 1 1020 100 5000 4 280 13:58 09.01.2020
871 Rain 1 1020 100 5000 4 280 13:39 09.01.2020
872 Rain 1 1020 100 5000 4 280 13:21 09.01.2020
873 Drizzle 1 1020 100 2700 4 270 12:59 09.01.2020
874 Drizzle 1 1020 100 2000 4 280 12:40 09.01.2020
875 Drizzle 1 1020 100 2000 4 280 12:22 09.01.2020
876 Drizzle 1 1020 95 3300 4 280 11:57 09.01.2020
877 Drizzle 1 1020 95 2600 4 280 11:38 09.01.2020
878 Drizzle 1 1020 93 2600 4 280 11:20 09.01.2020
879 Drizzle 0 1020 93 2500 4 260 10:44 09.01.2020
880 Mist 0 1021 93 3200 5 270 10:22 09.01.2020
881 Drizzle 0 1021 93 3200 5 270 09:58 09.01.2020
882 Mist 0 1021 93 3300 5 260 09:38 09.01.2020
883 Mist 0 1021 93 3300 5 260 09:19 09.01.2020
884 Mist 0 1021 93 2500 4 260 08:55 09.01.2020
885 Mist 0 1021 93 2800 5 260 08:37 09.01.2020
886 Mist 0 1021 86 2800 5 260 08:19 09.01.2020
887 Mist 0 1020 86 5000 5 260 07:42 09.01.2020
888 Snow 0 1020 86 8000 4 250 07:23 09.01.2020
889 Snow 0 1021 86 3300 4 250 06:39 09.01.2020
890 Snow 0 1021 86 3300 4 250 06:20 09.01.2020
891 Snow 0 1021 86 2600 5 250 05:48 09.01.2020
892 Clouds 0 1021 87 10000 4 260 04:43 09.01.2020
893 Clouds 0 1022 87 10000 3 250 03:31 09.01.2020
894 Clouds 0 1022 87 10000 3 230 02:53 09.01.2020
895 Snow 0 1022 87 7000 2 240 02:24 09.01.2020
896 Snow 0 1023 87 10000 4 250 01:39 09.01.2020
897 Clouds -1 1024 80 10000 5 260 00:43 09.01.2020
898 Clouds -1 1024 80 10000 5 260 00:21 09.01.2020
899 Clouds -1 1024 80 10000 5 260 00:21 09.01.2020
900 Clouds 0 1024 87 10000 3 260 23:42 08.01.2020
901 Clouds -1 1024 74 10000 3 260 23:24 08.01.2020
902 Clouds -1 1024 74 10000 3 260 22:59 08.01.2020
903 Clouds -1 1025 74 10000 4 260 22:39 08.01.2020
904 Clouds -1 1025 74 10000 3 250 22:20 08.01.2020
905 Clouds -1 1025 74 10000 3 250 21:57 08.01.2020
906 Clouds -1 1025 74 10000 3 240 21:38 08.01.2020
907 Clouds -1 1025 74 10000 3 240 21:19 08.01.2020
908 Clouds -1 1025 68 10000 3 230 20:57 08.01.2020
909 Clouds -2 1025 68 10000 2 260 20:38 08.01.2020
910 Clouds -2 1025 68 10000 2 260 20:20 08.01.2020
911 Clouds -2 1025 68 10000 2 250 19:56 08.01.2020
912 Clouds -2 1025 68 10000 2 250 19:56 08.01.2020
913 Clouds -2 1025 68 10000 2 230 19:36 08.01.2020
914 Clouds -2 1025 68 10000 2 230 19:36 08.01.2020
915 Clouds -1 1025 68 10000 2 230 19:18 08.01.2020
916 Clouds -1 1026 68 10000 2 250 18:55 08.01.2020
917 Clouds -1 1026 68 10000 2 250 18:55 08.01.2020
918 Clouds -1 1026 68 10000 2 250 18:55 08.01.2020
919 Clouds -1 1026 63 10000 3 230 18:36 08.01.2020
920 Clouds -1 1026 63 10000 3 230 18:18 08.01.2020
921 Clouds -1 1026 63 10000 3 230 17:45 08.01.2020
922 Clouds -1 1026 68 9000 3 220 17:24 08.01.2020
923 Clouds -1 1027 58 10000 3 220 16:57 08.01.2020
924 Clouds 0 1027 76 10000 3 250 16:39 08.01.2020
925 Clouds 0 1027 76 10000 3 250 16:19 08.01.2020
926 Clouds 0 1027 76 10000 2 240 15:57 08.01.2020
927 Clouds 1 1027 50 10000 3 260 15:39 08.01.2020
928 Clouds 1 1027 50 10000 3 260 15:18 08.01.2020
929 Clouds 2 1027 51 10000 3 270 14:55 08.01.2020
930 Clouds 3 1027 47 10000 3 240 14:36 08.01.2020
931 Clouds 3 1027 47 10000 3 240 14:18 08.01.2020
932 Clouds 3 1027 55 10000 4 260 13:38 08.01.2020
933 Clouds 3 1027 55 10000 4 260 13:18 08.01.2020
934 Clouds 3 1027 74 10000 4 250 12:41 08.01.2020
935 Clouds 2 1027 74 10000 4 250 12:18 08.01.2020
936 Clouds 2 1028 74 10000 3 250 11:55 08.01.2020
937 Clouds 2 1028 80 10000 4 260 11:36 08.01.2020
938 Clouds 1 1028 80 10000 4 260 11:18 08.01.2020
939 Clouds 0 1029 73 8000 4 260 10:41 08.01.2020
940 Clouds 0 1029 73 8000 4 260 10:22 08.01.2020
941 Mist 0 1029 100 5000 3 260 09:58 08.01.2020
942 Mist -1 1029 92 4900 2 230 09:38 08.01.2020
943 Mist -1 1029 92 4900 2 230 09:18 08.01.2020
944 Mist -1 1030 92 4400 2 250 08:42 08.01.2020
945 Mist -2 1030 92 4400 2 250 08:24 08.01.2020
946 Mist -3 1029 100 3700 2 240 07:59 08.01.2020
947 Mist -3 1029 100 3700 2 240 07:41 08.01.2020
948 Mist -3 1030 100 2900 1 260 07:23 08.01.2020
949 Mist -4 1029 100 5000 2 250 06:44 08.01.2020
950 Mist -4 1029 100 4100 2 240 05:57 08.01.2020
951 Mist -4 1029 92 4200 1 220 05:27 08.01.2020
952 Mist -5 1029 92 4000 1.86 264 04:39 08.01.2020
953 Mist -5 1029 92 3100 1.86 264 03:31 08.01.2020
954 Mist -5 1030 92 3200 1 230 02:36 08.01.2020
955 Mist -5 1030 92 3200 1 230 02:18 08.01.2020
956 Mist -5 1030 92 3200 1 230 02:18 08.01.2020
957 Mist -5 1030 92 2900 1 220 01:39 08.01.2020
958 Mist -6 1030 92 3000 1 0 00:52 08.01.2020
959 Mist -4 1029 92 3200 1 220 00:24 08.01.2020
960 Mist -4 1029 92 3000 1 240 23:46 07.01.2020
961 Mist -4 1029 92 3000 1 240 23:22 07.01.2020
962 Mist -5 1029 92 3000 1 240 22:58 07.01.2020
963 Mist -4 1029 100 2500 1 230 22:38 07.01.2020
964 Mist -4 1029 100 2500 1 230 22:19 07.01.2020
965 Mist -4 1029 100 2500 1 230 22:19 07.01.2020
966 Fog -4 1029 92 2400 1.21 272 21:42 07.01.2020
967 Fog -5 1029 100 2400 1 250 21:23 07.01.2020
968 Mist -4 1029 92 3200 1.21 272 20:58 07.01.2020
969 Mist -5 1028 100 2500 1.21 272 20:40 07.01.2020
970 Mist -4 1028 100 2500 1.12 292 20:22 07.01.2020
971 Mist -3 1029 100 2800 1.19 277 19:57 07.01.2020
972 Mist -4 1028 100 2800 1.19 277 19:38 07.01.2020
973 Mist -3 1028 100 2800 1.19 277 19:19 07.01.2020
974 Mist -3 1029 100 3100 1 260 18:56 07.01.2020
975 Mist -3 1028 100 3400 2 240 18:38 07.01.2020
976 Mist -3 1028 100 3400 2 240 18:18 07.01.2020
977 Mist -3 1028 100 3400 2 240 18:18 07.01.2020
978 Mist -3 1028 100 3400 2 240 18:18 07.01.2020
979 Mist -2 1028 92 5000 2 270 17:55 07.01.2020
980 Mist -2 1028 92 5000 2 270 17:36 07.01.2020
981 Mist -2 1028 92 5000 2 270 17:18 07.01.2020
982 Mist -2 1028 92 5000 2 270 16:55 07.01.2020
983 Clear -2 1028 92 8000 2 270 16:36 07.01.2020
984 Clear -2 1028 92 8000 2 270 16:18 07.01.2020
985 Clear -1 1028 86 9000 2 250 15:42 07.01.2020
986 Clear -1 1027 86 10000 2 250 15:24 07.01.2020
987 Clear 0 1027 74 10000 1 270 14:58 07.01.2020
988 Clear 0 1027 74 10000 1 270 14:38 07.01.2020
989 Clear 1 1027 66 10000 2 280 14:20 07.01.2020
990 Clouds 1 1027 66 10000 1 0 13:46 07.01.2020
991 Clouds 1 1027 66 10000 2 250 13:20 07.01.2020
992 Clouds 1 1027 66 10000 2 250 13:20 07.01.2020
993 Clear 1 1027 66 10000 1 0 12:56 07.01.2020
994 Clear 1 1027 66 10000 2 260 12:37 07.01.2020
995 Clear 0 1027 66 10000 2 260 12:18 07.01.2020
996 Clear 0 1027 86 10000 2 250 11:41 07.01.2020
997 Clear 0 1027 86 10000 2 250 11:22 07.01.2020
998 Clear 0 1027 70 10000 2 240 10:56 07.01.2020
999 Clear -1 1027 86 10000 2 270 10:37 07.01.2020
1000 Clear -1 1027 86 10000 2 270 10:19 07.01.2020
1001 Clear -2 1027 92 8000 2 270 09:39 07.01.2020
1002 Clear -2 1027 92 8000 2 270 09:20 07.01.2020
1003 Clear -3 1027 92 6000 2 240 08:57 07.01.2020
1004 Clear -4 1027 92 8000 2 250 08:37 07.01.2020
1005 Clear -4 1027 92 8000 2 250 08:37 07.01.2020
1006 Clear -4 1027 92 8000 2 250 08:18 07.01.2020
1007 Clear -5 1027 100 7000 2 230 07:42 07.01.2020
1008 Clear -5 1027 100 7000 2 230 07:42 07.01.2020
1009 Clear -5 1027 100 7000 2 230 06:57 07.01.2020
1010 Clear -5 1027 92 7000 2 250 06:35 07.01.2020
1011 Clear -5 1027 92 7000 2 230 05:59 07.01.2020
1012 Clear -5 1027 92 7000 2 230 05:40 07.01.2020
1013 Mist -5 1027 100 5000 2 250 03:45 07.01.2020
1014 Clear -5 1027 92 6000 2 230 02:47 07.01.2020
1015 Clear -4 1027 92 6000 2 240 01:59 07.01.2020
1016 Clear -4 1027 100 6000 1 230 01:36 07.01.2020
1017 Clear -4 1027 100 6000 1 220 00:55 07.01.2020
1018 Mist -3 1027 92 5000 2 240 00:20 07.01.2020
1019 Clouds -3 1027 92 7000 1 250 23:56 06.01.2020
1020 Clouds -2 1028 86 9000 2 260 23:37 06.01.2020
1021 Clouds -2 1028 86 9000 2 260 23:19 06.01.2020
1022 Clouds -3 1028 92 8000 2 250 22:43 06.01.2020
1023 Clouds -2 1028 86 7000 2 250 22:24 06.01.2020
1024 Clouds -2 1028 86 7000 2 250 22:24 06.01.2020
1025 Clouds -2 1028 86 7000 2 250 22:24 06.01.2020
1026 Clouds -2 1028 79 9000 1 260 21:58 06.01.2020
1027 Clouds -2 1028 74 10000 1 320 21:39 06.01.2020
1028 Clouds -2 1028 74 10000 1 320 21:20 06.01.2020
1029 Clouds -2 1028 74 10000 1 320 21:20 06.01.2020
1030 Clouds -2 1028 74 10000 1 320 21:20 06.01.2020
1031 Clouds -2 1028 68 10000 2 320 20:57 06.01.2020
1032 Clouds -2 1028 74 10000 3 310 20:38 06.01.2020
1033 Clouds -2 1028 74 10000 3 310 20:20 06.01.2020
1034 Clouds -2 1028 80 10000 3 310 19:56 06.01.2020
1035 Clouds -2 1028 80 10000 3 310 19:38 06.01.2020
1036 Clouds -1 1028 86 10000 3 300 19:20 06.01.2020
1037 Clouds -2 1028 80 10000 1 260 18:48 06.01.2020
1038 Clouds -2 1028 80 10000 2 280 18:22 06.01.2020
1039 Clouds -2 1028 86 8000 2 250 17:58 06.01.2020
1040 Clouds -2 1028 79 8000 2 260 17:38 06.01.2020
1041 Clouds -2 1028 79 8000 2 260 17:18 06.01.2020
1042 Clouds -2 1028 79 8000 2 260 17:18 06.01.2020
1043 Clouds -2 1028 74 10000 2 260 16:44 06.01.2020
1044 Clouds -2 1028 74 10000 2 260 16:25 06.01.2020
1045 Clouds -2 1028 74 10000 2 260 16:25 06.01.2020
1046 Clouds -2 1028 68 10000 3 310 15:59 06.01.2020
1047 Clouds -1 1028 63 10000 3 310 15:39 06.01.2020
1048 Clouds -1 1028 63 10000 3 310 15:19 06.01.2020
1049 Clouds 0 1028 79 10000 3 330 14:57 06.01.2020
1050 Clouds 0 1028 79 10000 3 340 14:39 06.01.2020
1051 Clouds 0 1028 73 10000 3 340 14:18 06.01.2020
1052 Clouds 0 1028 73 10000 5 330 13:42 06.01.2020
1053 Clouds 1 1028 71 10000 4 320 13:22 06.01.2020
1054 Clouds 1 1028 55 10000 3 290 12:59 06.01.2020
1055 Clouds 0 1028 71 10000 3 310 12:41 06.01.2020
1056 Clouds 0 1028 71 10000 3 310 12:20 06.01.2020
1057 Clouds 1 1028 71 10000 5 340 11:56 06.01.2020
1058 Clouds 0 1028 71 10000 5 320 11:38 06.01.2020
1059 Clouds 0 1028 73 10000 5 320 11:20 06.01.2020
1060 Clouds 0 1028 73 10000 5 320 11:20 06.01.2020
1061 Clouds 0 1029 74 10000 4 330 10:42 06.01.2020
1062 Clouds 0 1029 74 10000 4 330 10:21 06.01.2020
1063 Clouds -1 1029 74 10000 4 340 09:42 06.01.2020
1064 Clouds -1 1029 74 10000 4 330 09:24 06.01.2020
1065 Clouds -1 1029 80 10000 4 330 08:58 06.01.2020
1066 Clouds -1 1029 80 10000 4 330 08:58 06.01.2020
1067 Clouds -1 1029 80 10000 4 330 08:58 06.01.2020
1068 Clouds -1 1029 80 10000 4 330 08:39 06.01.2020
1069 Clouds -1 1029 80 10000 4 330 08:21 06.01.2020
1070 Clouds -1 1029 86 10000 5 340 07:46 06.01.2020
1071 Clouds -1 1029 86 10000 4 350 07:21 06.01.2020
1072 Clouds -1 1028 86 10000 4 340 06:38 06.01.2020
1073 Clouds -1 1027 92 10000 4 340 05:49 06.01.2020
1074 Clouds -1 1027 92 10000 4 340 05:28 06.01.2020
1075 Clouds 0 1027 86 10000 4 340 04:24 06.01.2020
1076 Clouds 0 1027 86 10000 4 350 03:51 06.01.2020
1077 Clouds 0 1026 86 10000 4 350 02:29 06.01.2020
1078 Clouds 0 1026 79 10000 5 350 01:54 06.01.2020
1079 Clouds 0 1025 79 10000 5 360 01:31 06.01.2020
1080 Clouds 0 1025 81 10000 5 360 00:48 06.01.2020
1081 Clouds 0 1025 81 10000 5 360 00:29 06.01.2020
1082 Clouds 0 1025 81 10000 5 360 23:58 05.01.2020
1083 Clouds 0 1024 81 10000 5 360 23:39 05.01.2020
1084 Clouds 0 1024 94 10000 5 360 23:21 05.01.2020
1085 Clouds 0 1024 94 10000 4 10 22:40 05.01.2020
1086 Clouds 0 1024 94 10000 4 10 22:21 05.01.2020
1087 Clouds 0 1023 94 10000 5 10 21:58 05.01.2020
1088 Clouds 0 1023 94 10000 5 10 21:40 05.01.2020
1089 Clouds 0 1023 94 10000 5 10 21:20 05.01.2020
1090 Clouds 0 1022 94 10000 4 10 20:58 05.01.2020
1091 Clouds 0 1022 92 10000 4 360 20:39 05.01.2020
1092 Clouds 0 1022 94 10000 4 360 20:39 05.01.2020
1093 Clouds 0 1022 94 10000 4 360 20:19 05.01.2020
1094 Rain 0 1021 94 10000 4 10 19:58 05.01.2020
1095 Rain 1 1021 94 7000 5 10 19:39 05.01.2020
1096 Snow 0 1020 94 2200 4 10 19:20 05.01.2020
1097 Snow 0 1020 94 2200 4 10 18:55 05.01.2020
1098 Snow 1 1020 94 4500 4 10 18:37 05.01.2020
1099 Snow 1 1020 94 4500 4 10 18:19 05.01.2020
1100 Snow 1 1019 94 7000 3 10 17:57 05.01.2020
1101 Rain 1 1019 100 8000 3 350 17:38 05.01.2020
1102 Rain 1 1019 100 8000 3 350 17:38 05.01.2020
1103 Rain 1 1019 100 8000 3 350 17:38 05.01.2020
1104 Rain 1 1019 100 8000 3 350 17:19 05.01.2020
1105 Rain 1 1018 100 8000 3 340 16:56 05.01.2020
1106 Clouds 1 1018 100 9000 3 340 16:38 05.01.2020
1107 Rain 1 1017 100 9000 2 10 16:19 05.01.2020
1108 Rain 1 1017 100 9000 2 10 16:19 05.01.2020
1109 Rain 1 1017 100 9000 2 10 16:19 05.01.2020
1110 Rain 1 1016 100 9000 2 350 15:38 05.01.2020
1111 Rain 1 1017 100 9000 2 10 15:38 05.01.2020
1112 Rain 1 1016 100 9000 2 350 15:20 05.01.2020
1113 Rain 2 1016 93 8000 2 10 14:55 05.01.2020
1114 Rain 2 1015 93 7000 2 20 14:37 05.01.2020
1115 Rain 2 1015 93 7000 2 20 14:37 05.01.2020
1116 Rain 2 1015 93 7000 2 20 14:19 05.01.2020
1117 Rain 2 1015 93 6000 2 10 13:55 05.01.2020
1118 Rain 2 1014 93 6000 2 20 13:37 05.01.2020
1119 Rain 2 1014 93 6000 2 20 13:18 05.01.2020
1120 Rain 2 1014 93 6000 2 20 13:18 05.01.2020
1121 Rain 2 1014 93 6000 2 20 13:18 05.01.2020
1122 Rain 2 1014 93 10000 2 10 12:55 05.01.2020
1123 Rain 2 1013 93 10000 3 40 12:37 05.01.2020
1124 Rain 2 1013 93 10000 3 40 12:18 05.01.2020
1125 Clouds 2 1013 89 10000 2 60 11:43 05.01.2020
1126 Clouds 2 1013 89 10000 2 60 11:43 05.01.2020
1127 Clouds 2 1013 89 10000 2 30 11:43 05.01.2020
1128 Clouds 2 1013 89 10000 2 60 11:43 05.01.2020
1129 Clouds 2 1013 89 10000 2 30 11:43 05.01.2020
1130 Clouds 2 1013 92 10000 2 30 11:19 05.01.2020
1131 Clouds 2 1013 92 9000 2 10 10:58 05.01.2020
1132 Clouds 2 1012 92 10000 2 320 10:39 05.01.2020
1133 Clouds 2 1012 92 10000 2 320 10:39 05.01.2020
1134 Clouds 1 1012 92 10000 2 310 10:18 05.01.2020
1135 Clouds 2 1012 92 10000 2 310 09:41 05.01.2020
1136 Clouds 1 1012 92 10000 2 280 09:22 05.01.2020
1137 Clouds 1 1012 92 10000 1 290 08:49 05.01.2020
1138 Clouds 0 1011 98 9000 2 290 08:30 05.01.2020
1139 Snow 0 1011 96 8000 3 270 07:56 05.01.2020
1140 Clouds 0 1010 96 10000 1 240 07:37 05.01.2020
1141 Clouds 0 1010 96 10000 1 240 07:18 05.01.2020
1142 Clouds 0 1009 96 10000 2 270 05:59 05.01.2020
1143 Clouds 1 1009 86 10000 2 270 05:32 05.01.2020
1144 Clouds 1 1009 89 10000 3 270 04:43 05.01.2020
1145 Clouds 1 1009 89 10000 3 270 04:18 05.01.2020
1146 Clouds 1 1009 89 10000 3 270 04:18 05.01.2020
1147 Clouds 0 1009 89 10000 3 260 02:46 05.01.2020
1148 Clouds 1 1009 89 10000 3 260 02:24 05.01.2020
1149 Clouds 1 1009 91 10000 3 270 01:48 05.01.2020
1150 Clouds 1 1009 91 10000 2 250 01:18 05.01.2020
1151 Clouds 1 1008 91 9000 3 240 00:41 05.01.2020
1152 Clouds 1 1009 91 10000 3 250 00:23 05.01.2020
1153 Clouds 1 1009 91 9000 3 260 23:59 04.01.2020
1154 Clouds 1 1009 91 9000 3 260 23:59 04.01.2020
1155 Clouds 1 1009 91 10000 3 260 23:39 04.01.2020
1156 Clouds 2 1009 87 10000 3 260 23:19 04.01.2020
1157 Clouds 2 1009 87 9000 2 250 22:40 04.01.2020
1158 Clouds 2 1009 87 9000 2 250 22:40 04.01.2020
1159 Clouds 2 1009 87 9000 2 250 22:21 04.01.2020
1160 Clouds 2 1009 87 7000 2 260 21:57 04.01.2020
1161 Clouds 2 1009 87 7000 2 260 21:57 04.01.2020
1162 Clouds 2 1009 87 7000 2 270 21:38 04.01.2020
1163 Clouds 2 1009 87 7000 2 270 21:19 04.01.2020
1164 Clouds 2 1009 87 8000 3 270 20:57 04.01.2020
1165 Clouds 2 1009 87 9000 3 270 20:38 04.01.2020
1166 Clouds 2 1009 86 9000 3 270 20:20 04.01.2020
1167 Clouds 2 1009 86 10000 3 300 19:42 04.01.2020
1168 Clouds 2 1009 86 10000 3 300 19:42 04.01.2020
1169 Clouds 2 1009 86 10000 3 300 19:24 04.01.2020
1170 Clouds 3 1009 86 10000 4 290 18:59 04.01.2020
1171 Clouds 3 1009 86 10000 4 300 18:40 04.01.2020
1172 Clouds 3 1009 86 10000 4 300 18:22 04.01.2020
1173 Clouds 3 1009 86 10000 5 300 17:59 04.01.2020
1174 Clouds 3 1009 86 9000 5 300 17:40 04.01.2020
1175 Clouds 3 1009 86 9000 5 300 17:22 04.01.2020
1176 Clouds 3 1009 93 9000 5 290 16:54 04.01.2020
1177 Clouds 3 1009 86 9000 5 280 16:36 04.01.2020
1178 Clouds 3 1009 86 9000 5 280 16:18 04.01.2020
1179 Clouds 3 1008 86 9000 4 280 15:42 04.01.2020
1180 Clouds 3 1008 86 9000 4 280 15:42 04.01.2020
1181 Clouds 3 1008 86 9000 4 280 15:20 04.01.2020
1182 Clouds 3 1008 86 9000 4 280 15:20 04.01.2020
1183 Clouds 3 1008 86 10000 4 270 14:58 04.01.2020
1184 Clouds 3 1008 86 9000 5 270 14:40 04.01.2020
1185 Clouds 3 1008 86 9000 5 270 14:20 04.01.2020
1186 Clouds 3 1008 86 10000 6 280 13:58 04.01.2020
1187 Clouds 3 1008 80 10000 5 270 13:37 04.01.2020
1188 Clouds 3 1008 80 10000 5 270 13:37 04.01.2020
1189 Clouds 3 1008 82 10000 5 270 13:19 04.01.2020
1190 Clouds 3 1009 82 10000 5 270 12:42 04.01.2020
1191 Clouds 3 1009 82 10000 7 270 12:20 04.01.2020
1192 Clouds 3 1009 82 10000 7 270 12:20 04.01.2020
1193 Clouds 3 1009 74 10000 6 270 11:59 04.01.2020
1194 Clouds 3 1009 74 10000 6 270 11:41 04.01.2020
1195 Clouds 2 1009 80 10000 6 270 11:20 04.01.2020
1196 Clouds 2 1010 80 10000 6 260 10:59 04.01.2020
1197 Clouds 2 1010 80 10000 5 260 10:38 04.01.2020
1198 Clouds 2 1010 80 10000 5 260 10:19 04.01.2020
1199 Clouds 1 1010 80 10000 5 260 09:43 04.01.2020
1200 Clouds 1 1011 80 10000 5 250 09:25 04.01.2020
1201 Clouds 0 1011 71 10000 4 260 08:47 04.01.2020
1202 Clouds 0 1011 78 10000 4 250 08:28 04.01.2020
1203 Clear -1 1011 79 10000 3 240 07:51 04.01.2020
1204 Clear -1 1012 86 10000 3 240 07:33 04.01.2020
1205 Clear -3 1012 79 10000 3 240 06:43 04.01.2020
1206 Clear -3 1012 79 10000 3 240 05:52 04.01.2020
1207 Clear -3 1013 85 10000 3 230 04:48 04.01.2020
1208 Clear -3 1013 79 10000 3 230 04:28 04.01.2020
1209 Clear -2 1013 79 10000 3 230 03:20 04.01.2020
1210 Clear -2 1014 79 10000 2 240 02:38 04.01.2020
1211 Clouds -2 1014 79 10000 2 240 02:18 04.01.2020
1212 Clouds -2 1015 79 10000 2 250 01:32 04.01.2020
1213 Clouds -2 1015 79 10000 2 250 01:32 04.01.2020
1214 Clouds -2 1015 79 10000 2 250 01:32 04.01.2020
1215 Clouds -2 1015 74 9000 2 250 00:58 04.01.2020
1216 Clouds -2 1015 79 9000 2 260 00:29 04.01.2020
1217 Clouds -2 1015 74 8000 2 240 23:53 03.01.2020
1218 Clouds -2 1015 85 7000 2 240 23:28 03.01.2020
1219 Clouds -2 1016 92 6000 3 260 22:55 03.01.2020
1220 Clouds -2 1016 92 6000 3 250 22:37 03.01.2020
1221 Clouds -2 1016 92 6000 3 250 22:18 03.01.2020
1222 Clouds -2 1016 92 7000 2 240 21:56 03.01.2020
1223 Mist -3 1016 92 5000 3 260 21:37 03.01.2020
1224 Mist -3 1016 92 5000 3 260 21:18 03.01.2020
1225 Mist -2 1017 92 5000 3 250 20:54 03.01.2020
1226 Clouds -2 1017 86 7000 2 230 20:36 03.01.2020
1227 Clear -2 1017 86 7000 2 230 20:18 03.01.2020
1228 Clear -1 1017 92 6000 2 230 19:41 03.01.2020
1229 Clear -1 1017 92 6000 2 230 19:22 03.01.2020
1230 Clear -2 1017 92 6000 2 250 18:47 03.01.2020
1231 Clear -2 1017 86 6000 1 230 18:26 03.01.2020
1232 Clear -1 1018 79 7000 2 200 17:58 03.01.2020
1233 Clear -1 1018 74 6000 2 220 17:40 03.01.2020
1234 Clear 0 1018 74 6000 2 220 17:21 03.01.2020
1235 Smoke 0 1018 82 5000 2 230 16:44 03.01.2020
1236 Clear 0 1018 82 8000 2 240 16:24 03.01.2020
1237 Clear 1 1018 69 10000 2 250 15:59 03.01.2020
1238 Clear 2 1018 69 10000 3 270 15:41 03.01.2020
1239 Clear 2 1018 69 10000 3 270 15:19 03.01.2020
1240 Clear 2 1018 69 10000 3 270 15:19 03.01.2020
1241 Clear 4 1018 60 10000 2 230 14:39 03.01.2020
1242 Clear 3 1018 60 10000 2 230 14:20 03.01.2020
1243 Rain 3 1018 60 10000 2 270 13:57 03.01.2020
1244 Clear 4 1018 60 10000 2 280 13:38 03.01.2020
1245 Clear 4 1018 60 10000 2 280 13:20 03.01.2020
1246 Clear 3 1019 64 10000 2 270 12:40 03.01.2020
1247 Clear 3 1019 64 10000 2 270 12:21 03.01.2020
1248 Clear 3 1019 69 10000 3 290 11:49 03.01.2020
1249 Clear 3 1019 69 10000 3 290 11:30 03.01.2020
1250 Clear 2 1020 74 10000 3 300 10:48 03.01.2020
1251 Clear 1 1020 74 10000 2 280 10:29 03.01.2020
1252 Clear 1 1020 80 10000 2 280 09:59 03.01.2020
1253 Clear 1 1020 80 10000 2 280 09:41 03.01.2020
1254 Clear 0 1021 80 10000 2 250 09:23 03.01.2020
1255 Clear 0 1020 86 8000 2 260 08:57 03.01.2020
1256 Clear -2 1020 92 7000 2 240 08:39 03.01.2020
1257 Clouds -2 1020 92 7000 2 240 08:21 03.01.2020
1258 Clouds -3 1020 92 7000 2 270 07:42 03.01.2020
1259 Clouds -2 1020 92 7000 2 240 07:19 03.01.2020
1260 Clouds -2 1020 92 7000 2 240 06:56 03.01.2020
1261 Clouds -2 1020 92 8000 3 270 06:37 03.01.2020
1262 Clouds -2 1020 92 8000 3 270 06:18 03.01.2020
1263 Clouds -2 1019 92 7000 2 250 04:42 03.01.2020
1264 Clouds -1 1020 92 6000 2 270 03:34 03.01.2020
1265 Clouds -1 1019 92 7000 3 270 02:47 03.01.2020
1266 Clouds -1 1020 92 6000 3 270 01:47 03.01.2020
1267 Clouds -1 1020 92 7000 4 280 00:57 03.01.2020
1268 Clouds 0 1020 92 8000 4 280 00:33 03.01.2020
1269 Clouds 0 1020 92 9000 4 280 23:58 02.01.2020
1270 Clouds 0 1020 92 9000 3 260 23:39 02.01.2020
1271 Clouds 0 1020 90 9000 3 260 23:19 02.01.2020
1272 Clouds 1 1020 90 9000 3 280 22:58 02.01.2020
1273 Clouds 1 1020 80 9000 3 280 22:39 02.01.2020
1274 Clouds 1 1020 80 9000 3 280 22:19 02.01.2020
1275 Clouds 1 1020 80 9000 3 270 21:55 02.01.2020
1276 Clouds 1 1020 80 10000 4 270 21:36 02.01.2020
1277 Clouds 1 1020 80 10000 4 270 21:18 02.01.2020
1278 Clouds 1 1020 80 9000 3 290 20:40 02.01.2020
1279 Clouds 1 1020 80 9000 3 290 20:21 02.01.2020
1280 Clouds 1 1020 80 9000 3 290 19:56 02.01.2020
1281 Clouds 1 1021 80 9000 4 290 19:38 02.01.2020
1282 Clouds 1 1021 80 9000 4 290 19:19 02.01.2020
1283 Clouds 1 1021 80 9000 5 290 18:59 02.01.2020
1284 Clouds 1 1021 80 9000 6 290 18:40 02.01.2020
1285 Clouds 1 1021 80 9000 6 290 18:22 02.01.2020
1286 Clouds 1 1021 80 9000 6 290 17:57 02.01.2020
1287 Clouds 1 1020 80 10000 6 280 17:38 02.01.2020
1288 Clouds 1 1020 80 10000 6 280 17:19 02.01.2020
1289 Clouds 1 1020 80 10000 7 270 16:57 02.01.2020
1290 Clouds 1 1021 80 10000 6 280 16:38 02.01.2020
1291 Clouds 1 1021 80 10000 6 280 16:38 02.01.2020
1292 Clouds 1 1021 80 10000 6 280 16:20 02.01.2020
1293 Clouds 1 1020 80 10000 5 250 15:56 02.01.2020
1294 Clouds 1 1020 80 10000 5 250 15:56 02.01.2020
1295 Clouds 1 1021 80 10000 5 250 15:37 02.01.2020
1296 Clouds 1 1020 80 10000 5 260 15:19 02.01.2020
1297 Clouds 1 1020 80 10000 5 260 14:55 02.01.2020
1298 Clouds 1 1021 80 10000 5 260 14:36 02.01.2020
1299 Clouds 1 1022 80 10000 5 260 14:18 02.01.2020
1300 Clouds 1 1022 80 10000 5 260 13:47 02.01.2020
1301 Clouds 1 1022 80 10000 5 260 13:29 02.01.2020
1302 Clouds 1 1022 74 10000 5 250 12:44 02.01.2020
1303 Clouds 1 1022 74 10000 5 250 12:25 02.01.2020
1304 Clouds 1 1023 74 10000 6 260 11:43 02.01.2020
1305 Clouds 1 1023 74 10000 6 260 11:25 02.01.2020
1306 Clouds 1 1023 82 10000 5 260 10:57 02.01.2020
1307 Clouds 0 1023 82 10000 5 260 10:38 02.01.2020
1308 Clouds 0 1023 82 10000 5 260 10:19 02.01.2020
1309 Clouds 0 1024 82 10000 5 250 09:41 02.01.2020
1310 Clouds 0 1024 82 10000 4 260 09:22 02.01.2020
1311 Clouds 0 1024 82 10000 4 250 08:44 02.01.2020
1312 Clouds 0 1024 85 10000 4 260 08:25 02.01.2020
1313 Clouds 0 1024 81 10000 4 250 07:49 02.01.2020
1314 Clouds -1 1024 86 10000 5 260 07:30 02.01.2020
1315 Clouds -1 1024 86 10000 4 260 06:44 02.01.2020
1316 Clouds -1 1024 86 10000 4 260 06:26 02.01.2020
1317 Clouds -1 1024 86 10000 3 270 04:40 02.01.2020
1318 Clouds -1 1025 86 10000 4 290 04:21 02.01.2020
1319 Clouds -1 1025 86 10000 4 290 04:21 02.01.2020
1320 Clouds -2 1024 92 10000 5 290 02:28 02.01.2020
1321 Clouds -2 1024 92 10000 4 270 01:57 02.01.2020
1322 Clouds -2 1024 86 10000 4 260 01:32 02.01.2020
1323 Clouds -2 1024 92 10000 4 260 00:52 02.01.2020
1324 Clouds -2 1024 86 10000 4 270 00:32 02.01.2020
1325 Clouds -2 1024 92 10000 4 270 23:48 01.01.2020
1326 Clouds -2 1025 86 10000 4 270 23:25 01.01.2020
1327 Clouds -2 1025 86 10000 3 260 22:54 01.01.2020
1328 Clouds -2 1025 86 10000 2 250 22:36 01.01.2020
1329 Clouds -2 1025 86 10000 2 250 22:18 01.01.2020
1330 Clouds -1 1025 86 10000 3 270 21:42 01.01.2020
1331 Clouds -1 1025 86 10000 3 270 21:21 01.01.2020
1332 Clouds -1 1025 86 10000 3 280 20:58 01.01.2020
1333 Clouds -1 1025 86 10000 3 280 20:39 01.01.2020
1334 Clouds -1 1025 80 10000 3 280 20:20 01.01.2020
1335 Clouds -1 1025 80 10000 3 270 19:57 01.01.2020
1336 Clouds -1 1025 86 10000 3 280 19:39 01.01.2020
1337 Clouds -1 1025 86 10000 3 280 19:20 01.01.2020
1338 Clear -1 1024 79 10000 3 300 18:57 01.01.2020
1339 Clear -1 1024 74 10000 4 310 18:38 01.01.2020
1340 Clear -1 1024 74 10000 4 310 18:20 01.01.2020
1341 Clear -1 1024 74 10000 5 320 17:58 01.01.2020
1342 Clear -1 1023 84 10000 5 320 17:40 01.01.2020
1343 Clear -1 1023 73 10000 5 320 17:20 01.01.2020
1344 Clear -1 1023 73 10000 5 320 16:57 01.01.2020
1345 Clear 0 1022 73 10000 5 320 16:38 01.01.2020
1346 Clear 0 1022 73 10000 5 320 16:19 01.01.2020
1347 Clear 0 1022 73 10000 5 320 15:56 01.01.2020
1348 Clear 0 1022 73 10000 5 320 15:37 01.01.2020
1349 Clear 0 1022 73 10000 5 320 15:19 01.01.2020
1350 Clear 1 1021 64 10000 5 330 14:55 01.01.2020
1351 Clouds 1 1021 64 10000 6 320 14:37 01.01.2020
1352 Clouds 1 1021 64 10000 6 320 14:19 01.01.2020
1353 Clouds 1 1020 64 10000 9 320 13:55 01.01.2020
1354 Clouds 1 1020 64 10000 9 320 13:55 01.01.2020
1355 Clouds 1 1020 69 10000 7 330 13:36 01.01.2020
1356 Clouds 1 1020 69 10000 7 330 13:18 01.01.2020
1357 Clouds 1 1019 69 10000 6 350 12:40 01.01.2020
1358 Clouds 1 1019 69 10000 6 350 12:19 01.01.2020
1359 Clouds 1 1019 74 10000 7 340 11:57 01.01.2020
1360 Snow 1 1019 74 9000 7 340 11:38 01.01.2020
1361 Snow 1 1019 74 9000 7 340 11:19 01.01.2020
1362 Snow 1 1018 74 10000 6 340 10:55 01.01.2020
1363 Snow 1 1018 80 10000 6 330 10:36 01.01.2020
1364 Snow 1 1018 80 10000 6 330 10:18 01.01.2020
1365 Snow 1 1017 73 4900 9 330 09:40 01.01.2020
1366 Clouds 1 1017 74 10000 6 340 09:20 01.01.2020
1367 Clouds 2 1016 80 10000 5 350 08:57 01.01.2020
1368 Clouds 1 1015 80 10000 4 350 08:37 01.01.2020
1369 Clouds 1 1015 80 10000 4 350 08:19 01.01.2020
1370 Snow 1 1015 76 10000 7 330 07:56 01.01.2020
1371 Rain 1 1014 76 10000 8 320 07:38 01.01.2020
1372 Rain 2 1014 76 9000 8 320 06:50 01.01.2020
1373 Rain 2 1013 93 9000 7 320 06:32 01.01.2020
1374 Rain 2 1012 93 9000 8 320 05:46 01.01.2020
1375 Clouds 3 1010 86 10000 9 320 03:48 01.01.2020
1376 Clouds 3 1010 86 10000 9 310 03:28 01.01.2020
1377 Rain 3 1010 86 10000 7 320 02:59 01.01.2020
1378 Rain 3 1010 86 10000 7 320 02:41 01.01.2020
1379 Rain 3 1010 86 10000 8 310 02:21 01.01.2020
1380 Rain 2 1009 93 9000 8 300 01:40 01.01.2020
1381 Rain 2 1009 93 9000 8 300 01:21 01.01.2020
1382 Clouds 3 1009 93 10000 6 300 00:44 01.01.2020
1383 Clouds 3 1009 93 10000 6 300 00:26 01.01.2020
1384 Rain 2 1009 93 10000 7 300 23:43 31.12.2019
1385 Rain 2 1009 93 10000 7 300 23:24 31.12.2019
1386 Rain 2 1009 93 9000 6 300 22:59 31.12.2019
1387 Rain 2 1009 93 9000 6 300 22:39 31.12.2019
1388 Rain 2 1008 93 10000 7 300 22:20 31.12.2019
1389 Rain 2 1008 93 6000 7 300 21:59 31.12.2019
1390 Rain 2 1008 93 6000 7 300 21:41 31.12.2019
1391 Snow 2 1008 93 10000 7 300 21:23 31.12.2019
1392 Rain 2 1008 93 9000 7 290 20:57 31.12.2019
1393 Rain 2 1007 93 10000 7 290 20:37 31.12.2019
1394 Rain 2 1007 93 10000 7 290 20:19 31.12.2019
1395 Rain 1 1007 100 9000 7 280 19:55 31.12.2019
1396 Rain 1 1007 93 10000 7 290 19:37 31.12.2019
1397 Rain 1 1007 93 10000 7 290 19:18 31.12.2019
1398 Rain 1 1007 100 10000 7 290 18:54 31.12.2019
1399 Rain 1 1007 100 10000 7 290 18:54 31.12.2019
1400 Rain 1 1007 96 7000 7 280 18:36 31.12.2019
1401 Rain 1 1007 96 5000 8 280 18:18 31.12.2019
1402 Rain 1 1007 96 5000 8 280 17:55 31.12.2019
1403 Rain 1 1007 96 9000 7 280 17:36 31.12.2019
1404 Rain 1 1007 96 9000 7 280 17:36 31.12.2019
1405 Snow 1 1007 95 9000 7 280 17:18 31.12.2019
1406 Clouds 1 1007 95 10000 7 280 16:55 31.12.2019
1407 Clouds 2 1007 95 10000 7 280 16:36 31.12.2019
1408 Rain 1 1007 95 10000 7 280 16:18 31.12.2019
1409 Rain 1 1007 95 10000 7 280 15:55 31.12.2019
1410 Rain 1 1007 95 9000 7 280 15:37 31.12.2019
1411 Rain 2 1007 95 9000 7 280 15:18 31.12.2019
1412 Clouds 2 1007 80 9000 9 290 14:55 31.12.2019
1413 Rain 3 1007 69 10000 8 280 14:36 31.12.2019
1414 Rain 3 1007 69 10000 8 280 14:18 31.12.2019
1415 Rain 4 1007 64 10000 8 280 13:54 31.12.2019
1416 Rain 4 1007 64 10000 8 270 13:36 31.12.2019
1417 Rain 4 1007 64 10000 8 270 13:18 31.12.2019
1418 Rain 4 1008 60 10000 8 270 12:40 31.12.2019
1419 Rain 4 1008 60 10000 8 270 12:40 31.12.2019
1420 Clouds 4 1008 60 10000 8 270 12:21 31.12.2019
1421 Clouds 4 1008 60 10000 9 280 11:58 31.12.2019
1422 Clouds 5 1008 60 10000 9 280 11:40 31.12.2019
1423 Clear 5 1008 60 10000 9 280 11:21 31.12.2019
1424 Clear 5 1008 60 10000 10 270 10:58 31.12.2019
1425 Clear 4 1009 60 10000 8 270 10:39 31.12.2019
1426 Clear 4 1009 60 10000 8 270 10:20 31.12.2019
1427 Clear 4 1009 64 10000 9 270 09:59 31.12.2019
1428 Clear 3 1010 64 10000 8 260 09:40 31.12.2019
1429 Clear 3 1010 64 10000 8 260 09:22 31.12.2019
1430 Clear 3 1010 69 10000 9 260 08:59 31.12.2019
1431 Clear 3 1010 69 10000 9 260 08:41 31.12.2019
1432 Clouds 2 1010 69 10000 8 260 08:20 31.12.2019
1433 Clouds 2 1011 69 10000 7 260 07:44 31.12.2019
1434 Clouds 1 1011 69 10000 7 260 07:22 31.12.2019
1435 Clouds 1 1011 74 10000 8 260 06:51 31.12.2019
1436 Clouds 1 1011 69 10000 7 260 06:23 31.12.2019
1437 Clouds 1 1013 69 10000 7 250 04:54 31.12.2019
1438 Clouds 0 1013 69 10000 7 260 04:21 31.12.2019
1439 Clouds 0 1015 74 10000 7 250 02:56 31.12.2019
1440 Snow 0 1016 70 10000 7 250 02:19 31.12.2019
1441 Snow 0 1016 70 10000 6 250 01:48 31.12.2019
1442 Snow 0 1016 70 10000 6 240 01:29 31.12.2019
1443 Snow 0 1017 71 10000 6 240 00:48 31.12.2019
1444 Snow -1 1017 74 10000 6 240 00:24 31.12.2019
1445 Snow -1 1018 74 10000 6 240 23:58 30.12.2019
1446 Snow -1 1019 74 10000 6 250 23:39 30.12.2019
1447 Clouds -1 1019 74 10000 6 250 23:21 30.12.2019
1448 Clouds -1 1020 74 10000 6 240 22:59 30.12.2019
1449 Clouds -2 1020 74 10000 6 240 22:41 30.12.2019
1450 Clouds -2 1020 79 10000 6 240 22:20 30.12.2019
1451 Clouds -2 1021 79 10000 6 240 21:57 30.12.2019
1452 Clouds -2 1022 79 10000 6 240 21:39 30.12.2019
1453 Clouds -2 1022 79 10000 6 240 21:20 30.12.2019
1454 Clouds -3 1022 86 10000 6 240 20:58 30.12.2019
1455 Clouds -3 1023 86 10000 6 240 20:40 30.12.2019
1456 Clouds -3 1023 86 10000 6 240 20:20 30.12.2019
1457 Clouds -3 1024 86 10000 6 240 19:58 30.12.2019
1458 Clouds -3 1024 86 10000 5 240 19:38 30.12.2019
1459 Clouds -3 1024 86 10000 5 240 19:19 30.12.2019
1460 Clouds -3 1025 86 10000 5 250 18:58 30.12.2019
1461 Clouds -3 1026 86 10000 6 260 18:40 30.12.2019
1462 Clouds -3 1026 86 10000 6 260 18:20 30.12.2019
1463 Clouds -3 1026 92 10000 5 250 17:56 30.12.2019
1464 Clouds -4 1026 92 10000 6 250 17:37 30.12.2019
1465 Clouds -3 1026 92 10000 6 250 17:18 30.12.2019
1466 Clouds -4 1027 92 10000 6 250 16:57 30.12.2019
1467 Clouds -4 1027 92 10000 5 250 16:37 30.12.2019
1468 Clouds -4 1027 92 10000 5 250 16:37 30.12.2019
1469 Clouds -4 1027 92 10000 5 250 16:18 30.12.2019
1470 Clouds -4 1027 92 10000 5 250 15:55 30.12.2019
1471 Clouds -4 1028 92 10000 6 260 15:37 30.12.2019
1472 Clouds -4 1028 92 10000 6 260 15:18 30.12.2019
1473 Clouds -3 1028 92 10000 6 270 14:42 30.12.2019
1474 Clouds -3 1029 100 10000 7 280 14:20 30.12.2019
1475 Clouds -3 1029 100 10000 6 270 13:56 30.12.2019
1476 Clouds -3 1029 100 10000 6 270 13:37 30.12.2019
1477 Clouds -3 1029 100 10000 6 270 13:19 30.12.2019
1478 Clouds -4 1030 92 10000 7 280 12:43 30.12.2019
1479 Clouds -4 1030 92 10000 6 260 12:22 30.12.2019
1480 Clouds -4 1031 100 10000 6 270 11:59 30.12.2019
1481 Clouds -4 1031 92 10000 7 280 11:40 30.12.2019
1482 Clouds -4 1031 92 10000 7 280 11:19 30.12.2019
1483 Clouds -4 1031 92 10000 7 280 11:19 30.12.2019
1484 Clouds -4 1032 92 10000 6 290 10:45 30.12.2019
1485 Clouds -3 1032 92 10000 6 270 10:22 30.12.2019
1486 Clouds -3 1032 92 10000 6 270 09:59 30.12.2019
1487 Clouds -3 1033 92 10000 5 290 09:41 30.12.2019
1488 Clouds -3 1033 92 10000 5 290 09:20 30.12.2019
1489 Clouds -3 1032 86 10000 6 280 08:54 30.12.2019
1490 Clouds -3 1033 92 10000 4 290 08:36 30.12.2019
1491 Clouds -3 1033 92 10000 4 290 08:36 30.12.2019
1492 Clouds -3 1033 92 10000 4 290 08:18 30.12.2019
1493 Clouds -3 1033 92 10000 6 280 07:39 30.12.2019
1494 Clouds -2 1033 86 10000 5 280 06:55 30.12.2019
1495 Clouds -2 1033 86 10000 3 300 05:24 30.12.2019
1496 Clouds -2 1034 92 10000 3 330 03:58 30.12.2019
1497 Snow -2 1034 92 10000 4 320 03:19 30.12.2019
1498 Snow -2 1034 92 10000 3 330 02:40 30.12.2019
1499 Snow -2 1034 92 10000 3 330 01:55 30.12.2019
1500 Snow -1 1034 92 10000 3 340 01:23 30.12.2019
1501 Snow -1 1034 92 10000 4 330 00:45 30.12.2019
1502 Snow -1 1034 92 10000 4 320 00:19 30.12.2019
1503 Clouds -1 1034 86 10000 2 360 23:39 29.12.2019
1504 Clouds -1 1034 86 10000 2 360 23:21 29.12.2019
1505 Clouds -1 1033 86 10000 3 10 22:55 29.12.2019
1506 Clouds -1 1033 86 10000 3 20 22:37 29.12.2019
1507 Clouds -1 1033 86 10000 3 20 22:18 29.12.2019
1508 Clouds -1 1033 86 10000 3 10 21:43 29.12.2019
1509 Clouds -1 1033 86 10000 3 10 21:21 29.12.2019
1510 Clouds -1 1033 86 10000 3 30 20:57 29.12.2019
1511 Clouds -1 1033 86 10000 5 30 20:39 29.12.2019
1512 Clouds -1 1033 86 10000 5 30 20:21 29.12.2019
1513 Clouds -1 1033 86 10000 4 20 19:59 29.12.2019
1514 Clouds -1 1033 86 10000 4 30 19:40 29.12.2019
1515 Clouds -1 1033 86 10000 4 30 19:40 29.12.2019
1516 Clouds -1 1033 86 10000 4 30 19:21 29.12.2019
1517 Clouds -1 1033 86 10000 4 30 18:58 29.12.2019
1518 Clouds -1 1032 86 9000 4 30 18:39 29.12.2019
1519 Clouds -1 1032 86 9000 4 30 18:20 29.12.2019
1520 Clouds -1 1032 86 10000 4 40 17:58 29.12.2019
1521 Clouds -1 1032 86 10000 4 30 17:39 29.12.2019
1522 Clouds -1 1032 86 10000 4 30 17:20 29.12.2019
1523 Clouds -1 1031 86 10000 5 40 16:57 29.12.2019
1524 Snow -1 1031 86 10000 4 40 16:38 29.12.2019
1525 Snow -1 1031 86 10000 4 40 16:38 29.12.2019
1526 Snow -1 1031 86 10000 4 40 16:38 29.12.2019
1527 Snow -1 1031 86 10000 4 40 16:20 29.12.2019
1528 Snow -1 1031 86 10000 4 30 15:58 29.12.2019
1529 Snow -1 1031 86 10000 4 30 15:58 29.12.2019
1530 Snow -1 1031 86 10000 6 40 15:39 29.12.2019
1531 Snow -1 1031 86 10000 6 40 15:20 29.12.2019
1532 Snow -1 1030 86 10000 5 30 14:58 29.12.2019
1533 Snow -1 1030 86 10000 5 30 14:38 29.12.2019
1534 Snow -1 1030 86 10000 4 30 14:18 29.12.2019
1535 Snow -1 1030 86 9000 5 40 13:57 29.12.2019
1536 Snow -1 1030 92 8000 5 20 13:38 29.12.2019
1537 Snow -1 1030 92 8000 5 20 13:19 29.12.2019
1538 Snow -1 1029 92 9000 3 60 12:45 29.12.2019
1539 Snow -1 1029 92 9000 3 60 12:27 29.12.2019
1540 Snow -1 1029 86 9000 4 70 11:58 29.12.2019
1541 Snow -1 1029 86 4800 4 60 11:39 29.12.2019
1542 Snow -1 1029 86 4800 4 60 11:20 29.12.2019
1543 Snow -1 1029 86 5000 5 50 10:43 29.12.2019
1544 Snow -1 1029 86 5000 5 50 10:25 29.12.2019
1545 Snow -1 1029 86 9000 6 40 09:58 29.12.2019
1546 Snow -1 1028 86 4400 6 40 09:39 29.12.2019
1547 Snow -1 1028 86 4400 6 40 09:21 29.12.2019
1548 Snow -1 1028 86 3600 6 40 08:48 29.12.2019
1549 Snow -1 1027 86 9000 7 40 08:28 29.12.2019
1550 Snow -1 1027 86 2500 6 40 07:56 29.12.2019
1551 Clouds -1 1026 86 10000 7 40 07:28 29.12.2019
1552 Clouds -1 1026 86 10000 7 40 07:28 29.12.2019
1553 Snow -1 1026 86 10000 7 30 06:56 29.12.2019
1554 Snow -1 1025 92 10000 6 40 06:26 29.12.2019
1555 Snow -1 1025 92 7000 6 40 05:53 29.12.2019
1556 Snow -1 1024 92 8000 6 40 04:36 29.12.2019
1557 Snow -1 1024 92 9000 7 40 03:58 29.12.2019
1558 Snow -1 1024 92 6000 7 40 03:21 29.12.2019
1559 Snow -1 1023 92 5000 7 40 02:21 29.12.2019
1560 Snow -1 1023 92 5000 6 30 01:38 29.12.2019
1561 Snow -1 1023 92 5000 6 30 01:19 29.12.2019
1562 Snow -1 1022 92 4500 6 20 00:40 29.12.2019
1563 Snow -1 1022 93 6000 6 20 00:22 29.12.2019
1564 Snow -1 1022 93 2700 5 30 23:44 28.12.2019
1565 Snow -1 1022 94 3700 5 10 23:18 28.12.2019
1566 Snow 0 1022 94 5000 6 30 22:39 28.12.2019
1567 Snow 0 1022 94 5000 6 30 22:21 28.12.2019
1568 Snow 0 1021 94 7000 7 30 21:58 28.12.2019
1569 Snow 0 1021 94 5000 7 20 21:39 28.12.2019
1570 Snow 0 1021 94 5000 7 20 21:21 28.12.2019
1571 Snow 0 1021 94 5000 7 20 21:21 28.12.2019
1572 Snow 0 1021 94 3000 6 20 20:57 28.12.2019
1573 Snow 0 1021 94 7000 6 20 20:37 28.12.2019
1574 Snow 0 1021 94 7000 6 20 20:37 28.12.2019
1575 Snow 0 1021 94 7000 6 20 20:19 28.12.2019
1576 Snow 0 1020 94 4200 5 20 19:57 28.12.2019
1577 Snow 0 1020 94 4200 5 20 19:57 28.12.2019
1578 Snow 0 1020 94 4600 5 20 19:39 28.12.2019
1579 Snow 0 1020 94 4600 5 20 19:20 28.12.2019
1580 Snow 0 1020 94 9000 6 20 18:57 28.12.2019
1581 Snow 0 1020 94 9000 6 20 18:39 28.12.2019
1582 Snow 1 1019 94 4400 6 20 18:18 28.12.2019
1583 Snow 1 1019 94 4400 6 20 18:18 28.12.2019
1584 Snow 1 1019 94 3700 5 40 17:54 28.12.2019
1585 Rain 1 1019 94 5000 5 30 17:36 28.12.2019
1586 Rain 1 1019 94 5000 5 30 17:18 28.12.2019
1587 Rain 1 1018 100 7000 5 20 16:45 28.12.2019
1588 Rain 1 1018 100 10000 5 20 16:24 28.12.2019
1589 Rain 1 1018 100 8000 5 10 15:44 28.12.2019
1590 Rain 2 1017 93 10000 5 20 15:23 28.12.2019
1591 Rain 2 1017 93 9000 5 10 14:57 28.12.2019
1592 Rain 2 1017 93 10000 4 360 14:38 28.12.2019
1593 Snow 2 1016 93 9000 4 10 14:20 28.12.2019
1594 Rain 2 1016 93 9000 4 10 13:43 28.12.2019
1595 Rain 2 1016 100 9000 4 20 13:21 28.12.2019
1596 Rain 2 1016 100 8000 4 10 12:59 28.12.2019
1597 Rain 2 1016 100 6000 4 10 12:40 28.12.2019
1598 Rain 1 1016 100 6000 4 10 12:21 28.12.2019
1599 Rain 2 1015 100 9000 4 20 11:40 28.12.2019
1600 Rain 2 1015 100 9000 4 20 11:22 28.12.2019
1601 Rain 2 1015 100 8000 5 10 10:59 28.12.2019
1602 Rain 2 1015 100 9000 4 10 10:41 28.12.2019
1603 Snow 1 1015 100 9000 4 10 10:20 28.12.2019
1604 Rain 1 1015 100 7000 5 20 09:55 28.12.2019
1605 Rain 1 1014 100 9000 4 20 09:37 28.12.2019
1606 Rain 1 1014 100 9000 4 20 09:18 28.12.2019
1607 Rain 1 1014 94 9000 5 20 08:43 28.12.2019
1608 Rain 1 1014 95 9000 5 20 08:24 28.12.2019
1609 Rain 1 1013 95 10000 4 10 07:48 28.12.2019
1610 Rain 1 1013 95 10000 3 10 07:25 28.12.2019
1611 Snow 0 1012 95 7000 3 360 05:52 28.12.2019
1612 Snow 0 1011 93 6000 3 330 03:49 28.12.2019
1613 Snow 0 1011 93 7000 3 320 02:52 28.12.2019
1614 Snow 0 1011 93 5000 4 320 02:31 28.12.2019
1615 Snow 0 1011 95 5000 4 320 01:56 28.12.2019
1616 Snow 0 1011 95 5000 4 320 01:56 28.12.2019
1617 Snow 0 1011 95 6000 4 320 01:24 28.12.2019
1618 Snow 0 1011 95 5000 4 320 00:51 28.12.2019
1619 Snow 0 1011 95 5000 4 320 00:32 28.12.2019
1620 Snow 0 1011 95 5000 4 330 23:58 27.12.2019
1621 Snow 0 1010 95 7000 4 320 23:39 27.12.2019
1622 Snow 0 1010 94 7000 4 320 23:19 27.12.2019
1623 Snow 0 1010 94 6000 5 320 22:57 27.12.2019
1624 Snow 0 1010 94 3900 5 320 22:38 27.12.2019
1625 Snow 0 1010 94 3900 5 320 22:38 27.12.2019
1626 Snow 0 1010 94 3900 5 320 22:19 27.12.2019
1627 Snow 0 1010 94 5000 5 320 21:43 27.12.2019
1628 Snow 0 1010 94 4600 5 320 21:43 27.12.2019
1629 Snow 0 1010 94 5000 5 320 21:25 27.12.2019
1630 Snow 0 1010 94 4700 5 320 20:58 27.12.2019
1631 Snow 1 1010 94 7000 5 330 20:40 27.12.2019
1632 Snow 0 1010 92 7000 5 330 20:21 27.12.2019
1633 Snow 1 1010 92 10000 5 320 19:41 27.12.2019
1634 Snow 1 1010 92 10000 5 320 19:20 27.12.2019
1635 Rain 1 1009 92 10000 5 330 18:57 27.12.2019
1636 Rain 1 1009 92 10000 5 320 18:37 27.12.2019
1637 Rain 1 1009 92 10000 5 320 18:19 27.12.2019
1638 Snow 1 1009 92 6000 5 320 17:55 27.12.2019
1639 Rain 1 1009 92 5000 4 320 17:37 27.12.2019
1640 Rain 1 1009 93 5000 4 320 17:18 27.12.2019
1641 Rain 0 1009 93 4700 4 320 16:44 27.12.2019
1642 Snow 0 1009 93 4600 5 310 16:26 27.12.2019
1643 Rain 0 1009 93 5000 5 310 15:59 27.12.2019
1644 Rain 1 1009 93 5000 5 300 15:40 27.12.2019
1645 Rain 1 1009 93 5000 5 300 15:20 27.12.2019
1646 Rain 1 1008 93 9000 5 310 14:56 27.12.2019
1647 Rain 1 1008 93 9000 5 310 14:38 27.12.2019
1648 Snow 1 1008 88 9000 5 310 14:20 27.12.2019
1649 Snow 1 1008 88 10000 5 310 13:48 27.12.2019
1650 Snow 1 1008 89 9000 6 310 13:25 27.12.2019
1651 Snow 1 1008 89 9000 6 310 13:25 27.12.2019
1652 Clouds 1 1008 89 10000 5 320 12:56 27.12.2019
1653 Clouds 1 1008 89 10000 6 310 12:38 27.12.2019
1654 Clouds 1 1008 89 10000 6 310 12:20 27.12.2019
1655 Clouds 1 1008 89 10000 5 310 11:42 27.12.2019
1656 Clouds 1 1008 89 10000 5 310 11:22 27.12.2019
1657 Clouds 1 1008 89 10000 5 310 10:54 27.12.2019
1658 Clouds 1 1008 89 10000 5 300 10:36 27.12.2019
1659 Clouds 1 1008 89 10000 5 300 10:18 27.12.2019
1660 Rain 1 1008 89 7000 5 300 09:40 27.12.2019
1661 Rain 1 1008 89 7000 5 300 09:21 27.12.2019
1662 Clouds 1 1008 89 8000 5 300 08:54 27.12.2019
1663 Rain 1 1008 90 9000 5 310 08:34 27.12.2019
1664 Rain 1 1008 88 8000 5 310 07:49 27.12.2019
1665 Rain 1 1008 88 4900 4 300 07:28 27.12.2019
1666 Rain 1 1008 88 7000 4 300 06:36 27.12.2019
1667 Drizzle 1 1008 89 8000 5 300 04:59 27.12.2019
1668 Rain 2 1008 93 10000 5 300 02:53 27.12.2019
1669 Rain 2 1008 93 10000 5 300 01:59 27.12.2019
1670 Rain 2 1008 93 10000 5 300 01:24 27.12.2019
1671 Rain 2 1007 93 10000 4 300 00:58 27.12.2019
1672 Rain 2 1007 93 10000 5 300 00:40 27.12.2019
1673 Rain 2 1007 93 10000 5 300 00:21 27.12.2019
1674 Rain 3 1008 93 10000 5 300 23:41 26.12.2019
1675 Rain 3 1008 93 10000 5 300 23:22 26.12.2019
1676 Rain 3 1008 93 10000 4 290 22:45 26.12.2019
1677 Rain 3 1008 93 10000 4 290 22:23 26.12.2019
1678 Rain 3 1007 93 10000 4 300 21:59 26.12.2019
1679 Drizzle 3 1007 93 10000 5 290 21:38 26.12.2019
1680 Drizzle 4 1007 93 10000 5 290 21:20 26.12.2019
1681 Drizzle 4 1007 93 9000 5 290 20:46 26.12.2019
1682 Drizzle 4 1007 93 5000 5 290 20:23 26.12.2019
1683 Drizzle 4 1007 100 3100 5 290 19:59 26.12.2019
1684 Rain 4 1007 100 3900 5 290 19:39 26.12.2019
1685 Rain 4 1007 100 3900 5 290 19:21 26.12.2019
1686 Rain 4 1007 93 4600 3 330 18:57 26.12.2019
1687 Rain 4 1007 93 4600 3 340 18:38 26.12.2019
1688 Drizzle 4 1007 93 4700 4 300 18:19 26.12.2019
1689 Drizzle 5 1007 93 4700 4 300 17:43 26.12.2019
1690 Drizzle 5 1007 93 9000 4 290 17:22 26.12.2019
1691 Rain 5 1007 93 9000 4 280 16:59 26.12.2019
1692 Rain 5 1007 93 9000 4 280 16:41 26.12.2019
1693 Rain 5 1007 93 10000 3 280 16:21 26.12.2019
1694 Rain 5 1007 93 10000 3 290 15:55 26.12.2019
1695 Clouds 5 1007 93 10000 3 290 15:37 26.12.2019
1696 Clouds 5 1007 93 10000 3 290 15:18 26.12.2019
1697 Clouds 5 1006 93 10000 4 300 14:39 26.12.2019
1698 Clouds 5 1006 93 10000 4 300 14:21 26.12.2019
1699 Clouds 5 1006 93 10000 4 300 13:43 26.12.2019
1700 Rain 5 1006 93 9000 4 290 13:21 26.12.2019
1701 Rain 5 1006 93 9000 4 280 12:58 26.12.2019
1702 Rain 5 1006 93 6000 4 290 12:38 26.12.2019
1703 Rain 5 1006 93 6000 4 290 12:19 26.12.2019
1704 Rain 5 1006 93 5000 4 290 11:57 26.12.2019
1705 Rain 5 1006 93 6000 4 290 11:38 26.12.2019
1706 Rain 5 1006 93 6000 4 290 11:19 26.12.2019
1707 Rain 5 1006 93 6000 4 290 10:42 26.12.2019
1708 Rain 5 1006 93 4700 4 290 10:18 26.12.2019
1709 Rain 5 1006 100 1900 4 300 09:49 26.12.2019
1710 Drizzle 5 1006 100 2100 3 300 09:31 26.12.2019
1711 Rain 5 1006 93 4700 3 320 08:42 26.12.2019
1712 Rain 5 1006 93 4700 3 320 08:24 26.12.2019
1713 Rain 5 1006 93 5000 3 330 07:53 26.12.2019
1714 Rain 5 1006 93 4000 3 330 07:27 26.12.2019
1715 Rain 5 1005 93 2700 3 330 06:53 26.12.2019
1716 Rain 5 1005 93 6000 3 320 06:32 26.12.2019
1717 Rain 5 1005 93 9000 3 330 05:45 26.12.2019
1718 Rain 5 1005 93 6000 2 320 04:55 26.12.2019
1719 Rain 5 1005 93 7000 2 330 04:29 26.12.2019
1720 Rain 5 1005 100 6000 2 320 02:54 26.12.2019
1721 Rain 5 1005 100 3700 2 330 02:34 26.12.2019
1722 Rain 5 1005 100 4500 2 330 01:48 26.12.2019
1723 Rain 5 1005 100 4300 2 320 01:28 26.12.2019
1724 Rain 5 1005 100 3800 2 320 00:49 26.12.2019
1725 Rain 5 1005 100 6000 3 310 00:27 26.12.2019
1726 Rain 5 1005 100 5000 2 320 23:58 25.12.2019
1727 Rain 5 1005 100 5000 2 310 23:39 25.12.2019
1728 Rain 5 1005 100 5000 2 310 23:21 25.12.2019
1729 Rain 5 1005 100 5000 1.18 43 22:58 25.12.2019
1730 Rain 5 1005 100 5000 1 130 22:39 25.12.2019
1731 Rain 5 1005 100 5000 1 130 22:20 25.12.2019
1732 Rain 5 1004 100 5000 1 350 21:58 25.12.2019
1733 Rain 5 1004 100 4100 2 10 21:39 25.12.2019
1734 Rain 5 1004 100 4100 2 10 21:20 25.12.2019
1735 Rain 5 1004 100 5000 2 10 20:54 25.12.2019
1736 Rain 5 1004 100 4400 1 350 20:36 25.12.2019
1737 Rain 5 1004 100 4400 1 350 20:36 25.12.2019
1738 Rain 5 1004 100 4400 1 350 20:18 25.12.2019
1739 Rain 5 1004 100 5000 1.2 57 19:42 25.12.2019
1740 Mist 5 1004 100 5000 1.2 57 19:22 25.12.2019
1741 Rain 5 1004 100 6000 1.2 57 18:56 25.12.2019
1742 Rain 5 1004 100 6000 1.2 57 18:36 25.12.2019
1743 Rain 5 1004 100 6000 1.2 57 18:18 25.12.2019
1744 Rain 5 1004 100 4400 1.2 57 17:40 25.12.2019
1745 Rain 5 1004 100 4400 1.66 73 17:19 25.12.2019
1746 Rain 5 1004 100 5000 1.66 73 16:57 25.12.2019
1747 Rain 5 1004 100 4300 1.66 73 16:37 25.12.2019
1748 Rain 5 1004 100 4300 1.66 73 16:18 25.12.2019
1749 Rain 5 1004 100 4300 1.66 73 16:18 25.12.2019
1750 Rain 5 1004 100 4900 1.66 73 15:56 25.12.2019
1751 Rain 5 1004 100 5000 1 100 15:38 25.12.2019
1752 Rain 5 1004 100 5000 1 100 15:38 25.12.2019
1753 Rain 5 1004 100 5000 1 100 15:19 25.12.2019
1754 Rain 5 1004 100 5000 1 100 15:19 25.12.2019
1755 Rain 5 1004 100 5000 1 100 14:56 25.12.2019
1756 Rain 5 1004 100 6000 2 100 14:37 25.12.2019
1757 Rain 5 1004 100 6000 2 100 14:19 25.12.2019
1758 Rain 5 1004 100 6000 2 90 13:44 25.12.2019
1759 Rain 5 1003 100 5000 2 90 13:21 25.12.2019
1760 Drizzle 5 1003 100 4600 1 0 12:56 25.12.2019
1761 Drizzle 5 1003 100 4300 2 90 12:38 25.12.2019
1762 Drizzle 5 1003 100 4300 2 90 12:18 25.12.2019
1763 Rain 5 1003 100 4200 3 90 11:42 25.12.2019
1764 Rain 5 1003 100 4200 3 90 11:22 25.12.2019
1765 Rain 5 1003 100 3500 2 100 10:58 25.12.2019
1766 Rain 5 1003 100 2700 2 90 10:36 25.12.2019
1767 Rain 5 1003 100 2700 2 90 10:18 25.12.2019
1768 Drizzle 5 1004 100 3000 2 110 09:43 25.12.2019
1769 Drizzle 5 1004 100 2000 2 90 09:25 25.12.2019
1770 Drizzle 5 1004 100 2000 2 90 09:25 25.12.2019
1771 Drizzle 5 1003 100 1200 3 110 08:45 25.12.2019
1772 Drizzle 5 1003 100 1100 2 110 08:25 25.12.2019
1773 Drizzle 5 1003 100 1100 2 110 08:25 25.12.2019
1774 Drizzle 5 1003 100 1200 3 110 07:45 25.12.2019
1775 Drizzle 5 1003 100 1300 3 110 07:23 25.12.2019
1776 Rain 5 1003 100 2200 3 100 06:47 25.12.2019
1777 Drizzle 5 1003 100 2300 3 100 06:21 25.12.2019
1778 Fog 5 1003 100 1000 3 100 04:49 25.12.2019
1779 Mist 5 1003 100 1300 3 100 04:25 25.12.2019
1780 Mist 5 1003 100 1900 3 100 03:52 25.12.2019
1781 Mist 5 1003 100 2100 2 100 03:32 25.12.2019
1782 Mist 5 1003 100 1900 3 110 02:32 25.12.2019
1783 Mist 5 1003 100 2100 3 100 01:55 25.12.2019
1784 Mist 6 1003 93 2600 3 110 01:24 25.12.2019
1785 Rain 6 1003 93 4100 4 100 00:46 25.12.2019
1786 Rain 6 1003 93 4000 4 100 00:27 25.12.2019
1787 Rain 6 1003 93 5000 4 110 23:55 24.12.2019
1788 Rain 6 1003 93 4400 4 100 23:36 24.12.2019
1789 Rain 6 1003 93 4400 4 100 23:18 24.12.2019
1790 Rain 6 1004 93 4200 3 100 22:38 24.12.2019
1791 Rain 6 1004 93 4200 3 100 22:20 24.12.2019
1792 Rain 6 1004 93 4200 2 100 21:42 24.12.2019
1793 Rain 6 1004 93 4200 2 100 21:22 24.12.2019
1794 Drizzle 6 1004 93 4700 3 110 20:45 24.12.2019
1795 Mist 6 1004 93 5000 3 100 20:24 24.12.2019
1796 Clouds 6 1004 93 6000 3 100 19:57 24.12.2019
1797 Clouds 6 1004 93 6000 4 100 19:38 24.12.2019
1798 Clouds 6 1004 93 6000 4 100 19:18 24.12.2019
1799 Clouds 6 1004 93 7000 3 100 18:42 24.12.2019
1800 Clouds 7 1004 87 7000 4 100 18:20 24.12.2019
1801 Clouds 7 1004 87 7000 3 100 17:50 24.12.2019
1802 Clouds 7 1004 87 6000 3 100 17:24 24.12.2019
1803 Clouds 7 1004 87 6000 3 90 16:59 24.12.2019
1804 Clouds 7 1004 87 6000 3 90 16:59 24.12.2019
1805 Clouds 7 1004 87 6000 3 90 16:41 24.12.2019
1806 Clouds 6 1004 93 7000 4 90 16:22 24.12.2019
1807 Clouds 7 1004 93 7000 4 90 16:22 24.12.2019
1808 Clouds 7 1004 93 7000 5 90 15:58 24.12.2019
1809 Clouds 7 1004 87 6000 4 110 15:38 24.12.2019
1810 Clouds 7 1004 87 6000 4 110 15:20 24.12.2019
1811 Clouds 7 1004 93 6000 4 110 14:59 24.12.2019
1812 Clouds 7 1004 93 6000 4 110 14:59 24.12.2019
1813 Clouds 7 1004 93 6000 4 110 14:41 24.12.2019
1814 Clouds 7 1004 93 6000 5 90 14:22 24.12.2019
1815 Clouds 7 1004 93 6000 3 90 13:57 24.12.2019
1816 Mist 7 1003 93 4900 3 60 13:39 24.12.2019
1817 Mist 7 1003 93 4900 3 60 13:20 24.12.2019
1818 Mist 7 1003 93 4000 3 90 12:57 24.12.2019
1819 Rain 7 1003 93 4100 4 80 12:38 24.12.2019
1820 Rain 7 1003 93 4100 4 80 12:38 24.12.2019
1821 Rain 7 1003 93 4100 4 80 12:19 24.12.2019
1822 Mist 7 1003 93 4800 4 120 11:58 24.12.2019
1823 Mist 7 1003 93 4100 3 100 11:38 24.12.2019
1824 Mist 7 1003 93 4100 3 100 11:20 24.12.2019
1825 Mist 7 1004 93 4200 4 110 10:57 24.12.2019
1826 Mist 7 1004 93 3800 4 90 10:38 24.12.2019
1827 Mist 7 1004 93 3800 4 90 10:20 24.12.2019
1828 Mist 7 1003 93 4200 3 100 09:58 24.12.2019
1829 Mist 7 1003 93 4200 3 100 09:57 24.12.2019
1830 Mist 7 1003 93 3900 3 90 09:39 24.12.2019
1831 Mist 7 1003 93 3900 3 90 09:39 24.12.2019
1832 Mist 7 1003 93 3900 3 90 09:21 24.12.2019
1833 Mist 7 1003 93 4400 3 110 08:47 24.12.2019
1834 Mist 7 1003 93 4400 3 110 08:47 24.12.2019
1835 Mist 7 1003 93 4500 3 120 08:24 24.12.2019
1836 Mist 7 1003 93 4400 3 100 07:59 24.12.2019
1837 Rain 6 1002 93 4800 4 100 07:39 24.12.2019
1838 Rain 6 1002 93 4800 4 100 07:20 24.12.2019
1839 Clouds 6 1002 100 6000 4 100 06:39 24.12.2019
1840 Mist 6 1002 100 5000 3 90 06:19 24.12.2019
1841 Mist 6 1002 100 5000 3 90 05:51 24.12.2019
1842 Clouds 6 1001 100 6000 3 100 05:19 24.12.2019
1843 Clouds 6 1001 100 6000 3 100 04:21 24.12.2019
1844 Clouds 6 1001 93 6000 3 100 03:46 24.12.2019
1845 Rain 6 1000 93 6000 4 100 02:28 24.12.2019
1846 Rain 6 1000 93 7000 3 100 01:54 24.12.2019
1847 Rain 7 1000 93 9000 4 100 01:26 24.12.2019
1848 Rain 7 1000 93 10000 3 110 00:58 24.12.2019
1849 Clouds 7 1000 87 9000 4 100 00:39 24.12.2019
1850 Clouds 7 1000 87 9000 4 100 00:19 24.12.2019
1851 Rain 8 1000 93 9000 4 110 23:42 23.12.2019
1852 Rain 8 1000 93 9000 4 110 23:42 23.12.2019
1853 Rain 8 1000 93 9000 4 110 23:24 23.12.2019
1854 Clouds 8 1000 93 9000 4 110 22:57 23.12.2019
1855 Rain 8 999 93 10000 4 110 22:38 23.12.2019
1856 Rain 8 999 93 10000 4 110 22:19 23.12.2019
1857 Rain 9 999 87 10000 4 110 21:56 23.12.2019
1858 Rain 9 999 93 9000 5 110 21:37 23.12.2019
1859 Rain 9 999 93 9000 5 110 21:19 23.12.2019
1860 Rain 9 999 100 7000 5 110 20:58 23.12.2019
1861 Rain 9 999 100 7000 3 100 20:40 23.12.2019
1862 Rain 9 999 100 7000 3 100 20:19 23.12.2019
1863 Rain 9 999 93 8000 3 110 19:57 23.12.2019
1864 Rain 10 999 93 9000 3 110 19:38 23.12.2019
1865 Rain 10 999 93 9000 3 110 19:20 23.12.2019
1866 Rain 10 999 87 10000 3 110 18:58 23.12.2019
1867 Rain 10 999 93 10000 4 110 18:39 23.12.2019
1868 Rain 10 999 93 10000 4 110 18:20 23.12.2019
1869 Rain 11 998 87 10000 4 110 17:58 23.12.2019
1870 Rain 11 998 87 10000 4 120 17:39 23.12.2019
1871 Rain 11 998 87 10000 4 120 17:19 23.12.2019
1872 Clouds 11 998 87 10000 4 130 16:57 23.12.2019
1873 Rain 11 998 87 10000 3 120 16:39 23.12.2019
1874 Rain 11 998 87 10000 3 120 16:18 23.12.2019
1875 Clouds 11 998 87 10000 3 130 15:56 23.12.2019
1876 Clouds 11 998 87 10000 4 130 15:36 23.12.2019
1877 Clouds 11 998 87 10000 4 130 15:18 23.12.2019
1878 Clouds 11 997 93 10000 3 130 14:55 23.12.2019
1879 Clouds 11 997 93 10000 4 130 14:36 23.12.2019
1880 Clouds 11 997 93 10000 4 130 14:18 23.12.2019
1881 Clouds 11 997 93 9000 3 140 13:41 23.12.2019
1882 Clouds 11 997 93 9000 3 140 13:23 23.12.2019
1883 Clouds 11 997 93 9000 3 140 12:59 23.12.2019
1884 Clouds 11 997 93 10000 4 130 12:40 23.12.2019
1885 Clouds 11 997 93 10000 4 130 12:21 23.12.2019
1886 Clouds 11 996 93 8000 3 130 11:56 23.12.2019
1887 Clouds 11 996 100 7000 4 130 11:38 23.12.2019
1888 Mist 10 996 100 4900 3 130 11:20 23.12.2019
1889 Clouds 11 996 100 7000 4 130 11:20 23.12.2019
1890 Rain 10 996 100 4900 3 130 10:55 23.12.2019
1891 Rain 10 996 100 4900 3 130 10:55 23.12.2019
1892 Rain 10 996 100 2400 3 130 10:37 23.12.2019
1893 Rain 10 996 100 2400 3 130 10:18 23.12.2019
1894 Rain 9 996 100 2400 3 110 09:54 23.12.2019
1895 Rain 9 997 100 4400 3 110 09:36 23.12.2019
1896 Rain 9 997 100 4400 3 110 09:18 23.12.2019
1897 Drizzle 9 997 100 700 4 120 08:41 23.12.2019
1898 Drizzle 9 996 100 750 3 120 08:22 23.12.2019
1899 Drizzle 8 996 100 900 3 130 07:49 23.12.2019
1900 Mist 8 997 100 1400 2 140 07:22 23.12.2019
1901 Mist 8 996 100 2200 3 140 06:57 23.12.2019
1902 Mist 8 996 100 1800 2 130 06:32 23.12.2019
1903 Mist 8 996 100 1800 3 130 05:56 23.12.2019
1904 Mist 8 996 100 1900 4 120 05:33 23.12.2019
1905 Fog 7 996 100 900 3 120 04:40 23.12.2019
1906 Fog 7 996 100 500 2 130 03:36 23.12.2019
1907 Fog 7 996 100 450 3 130 02:43 23.12.2019
1908 Fog 7 996 100 400 3 120 02:19 23.12.2019
1909 Fog 6 996 100 400 2 100 01:45 23.12.2019
1910 Fog 6 997 100 400 2 100 01:27 23.12.2019
1911 Fog 6 996 100 450 2 110 00:46 23.12.2019
1912 Fog 6 996 100 700 2 110 00:25 23.12.2019
1913 Fog 6 997 93 400 2 130 23:56 22.12.2019
1914 Clouds 6 997 100 7000 1 0 23:37 22.12.2019
1915 Clouds 6 997 100 7000 1 0 23:18 22.12.2019
1916 Clear 6 996 93 7000 1 0 22:41 22.12.2019
1917 -273 0 0 0 0 0 22:22 22.12.2019
1918 Clear 7 996 93 6000 2 160 21:59 22.12.2019
1919 Clear 7 996 93 6000 2 160 21:40 22.12.2019
1920 Clear 7 996 100 6000 2 160 21:21 22.12.2019
1921 Clear 7 996 100 6000 2 160 21:21 22.12.2019
1922 Clouds 7 996 93 7000 1 0 20:59 22.12.2019
1923 Clouds 7 996 93 7000 1 0 20:39 22.12.2019
1924 Clouds 7 996 93 7000 2 160 20:19 22.12.2019
1925 Clouds 8 996 93 9000 2 170 19:57 22.12.2019
1926 Clouds 8 996 87 9000 3 190 19:39 22.12.2019
1927 Clouds 8 996 87 9000 3 190 19:20 22.12.2019
1928 Clouds 9 995 93 9000 3 200 18:42 22.12.2019
1929 Clouds 9 995 93 9000 3 200 18:24 22.12.2019
1930 Clouds 9 995 93 10000 3 200 17:57 22.12.2019
1931 Clouds 9 995 87 10000 5 190 17:39 22.12.2019
1932 Clouds 9 995 87 10000 5 190 17:19 22.12.2019
1933 Clouds 9 995 87 10000 3 190 16:58 22.12.2019
1934 Clouds 9 995 93 10000 3 180 16:40 22.12.2019
1935 Clouds 9 995 93 10000 3 180 16:40 22.12.2019
1936 Clouds 9 995 93 10000 3 180 16:22 22.12.2019
1937 Clouds 10 995 93 10000 3 170 15:56 22.12.2019
1938 Clouds 10 995 93 10000 3 160 15:38 22.12.2019
1939 Clouds 10 995 93 10000 3 160 15:20 22.12.2019
1940 Clouds 10 995 93 10000 3 160 14:55 22.12.2019
1941 Clouds 10 995 93 9000 3 170 14:37 22.12.2019
1942 Clouds 10 995 93 9000 3 170 14:18 22.12.2019
1943 Clouds 10 995 93 9000 3 170 14:18 22.12.2019
1944 Clouds 10 995 93 9000 3 160 13:55 22.12.2019
1945 Rain 9 995 93 5000 3 160 13:37 22.12.2019
1946 Rain 9 995 93 5000 3 160 13:19 22.12.2019
1947 Rain 9 995 100 5000 3 140 12:56 22.12.2019
1948 Rain 9 995 93 4500 3 130 12:37 22.12.2019
1949 Rain 9 995 93 4500 3 130 12:18 22.12.2019
1950 Rain 9 995 93 2100 3 130 11:56 22.12.2019
1951 Rain 9 995 93 2100 3 130 11:56 22.12.2019
1952 Rain 8 995 100 2000 3 110 11:37 22.12.2019
1953 Rain 8 995 100 2000 3 110 11:18 22.12.2019
1954 Rain 8 996 100 3600 3 130 10:55 22.12.2019
1955 Rain 8 996 100 4900 3 140 10:36 22.12.2019
1956 Rain 8 996 100 4900 3 140 10:18 22.12.2019
1957 Rain 8 997 93 6000 3 150 09:56 22.12.2019
1958 Rain 8 997 93 8000 3 150 09:37 22.12.2019
1959 Rain 8 997 93 8000 3 150 09:19 22.12.2019
1960 Clouds 8 997 87 10000 5 140 08:39 22.12.2019
1961 Clouds 8 997 87 10000 5 140 08:21 22.12.2019
1962 Clouds 7 997 93 9000 5 140 07:40 22.12.2019
1963 Clouds 7 997 93 9000 5 140 07:21 22.12.2019
1964 Clouds 7 998 93 7000 3 150 06:42 22.12.2019
1965 Clouds 7 998 93 7000 3 150 06:21 22.12.2019
1966 Mist 7 998 100 5000 4 130 05:29 22.12.2019
1967 Mist 6 998 100 4300 3 130 04:45 22.12.2019
1968 Mist 6 999 100 1600 3 120 04:22 22.12.2019
1969 Fog 5 1000 93 750 3 160 02:43 22.12.2019
1970 Fog 5 1000 93 750 3 160 02:43 22.12.2019
1971 Fog 5 1000 93 750 3 160 02:43 22.12.2019
1972 Mist 4 1001 100 1700 2 170 01:57 22.12.2019
1973 Mist 4 1001 93 2500 3 170 01:31 22.12.2019
1974 Mist 4 1001 100 4000 1 0 00:48 22.12.2019
1975 Mist 4 1001 100 3300 2 160 00:28 22.12.2019
1976 Mist 4 1001 100 3200 3 140 23:57 21.12.2019
1977 Mist 4 1001 100 3200 3 140 23:57 21.12.2019
1978 Mist 4 1001 100 3200 3 140 23:39 21.12.2019
1979 Mist 4 1002 93 2900 2 160 23:20 21.12.2019
1980 Mist 4 1002 100 2800 2 170 22:46 21.12.2019
1981 Mist 4 1002 100 2800 2 170 22:46 21.12.2019
1982 Mist 5 1002 100 4300 3 180 22:20 21.12.2019
1983 Mist 5 1002 100 5000 2 160 21:58 21.12.2019
1984 Mist 5 1002 93 5000 2 160 21:39 21.12.2019
1985 Mist 5 1002 93 5000 2 160 21:20 21.12.2019
1986 Mist 5 1003 93 5000 1 0 20:59 21.12.2019
1987 Mist 5 1003 93 5000 1 0 20:41 21.12.2019
1988 Mist 5 1003 93 5000 2 190 20:22 21.12.2019
1989 Mist 6 1003 93 5000 2 190 19:58 21.12.2019
1990 Mist 6 1003 93 5000 2 210 19:40 21.12.2019
1991 Mist 6 1003 93 5000 2 210 19:19 21.12.2019
1992 Clouds 6 1004 93 6000 2 220 18:56 21.12.2019
1993 Clouds 7 1004 87 7000 3 210 18:37 21.12.2019
1994 Clouds 7 1004 87 7000 3 210 18:19 21.12.2019
1995 Clouds 7 1003 87 7000 2 180 17:55 21.12.2019
1996 Clouds 7 1004 87 9000 3 210 17:36 21.12.2019
1997 Clouds 7 1004 87 9000 3 210 17:18 21.12.2019
1998 Clouds 7 1004 87 9000 3 210 17:18 21.12.2019
1999 Clouds 7 1004 87 8000 3 200 16:41 21.12.2019
2000 Clouds 7 1004 87 8000 3 190 16:19 21.12.2019
2001 Clouds 7 1004 81 9000 3 190 15:57 21.12.2019
2002 Clouds 7 1004 81 10000 3 210 15:38 21.12.2019
2003 Clouds 7 1004 81 10000 3 210 15:19 21.12.2019
2004 Clouds 7 1004 81 10000 3 210 14:57 21.12.2019
2005 Clouds 8 1004 81 10000 3 200 14:38 21.12.2019
2006 Clouds 8 1004 81 10000 3 200 14:19 21.12.2019
2007 Clouds 8 1003 81 10000 3 190 13:56 21.12.2019
2008 Clouds 8 1004 81 10000 4 190 13:37 21.12.2019
2009 Clouds 8 1004 81 10000 4 190 13:18 21.12.2019
2010 Clouds 8 1004 81 10000 4 190 12:55 21.12.2019
2011 Clouds 8 1005 81 8000 3 220 12:37 21.12.2019
2012 Clouds 8 1005 81 8000 3 220 12:18 21.12.2019
2013 Mist 8 1005 93 5000 2 180 11:43 21.12.2019
2014 Mist 8 1005 93 3400 2 150 11:25 21.12.2019
2015 Mist 8 1005 93 3500 2 150 10:56 21.12.2019
2016 Mist 7 1006 100 2800 2 130 10:38 21.12.2019
2017 Mist 7 1006 100 2800 2 130 10:19 21.12.2019
2018 Mist 7 1006 100 3100 1 0 09:43 21.12.2019
2019 Mist 7 1006 100 2800 2 130 09:21 21.12.2019
2020 Mist 7 1006 93 2900 2 120 08:57 21.12.2019
2021 Mist 7 1007 100 3000 3 160 08:37 21.12.2019
2022 Mist 6 1007 100 3000 3 160 08:19 21.12.2019
2023 Mist 6 1007 100 3700 2 170 07:44 21.12.2019
2024 Mist 6 1007 100 3400 2 160 07:22 21.12.2019
2025 Mist 6 1007 100 4600 3 150 06:44 21.12.2019
2026 Drizzle 6 1007 100 3600 3 150 06:25 21.12.2019
2027 Drizzle 6 1007 100 2000 3 150 05:49 21.12.2019
2028 Drizzle 5 1007 100 900 3 140 04:58 21.12.2019
2029 Drizzle 5 1008 100 550 4 130 03:57 21.12.2019
2030 Drizzle 5 1009 100 800 4 140 02:52 21.12.2019
2031 Drizzle 4 1010 100 1300 4 140 01:59 21.12.2019
2032 Drizzle 4 1010 100 1000 4 140 01:28 21.12.2019
2033 Drizzle 4 1011 100 1400 4 130 00:53 21.12.2019
2034 Drizzle 4 1011 100 1400 4 130 00:33 21.12.2019
2035 Drizzle 4 1011 100 1900 4 130 23:59 20.12.2019
2036 Drizzle 4 1012 93 2200 3 130 23:38 20.12.2019
2037 Drizzle 4 1012 93 2500 3 120 23:18 20.12.2019
2038 Drizzle 4 1013 93 2700 4 130 22:40 20.12.2019
2039 Drizzle 4 1013 93 2700 4 130 22:21 20.12.2019
2040 Drizzle 4 1013 93 3100 3 130 21:58 20.12.2019
2041 Drizzle 3 1014 100 3500 3 130 21:39 20.12.2019
2042 Drizzle 3 1014 100 3500 3 130 21:20 20.12.2019
2043 Drizzle 3 1014 93 5000 4 130 20:41 20.12.2019
2044 Drizzle 3 1014 93 5000 4 130 20:20 20.12.2019
2045 Clouds 3 1015 86 7000 3 130 19:59 20.12.2019
2046 Clouds 3 1015 86 9000 4 130 19:40 20.12.2019
2047 Clouds 3 1015 86 9000 4 130 19:19 20.12.2019
2048 Clouds 2 1016 93 9000 4 130 18:54 20.12.2019
2049 Clouds 2 1016 93 8000 3 130 18:36 20.12.2019
2050 Clouds 2 1016 93 8000 3 130 18:18 20.12.2019
2051 Clouds 2 1017 70 9000 3 120 17:42 20.12.2019
2052 Clouds 2 1017 65 9000 3 120 17:21 20.12.2019
2053 Clouds 2 1017 65 10000 3 120 16:59 20.12.2019
2054 Clouds 2 1017 65 10000 4 130 16:39 20.12.2019
2055 Clouds 2 1017 65 10000 4 130 16:20 20.12.2019
2056 Clouds 3 1018 86 10000 4 120 15:56 20.12.2019
2057 Clouds 3 1018 86 10000 3 120 15:38 20.12.2019
2058 Clouds 3 1018 80 10000 3 130 15:19 20.12.2019
2059 Clouds 4 1018 80 10000 3 130 14:55 20.12.2019
2060 Clouds 4 1019 80 10000 3 130 14:37 20.12.2019
2061 Clouds 4 1019 80 10000 3 130 14:18 20.12.2019
2062 Clouds 5 1019 75 10000 3 150 13:41 20.12.2019
2063 Clouds 5 1020 75 10000 3 140 13:20 20.12.2019
2064 Clouds 5 1020 75 10000 3 140 12:58 20.12.2019
2065 Clouds 5 1020 75 10000 3 150 12:38 20.12.2019
2066 Clouds 5 1020 75 10000 3 150 12:19 20.12.2019
2067 Clouds 4 1021 63 10000 3 150 11:59 20.12.2019
2068 Clouds 4 1021 63 10000 3 150 11:59 20.12.2019
2069 Clouds 5 1021 63 10000 3 150 11:39 20.12.2019
2070 Clouds 5 1021 68 10000 3 150 11:19 20.12.2019
2071 Clouds 4 1022 68 10000 3 160 10:57 20.12.2019
2072 Clouds 4 1023 68 10000 3 140 10:39 20.12.2019
2073 Clouds 4 1023 68 10000 3 140 10:39 20.12.2019
2074 Rain 3 1023 68 10000 2 150 10:20 20.12.2019
2075 Rain 3 1023 68 10000 2 150 09:44 20.12.2019
2076 Rain 3 1023 68 10000 2 150 09:44 20.12.2019
2077 Rain 3 1024 74 10000 3 160 09:22 20.12.2019
2078 Clouds 2 1024 74 10000 3 160 08:59 20.12.2019
2079 Clouds 2 1024 74 10000 3 160 08:59 20.12.2019
2080 Clouds 1 1024 68 10000 2 160 08:41 20.12.2019
2081 Clear 1 1024 76 10000 2 160 08:22 20.12.2019
2082 Clear 1 1024 80 10000 2 150 07:58 20.12.2019
2083 Clear 0 1024 80 10000 3 150 07:39 20.12.2019
2084 Clear 0 1024 80 10000 3 150 07:18 20.12.2019
2085 Clear 1 1024 80 10000 3 160 06:48 20.12.2019
2086 Clear 0 1024 76 10000 2 150 06:30 20.12.2019
2087 Clear 1 1025 86 10000 2 130 05:49 20.12.2019
2088 Clear 0 1025 80 10000 2 140 05:25 20.12.2019
2089 Clear -2 1026 100 10000 2 120 03:57 20.12.2019
2090 Mist -1 1026 92 9000 2.55 150 03:29 20.12.2019
2091 Mist -4 1027 92 5000 1 100 02:38 20.12.2019
2092 Mist -2 1027 92 4500 1.76 141 01:44 20.12.2019
2093 Fog -4 1027 100 2000 1.68 148 00:59 20.12.2019
2094 Fog -4 1027 92 1400 1.68 148 00:40 20.12.2019
2095 Fog -4 1027 92 1400 1.68 148 00:19 20.12.2019
2096 Fog -3 1028 92 250 1 0 23:42 19.12.2019
2097 Fog -2 1028 92 250 1 0 23:23 19.12.2019
2098 Fog -3 1028 92 250 0.32 99 22:56 19.12.2019
2099 Fog -3 1028 100 450 0.32 99 22:36 19.12.2019
2100 Fog -2 1028 100 250 0.32 99 22:18 19.12.2019
2101 Fog -1 1028 92 450 0.32 99 21:42 19.12.2019
2102 Fog -1 1028 92 450 0.32 99 21:20 19.12.2019
2103 Fog -1 1028 100 350 1 240 20:58 19.12.2019
2104 Mist 0 1028 92 4500 0.32 99 20:38 19.12.2019
2105 Mist 1 1027 74 4900 2 270 20:20 19.12.2019
2106 Mist 1 1028 92 4500 1.45 311 20:20 19.12.2019
2107 Mist 0 1027 74 4900 2 270 19:59 19.12.2019
2108 Clear 1 1027 74 6000 1 0 19:40 19.12.2019
2109 Clear 1 1027 74 6000 1 0 19:40 19.12.2019
2110 Clear 1 1027 74 6000 1 0 19:20 19.12.2019
2111 Clear 1 1027 74 7000 2 240 18:59 19.12.2019
2112 Clear 1 1027 74 7000 3 280 18:40 19.12.2019
2113 Clear 3 1027 74 7000 3 280 18:20 19.12.2019
2114 Clear 3 1027 74 7000 2 280 17:56 19.12.2019
2115 Clear 3 1027 74 8000 2 300 17:38 19.12.2019
2116 Clear 4 1027 80 9000 2 300 17:18 19.12.2019
2117 Clear 4 1027 80 9000 2 300 16:56 19.12.2019
2118 Clear 5 1027 75 10000 3 270 16:37 19.12.2019
2119 Clear 5 1027 75 10000 3 270 16:19 19.12.2019
2120 Clear 5 1027 75 10000 3 290 15:57 19.12.2019
2121 Clear 6 1027 70 10000 3 290 15:37 19.12.2019
2122 Clear 6 1027 70 10000 3 290 15:19 19.12.2019
2123 Clear 7 1026 65 10000 4 300 14:54 19.12.2019
2124 Clear 8 1026 61 10000 5 300 14:36 19.12.2019
2125 Clouds 8 1026 61 10000 5 300 14:18 19.12.2019
2126 Clouds 9 1026 61 10000 6 300 13:38 19.12.2019
2127 Clouds 9 1026 61 10000 6 300 13:20 19.12.2019
2128 Clouds 9 1026 66 10000 6 310 12:57 19.12.2019
2129 Clouds 9 1026 66 10000 6 310 12:57 19.12.2019
2130 Clouds 9 1026 66 10000 5 290 12:39 19.12.2019
2131 Clouds 9 1026 66 10000 5 290 12:19 19.12.2019
2132 Clouds 9 1026 66 10000 5 290 11:58 19.12.2019
2133 Clouds 9 1026 75 10000 7 290 11:40 19.12.2019
2134 Clouds 8 1026 75 10000 7 290 11:18 19.12.2019
2135 Clouds 8 1026 75 10000 6 300 10:58 19.12.2019
2136 Clouds 8 1026 81 10000 5 290 10:38 19.12.2019
2137 Clouds 7 1026 93 10000 4 290 10:20 19.12.2019
2138 Clouds 7 1026 93 10000 4 290 09:55 19.12.2019
2139 Clouds 7 1025 93 9000 4 270 09:37 19.12.2019
2140 Clouds 6 1025 93 9000 3 270 09:18 19.12.2019
2141 Clouds 6 1025 93 9000 4 260 08:42 19.12.2019
2142 Clouds 5 1025 93 9000 4 260 08:20 19.12.2019
2143 Clouds 5 1025 93 9000 4 260 08:20 19.12.2019
2144 Clouds 5 1024 100 7000 3 250 07:59 19.12.2019
2145 Clouds 5 1024 93 9000 3 250 07:40 19.12.2019
2146 Clouds 5 1024 93 9000 3 250 07:22 19.12.2019
2147 Clouds 5 1023 100 10000 2 260 06:52 19.12.2019
2148 Clouds 6 1023 93 10000 3 260 06:52 19.12.2019
2149 Clouds 6 1023 93 10000 3 260 06:52 19.12.2019
2150 Clouds 6 1023 93 10000 3 260 06:33 19.12.2019
2151 Clouds 6 1023 93 10000 4 270 05:57 19.12.2019
2152 Clouds 6 1022 87 10000 3 280 05:39 19.12.2019
2153 Clouds 7 1022 87 10000 4 280 04:56 19.12.2019
2154 Clouds 7 1021 87 10000 3 270 03:45 19.12.2019
2155 Clear 7 1021 87 10000 3 280 02:25 19.12.2019
2156 Clear 8 1020 81 10000 4 280 01:24 19.12.2019
2157 Clear 7 1020 87 10000 4 280 00:44 19.12.2019
2158 Clear 8 1020 87 10000 4 280 00:25 19.12.2019
2159 Clear 8 1019 87 10000 4 270 23:58 18.12.2019
2160 Clear 8 1019 81 10000 4 290 23:38 18.12.2019
2161 Clear 8 1019 81 10000 4 290 23:19 18.12.2019
2162 Clear 8 1019 81 10000 4 280 22:56 18.12.2019
2163 Clear 9 1018 81 10000 4 290 22:37 18.12.2019
2164 Clear 9 1018 81 10000 4 290 22:19 18.12.2019
2165 Clear 9 1018 76 10000 5 280 21:56 18.12.2019
2166 Clear 9 1018 76 10000 5 280 21:38 18.12.2019
2167 Clear 9 1017 76 10000 5 270 21:19 18.12.2019
2168 Clear 9 1017 76 10000 5 270 20:55 18.12.2019
2169 Clear 9 1017 76 10000 6 270 20:37 18.12.2019
2170 Clouds 9 1017 76 10000 6 270 20:19 18.12.2019
2171 Clouds 9 1017 76 10000 6 270 19:55 18.12.2019
2172 Clouds 10 1017 71 10000 5 260 19:37 18.12.2019
2173 Clouds 10 1017 71 10000 5 260 19:18 18.12.2019
2174 Clouds 9 1017 71 10000 6 260 19:18 18.12.2019
2175 Clouds 10 1016 66 10000 5 260 18:44 18.12.2019
2176 Clouds 10 1016 66 10000 5 260 18:25 18.12.2019
2177 Clouds 10 1016 66 10000 5 260 18:25 18.12.2019
2178 Clouds 10 1016 66 10000 5 250 17:57 18.12.2019
2179 Clouds 10 1016 66 10000 5 250 17:39 18.12.2019
2180 Clouds 11 1016 66 10000 5 250 17:19 18.12.2019
2181 Clouds 11 1016 66 10000 5 250 16:55 18.12.2019
2182 Clouds 11 1016 62 10000 5 250 16:37 18.12.2019
2183 Clouds 11 1016 62 10000 5 250 16:18 18.12.2019
2184 Clouds 11 1016 58 10000 6 250 15:55 18.12.2019
2185 Clouds 12 1016 58 10000 5 240 15:37 18.12.2019
2186 Clouds 11 1016 58 10000 5 240 15:18 18.12.2019
2187 Clouds 12 1016 58 10000 6 250 14:40 18.12.2019
2188 Clouds 12 1016 54 10000 6 250 14:21 18.12.2019
2189 Clouds 13 1016 54 10000 6 250 13:57 18.12.2019
2190 Clouds 13 1016 54 10000 6 250 13:57 18.12.2019
2191 Clouds 13 1016 54 10000 6 250 13:57 18.12.2019
2192 Clouds 13 1016 54 10000 6 260 13:37 18.12.2019
2193 Clear 13 1016 54 10000 6 260 13:19 18.12.2019
2194 Clear 13 1016 54 10000 5 250 12:57 18.12.2019
2195 Clear 13 1016 58 10000 4 240 12:38 18.12.2019
2196 Clear 12 1016 58 10000 4 230 12:19 18.12.2019
2197 Clear 12 1016 58 10000 4 230 11:55 18.12.2019
2198 Clear 12 1016 58 10000 4 230 11:55 18.12.2019
2199 Clear 11 1017 62 10000 3 240 11:37 18.12.2019
2200 Clear 11 1017 62 10000 3 240 11:18 18.12.2019
2201 Clear 11 1017 62 10000 3 230 10:55 18.12.2019
2202 Clear 10 1017 70 10000 3 230 10:37 18.12.2019
2203 Clear 9 1017 70 10000 3 230 10:19 18.12.2019
2204 Clear 7 1017 81 10000 4 240 09:43 18.12.2019
2205 Clear 6 1017 86 8000 2 250 09:18 18.12.2019
2206 Clear 6 1017 86 8000 2 250 09:18 18.12.2019
2207 Clear 4 1017 100 6000 2 250 08:40 18.12.2019
2208 Clouds 4 1017 100 6000 2 250 08:21 18.12.2019
2209 Clouds 2 1017 100 6000 2 260 07:43 18.12.2019
2210 Mist 3 1017 93 5000 2 240 07:22 18.12.2019
2211 Clouds 2 1017 93 7000 2 240 06:55 18.12.2019
2212 Fog 3 1017 100 6000 3 250 06:27 18.12.2019
2213 Clouds 4 1017 93 9000 3 240 05:47 18.12.2019
2214 Clouds 3 1017 100 9000 3 250 04:52 18.12.2019
2215 Fog 3 1017 100 3100 3 260 02:55 18.12.2019
2216 Clouds 3 1017 93 6000 2 260 02:36 18.12.2019
2217 Clouds 3 1017 93 6000 2 260 02:18 18.12.2019
2218 Clouds 4 1017 100 8000 3 250 01:40 18.12.2019
2219 Clouds 3 1017 100 8000 3 250 01:21 18.12.2019
2220 Clouds 4 1017 93 7000 3 250 00:40 18.12.2019
2221 Clouds 4 1017 93 7000 3 250 00:22 18.12.2019
2222 Clouds 4 1017 100 7000 2 240 23:56 17.12.2019
2223 Clouds 4 1017 100 6000 2 240 23:37 17.12.2019
2224 Clouds 4 1018 93 7000 2 250 23:18 17.12.2019
2225 Clouds 4 1018 93 7000 2 250 22:54 17.12.2019
2226 Clouds 5 1018 93 9000 2 250 22:36 17.12.2019
2227 Clouds 5 1018 93 9000 2 250 22:18 17.12.2019
2228 Clouds 5 1018 93 9000 2 250 22:18 17.12.2019
2229 Clouds 4 1018 93 8000 2 250 21:55 17.12.2019
2230 Clouds 6 1017 86 9000 3 250 21:36 17.12.2019
2231 Clouds 6 1017 86 9000 3 250 21:18 17.12.2019
2232 Clouds 6 1018 86 9000 3 260 20:55 17.12.2019
2233 Clouds 6 1017 86 9000 3 240 20:36 17.12.2019
2234 Clouds 6 1017 86 9000 3 240 20:18 17.12.2019
2235 Clouds 6 1017 87 10000 3 230 19:41 17.12.2019
2236 Clouds 6 1017 87 10000 3 230 19:20 17.12.2019
2237 Clouds 6 1017 87 10000 3 230 18:58 17.12.2019
2238 Clouds 6 1017 87 9000 3 220 18:40 17.12.2019
2239 Clouds 6 1017 87 10000 3 230 18:21 17.12.2019
2240 Clouds 6 1017 87 10000 3 230 17:58 17.12.2019
2241 Clouds 6 1017 81 10000 3 230 17:39 17.12.2019
2242 Clouds 6 1017 81 10000 3 230 17:19 17.12.2019
2243 Clouds 7 1017 87 10000 3 230 16:56 17.12.2019
2244 Clouds 6 1017 87 10000 3 220 16:37 17.12.2019
2245 Clouds 6 1017 87 10000 3 220 16:18 17.12.2019
2246 Clouds 7 1017 87 9000 2 220 15:54 17.12.2019
2247 Clouds 7 1017 75 10000 2 210 15:36 17.12.2019
2248 Clouds 7 1017 75 10000 2 210 15:18 17.12.2019
2249 Clouds 8 1017 75 10000 3 210 14:54 17.12.2019
2250 Clouds 9 1017 70 10000 3 210 14:36 17.12.2019
2251 Clouds 9 1017 70 10000 3 210 14:36 17.12.2019
2252 Clouds 9 1017 70 10000 3 210 14:18 17.12.2019
2253 Clouds 9 1017 61 10000 3 200 13:54 17.12.2019
2254 Clouds 10 1017 61 10000 3 200 13:36 17.12.2019
2255 Clouds 10 1017 61 10000 3 200 13:18 17.12.2019
2256 Clouds 10 1017 61 10000 3 210 12:39 17.12.2019
2257 Clouds 9 1017 66 10000 3 210 12:19 17.12.2019
2258 Clouds 9 1017 66 10000 3 210 11:58 17.12.2019
2259 Clouds 9 1018 61 10000 4 230 11:37 17.12.2019
2260 Clouds 8 1018 65 10000 4 230 11:18 17.12.2019
2261 Clouds 8 1018 65 10000 4 230 10:58 17.12.2019
2262 Clouds 7 1018 70 10000 3 220 10:39 17.12.2019
2263 Clouds 7 1018 70 10000 3 220 10:20 17.12.2019
2264 Clouds 7 1018 70 10000 4 230 09:58 17.12.2019
2265 Clouds 6 1018 70 10000 4 230 09:40 17.12.2019
2266 Clouds 6 1018 70 10000 4 230 09:19 17.12.2019
2267 Clouds 5 1018 75 10000 3 240 08:55 17.12.2019
2268 Clouds 5 1018 75 10000 3 230 08:36 17.12.2019
2269 Clouds 4 1018 79 10000 3 240 08:18 17.12.2019
2270 Clouds 3 1018 79 10000 3 250 07:42 17.12.2019
2271 Clouds 4 1018 79 10000 3 250 07:23 17.12.2019
2272 Clouds 3 1018 86 10000 3 220 06:53 17.12.2019
2273 Clouds 3 1018 86 8000 1 0 06:32 17.12.2019
2274 Clouds 3 1018 80 10000 1 0 05:50 17.12.2019
2275 Clouds 3 1018 80 10000 1 0 05:50 17.12.2019
2276 Clouds 3 1018 80 10000 1 0 05:31 17.12.2019
2277 Clouds 4 1019 80 10000 1 0 04:00 17.12.2019
2278 Clouds 4 1019 93 10000 2 190 02:26 17.12.2019
2279 Mist 3 1020 100 3300 2.16 180 01:22 17.12.2019
2280 Mist 4 1020 100 3100 1 0 00:48 17.12.2019
2281 Mist 3 1020 100 3100 1 0 00:22 17.12.2019
2282 Mist 4 1020 100 3400 1 0 23:58 16.12.2019
2283 Mist 3 1020 93 2300 2 250 23:40 16.12.2019
2284 Fog 3 1020 100 3200 1 230 23:18 16.12.2019
2285 Fog 3 1020 100 3200 1 230 22:54 16.12.2019
2286 Fog 2 1020 100 700 2 250 22:36 16.12.2019
2287 Fog 1 1020 100 700 2 250 22:18 16.12.2019
2288 Fog 1 1020 91 500 2 230 21:54 16.12.2019
2289 Fog 1 1020 91 2400 3 220 21:36 16.12.2019
2290 Fog 1 1020 91 2400 3 220 21:36 16.12.2019
2291 Fog 2 1020 91 2400 3 220 21:18 16.12.2019
2292 Fog 2 1020 91 600 2 230 20:55 16.12.2019
2293 Fog 1 1020 91 1100 2 220 20:37 16.12.2019
2294 Fog 2 1020 87 1100 2 220 20:18 16.12.2019
2295 Fog 2 1020 87 1100 2 220 20:18 16.12.2019
2296 Fog 2 1020 100 500 1 250 19:54 16.12.2019
2297 Fog 2 1020 100 400 2 240 19:36 16.12.2019
2298 Mist 2 1020 100 5000 2 230 19:18 16.12.2019
2299 Mist 2 1020 100 5000 2 230 19:18 16.12.2019
2300 Clouds 5 1020 93 7000 2 240 18:42 16.12.2019
2301 Clouds 5 1020 93 7000 2 240 18:20 16.12.2019
2302 Clouds 5 1020 93 6000 3 230 17:59 16.12.2019
2303 Clouds 5 1019 93 6000 3 230 17:41 16.12.2019
2304 Clouds 5 1019 93 6000 2 230 17:22 16.12.2019
2305 Clouds 5 1019 93 6000 2 230 16:58 16.12.2019
2306 Clouds 6 1019 86 9000 3 220 16:39 16.12.2019
2307 Clouds 6 1019 86 9000 3 220 16:20 16.12.2019
2308 Clouds 6 1019 86 9000 2 230 15:59 16.12.2019
2309 Clouds 7 1018 65 9000 3 240 15:39 16.12.2019
2310 Clouds 7 1018 65 9000 3 240 15:39 16.12.2019
2311 Clouds 7 1019 81 10000 3 230 15:21 16.12.2019
2312 Clouds 8 1018 75 10000 2 240 14:57 16.12.2019
2313 Clouds 9 1018 70 10000 3 260 14:38 16.12.2019
2314 Clouds 9 1018 70 10000 3 260 14:19 16.12.2019
2315 Clouds 9 1018 70 10000 4 280 13:57 16.12.2019
2316 Clouds 10 1017 70 10000 5 280 13:38 16.12.2019
2317 Clouds 10 1017 70 10000 5 280 13:20 16.12.2019
2318 Clouds 10 1017 70 10000 4 260 12:58 16.12.2019
2319 Clouds 9 1017 70 10000 5 260 12:39 16.12.2019
2320 Clouds 9 1017 70 10000 5 260 12:19 16.12.2019
2321 Clouds 9 1017 66 10000 5 270 11:59 16.12.2019
2322 Clouds 9 1017 70 10000 5 260 11:40 16.12.2019
2323 Clouds 9 1017 70 10000 5 260 11:20 16.12.2019
2324 Clouds 8 1017 70 10000 5 260 10:57 16.12.2019
2325 Clouds 8 1017 65 10000 4 260 10:39 16.12.2019
2326 Clouds 8 1017 65 10000 4 260 10:39 16.12.2019
2327 Clouds 8 1017 65 10000 4 260 10:19 16.12.2019
2328 Clouds 7 1017 70 10000 4 260 09:45 16.12.2019
2329 Clouds 7 1017 70 10000 4 270 09:27 16.12.2019
2330 Clouds 7 1017 70 10000 4 270 09:27 16.12.2019
2331 Clouds 7 1016 70 10000 5 260 08:56 16.12.2019
2332 Clouds 7 1016 70 10000 5 260 08:37 16.12.2019
2333 Rain 7 1016 70 10000 5 260 08:18 16.12.2019
2334 Rain 7 1016 70 10000 5 260 08:18 16.12.2019
2335 Rain 7 1015 70 10000 5 260 07:44 16.12.2019
2336 Rain 7 1015 70 10000 5 260 07:22 16.12.2019
2337 Clouds 7 1015 65 10000 5 260 06:45 16.12.2019
2338 Clouds 7 1015 65 10000 5 260 06:25 16.12.2019
2339 Rain 7 1014 65 10000 3 240 05:50 16.12.2019
2340 Rain 7 1014 65 10000 3 240 05:31 16.12.2019
2341 Rain 7 1014 65 10000 4 240 04:22 16.12.2019
2342 Clouds 5 1014 70 10000 5 220 02:19 16.12.2019
2343 Clouds 5 1013 75 10000 4 220 01:44 16.12.2019
2344 Clouds 4 1014 75 10000 3 220 00:43 16.12.2019
2345 Clouds 4 1014 75 10000 3 220 00:25 16.12.2019
2346 Clouds 4 1014 75 10000 4 220 23:58 15.12.2019
2347 Clouds 4 1014 75 10000 3 210 23:38 15.12.2019
2348 Clouds 4 1014 80 10000 2 220 23:20 15.12.2019
2349 Clouds 4 1014 80 10000 2 220 22:56 15.12.2019
2350 Clouds 3 1014 86 10000 3 220 22:37 15.12.2019
2351 Clouds 3 1014 86 10000 3 220 22:18 15.12.2019
2352 Clouds 3 1014 86 10000 3 220 22:18 15.12.2019
2353 Clouds 3 1014 86 10000 3 230 21:56 15.12.2019
2354 Clouds 3 1014 86 10000 3 230 21:56 15.12.2019
2355 Clouds 3 1014 86 10000 3 230 21:37 15.12.2019
2356 Clouds 3 1014 86 10000 3 230 21:19 15.12.2019
2357 Clouds 3 1014 93 9000 2 250 20:55 15.12.2019
2358 Clouds 2 1014 72 9000 2 240 20:37 15.12.2019
2359 Clouds 3 1013 93 10000 2 240 20:18 15.12.2019
2360 Clouds 3 1013 93 10000 2 240 19:56 15.12.2019
2361 Clouds 3 1013 93 10000 2.5 250 19:38 15.12.2019
2362 Clouds 3 1013 93 10000 2.32 237 19:18 15.12.2019
2363 Clouds 3 1013 86 10000 2 260 18:55 15.12.2019
2364 Clouds 4 1013 80 10000 3 240 18:37 15.12.2019
2365 Clouds 4 1013 80 10000 4 250 18:18 15.12.2019
2366 Clouds 5 1012 80 10000 4 250 17:56 15.12.2019
2367 Clouds 5 1012 80 10000 4 250 17:36 15.12.2019
2368 Clouds 5 1012 75 10000 3 250 17:18 15.12.2019
2369 Clouds 5 1012 75 10000 3 250 17:18 15.12.2019
2370 Clouds 5 1012 75 10000 3 250 17:18 15.12.2019
2371 Clouds 6 1012 75 10000 4 260 16:43 15.12.2019
2372 Clouds 6 1012 75 10000 4 260 16:23 15.12.2019
2373 Clouds 6 1012 75 10000 4 260 15:58 15.12.2019
2374 Clouds 6 1011 75 10000 6 260 15:39 15.12.2019
2375 Clouds 6 1011 75 10000 6 260 15:20 15.12.2019
2376 Clouds 6 1010 75 10000 4 240 14:57 15.12.2019
2377 Clouds 6 1010 75 10000 5 260 14:38 15.12.2019
2378 Clouds 6 1010 75 10000 5 260 14:19 15.12.2019
2379 Clouds 6 1010 75 10000 6 270 13:59 15.12.2019
2380 Clouds 7 1009 70 10000 7 260 13:39 15.12.2019
2381 Clouds 7 1009 70 10000 7 260 13:20 15.12.2019
2382 Clouds 7 1009 70 10000 7 270 12:57 15.12.2019
2383 Clouds 7 1008 70 10000 6 260 12:39 15.12.2019
2384 Clouds 7 1008 70 10000 6 260 12:21 15.12.2019
2385 Clouds 7 1008 81 10000 5 260 11:59 15.12.2019
2386 Clouds 7 1008 75 10000 7 270 11:38 15.12.2019
2387 Clouds 6 1008 81 10000 7 270 11:19 15.12.2019
2388 Clouds 6 1008 81 10000 7 270 10:55 15.12.2019
2389 Clouds 6 1008 81 10000 7 280 10:37 15.12.2019
2390 Clouds 6 1008 86 10000 8 280 10:19 15.12.2019
2391 Clouds 5 1008 86 10000 8 280 09:56 15.12.2019
2392 Clouds 5 1007 93 10000 6 270 09:37 15.12.2019
2393 Clouds 5 1007 86 10000 6 270 09:18 15.12.2019
2394 Clouds 4 1007 93 10000 4 260 08:41 15.12.2019
2395 Clouds 4 1007 93 10000 4 260 08:22 15.12.2019
2396 Clouds 4 1006 93 10000 5 270 07:57 15.12.2019
2397 Clouds 5 1006 93 10000 5 260 07:37 15.12.2019
2398 Clouds 5 1005 93 10000 5 260 06:57 15.12.2019
2399 Rain 5 1005 93 10000 4 250 06:23 15.12.2019
2400 Clouds 5 1004 100 10000 3 230 05:39 15.12.2019
2401 Clouds 5 1004 100 10000 3 230 05:19 15.12.2019
2402 Rain 4 1004 100 8000 2 180 03:56 15.12.2019
2403 Rain 4 1004 100 1200 2 160 02:35 15.12.2019
2404 Rain 4 1004 100 1400 2 160 01:55 15.12.2019
2405 Mist 4 1004 100 1900 3 150 01:37 15.12.2019
2406 Mist 4 1004 100 3000 3 150 01:18 15.12.2019
2407 Mist 4 1004 100 4400 2 140 00:42 15.12.2019
2408 Mist 3 1004 100 4400 2 140 00:23 15.12.2019
2409 Fog 3 1005 100 1000 2 130 23:40 14.12.2019
2410 Fog 3 1005 100 900 2 120 23:21 14.12.2019
2411 Fog 3 1005 100 900 2 120 22:59 14.12.2019
2412 Fog 3 1005 93 900 3 140 22:40 14.12.2019
2413 Fog 3 1005 93 900 3 140 22:21 14.12.2019
2414 Fog 3 1005 100 1000 3 130 21:56 14.12.2019
2415 Mist 3 1005 100 1300 3 140 21:38 14.12.2019
2416 Mist 2 1005 100 1300 3 140 21:19 14.12.2019
2417 Mist 2 1005 100 4400 3 130 20:57 14.12.2019
2418 Rain 2 1005 100 4900 3 130 20:39 14.12.2019
2419 Rain 2 1005 100 4900 3 130 20:19 14.12.2019
2420 Rain 2 1006 100 4100 4 130 19:56 14.12.2019
2421 Rain 2 1006 100 1900 3 130 19:37 14.12.2019
2422 Mist 2 1006 100 1900 3 130 19:18 14.12.2019
2423 Mist 2 1006 100 2200 4 130 18:56 14.12.2019
2424 Mist 2 1006 93 2500 4 120 18:36 14.12.2019
2425 Mist 2 1006 93 2900 4 110 18:18 14.12.2019
2426 Mist 2 1006 100 1000 3 110 17:43 14.12.2019
2427 -273 0 0 0 0 0 17:23 14.12.2019
2428 Fog 2 1006 100 800 4 110 16:56 14.12.2019
2429 Fog 2 1007 100 900 3 110 16:38 14.12.2019
2430 Fog 2 1007 100 900 3 110 16:18 14.12.2019
2431 Mist 2 1006 100 2000 4 110 15:42 14.12.2019
2432 Mist 2 1006 100 2000 4 110 15:21 14.12.2019
2433 Mist 2 1007 100 2100 3 110 14:58 14.12.2019
2434 Mist 2 1006 100 3200 4 110 14:38 14.12.2019
2435 Mist 2 1006 93 4300 3 110 14:19 14.12.2019
2436 Mist 2 1006 100 3200 4 110 14:19 14.12.2019
2437 Mist 2 1006 93 5000 3 100 13:45 14.12.2019
2438 Mist 2 1006 93 5000 3 100 13:21 14.12.2019
2439 Mist 2 1006 93 5000 3 100 13:21 14.12.2019
2440 Clouds 2 1006 89 7000 4 110 12:59 14.12.2019
2441 Clouds 2 1006 93 7000 3 130 12:41 14.12.2019
2442 Clouds 2 1006 88 7000 3 110 12:21 14.12.2019
2443 Clouds 2 1006 93 7000 3 130 12:21 14.12.2019
2444 Clouds 2 1006 88 7000 3 110 11:59 14.12.2019
2445 Clouds 1 1006 89 6000 3 120 11:39 14.12.2019
2446 Clouds 1 1006 89 6000 3 120 11:20 14.12.2019
2447 Mist 1 1006 89 5000 3 110 10:59 14.12.2019
2448 Mist 1 1006 89 5000 4 110 10:40 14.12.2019
2449 Mist 1 1006 89 5000 4 110 10:22 14.12.2019
2450 Mist 1 1007 89 4000 3 120 09:57 14.12.2019
2451 Mist 1 1007 89 3600 4 120 09:39 14.12.2019
2452 Mist 1 1007 89 3600 4 120 09:19 14.12.2019
2453 Mist 1 1007 89 3200 4 120 08:43 14.12.2019
2454 Mist 1 1007 91 3200 4 120 08:20 14.12.2019
2455 Mist 0 1007 91 3300 3 120 07:44 14.12.2019
2456 Mist 0 1007 91 3300 3 120 07:23 14.12.2019
2457 Mist 0 1007 91 4500 3 120 06:57 14.12.2019
2458 Mist 0 1006 91 4900 3 120 06:37 14.12.2019
2459 Mist 0 1006 91 5000 4 110 05:59 14.12.2019
2460 Clouds 0 1007 87 6000 3 140 04:48 14.12.2019
2461 Clouds 0 1007 87 6000 4 130 02:35 14.12.2019
2462 Clouds 0 1007 84 6000 4 140 01:56 14.12.2019
2463 Clouds 0 1007 84 6000 4 140 01:56 14.12.2019
2464 Clouds 0 1007 85 7000 3 140 01:37 14.12.2019
2465 Clouds 0 1007 85 7000 3 140 00:47 14.12.2019
2466 Clouds 0 1007 85 7000 4 130 00:27 14.12.2019
2467 Clouds 0 1007 85 6000 4 140 23:56 13.12.2019
2468 Clouds 0 1007 85 6000 5 140 23:37 13.12.2019
2469 Clouds 0 1007 81 6000 4 140 23:18 13.12.2019
2470 Clouds 0 1007 81 6000 4 140 22:40 13.12.2019
2471 Clouds 0 1007 81 6000 4 140 22:19 13.12.2019
2472 Clouds 0 1007 81 6000 4 140 21:56 13.12.2019
2473 Clouds 0 1007 81 6000 3 140 21:37 13.12.2019
2474 Clouds 0 1007 81 6000 3 140 21:19 13.12.2019
2475 Clouds 0 1007 81 6000 5 140 20:41 13.12.2019
2476 Clouds 0 1007 78 6000 5 140 20:22 13.12.2019
2477 Clouds 0 1007 78 6000 5 140 19:59 13.12.2019
2478 Mist 0 1007 78 4600 4 140 19:40 13.12.2019
2479 Mist 0 1007 78 4600 4 140 19:22 13.12.2019
2480 Mist 0 1007 78 4500 4 140 18:58 13.12.2019
2481 Mist 0 1007 78 4400 4 140 18:40 13.12.2019
2482 Mist 0 1007 78 4400 4 140 18:19 13.12.2019
2483 Mist 0 1007 78 4700 4 140 17:43 13.12.2019
2484 Mist 0 1007 78 4700 4 140 17:20 13.12.2019
2485 Mist 0 1007 78 5000 5 130 16:59 13.12.2019
2486 Mist 0 1007 78 5000 5 120 16:39 13.12.2019
2487 Mist 0 1007 78 5000 5 120 16:20 13.12.2019
2488 Mist 0 1007 78 3900 3 130 15:43 13.12.2019
2489 Mist 0 1008 78 3300 4 110 15:23 13.12.2019
2490 Mist 0 1008 78 3300 4 110 14:59 13.12.2019
2491 Mist 0 1008 78 5000 5 120 14:41 13.12.2019
2492 Mist 0 1008 79 5000 5 120 14:20 13.12.2019
2493 Mist 0 1008 79 5000 5 130 13:57 13.12.2019
2494 Clouds 0 1008 79 6000 5 130 13:37 13.12.2019
2495 Clouds 0 1008 76 6000 5 130 13:19 13.12.2019
2496 Clouds 0 1009 76 7000 4 140 12:42 13.12.2019
2497 Clouds 0 1009 76 7000 4 140 12:20 13.12.2019
2498 Clouds 0 1009 76 6000 5 130 11:57 13.12.2019
2499 Clouds 0 1009 76 6000 5 130 11:57 13.12.2019
2500 Mist 0 1009 76 3700 3 140 11:39 13.12.2019
2501 Mist 0 1009 76 3700 3 140 11:39 13.12.2019
2502 Mist 0 1009 82 3700 3 140 11:20 13.12.2019
2503 Mist 0 1010 82 2900 2 150 10:42 13.12.2019
2504 Mist 0 1010 82 2900 2 150 10:42 13.12.2019
2505 Mist 0 1010 82 2900 2 150 10:23 13.12.2019
2506 Mist 0 1010 82 5000 4 140 09:55 13.12.2019
2507 Mist 0 1010 82 3800 3 150 09:36 13.12.2019
2508 Mist 0 1010 82 4100 4 140 09:18 13.12.2019
2509 Mist 0 1010 82 4600 4 140 08:41 13.12.2019
2510 Mist 0 1010 87 5000 4 140 08:23 13.12.2019
2511 Clouds 0 1010 87 6000 4 120 07:44 13.12.2019
2512 Clouds 0 1010 87 6000 4 120 07:44 13.12.2019
2513 Clouds 0 1010 87 6000 4 120 07:21 13.12.2019
2514 Clouds 0 1010 87 8000 4 130 07:21 13.12.2019
2515 Clouds 0 1010 87 8000 4 130 06:51 13.12.2019
2516 Clouds 0 1011 87 8000 5 130 06:28 13.12.2019
2517 Clouds 0 1011 87 10000 5 120 05:45 13.12.2019
2518 Clouds 0 1011 87 10000 5 120 05:24 13.12.2019
2519 Clouds 0 1011 87 10000 4 130 04:35 13.12.2019
2520 Clouds 0 1012 87 10000 5 130 03:39 13.12.2019
2521 Clouds 0 1012 87 10000 4 110 02:33 13.12.2019
2522 Clouds 1 1013 86 9000 4 120 01:43 13.12.2019
2523 Clouds 1 1013 87 8000 3 130 00:55 13.12.2019
2524 Clouds 1 1014 87 9000 5 130 00:36 13.12.2019
2525 Clouds 1 1014 87 8000 4 120 23:57 12.12.2019
2526 Clouds 1 1014 87 9000 4 120 23:37 12.12.2019
2527 Clouds 1 1014 88 9000 4 120 23:19 12.12.2019
2528 Clouds 1 1014 88 8000 3 120 22:54 12.12.2019
2529 Clouds 1 1015 88 6000 3 130 22:36 12.12.2019
2530 Clouds 1 1015 88 6000 3 130 22:18 12.12.2019
2531 Clouds 1 1015 88 7000 4 130 21:54 12.12.2019
2532 Clouds 1 1015 100 6000 4 130 21:36 12.12.2019
2533 Drizzle 1 1015 88 6000 3 120 21:18 12.12.2019
2534 Drizzle 1 1015 88 6000 3 120 20:55 12.12.2019
2535 Drizzle 1 1015 100 5000 3 130 20:37 12.12.2019
2536 Drizzle 1 1016 100 2200 3 130 20:19 12.12.2019
2537 Drizzle 1 1016 100 2700 3 120 19:42 12.12.2019
2538 Drizzle 1 1016 100 2700 3 120 19:22 12.12.2019
2539 Drizzle 1 1016 93 2800 3 130 18:58 12.12.2019
2540 Rain 1 1016 100 3200 4 140 18:39 12.12.2019
2541 Rain 1 1016 100 3200 4 140 18:20 12.12.2019
2542 Drizzle 1 1016 100 3600 4 130 17:57 12.12.2019
2543 Drizzle 1 1016 100 2500 3 140 17:39 12.12.2019
2544 Drizzle 1 1016 100 2500 3 140 17:20 12.12.2019
2545 Drizzle 2 1016 100 2700 3 130 16:57 12.12.2019
2546 Mist 2 1016 100 1400 5 110 16:39 12.12.2019
2547 Mist 2 1016 100 1400 5 110 16:20 12.12.2019
2548 Mist 2 1016 100 3900 5 120 15:56 12.12.2019
2549 Clouds 3 1016 93 7000 4 120 15:37 12.12.2019
2550 Clouds 3 1016 93 9000 3 120 15:18 12.12.2019
2551 Clouds 3 1017 93 7000 2 140 14:38 12.12.2019
2552 Clouds 3 1017 93 9000 3 140 14:20 12.12.2019
2553 Clouds 3 1017 100 6000 4 140 13:58 12.12.2019
2554 Clouds 3 1017 100 6000 4 140 13:39 12.12.2019
2555 Mist 3 1017 100 3700 3 140 13:21 12.12.2019
2556 Clouds 3 1017 100 6000 4 140 13:21 12.12.2019
2557 Mist 3 1017 100 3700 3 140 12:58 12.12.2019
2558 Mist 3 1018 100 2100 3 140 12:40 12.12.2019
2559 Mist 3 1018 100 2100 3 140 12:21 12.12.2019
2560 Mist 3 1018 100 2000 2 150 11:56 12.12.2019
2561 Mist 3 1018 100 1500 2 140 11:38 12.12.2019
2562 Mist 2 1018 100 1500 2 140 11:19 12.12.2019
2563 Mist 2 1019 100 1400 3 140 10:55 12.12.2019
2564 Mist 2 1019 100 1400 3 140 10:37 12.12.2019
2565 Mist 2 1019 100 1400 3 140 10:19 12.12.2019
2566 Fog 2 1019 100 450 4 130 09:42 12.12.2019
2567 Fog 2 1019 100 450 4 130 09:24 12.12.2019
2568 Fog 2 1019 100 750 3 130 08:59 12.12.2019
2569 Mist 2 1019 100 1200 4 130 08:40 12.12.2019
2570 Mist 2 1019 100 1200 4 130 08:22 12.12.2019
2571 Fog 2 1019 100 900 3 130 07:47 12.12.2019
2572 Fog 2 1019 100 500 3 130 07:25 12.12.2019
2573 Fog 2 1019 93 550 3 120 06:54 12.12.2019
2574 Fog 1 1019 100 600 3 110 06:34 12.12.2019
2575 Fog 1 1019 100 600 3 110 05:41 12.12.2019
2576 Fog 1 1019 100 750 3 110 04:54 12.12.2019
2577 Mist 1 1020 100 3000 3 110 03:37 12.12.2019
2578 Fog 1 1020 100 1000 3 120 02:39 12.12.2019
2579 Fog 1 1020 100 1000 3 120 02:20 12.12.2019
2580 Mist 1 1020 100 2400 3 110 01:40 12.12.2019
2581 Mist 1 1020 100 2400 3 110 01:22 12.12.2019
2582 Mist 1 1021 100 2000 3 100 00:46 12.12.2019
2583 Mist 1 1021 100 3200 3 100 00:20 12.12.2019
2584 Mist 1 1021 100 5000 2 130 23:44 11.12.2019
2585 Mist 1 1021 100 4700 3 120 23:21 11.12.2019
2586 Mist 1 1021 100 4700 3 120 22:57 11.12.2019
2587 Drizzle 1 1021 100 3200 3 120 22:39 11.12.2019
2588 Drizzle 1 1021 100 3200 3 120 22:20 11.12.2019
2589 Fog 1 1021 100 800 3 110 21:57 11.12.2019
2590 Fog 1 1021 100 800 3 110 21:57 11.12.2019
2591 Fog 1 1021 100 750 3 120 21:38 11.12.2019
2592 Mist 1 1021 100 2300 3 110 21:19 11.12.2019
2593 Mist 1 1021 100 2300 3 110 21:19 11.12.2019
2594 Mist 1 1021 100 2300 3 110 20:56 11.12.2019
2595 Mist 1 1021 100 2800 3 120 20:37 11.12.2019
2596 Mist 1 1021 100 2800 3 120 20:37 11.12.2019
2597 Mist 1 1021 100 2800 3 120 20:37 11.12.2019
2598 Mist 1 1022 93 5000 3 120 20:19 11.12.2019
2599 Mist 1 1022 93 5000 3 120 20:19 11.12.2019
2600 Mist 1 1022 93 5000 3 120 19:57 11.12.2019
2601 Mist 1 1022 93 5000 3 110 19:38 11.12.2019
2602 Mist 1 1021 94 5000 3 120 19:18 11.12.2019
2603 Mist 2 1022 93 5000 3 110 18:41 11.12.2019
2604 Mist 2 1022 93 5000 2 120 18:21 11.12.2019
2605 Mist 2 1022 93 5000 2 120 17:57 11.12.2019
2606 Mist 2 1022 93 5000 2 120 17:57 11.12.2019
2607 Clouds 2 1022 93 6000 2 100 17:39 11.12.2019
2608 Clouds 2 1022 86 6000 2 100 17:18 11.12.2019
2609 Clouds 2 1022 86 6000 2 100 16:57 11.12.2019
2610 Clouds 2 1022 86 6000 2 100 16:57 11.12.2019
2611 Clouds 3 1021 86 6000 1 0 16:38 11.12.2019
2612 Clouds 3 1021 86 6000 1 0 16:38 11.12.2019
2613 Clouds 3 1021 86 6000 1 0 16:38 11.12.2019
2614 Clouds 3 1021 86 6000 1 0 16:38 11.12.2019
2615 Clouds 3 1021 86 6000 1 0 16:20 11.12.2019
2616 Clouds 3 1021 84 7000 2 120 15:59 11.12.2019
2617 Clouds 3 1021 84 8000 1 110 15:39 11.12.2019
2618 Clouds 3 1021 84 8000 1 110 15:20 11.12.2019
2619 Clouds 3 1021 84 9000 1 140 14:56 11.12.2019
2620 Clouds 3 1021 84 9000 1 0 14:37 11.12.2019
2621 Clouds 3 1021 86 9000 1 0 14:19 11.12.2019
2622 Clouds 3 1021 86 9000 1 0 13:54 11.12.2019
2623 Clouds 3 1021 72 8000 1 0 13:36 11.12.2019
2624 Clouds 3 1021 86 7000 2 360 13:18 11.12.2019
2625 Clouds 3 1021 72 8000 2 360 12:54 11.12.2019
2626 Clouds 3 1021 72 8000 2 360 12:36 11.12.2019
2627 Clouds 3 1021 72 8000 2 360 12:36 11.12.2019
2628 Clouds 3 1021 86 6000 2 330 12:18 11.12.2019
2629 Clouds 3 1021 86 6000 1 0 11:54 11.12.2019
2630 Clouds 3 1021 86 6000 1 0 11:36 11.12.2019
2631 Clouds 3 1021 86 6000 2 300 11:18 11.12.2019
2632 Mist 3 1022 86 5000 1 0 10:41 11.12.2019
2633 Mist 3 1022 86 5000 1 0 10:23 11.12.2019
2634 Mist 3 1022 86 5000 1 0 09:58 11.12.2019
2635 Mist 3 1021 86 5000 1 350 09:38 11.12.2019
2636 Mist 3 1021 86 5000 2 20 09:19 11.12.2019
2637 Mist 3 1021 86 5000 2 20 08:56 11.12.2019
2638 Clouds 2 1021 93 6000 2 320 08:37 11.12.2019
2639 Mist 2 1021 93 4500 2 330 08:18 11.12.2019
2640 Mist 2 1021 100 3100 2 310 07:44 11.12.2019
2641 Mist 2 1021 100 3100 2 310 07:24 11.12.2019
2642 Mist 2 1021 100 3500 2 320 06:46 11.12.2019
2643 Mist 2 1020 100 3900 1 0 06:25 11.12.2019
2644 Mist 2 1020 100 4800 2 330 05:56 11.12.2019
2645 Mist 2 1020 100 5000 2 10 05:35 11.12.2019
2646 Mist 2 1020 100 5000 3 340 04:53 11.12.2019
2647 Mist 2 1019 100 3300 2 320 03:37 11.12.2019
2648 Fog 1 1019 100 600 1 0 02:38 11.12.2019
2649 Mist 1 1019 100 1300 2 290 01:22 11.12.2019
2650 Mist 1 1019 100 1400 3 280 00:43 11.12.2019
2651 Fog 1 1019 100 1100 3 270 00:19 11.12.2019
2652 Mist 1 1019 100 3400 3 260 23:46 10.12.2019
2653 Mist 1 1019 100 3700 2 250 23:26 10.12.2019
2654 Mist 1 1019 100 3700 2 250 22:57 10.12.2019
2655 Mist 1 1018 100 3400 2 240 22:39 10.12.2019
2656 Mist 1 1018 100 3400 2 240 22:20 10.12.2019
2657 Mist 1 1018 100 1600 3 260 21:54 10.12.2019
2658 Mist 1 1017 100 1100 3 240 21:36 10.12.2019
2659 Mist 1 1017 100 1100 2 240 21:18 10.12.2019
2660 Mist 1 1017 100 1100 2 240 20:55 10.12.2019
2661 Mist 1 1017 100 1300 3 250 20:36 10.12.2019
2662 Mist 1 1017 100 1300 3 250 20:18 10.12.2019
2663 Mist 1 1017 100 1300 3 250 20:18 10.12.2019
2664 Mist 1 1017 100 4500 3 240 19:44 10.12.2019
2665 Mist 1 1017 100 4500 3 240 19:26 10.12.2019
2666 Mist 1 1017 100 2600 3 240 18:59 10.12.2019
2667 Mist 1 1016 100 1700 3 240 18:39 10.12.2019
2668 Mist 1 1016 100 1000 3 220 18:19 10.12.2019
2669 Mist 1 1016 100 1000 3 220 17:55 10.12.2019
2670 Mist 1 1016 100 1300 2 220 17:36 10.12.2019
2671 Mist 1 1016 100 1300 3 210 17:18 10.12.2019
2672 Mist 1 1016 100 1300 3 210 17:18 10.12.2019
2673 Mist 1 1015 100 1400 3 220 16:42 10.12.2019
2674 Mist 2 1015 93 2400 2 210 16:20 10.12.2019
2675 Mist 1 1015 100 1400 3 220 16:20 10.12.2019
2676 Mist 2 1015 93 2400 2 210 15:54 10.12.2019
2677 Mist 2 1015 93 2900 2 230 15:36 10.12.2019
2678 Mist 2 1015 93 2900 2 230 15:18 10.12.2019
2679 Mist 2 1015 93 2900 2 230 15:18 10.12.2019
2680 Mist 2 1015 93 2900 2 230 15:18 10.12.2019
2681 Mist 2 1015 100 2400 3 220 14:42 10.12.2019
2682 Mist 2 1015 100 2400 3 220 14:24 10.12.2019
2683 Mist 2 1015 100 2400 3 220 14:24 10.12.2019
2684 Mist 2 1014 100 2800 3 230 13:59 10.12.2019
2685 Mist 2 1014 100 1200 3 220 13:40 10.12.2019
2686 Mist 2 1014 100 1200 3 220 13:20 10.12.2019
2687 Mist 3 1014 100 2400 3 220 12:57 10.12.2019
2688 Mist 3 1014 100 2600 3 230 12:38 10.12.2019
2689 Mist 3 1014 100 2600 3 230 12:20 10.12.2019
2690 Mist 2 1014 100 3200 3 210 11:41 10.12.2019
2691 Mist 2 1014 100 3200 3 210 11:41 10.12.2019
2692 Mist 2 1014 100 3200 3 210 11:23 10.12.2019
2693 Mist 2 1014 100 2500 3 210 10:55 10.12.2019
2694 Mist 2 1014 100 2500 4 200 10:37 10.12.2019
2695 Mist 2 1014 100 2500 3 200 10:18 10.12.2019
2696 Mist 2 1014 100 2400 3 200 09:54 10.12.2019
2697 Mist 2 1014 100 2400 3 200 09:36 10.12.2019
2698 Mist 2 1014 100 2400 3 200 09:18 10.12.2019
2699 Mist 2 1013 93 1800 3 220 08:41 10.12.2019
2700 Mist 2 1013 93 1800 3 220 08:22 10.12.2019
2701 Mist 2 1013 93 1800 3 220 08:22 10.12.2019
2702 Mist 2 1013 93 1700 3 210 07:57 10.12.2019
2703 Mist 2 1013 93 2000 2 190 07:39 10.12.2019
2704 Mist 2 1013 93 2000 2 190 07:39 10.12.2019
2705 Mist 2 1013 93 2000 2 190 07:20 10.12.2019
2706 Mist 1 1013 93 2400 3 180 06:46 10.12.2019
2707 Mist 1 1012 93 1400 3 170 06:19 10.12.2019
2708 Mist 1 1013 93 2500 3 180 06:19 10.12.2019
2709 Mist 1 1012 93 1400 3 170 05:52 10.12.2019
2710 Mist 1 1012 100 1200 3 160 04:50 10.12.2019
2711 Fog 1 1012 86 750 2 170 03:32 10.12.2019
2712 Clouds 1 1012 86 6000 1 0 02:40 10.12.2019
2713 Clouds 1 1012 93 8000 2 160 01:44 10.12.2019
2714 Clouds 1 1011 93 10000 2 160 01:20 10.12.2019
2715 Clouds 0 1011 100 8000 1 0 00:40 10.12.2019
2716 Clouds 0 1011 100 8000 1 0 00:19 10.12.2019
2717 Clouds 0 1011 84 9000 1 0 23:40 09.12.2019
2718 Clouds 0 1011 85 9000 1 0 23:22 09.12.2019
2719 Clouds 1 1011 85 9000 1 0 22:57 09.12.2019
2720 Clouds 1 1011 85 8000 2 200 22:39 09.12.2019
2721 Clouds 1 1011 85 8000 2 200 22:19 09.12.2019
2722 Clouds 1 1011 85 7000 2 210 21:56 09.12.2019
2723 Clouds 2 1011 85 8000 2 210 21:38 09.12.2019
2724 Clouds 2 1011 85 8000 2 210 21:18 09.12.2019
2725 Clouds 2 1011 85 9000 2 220 20:56 09.12.2019
2726 Clouds 2 1011 83 9000 2 230 20:37 09.12.2019
2727 Clouds 2 1011 81 9000 2 230 20:19 09.12.2019
2728 Clouds 2 1011 81 10000 3 230 19:55 09.12.2019
2729 Clouds 2 1011 81 10000 4 220 19:37 09.12.2019
2730 Clouds 2 1011 81 10000 4 220 19:19 09.12.2019
2731 Clouds 3 1011 81 10000 3 210 18:55 09.12.2019
2732 Clouds 2 1011 81 10000 3 210 18:36 09.12.2019
2733 Clouds 2 1010 81 10000 3 200 18:18 09.12.2019
2734 Clouds 3 1010 81 10000 3 200 17:56 09.12.2019
2735 Clouds 3 1010 81 10000 3 200 17:37 09.12.2019
2736 Clouds 3 1010 76 10000 3 200 17:18 09.12.2019
2737 Clouds 3 1010 76 10000 3 200 16:54 09.12.2019
2738 Clouds 3 1010 76 10000 3 200 16:36 09.12.2019
2739 Clouds 3 1009 76 10000 3 200 16:18 09.12.2019
2740 Clouds 4 1009 76 10000 3 200 15:54 09.12.2019
2741 Clouds 4 1009 76 10000 2 180 15:36 09.12.2019
2742 Clouds 5 1009 76 10000 2 210 15:18 09.12.2019
2743 Clouds 5 1009 76 10000 2 190 14:42 09.12.2019
2744 Clouds 6 1009 65 10000 3 200 14:18 09.12.2019
2745 Clouds 6 1009 65 10000 3 200 14:18 09.12.2019
2746 Clouds 6 1009 65 10000 3 200 13:56 09.12.2019
2747 Clouds 6 1009 65 10000 3 210 13:38 09.12.2019
2748 Clouds 6 1009 66 10000 3 210 13:19 09.12.2019
2749 Clouds 6 1009 70 10000 4 200 12:56 09.12.2019
2750 Clouds 6 1009 70 10000 4 200 12:37 09.12.2019
2751 Clouds 7 1009 66 10000 3 200 12:19 09.12.2019
2752 Clouds 6 1009 66 10000 3 200 11:55 09.12.2019
2753 Clouds 6 1009 66 10000 4 200 11:36 09.12.2019
2754 Clouds 6 1009 69 10000 4 200 11:18 09.12.2019
2755 Clouds 5 1010 69 10000 4 220 10:40 09.12.2019
2756 Clouds 5 1010 69 10000 4 220 10:20 09.12.2019
2757 Clouds 5 1010 69 10000 4 220 09:56 09.12.2019
2758 Clouds 4 1010 69 10000 4 220 09:38 09.12.2019
2759 Clouds 4 1010 69 10000 4 220 09:20 09.12.2019
2760 Clouds 3 1010 69 10000 4 220 08:42 09.12.2019
2761 Clouds 2 1010 74 10000 4 220 08:24 09.12.2019
2762 Clouds 2 1010 74 10000 4 210 07:56 09.12.2019
2763 Clouds 2 1010 74 10000 4 210 07:37 09.12.2019
2764 Clouds 2 1010 74 10000 3 220 07:19 09.12.2019
2765 Clouds 2 1010 74 10000 3 220 06:39 09.12.2019
2766 Clouds 2 1010 74 10000 3 220 06:21 09.12.2019
2767 Clouds 2 1010 72 10000 4 210 05:26 09.12.2019
2768 Clouds 2 1010 86 10000 4 210 04:31 09.12.2019
2769 Clouds 2 1010 86 10000 4 210 03:19 09.12.2019
2770 Clouds 3 1010 86 10000 4 210 02:18 09.12.2019
2771 Clouds 2 1011 86 10000 4 210 01:40 09.12.2019
2772 Clouds 2 1011 93 10000 4 220 00:45 09.12.2019
2773 Clouds 2 1011 93 10000 4 220 00:24 09.12.2019
2774 Clouds 2 1012 93 10000 3 210 23:39 08.12.2019
2775 Clouds 2 1012 93 10000 3 210 23:21 08.12.2019
2776 Clouds 2 1012 100 9000 3 210 22:56 08.12.2019
2777 Clouds 2 1012 93 9000 3 220 22:38 08.12.2019
2778 Clouds 2 1012 93 9000 3 220 22:18 08.12.2019
2779 Clouds 2 1012 93 9000 3 220 22:18 08.12.2019
2780 Clouds 2 1012 100 9000 3 210 21:57 08.12.2019
2781 Clouds 2 1012 100 8000 3 230 21:39 08.12.2019
2782 Clouds 2 1012 100 8000 3 230 21:39 08.12.2019
2783 Clouds 2 1012 100 8000 3 230 21:19 08.12.2019
2784 Clouds 2 1012 100 7000 3 230 20:57 08.12.2019
2785 Clouds 2 1012 100 6000 3 240 20:38 08.12.2019
2786 Clouds 2 1012 100 6000 3 240 20:19 08.12.2019
2787 Clouds 2 1012 100 7000 3 220 19:57 08.12.2019
2788 Clouds 2 1012 100 7000 3 220 19:57 08.12.2019
2789 Clouds 2 1012 93 7000 3 220 19:39 08.12.2019
2790 Clouds 2 1012 93 7000 3 220 19:21 08.12.2019
2791 Clouds 2 1013 100 6000 4 220 18:55 08.12.2019
2792 Clouds 2 1013 100 7000 3 220 18:36 08.12.2019
2793 Clouds 2 1013 100 7000 3 220 18:18 08.12.2019
2794 Mist 3 1013 100 5000 3 220 17:56 08.12.2019
2795 Mist 2 1013 93 7000 3 230 17:37 08.12.2019
2796 Mist 2 1013 93 7000 3 230 17:37 08.12.2019
2797 Mist 2 1013 93 7000 3 230 17:19 08.12.2019
2798 Clouds 2 1013 93 6000 3 220 16:55 08.12.2019
2799 Clouds 3 1013 93 8000 2 230 16:37 08.12.2019
2800 Clouds 3 1013 93 8000 2 230 16:19 08.12.2019
2801 Clouds 4 1012 86 10000 3 250 15:38 08.12.2019
2802 Clouds 4 1012 86 10000 3 250 15:19 08.12.2019
2803 Clouds 5 1012 80 10000 3 260 14:59 08.12.2019
2804 Clouds 5 1012 75 10000 4 260 14:39 08.12.2019
2805 Clouds 6 1012 75 10000 4 260 14:21 08.12.2019
2806 Clouds 6 1012 81 10000 3 250 13:57 08.12.2019
2807 Clouds 6 1012 81 10000 3 250 13:57 08.12.2019
2808 Clouds 6 1012 81 10000 4 260 13:38 08.12.2019
2809 Clouds 6 1012 81 10000 4 260 13:19 08.12.2019
2810 Clouds 6 1012 86 10000 5 260 12:54 08.12.2019
2811 Clouds 6 1012 86 10000 5 260 12:54 08.12.2019
2812 Clouds 6 1012 81 10000 6 270 12:36 08.12.2019
2813 Clouds 6 1012 81 10000 6 270 12:18 08.12.2019
2814 Clouds 5 1012 80 10000 7 280 11:38 08.12.2019
2815 Clouds 5 1012 80 10000 7 280 11:20 08.12.2019
2816 Clouds 5 1012 80 10000 5 260 10:58 08.12.2019
2817 Clouds 5 1012 80 10000 5 260 10:38 08.12.2019
2818 Clouds 5 1012 80 10000 5 260 10:19 08.12.2019
2819 Clouds 4 1012 86 10000 4 250 09:56 08.12.2019
2820 Clouds 4 1012 86 10000 4 240 09:37 08.12.2019
2821 Clouds 4 1012 86 10000 4 240 09:19 08.12.2019
2822 Clouds 4 1012 86 10000 5 250 08:57 08.12.2019
2823 Clouds 4 1012 86 10000 5 250 08:57 08.12.2019
2824 Clouds 4 1012 86 10000 5 250 08:57 08.12.2019
2825 Clouds 3 1012 93 10000 4 260 08:36 08.12.2019
2826 Clouds 3 1012 93 10000 4 260 08:18 08.12.2019
2827 Clouds 2 1011 93 10000 3 240 07:42 08.12.2019
2828 Clouds 2 1011 93 10000 3 240 07:19 08.12.2019
2829 Clouds 3 1011 86 10000 4 260 06:47 08.12.2019
2830 Clouds 3 1011 86 10000 4 260 06:22 08.12.2019
2831 Clouds 3 1010 86 10000 4 250 05:35 08.12.2019
2832 Clouds 3 1010 86 10000 4 250 04:59 08.12.2019
2833 Clouds 3 1010 86 10000 4 260 03:47 08.12.2019
2834 Clouds 3 1010 90 10000 4 260 03:20 08.12.2019
2835 Clouds 2 1010 90 10000 3 250 02:34 08.12.2019
2836 Clouds 1 1010 87 9000 2 240 01:48 08.12.2019
2837 Clouds 1 1010 87 9000 4 230 00:59 08.12.2019
2838 Clouds 1 1010 87 9000 3 230 00:39 08.12.2019
2839 Clouds 1 1010 87 9000 3 230 00:19 08.12.2019
2840 Clouds 1 1010 87 7000 3 230 23:40 07.12.2019
2841 Clouds 1 1010 77 7000 3 230 23:20 07.12.2019
2842 Clouds 1 1010 77 8000 3 240 22:56 07.12.2019
2843 Clouds 1 1010 77 8000 3 230 22:38 07.12.2019
2844 Clouds 1 1010 77 8000 3 230 22:19 07.12.2019
2845 Clouds 1 1010 77 8000 3 230 22:19 07.12.2019
2846 Clouds 1 1010 80 8000 3 230 21:56 07.12.2019
2847 Clouds -1 1010 77 8000 4 220 21:38 07.12.2019
2848 Clouds 0 1010 77 8000 4 220 21:19 07.12.2019
2849 Clouds -1 1010 86 7000 3 230 20:54 07.12.2019
2850 Clouds 0 1010 77 7000 4 230 20:36 07.12.2019
2851 Clouds 0 1010 65 7000 4 230 20:18 07.12.2019
2852 Clouds 0 1010 65 7000 4 230 19:55 07.12.2019
2853 Clouds 1 1010 65 7000 3 230 19:36 07.12.2019
2854 Clouds 0 1010 65 7000 3 230 19:18 07.12.2019
2855 Clouds 0 1010 92 7000 3 250 18:43 07.12.2019
2856 Clouds 0 1010 92 6000 3 250 18:19 07.12.2019
2857 Clouds -1 1010 92 6000 3 250 17:57 07.12.2019
2858 Clouds 0 1010 86 6000 3 240 17:39 07.12.2019
2859 Clouds 0 1010 86 6000 3 240 17:20 07.12.2019
2860 Clouds -1 1010 92 7000 3 240 16:56 07.12.2019
2861 Clouds 0 1010 86 6000 3 230 16:37 07.12.2019
2862 Clouds 0 1010 86 6000 3 230 16:18 07.12.2019
2863 Clouds 0 1010 57 8000 3 230 15:42 07.12.2019
2864 Clouds 0 1010 57 8000 3 230 15:23 07.12.2019
2865 Clouds 1 1010 74 8000 3 210 14:57 07.12.2019
2866 Clouds 2 1010 74 9000 3 210 14:39 07.12.2019
2867 Clouds 2 1009 69 9000 3 200 14:18 07.12.2019
2868 Clouds 3 1010 69 10000 3 210 13:41 07.12.2019
2869 Clouds 3 1010 69 10000 3 210 13:21 07.12.2019
2870 Clouds 3 1010 64 10000 2 170 12:56 07.12.2019
2871 Clouds 3 1010 69 10000 3 200 12:38 07.12.2019
2872 Clouds 3 1011 74 9000 2 210 12:20 07.12.2019
2873 Clouds 2 1011 74 9000 2 210 11:56 07.12.2019
2874 Clouds 2 1011 74 9000 2 210 11:37 07.12.2019
2875 Clouds 2 1011 74 9000 2 210 11:19 07.12.2019
2876 Clouds 0 1012 55 8000 3 230 10:37 07.12.2019
2877 Clouds 0 1012 55 8000 3 230 10:19 07.12.2019
2878 Clouds 0 1012 55 8000 3 230 10:19 07.12.2019
2879 Clouds -1 1012 86 8000 2 230 09:41 07.12.2019
2880 Clouds -1 1012 92 7000 2 240 09:22 07.12.2019
2881 Clouds -2 1012 92 7000 2 240 08:47 07.12.2019
2882 Mist -3 1012 100 5000 1 230 08:27 07.12.2019
2883 Mist -4 1013 92 4800 2 250 07:58 07.12.2019
2884 Mist -4 1013 100 3900 1 0 07:39 07.12.2019
2885 Mist -4 1013 100 3900 1 0 07:21 07.12.2019
2886 Mist -4 1013 100 3900 1 0 07:21 07.12.2019
2887 Mist -5 1013 92 5000 2 250 06:45 07.12.2019
2888 Mist -5 1013 92 5000 2 250 06:24 07.12.2019
2889 Mist -5 1013 100 5000 2 250 04:52 07.12.2019
2890 Mist -4 1013 100 4800 2 250 03:54 07.12.2019
2891 Mist -3 1014 92 5000 1 250 02:56 07.12.2019
2892 Mist -3 1014 100 4600 1 0 02:21 07.12.2019
2893 Clear -3 1014 92 6000 1 260 01:31 07.12.2019
2894 Mist -2 1015 92 5000 2 240 00:52 07.12.2019
2895 Clear -2 1015 86 6000 2 260 00:19 07.12.2019
2896 Clear -2 1015 92 6000 3 240 23:48 06.12.2019
2897 Clear -1 1015 92 6000 3 240 23:24 06.12.2019
2898 Clear -1 1015 92 6000 2 250 22:58 06.12.2019
2899 Clear -1 1016 86 6000 3 240 22:37 06.12.2019
2900 Clear -1 1016 86 6000 3 240 22:19 06.12.2019
2901 Clear -1 1016 92 6000 2 250 21:56 06.12.2019
2902 Clear -1 1016 92 6000 2 250 21:56 06.12.2019
2903 Clear -1 1016 86 6000 2 240 21:38 06.12.2019
2904 Clear -1 1016 86 6000 2 240 21:19 06.12.2019
2905 Clear 0 1016 62 6000 2 250 20:42 06.12.2019
2906 Clear -1 1016 57 6000 2 250 20:22 06.12.2019
2907 Clear 0 1016 57 7000 3 240 19:57 06.12.2019
2908 Clear 0 1016 57 7000 3 240 19:57 06.12.2019
2909 Clear 0 1016 57 7000 3 240 19:39 06.12.2019
2910 Clear 0 1016 57 7000 3 220 19:21 06.12.2019
2911 Clear 0 1016 57 7000 3 220 18:45 06.12.2019
2912 Clear 1 1016 57 7000 3 230 18:23 06.12.2019
2913 Clear 1 1016 80 8000 4 220 17:58 06.12.2019
2914 Clear 1 1016 80 8000 3 220 17:40 06.12.2019
2915 Clear 1 1016 80 8000 3 220 17:22 06.12.2019
2916 Clear 1 1016 74 8000 3 220 16:59 06.12.2019
2917 Clear 1 1016 74 9000 3 220 16:40 06.12.2019
2918 Clear 2 1016 74 9000 3 220 16:21 06.12.2019
2919 Clear 2 1016 69 10000 3 220 15:56 06.12.2019
2920 Clear 2 1017 64 10000 4 220 15:38 06.12.2019
2921 Clear 2 1017 64 10000 4 220 15:18 06.12.2019
2922 Clear 2 1017 64 10000 4 220 15:18 06.12.2019
2923 Clear 4 1017 55 10000 3 210 14:41 06.12.2019
2924 Clear 4 1017 55 10000 3 210 14:20 06.12.2019
2925 Clear 5 1017 52 10000 4 210 13:58 06.12.2019
2926 Clear 5 1017 48 10000 3 210 13:40 06.12.2019
2927 Clear 5 1017 48 10000 3 210 13:22 06.12.2019
2928 Clear 5 1018 48 10000 3 210 12:41 06.12.2019
2929 Clear 5 1018 48 10000 3 210 12:22 06.12.2019
2930 Clear 5 1018 48 10000 4 230 11:55 06.12.2019
2931 Clear 5 1019 51 10000 3 220 11:37 06.12.2019
2932 Clear 4 1019 51 10000 3 220 11:19 06.12.2019
2933 Clear 3 1019 55 10000 3 230 10:42 06.12.2019
2934 Clear 3 1019 55 10000 3 230 10:21 06.12.2019
2935 Clear 1 1020 64 10000 3 240 09:57 06.12.2019
2936 Clear 0 1020 41 10000 3 230 09:37 06.12.2019
2937 Clear 0 1020 41 10000 3 230 09:19 06.12.2019
2938 Clear -1 1020 74 10000 2 260 08:45 06.12.2019
2939 Clear -1 1020 74 10000 2 260 08:26 06.12.2019
2940 Clear -2 1020 79 10000 3 240 07:44 06.12.2019
2941 Clear -2 1020 79 10000 3 240 07:23 06.12.2019
2942 Clear -3 1020 79 10000 2 260 06:57 06.12.2019
2943 Clear -2 1020 79 10000 2 260 06:26 06.12.2019
2944 Clear -2 1020 74 10000 3 230 05:52 06.12.2019
2945 Clear -1 1020 74 10000 3 240 04:52 06.12.2019
2946 Clear 0 1021 63 10000 3 240 01:48 06.12.2019
2947 Clear 0 1021 56 10000 3 230 01:22 06.12.2019
2948 Clear 0 1022 56 10000 3 240 00:39 06.12.2019
2949 Clear 0 1022 56 10000 3 240 00:19 06.12.2019
2950 Clear 0 1022 56 10000 3 230 23:37 05.12.2019
2951 Clear 1 1022 67 10000 3 230 23:18 05.12.2019
2952 Clear 1 1023 67 10000 3 240 22:55 05.12.2019
2953 Clear 1 1023 59 10000 3 240 22:36 05.12.2019
2954 Clear 1 1023 59 10000 3 240 22:18 05.12.2019
2955 Clear 1 1023 64 10000 3 240 21:42 05.12.2019
2956 Clear 1 1023 64 10000 3 240 21:24 05.12.2019
2957 Clear 1 1023 64 10000 3 240 20:58 05.12.2019
2958 Clear 1 1023 64 10000 3 240 20:40 05.12.2019
2959 Clear 1 1023 64 10000 3 230 20:19 05.12.2019
2960 Clear 2 1023 59 10000 4 240 20:19 05.12.2019
2961 Clear 2 1023 59 10000 4 240 19:43 05.12.2019
2962 Clear 2 1023 59 10000 4 240 19:25 05.12.2019
2963 Clear 2 1023 64 10000 3 250 18:59 05.12.2019
2964 Clear 2 1023 64 10000 3 250 18:39 05.12.2019
2965 Clear 2 1023 64 10000 3 250 18:21 05.12.2019
2966 Clear 2 1023 69 10000 3 250 17:59 05.12.2019
2967 Clear 2 1023 69 10000 3 250 17:59 05.12.2019
2968 Clear 2 1023 80 10000 3 250 17:38 05.12.2019
2969 Clear 2 1023 80 10000 3 250 17:19 05.12.2019
2970 Clear 2 1023 80 10000 3 240 16:55 05.12.2019
2971 Clear 3 1023 80 10000 3 240 16:37 05.12.2019
2972 Clear 3 1023 80 10000 3 240 16:18 05.12.2019
2973 Clear 3 1023 69 10000 4 250 15:55 05.12.2019
2974 Clear 4 1023 69 10000 5 250 15:36 05.12.2019
2975 Clear 4 1023 69 10000 5 250 15:18 05.12.2019
2976 Clear 4 1023 69 10000 5 260 14:54 05.12.2019
2977 Clear 5 1023 75 10000 5 260 14:36 05.12.2019
2978 Clouds 5 1023 75 10000 5 260 14:18 05.12.2019
2979 Clouds 5 1023 75 10000 6 270 13:54 05.12.2019
2980 Clouds 5 1023 75 10000 6 260 13:36 05.12.2019
2981 Clouds 5 1023 75 10000 6 260 13:18 05.12.2019
2982 Clouds 5 1024 80 10000 6 270 12:41 05.12.2019
2983 Clouds 4 1024 80 10000 6 270 12:23 05.12.2019
2984 Clouds 4 1024 86 10000 5 270 11:56 05.12.2019
2985 Clouds 3 1024 86 10000 6 270 11:38 05.12.2019
2986 Clouds 3 1024 86 10000 6 280 11:19 05.12.2019
2987 Clouds 3 1024 86 10000 6 280 10:55 05.12.2019
2988 Clouds 3 1024 86 10000 6 280 10:55 05.12.2019
2989 Clouds 3 1024 81 10000 6 280 10:37 05.12.2019
2990 Clouds 3 1024 86 10000 5 270 10:18 05.12.2019
2991 Clouds 3 1024 86 10000 5 270 10:18 05.12.2019
2992 Clouds 2 1024 81 9000 5 270 09:43 05.12.2019
2993 Clouds 2 1024 81 9000 5 270 09:21 05.12.2019
2994 Clouds 2 1024 93 9000 5 270 08:58 05.12.2019
2995 Clouds 2 1024 93 7000 5 270 08:37 05.12.2019
2996 Clouds 2 1024 93 7000 5 270 08:19 05.12.2019
2997 Clouds 2 1024 93 6000 6 280 07:49 05.12.2019
2998 Clouds 2 1024 93 7000 5 270 07:31 05.12.2019
2999 Clouds 2 1024 93 7000 6 280 06:56 05.12.2019
3000 Clouds 2 1023 100 7000 6 270 06:37 05.12.2019
3001 Clouds 2 1023 100 7000 6 270 06:18 05.12.2019
3002 Clouds 1 1023 100 6000 6 260 05:44 05.12.2019
3003 Clouds 1 1023 100 6000 6 260 05:19 05.12.2019
3004 Mist 1 1023 100 5000 5 270 03:52 05.12.2019
3005 Clouds 1 1023 93 9000 6 270 02:42 05.12.2019
3006 Drizzle 1 1023 87 7000 6 270 02:23 05.12.2019
3007 Drizzle 1 1023 87 5000 5 270 01:51 05.12.2019
3008 Clouds 1 1023 86 10000 6 270 01:24 05.12.2019
3009 Clouds 1 1023 86 10000 6 270 00:47 05.12.2019
3010 Clouds 1 1023 80 10000 6 270 00:24 05.12.2019
3011 Clouds 1 1023 80 10000 7 270 23:56 04.12.2019
3012 Clouds 1 1023 80 10000 7 270 23:37 04.12.2019
3013 Clouds 1 1023 80 10000 7 270 23:19 04.12.2019
3014 Clouds 1 1023 81 10000 7 270 22:39 04.12.2019
3015 Clouds 0 1023 81 10000 7 270 22:20 04.12.2019
3016 Clouds 1 1023 81 10000 7 260 21:58 04.12.2019
3017 Clouds 0 1023 81 10000 7 260 21:39 04.12.2019
3018 Clouds 0 1023 81 10000 7 260 21:20 04.12.2019
3019 Clouds 0 1023 81 10000 7 260 20:59 04.12.2019
3020 Clouds 0 1023 81 10000 7 260 20:40 04.12.2019
3021 Clouds 0 1023 81 10000 7 260 20:40 04.12.2019
3022 Clouds 0 1023 75 10000 7 260 20:22 04.12.2019
3023 Clouds 0 1023 73 10000 7 260 19:59 04.12.2019
3024 Clouds 0 1022 73 10000 8 260 19:38 04.12.2019
3025 Clouds 0 1022 73 10000 8 260 19:20 04.12.2019
3026 Clouds 0 1023 73 10000 7 250 18:56 04.12.2019
3027 Clouds 0 1023 73 10000 6 250 18:38 04.12.2019
3028 Clouds 0 1023 73 10000 6 250 18:20 04.12.2019
3029 Clouds 0 1023 73 10000 7 250 17:40 04.12.2019
3030 Clouds 0 1023 76 10000 7 250 17:21 04.12.2019
3031 Clouds 0 1023 76 10000 7 250 16:59 04.12.2019
3032 Clouds 0 1023 76 10000 6 250 16:39 04.12.2019
3033 Clouds 0 1023 76 10000 6 250 16:19 04.12.2019
3034 Clouds 0 1023 76 10000 6 240 15:55 04.12.2019
3035 Clouds 0 1023 76 10000 5 250 15:37 04.12.2019
3036 Clouds 0 1023 76 10000 5 250 15:19 04.12.2019
3037 Clouds 1 1024 76 10000 5 250 14:44 04.12.2019
3038 Clouds 1 1024 69 10000 6 250 14:23 04.12.2019
3039 Clouds 1 1024 69 10000 7 250 13:58 04.12.2019
3040 Clouds 2 1024 69 10000 6 260 13:38 04.12.2019
3041 Clouds 2 1024 69 10000 6 260 13:38 04.12.2019
3042 Clouds 2 1024 69 10000 6 260 13:19 04.12.2019
3043 Clouds 1 1024 69 10000 7 260 12:44 04.12.2019
3044 Clouds 1 1024 69 10000 6 260 12:25 04.12.2019
3045 Clouds 1 1024 74 10000 6 250 11:56 04.12.2019
3046 Clouds 1 1024 74 10000 7 250 11:38 04.12.2019
3047 Clouds 1 1024 78 10000 7 250 11:20 04.12.2019
3048 Clouds 0 1024 78 10000 7 260 10:44 04.12.2019
3049 Clouds 0 1025 80 10000 6 270 10:23 04.12.2019
3050 Clouds -1 1025 80 10000 6 260 09:56 04.12.2019
3051 Clouds -1 1025 80 10000 6 270 09:37 04.12.2019
3052 Clouds -1 1025 86 10000 5 270 09:19 04.12.2019
3053 Clouds -2 1025 86 10000 5 280 08:40 04.12.2019
3054 Clouds -2 1025 86 10000 5 280 08:21 04.12.2019
3055 Clouds -2 1025 86 10000 6 270 07:48 04.12.2019
3056 Clouds -2 1024 79 10000 5 260 07:30 04.12.2019
3057 Clouds -2 1024 79 10000 5 260 07:30 04.12.2019
3058 Clouds -2 1024 79 10000 4 260 06:36 04.12.2019
3059 Clouds -2 1024 74 10000 5 270 05:48 04.12.2019
3060 Clouds -1 1024 68 10000 4 270 05:29 04.12.2019
3061 Clouds -1 1024 68 10000 4 280 04:25 04.12.2019
3062 Clouds -1 1024 68 10000 4 300 02:55 04.12.2019
3063 Clouds -1 1024 74 10000 5 300 00:52 04.12.2019
3064 Clouds -1 1023 74 10000 4 280 00:27 04.12.2019
3065 Clouds -1 1023 74 10000 4 300 23:59 03.12.2019
3066 Clouds -1 1023 91 10000 3 300 23:40 03.12.2019
3067 Clouds -1 1023 87 10000 3 300 23:19 03.12.2019
3068 Clouds -1 1022 87 10000 5 300 22:41 03.12.2019
3069 Clouds -1 1022 87 10000 5 300 22:19 03.12.2019
3070 Clouds -1 1022 87 10000 5 300 21:59 03.12.2019
3071 Clouds 0 1022 68 10000 4 290 21:38 03.12.2019
3072 Clouds 0 1022 68 10000 4 290 21:38 03.12.2019
3073 Clouds 0 1022 68 10000 4 290 21:19 03.12.2019
3074 Clouds 0 1022 87 10000 5 350 20:58 03.12.2019
3075 Clouds 0 1022 87 10000 5 350 20:39 03.12.2019
3076 Clouds -1 1021 74 10000 4 310 20:18 03.12.2019
3077 Clouds -1 1021 74 10000 4 310 19:55 03.12.2019
3078 Clouds -1 1021 74 10000 4 330 19:37 03.12.2019
3079 Clouds -1 1021 74 10000 4 330 19:18 03.12.2019
3080 Clouds 0 1021 84 10000 4 330 18:56 03.12.2019
3081 Clouds -1 1020 84 10000 6 330 18:38 03.12.2019
3082 Clouds -1 1020 84 10000 6 330 18:19 03.12.2019
3083 Clouds -1 1020 68 10000 7 330 17:55 03.12.2019
3084 Clouds 0 1019 84 10000 6 330 17:36 03.12.2019
3085 Clouds 0 1019 84 10000 6 330 17:36 03.12.2019
3086 Clouds -1 1019 78 10000 6 330 17:18 03.12.2019
3087 Clouds -1 1019 78 10000 6 330 16:56 03.12.2019
3088 Clouds -1 1018 78 10000 6 320 16:36 03.12.2019
3089 Clouds -1 1018 78 10000 6 320 16:18 03.12.2019
3090 Clouds -1 1018 68 10000 5 320 15:40 03.12.2019
3091 Clouds 0 1017 78 10000 7 320 15:20 03.12.2019
3092 Clouds 0 1017 78 10000 6 320 14:58 03.12.2019
3093 Clouds 1 1016 64 10000 7 320 14:40 03.12.2019
3094 Clouds 0 1016 64 10000 7 320 14:19 03.12.2019
3095 Clouds 1 1016 74 10000 6 310 13:39 03.12.2019
3096 Clouds 1 1016 74 10000 6 310 13:21 03.12.2019
3097 Clouds 1 1015 74 10000 6 300 12:59 03.12.2019
3098 Clouds 1 1015 74 10000 6 300 12:38 03.12.2019
3099 Clouds 1 1015 74 10000 6 300 12:18 03.12.2019
3100 Clouds 1 1015 74 10000 6 300 11:58 03.12.2019
3101 Clouds 1 1015 80 10000 7 300 11:38 03.12.2019
3102 Clouds 1 1015 80 10000 7 300 11:19 03.12.2019
3103 Clouds 1 1015 80 10000 7 300 11:19 03.12.2019
3104 Clouds 1 1014 80 10000 6 300 10:56 03.12.2019
3105 Clouds 1 1014 80 10000 6 300 10:38 03.12.2019
3106 Clouds 1 1014 80 10000 6 300 10:19 03.12.2019
3107 Clouds 1 1014 80 10000 6 300 09:45 03.12.2019
3108 Clouds 0 1013 84 10000 6 310 09:24 03.12.2019
3109 Clouds 0 1013 84 9000 6 300 08:57 03.12.2019
3110 Clouds 0 1013 84 9000 6 300 08:57 03.12.2019
3111 Clouds 0 1012 84 9000 6 300 08:38 03.12.2019
3112 Clouds 0 1012 86 9000 6 300 08:20 03.12.2019
3113 Snow 0 1012 86 8000 5 290 07:51 03.12.2019
3114 Snow 0 1012 86 8000 5 290 07:51 03.12.2019
3115 Snow 0 1012 86 9000 6 290 07:28 03.12.2019
3116 Clouds -1 1011 92 10000 6 280 06:45 03.12.2019
3117 Clouds -1 1011 92 10000 6 280 06:20 03.12.2019
3118 Snow -1 1011 92 8000 6 280 05:53 03.12.2019
3119 Clouds -1 1011 92 10000 4 270 03:42 03.12.2019
3120 Clouds -2 1011 92 10000 4 270 03:21 03.12.2019
3121 Clouds -2 1011 92 10000 5 280 02:53 03.12.2019
3122 Snow -2 1011 92 9000 5 280 02:32 03.12.2019
3123 Clouds -2 1012 92 10000 5 290 01:58 03.12.2019
3124 Clouds -2 1012 92 10000 5 290 01:38 03.12.2019
3125 Clouds -2 1012 92 10000 5 290 01:18 03.12.2019
3126 Clouds -2 1011 92 9000 4 270 00:41 03.12.2019
3127 Clouds -2 1012 92 9000 6 280 00:41 03.12.2019
3128 Clouds -2 1011 92 9000 4 270 00:23 03.12.2019
3129 Clouds -2 1012 92 10000 5 270 23:44 02.12.2019
3130 Clouds -2 1012 100 9000 5 270 23:21 02.12.2019
3131 Snow -2 1012 92 7000 4 270 22:56 02.12.2019
3132 Snow -2 1012 92 7000 4 270 22:56 02.12.2019
3133 Snow -2 1012 92 9000 5 280 22:37 02.12.2019
3134 Snow -2 1012 92 9000 5 280 22:19 02.12.2019
3135 Snow -1 1012 92 8000 5 260 21:39 02.12.2019
3136 Snow -1 1012 92 8000 5 260 21:20 02.12.2019
3137 Snow -1 1012 92 6000 4 250 20:57 02.12.2019
3138 Snow -1 1012 92 5000 4 240 20:39 02.12.2019
3139 Snow -1 1012 92 5000 4 240 20:20 02.12.2019
3140 Snow -1 1013 92 3600 4 230 19:56 02.12.2019
3141 Snow -1 1013 92 2600 3 230 19:38 02.12.2019
3142 Snow -1 1013 92 2600 3 230 19:20 02.12.2019
3143 Snow -1 1013 92 3100 3 220 18:48 02.12.2019
3144 Snow -1 1014 86 3300 4 210 18:48 02.12.2019
3145 Snow -1 1014 86 3300 4 210 18:24 02.12.2019
3146 Snow -1 1014 80 5000 5 210 17:59 02.12.2019
3147 Clouds -1 1014 80 10000 3 190 17:41 02.12.2019
3148 Clouds 0 1014 49 10000 3 190 17:20 02.12.2019
3149 Clouds 0 1014 49 10000 3 180 16:57 02.12.2019
3150 Clouds 0 1015 49 10000 3 170 16:39 02.12.2019
3151 Clouds 0 1015 49 10000 3 170 16:18 02.12.2019
3152 Clouds 0 1015 49 10000 3 170 15:56 02.12.2019
3153 Clouds 0 1016 49 10000 4 170 15:38 02.12.2019
3154 Clouds 0 1016 49 10000 4 170 15:19 02.12.2019
3155 Clouds 0 1017 49 10000 4 180 14:40 02.12.2019
3156 Clouds 0 1017 42 10000 4 190 14:20 02.12.2019
3157 Clouds 0 1017 42 10000 4 190 13:59 02.12.2019
3158 Clouds 0 1017 42 10000 4 190 13:41 02.12.2019
3159 Clouds 0 1018 45 10000 4 190 13:20 02.12.2019
3160 Clouds 0 1018 45 10000 4 190 13:20 02.12.2019
3161 Clouds 0 1018 45 10000 4 190 12:59 02.12.2019
3162 Clouds 0 1019 45 10000 4 200 12:40 02.12.2019
3163 Clouds 0 1019 45 10000 4 200 12:20 02.12.2019
3164 Clouds 0 1019 45 10000 4 200 11:56 02.12.2019
3165 Clouds 0 1019 45 10000 4 200 11:37 02.12.2019
3166 Clouds 0 1019 60 10000 4 200 11:18 02.12.2019
3167 Clouds 0 1020 60 10000 4 200 10:55 02.12.2019
3168 Clouds -1 1020 80 10000 4 190 10:37 02.12.2019
3169 Clouds -1 1020 80 10000 4 190 10:19 02.12.2019
3170 Clouds -1 1021 80 10000 4 200 09:41 02.12.2019
3171 Clouds -1 1021 80 10000 4 200 09:19 02.12.2019
3172 Clouds -2 1021 86 10000 4 210 08:57 02.12.2019
3173 Clouds -2 1022 86 10000 3 200 08:39 02.12.2019
3174 Clouds -2 1022 86 10000 3 200 08:21 02.12.2019
3175 Clouds -2 1022 86 10000 2 200 07:44 02.12.2019
3176 Clouds -2 1022 86 10000 2 200 07:21 02.12.2019
3177 Clouds -2 1022 86 10000 2 200 07:21 02.12.2019
3178 Clouds -2 1022 86 10000 2 210 06:56 02.12.2019
3179 Clouds -2 1022 86 10000 2 220 06:38 02.12.2019
3180 Clouds -2 1023 86 10000 2 220 05:34 02.12.2019
3181 Clouds -2 1024 86 10000 2 230 04:27 02.12.2019
3182 Clouds -1 1024 74 10000 3 250 02:53 02.12.2019
3183 Clouds -1 1024 74 10000 3 230 02:31 02.12.2019
3184 Clouds -1 1024 74 10000 2 250 01:26 02.12.2019
3185 Clouds -1 1024 74 10000 3 250 00:58 02.12.2019
3186 Clouds -1 1024 80 10000 3 260 00:25 02.12.2019
3187 Clouds -1 1024 80 10000 2 270 23:55 01.12.2019
3188 Clouds -1 1025 80 10000 3 280 23:37 01.12.2019
3189 Clouds -1 1025 80 10000 3 280 23:19 01.12.2019
3190 Clouds -1 1025 86 10000 4 280 22:55 01.12.2019
3191 Clouds -1 1025 86 10000 4 290 22:36 01.12.2019
3192 Clouds -1 1025 86 10000 4 290 22:18 01.12.2019
3193 Clouds -1 1025 86 10000 4 290 22:18 01.12.2019
3194 Clouds -1 1024 92 10000 3 270 21:54 01.12.2019
3195 Clouds -1 1024 92 10000 3 270 21:54 01.12.2019
3196 Clouds -1 1024 92 10000 4 260 21:36 01.12.2019
3197 Clouds -2 1024 92 10000 4 260 21:18 01.12.2019
3198 Clouds -1 1024 92 10000 4 270 20:54 01.12.2019
3199 Clouds -1 1024 86 10000 5 270 20:36 01.12.2019
3200 Clouds -1 1024 86 10000 5 270 20:36 01.12.2019
3201 Clouds -1 1024 86 10000 5 270 20:18 01.12.2019
3202 Clouds 0 1024 71 10000 3 270 19:40 01.12.2019
3203 Clouds 0 1024 71 10000 3 270 19:22 01.12.2019
3204 Clouds -1 1023 86 10000 2 300 18:58 01.12.2019
3205 Clouds -1 1023 86 10000 2 300 18:58 01.12.2019
3206 Clouds -1 1023 71 10000 2 320 18:39 01.12.2019
3207 Clouds 0 1023 71 10000 2 320 18:20 01.12.2019
3208 Clouds 0 1023 71 10000 2 320 18:00 01.12.2019
3209 Clouds 0 1023 71 10000 2 320 17:41 01.12.2019
3210 Clouds 1 1023 74 10000 2 320 17:23 01.12.2019
3211 Clouds 1 1023 74 10000 2 320 17:23 01.12.2019
3212 Clouds 1 1023 74 10000 2 320 17:23 01.12.2019
3213 Clouds 1 1023 74 10000 3 320 16:56 01.12.2019
3214 Clouds 1 1023 74 10000 3 320 16:56 01.12.2019
3215 Clouds 1 1022 74 10000 4 330 16:38 01.12.2019
3216 Clouds 1 1022 74 10000 4 330 16:20 01.12.2019
3217 Clouds 1 1022 74 10000 3 330 15:49 01.12.2019
3218 Clouds 2 1022 69 10000 4 310 15:31 01.12.2019
3219 Clouds 2 1022 69 10000 5 290 14:44 01.12.2019
3220 Clouds 2 1021 69 10000 5 290 14:20 01.12.2019
3221 Clouds 2 1021 69 10000 7 290 13:59 01.12.2019
3222 Clouds 3 1021 64 10000 6 280 13:39 01.12.2019
3223 Clouds 3 1021 64 10000 6 280 13:20 01.12.2019
3224 Clouds 3 1020 59 10000 7 310 12:44 01.12.2019
3225 Clouds 2 1020 64 10000 6 290 11:58 01.12.2019
3226 Clouds 2 1020 64 10000 5 290 11:39 01.12.2019
3227 Clouds 2 1020 64 10000 5 290 11:21 01.12.2019
3228 Clouds 2 1020 69 10000 6 300 10:43 01.12.2019
3229 Clouds 1 1020 74 10000 6 290 10:21 01.12.2019
3230 Clouds 0 1020 62 10000 7 300 09:57 01.12.2019
3231 Clouds 0 1019 62 10000 7 300 09:38 01.12.2019
3232 Clouds 0 1019 62 10000 7 300 09:20 01.12.2019
3233 Clouds 0 1019 62 10000 7 300 09:20 01.12.2019
3234 Clouds 0 1019 62 10000 5 310 08:44 01.12.2019
3235 Clouds -1 1019 86 10000 5 290 08:20 01.12.2019
3236 Clouds -1 1019 86 10000 4 280 07:51 01.12.2019
3237 Clouds -1 1019 86 10000 5 300 07:30 01.12.2019
3238 Clouds -1 1018 86 10000 4 290 06:56 01.12.2019
3239 Clouds -1 1018 92 10000 4 300 06:30 01.12.2019
3240 Clouds 0 1018 76 10000 5 300 05:47 01.12.2019
3241 Clouds -1 1017 92 10000 6 300 04:49 01.12.2019
3242 Clouds -1 1016 86 10000 4 290 02:48 01.12.2019
3243 Snow -1 1016 92 10000 4 280 02:30 01.12.2019
3244 Clear -1 1016 100 10000 3 270 01:57 01.12.2019
3245 Clouds -1 1016 92 10000 3 270 01:39 01.12.2019
3246 Clouds -1 1016 92 10000 3 270 01:18 01.12.2019
3247 Snow -1 1016 86 10000 3 260 00:39 01.12.2019
3248 Snow -1 1016 86 10000 3 260 00:20 01.12.2019
3249 Clear -1 1016 86 10000 3 260 23:42 30.11.2019
3250 Clouds -1 1016 79 10000 4 290 23:23 30.11.2019
3251 Clouds -1 1015 79 10000 3 290 22:49 30.11.2019
3252 Clouds -1 1015 79 10000 3 290 22:29 30.11.2019
3253 Clouds -1 1015 79 10000 4 280 21:57 30.11.2019
3254 Clouds -1 1015 79 10000 4 270 21:39 30.11.2019
3255 Clouds -1 1015 79 10000 4 270 21:19 30.11.2019
3256 Clouds -1 1014 74 10000 4 300 20:55 30.11.2019
3257 Clouds 0 1014 72 10000 4 310 20:36 30.11.2019
3258 Clouds 0 1014 63 10000 4 310 20:18 30.11.2019
3259 Clouds 0 1014 63 10000 5 320 19:55 30.11.2019
3260 Clouds 0 1013 69 10000 5 300 19:36 30.11.2019
3261 Clouds 0 1013 69 10000 5 300 19:18 30.11.2019
3262 Clouds 0 1013 63 10000 5 310 18:54 30.11.2019
3263 Clouds 1 1013 64 10000 5 320 18:36 30.11.2019
3264 Clouds 1 1013 64 10000 5 320 18:18 30.11.2019
3265 Clouds 1 1012 69 10000 5 330 17:55 30.11.2019
3266 Clouds 1 1012 64 10000 5 320 17:37 30.11.2019
3267 Clouds 1 1012 64 10000 5 320 17:37 30.11.2019
3268 Snow 2 1012 64 10000 5 320 17:18 30.11.2019
3269 Clouds 3 1010 64 10000 7 320 16:42 30.11.2019
3270 Clouds 4 1010 64 10000 7 320 16:22 30.11.2019
3271 Clouds 4 1010 65 10000 6 280 15:55 30.11.2019
3272 Clouds 4 1009 75 10000 5 290 15:37 30.11.2019
3273 Clouds 5 1009 75 10000 5 290 15:18 30.11.2019
3274 Clouds 5 1009 65 10000 6 280 14:55 30.11.2019
3275 Clouds 5 1009 75 10000 5 280 14:37 30.11.2019
3276 Clouds 5 1009 75 10000 5 280 14:18 30.11.2019
3277 Clouds 6 1008 68 10000 6 290 13:45 30.11.2019
3278 Clouds 5 1008 75 10000 6 290 13:26 30.11.2019
3279 Clouds 6 1008 75 10000 6 280 12:58 30.11.2019
3280 Clouds 5 1008 75 10000 7 290 12:40 30.11.2019
3281 Clouds 5 1008 75 10000 7 290 12:21 30.11.2019
3282 Clouds 6 1008 75 10000 6 280 11:42 30.11.2019
3283 Clouds 6 1007 80 10000 7 280 11:19 30.11.2019
3284 Clouds 6 1007 80 10000 6 280 10:56 30.11.2019
3285 Clouds 5 1007 75 10000 6 280 10:37 30.11.2019
3286 Clouds 4 1007 86 10000 6 280 10:19 30.11.2019
3287 Clouds 5 1007 86 10000 6 280 09:46 30.11.2019
3288 Clouds 5 1007 86 10000 6 280 09:24 30.11.2019
3289 Clouds 5 1007 86 10000 6 280 08:44 30.11.2019
3290 Clouds 5 1007 86 10000 6 280 08:44 30.11.2019
3291 Clouds 4 1006 93 10000 6 280 08:22 30.11.2019
3292 Clouds 4 1006 100 10000 4 280 07:58 30.11.2019
3293 Clouds 4 1006 100 10000 4 280 07:39 30.11.2019
3294 Mist 3 1005 100 3800 2 270 06:56 30.11.2019
3295 Mist 4 1005 100 5000 3 270 06:29 30.11.2019
3296 Clouds 4 1004 100 6000 4 270 05:50 30.11.2019
3297 Mist 4 1003 100 5000 4 270 03:53 30.11.2019
3298 Mist 4 1003 100 1200 4 260 02:40 30.11.2019
3299 Mist 4 1003 100 1200 4 260 02:22 30.11.2019
3300 Fog 4 1003 100 900 4 260 01:25 30.11.2019
3301 Mist 4 1002 100 1200 5 260 00:50 30.11.2019
3302 Mist 4 1002 100 1200 5 260 00:31 30.11.2019
3303 Mist 3 1002 100 1100 3 250 23:59 29.11.2019
3304 Fog 3 1002 100 900 4 260 23:40 29.11.2019
3305 Fog 3 1002 100 900 4 260 23:22 29.11.2019
3306 Fog 4 1002 100 750 4 260 22:45 29.11.2019
3307 Fog 4 1002 100 700 4 270 22:26 29.11.2019
3308 Fog 4 1002 100 750 5 270 21:44 29.11.2019
3309 Fog 4 1002 100 650 5 270 21:25 29.11.2019
3310 Fog 4 1002 100 900 5 280 20:58 29.11.2019
3311 Mist 4 1002 100 1400 6 270 20:38 29.11.2019
3312 Mist 4 1002 100 1400 6 270 20:19 29.11.2019
3313 Mist 4 1002 100 1100 5 270 19:58 29.11.2019
3314 Mist 4 1002 100 1100 4 260 19:39 29.11.2019
3315 Mist 4 1002 100 1100 4 260 19:20 29.11.2019
3316 Fog 3 1001 100 800 4 250 18:57 29.11.2019
3317 Fog 4 1001 100 700 5 270 18:38 29.11.2019
3318 Fog 4 1001 100 700 5 270 18:19 29.11.2019
3319 Fog 4 1001 100 750 5 270 17:43 29.11.2019
3320 Fog 4 1001 100 600 5 270 17:24 29.11.2019
3321 Fog 4 1001 100 650 5 280 16:57 29.11.2019
3322 Mist 4 1001 100 1300 5 260 16:38 29.11.2019
3323 Mist 4 1001 100 1300 5 260 16:18 29.11.2019
3324 Mist 4 1001 100 1400 4 270 15:41 29.11.2019
3325 Clouds 4 1001 100 7000 4 280 15:22 29.11.2019
3326 Clouds 4 1001 100 9000 3 260 14:56 29.11.2019
3327 Clouds 5 1000 100 9000 3 260 14:38 29.11.2019
3328 Rain 5 1000 100 9000 3 260 14:19 29.11.2019
3329 Rain 5 1000 100 5000 2 260 14:19 29.11.2019
3330 Rain 5 1000 100 9000 3 270 13:41 29.11.2019
3331 Rain 5 1000 100 9000 3 270 13:21 29.11.2019
3332 Rain 5 1000 100 5000 1 0 12:57 29.11.2019
3333 Rain 5 1001 100 6000 1 0 12:39 29.11.2019
3334 Rain 5 1001 100 6000 1 0 12:39 29.11.2019
3335 Rain 5 1001 100 6000 1 0 12:20 29.11.2019
3336 Rain 5 1001 100 9000 2 180 11:54 29.11.2019
3337 Rain 5 1001 100 9000 1 0 11:36 29.11.2019
3338 Rain 5 1001 100 4300 1 0 11:18 29.11.2019
3339 Rain 5 1001 100 4300 1 0 10:55 29.11.2019
3340 Rain 5 1001 100 6000 1 0 10:37 29.11.2019
3341 Rain 5 1001 100 6000 1 0 10:18 29.11.2019
3342 Rain 4 1002 100 6000 2 150 09:54 29.11.2019
3343 Rain 4 1002 100 5000 2 150 09:36 29.11.2019
3344 Rain 4 1002 100 5000 2 150 09:18 29.11.2019
3345 Rain 4 1002 100 1100 3 140 08:39 29.11.2019
3346 Rain 4 1002 100 1100 3 140 08:20 29.11.2019
3347 Rain 4 1002 100 800 3 140 07:56 29.11.2019
3348 Drizzle 4 1002 100 700 3 130 07:38 29.11.2019
3349 Drizzle 4 1002 100 700 3 130 07:19 29.11.2019
3350 Drizzle 3 1002 100 700 4 130 06:42 29.11.2019
3351 Fog 3 1003 100 700 3 140 05:48 29.11.2019
3352 Fog 3 1003 100 750 4 130 05:24 29.11.2019
3353 Fog 3 1003 100 1100 4 130 04:31 29.11.2019
3354 Mist 2 1004 100 1600 4 130 03:21 29.11.2019
3355 Fog 2 1005 100 700 3 130 02:29 29.11.2019
3356 Rain 2 1005 100 650 3 130 01:51 29.11.2019
3357 Rain 2 1005 100 750 4 130 01:26 29.11.2019
3358 Mist 2 1006 100 1200 3 130 00:42 29.11.2019
3359 Mist 2 1006 100 1200 3 130 00:42 29.11.2019
3360 Mist 2 1006 100 1200 3 130 00:21 29.11.2019
3361 Mist 1 1006 100 1400 3 140 23:55 28.11.2019
3362 Mist 1 1007 100 1500 3 140 23:36 28.11.2019
3363 Mist 1 1007 100 1500 3 140 23:18 28.11.2019
3364 Mist 1 1007 100 1400 3 130 22:38 28.11.2019
3365 Mist 1 1007 100 1400 3 130 22:20 28.11.2019
3366 Rain 1 1007 100 1700 3 140 21:58 28.11.2019
3367 Rain 1 1007 100 1700 3 140 21:40 28.11.2019
3368 Mist 1 1007 100 1400 3 130 21:19 28.11.2019
3369 Mist 1 1008 100 1300 3 140 20:56 28.11.2019
3370 Mist 0 1008 90 1300 3 130 20:38 28.11.2019
3371 Mist 0 1008 87 1300 3 130 20:18 28.11.2019
3372 Fog 0 1008 87 1000 4 130 19:41 28.11.2019
3373 Mist 0 1008 87 1200 3 130 19:23 28.11.2019
3374 Mist 0 1009 87 2100 3 130 18:59 28.11.2019
3375 Mist 0 1009 87 2900 3 140 18:40 28.11.2019
3376 Mist 0 1009 87 2900 3 140 18:19 28.11.2019
3377 Mist 0 1009 87 2800 3 130 17:59 28.11.2019
3378 Mist 0 1009 87 2800 3 130 17:59 28.11.2019
3379 Mist 0 1009 87 3400 3 130 17:41 28.11.2019
3380 Mist 0 1009 88 3400 3 130 17:23 28.11.2019
3381 Mist 0 1009 88 3000 3 130 16:58 28.11.2019
3382 Mist 0 1009 88 3100 3 140 16:38 28.11.2019
3383 Mist 0 1009 88 3100 3 140 16:19 28.11.2019
3384 Mist 0 1010 88 3700 3 150 15:42 28.11.2019
3385 Mist 0 1010 88 3700 3 150 15:21 28.11.2019
3386 Mist 0 1010 100 3200 4 160 14:59 28.11.2019
3387 Mist -1 1010 100 3000 3 150 14:41 28.11.2019
3388 Mist 0 1009 78 4200 5 160 14:22 28.11.2019
3389 Mist 0 1009 78 4300 4 150 13:58 28.11.2019
3390 Mist 0 1009 78 3600 3 140 13:40 28.11.2019
3391 Mist 0 1009 81 3600 3 140 13:21 28.11.2019
3392 Mist 0 1010 81 3100 2 150 12:45 28.11.2019
3393 Mist -1 1010 100 3000 4 150 12:27 28.11.2019
3394 Mist -1 1010 100 2800 3 160 11:58 28.11.2019
3395 Mist -1 1010 100 2800 3 160 11:40 28.11.2019
3396 Mist -1 1011 100 2600 2 140 11:21 28.11.2019
3397 Mist -1 1011 100 2400 4 150 10:57 28.11.2019
3398 Mist -1 1011 100 2600 3 140 10:38 28.11.2019
3399 Mist -1 1011 100 2600 3 140 10:18 28.11.2019
3400 Mist -1 1011 100 3200 3 150 09:41 28.11.2019
3401 Mist -1 1011 100 2300 3 130 09:41 28.11.2019
3402 Mist -1 1011 100 2300 3 130 09:23 28.11.2019
3403 Mist -1 1011 100 3100 4 130 08:58 28.11.2019
3404 Mist -1 1012 100 2900 3 140 08:38 28.11.2019
3405 Mist -1 1012 100 2900 3 140 08:20 28.11.2019
3406 Mist -1 1012 100 3100 3 150 07:42 28.11.2019
3407 Mist -1 1012 100 3100 3 150 07:24 28.11.2019
3408 Mist -1 1012 100 3100 3 150 07:23 28.11.2019
3409 Mist -1 1012 100 3100 3 150 07:23 28.11.2019
3410 Mist -1 1012 100 3800 3 140 06:44 28.11.2019
3411 Mist -1 1012 100 5000 2 160 06:23 28.11.2019
3412 Mist -1 1011 100 5000 2 140 05:49 28.11.2019
3413 Mist -1 1011 100 5000 3 130 05:18 28.11.2019
3414 Mist -1 1012 100 3600 3 140 02:37 28.11.2019
3415 Mist -1 1013 100 3500 1 0 01:40 28.11.2019
3416 Mist -1 1012 100 3800 2 170 00:44 28.11.2019
3417 Mist -1 1013 100 4700 2 180 00:22 28.11.2019
3418 Mist -1 1013 100 5000 2 140 23:54 27.11.2019
3419 Mist -1 1013 100 5000 2 150 23:36 27.11.2019
3420 Mist -1 1013 100 5000 2 150 23:18 27.11.2019
3421 Mist -1 1013 100 4900 1 0 22:38 27.11.2019
3422 Mist -1 1013 100 4900 1 0 22:20 27.11.2019
3423 Mist -1 1013 100 4800 2 140 21:56 27.11.2019
3424 Mist -1 1014 100 4600 1 0 21:37 27.11.2019
3425 Mist -1 1014 100 4600 1 0 21:37 27.11.2019
3426 Mist -1 1014 100 4600 1 0 21:19 27.11.2019
3427 Mist -1 1013 100 4700 2 130 20:58 27.11.2019
3428 Mist -1 1013 100 4900 2 120 20:39 27.11.2019
3429 Mist -1 1013 100 4900 2 120 20:39 27.11.2019
3430 Mist -1 1013 100 4900 2 120 20:20 27.11.2019
3431 Mist -1 1013 100 4900 3 120 19:57 27.11.2019
3432 Mist -1 1013 100 4900 3 120 19:57 27.11.2019
3433 Mist -1 1014 100 4900 2 100 19:39 27.11.2019
3434 Mist -1 1014 100 4900 2 100 19:19 27.11.2019
3435 Mist -1 1013 100 5000 3 100 18:58 27.11.2019
3436 Mist -1 1013 100 5000 3 100 18:58 27.11.2019
3437 Mist -1 1014 100 4500 2 100 18:37 27.11.2019
3438 Mist -1 1014 100 4500 2 100 18:19 27.11.2019
3439 Mist -1 1014 100 4800 2 110 17:56 27.11.2019
3440 Mist -1 1013 100 4700 3 100 17:37 27.11.2019
3441 Mist -1 1013 100 4700 3 100 17:37 27.11.2019
3442 Mist -1 1013 100 4700 3 100 17:19 27.11.2019
3443 Mist 0 1013 100 4500 3 90 16:56 27.11.2019
3444 Mist -1 1013 100 4500 3 90 16:55 27.11.2019
3445 Mist -1 1013 100 4700 3 90 16:36 27.11.2019
3446 Mist 0 1013 100 4700 3 90 16:18 27.11.2019
3447 Mist 0 1013 100 5000 3 110 15:55 27.11.2019
3448 Mist 0 1013 95 4500 3 70 15:37 27.11.2019
3449 Mist 0 1013 95 4500 3 70 15:18 27.11.2019
3450 Mist 0 1013 95 4800 3 70 14:42 27.11.2019
3451 Mist 0 1013 80 5000 2 100 14:24 27.11.2019
3452 Mist 0 1013 80 4500 2 130 13:59 27.11.2019
3453 Mist 0 1013 80 4900 2 100 13:40 27.11.2019
3454 Mist 0 1013 81 5000 2 110 13:19 27.11.2019
3455 Mist 0 1013 81 5000 2 110 12:59 27.11.2019
3456 Clouds 0 1014 81 6000 3 100 12:40 27.11.2019
3457 Clouds 1 1014 81 6000 2 110 12:20 27.11.2019
3458 Mist 1 1014 81 5000 2 130 11:54 27.11.2019
3459 Mist 0 1014 81 5000 2 130 11:36 27.11.2019
3460 Mist 0 1014 82 5000 2 140 11:18 27.11.2019
3461 Mist 0 1014 92 5000 2 120 10:42 27.11.2019
3462 Mist 0 1014 92 5000 2 120 10:42 27.11.2019
3463 Mist 0 1014 92 5000 2 120 10:23 27.11.2019
3464 Clouds 0 1014 86 6000 2 90 09:49 27.11.2019
3465 Clouds -1 1014 92 8000 3 90 09:26 27.11.2019
3466 Clear -1 1015 86 9000 2 70 08:59 27.11.2019
3467 Clear -2 1014 86 9000 2 70 08:41 27.11.2019
3468 Clear -2 1014 86 9000 2 70 08:22 27.11.2019
3469 Clear -2 1014 86 9000 2 70 08:22 27.11.2019
3470 Clear -2 1014 86 9000 2 70 08:22 27.11.2019
3471 Clouds -3 1014 92 7000 2 100 07:47 27.11.2019
3472 Clouds -4 1014 92 7000 2 100 07:28 27.11.2019
3473 Clouds -2 1014 92 8000 2 90 06:53 27.11.2019
3474 Clouds -2 1014 86 9000 2 110 06:35 27.11.2019
3475 Clouds -1 1014 86 10000 2 90 05:45 27.11.2019
3476 Clouds -1 1014 86 10000 2 90 05:45 27.11.2019
3477 Clouds -1 1014 80 10000 1 90 05:19 27.11.2019
3478 Clouds -1 1015 80 9000 1 60 04:43 27.11.2019
3479 Clouds -1 1014 80 10000 1 90 03:55 27.11.2019
3480 Clouds -1 1015 80 10000 1 80 03:36 27.11.2019
3481 Clouds -1 1015 80 10000 1 80 03:18 27.11.2019
3482 Clouds -1 1015 86 9000 2 80 01:48 27.11.2019
3483 Clouds -1 1015 80 10000 1.13 82 00:46 27.11.2019
3484 Clouds -2 1016 80 9000 1.13 82 00:27 27.11.2019
3485 Clouds -1 1016 80 10000 2 90 23:54 26.11.2019
3486 Clouds -1 1016 80 10000 2 90 23:54 26.11.2019
3487 Clouds -1 1016 80 10000 2 90 23:36 26.11.2019
3488 Clouds -1 1016 86 9000 2 100 23:18 26.11.2019
3489 Clouds -1 1016 80 10000 2 100 22:39 26.11.2019
3490 Clouds -1 1016 80 10000 2 100 22:19 26.11.2019
3491 Clouds -1 1016 86 9000 2 100 21:59 26.11.2019
3492 Clouds -1 1017 86 7000 2 90 21:38 26.11.2019
3493 Clouds -1 1017 86 7000 2 90 21:19 26.11.2019
3494 Clouds -1 1017 86 10000 2 100 20:55 26.11.2019
3495 Clouds -1 1017 86 10000 1 0 20:37 26.11.2019
3496 Clouds -1 1017 86 10000 1 0 20:19 26.11.2019
3497 Clouds -1 1017 86 10000 3 100 19:55 26.11.2019
3498 Clouds -1 1017 80 10000 3 100 19:37 26.11.2019
3499 Clouds -1 1017 80 10000 3 100 19:18 26.11.2019
3500 Clouds -1 1017 80 10000 2 110 18:56 26.11.2019
3501 Clouds -1 1017 80 10000 3 110 18:38 26.11.2019
3502 Clouds -1 1017 80 10000 3 110 18:20 26.11.2019
3503 Clouds -1 1017 80 10000 3 110 17:55 26.11.2019
3504 Clouds -1 1017 80 10000 3 110 17:37 26.11.2019
3505 Clouds -1 1018 80 10000 3 110 17:19 26.11.2019
3506 Clouds -1 1018 80 10000 3 110 16:55 26.11.2019
3507 Clouds 0 1017 78 10000 3 110 16:37 26.11.2019
3508 Clouds 0 1017 78 10000 3 110 16:37 26.11.2019
3509 Clouds 0 1017 78 10000 3 110 16:18 26.11.2019
3510 Clouds 0 1017 78 10000 2 110 15:57 26.11.2019
3511 Clouds 0 1017 78 10000 4 100 15:37 26.11.2019
3512 Clouds 0 1017 78 10000 4 100 15:18 26.11.2019
3513 Clouds 0 1018 78 10000 3 100 14:45 26.11.2019
3514 Clouds 0 1018 76 10000 3 100 14:24 26.11.2019
3515 Clouds 0 1018 76 10000 3 100 13:44 26.11.2019
3516 Clouds 1 1018 77 10000 3 100 13:24 26.11.2019
3517 Clouds 1 1018 69 10000 3 110 12:58 26.11.2019
3518 Clouds 1 1018 64 10000 3 100 12:37 26.11.2019
3519 Clouds 0 1018 77 10000 4 90 12:19 26.11.2019
3520 Clouds 0 1018 77 10000 3 90 11:55 26.11.2019
3521 Clouds 0 1018 77 10000 4 90 11:55 26.11.2019
3522 Clouds 0 1018 77 10000 3 90 11:37 26.11.2019
3523 Clouds 0 1019 68 10000 3 90 11:18 26.11.2019
3524 Clouds 0 1019 68 10000 3 90 10:56 26.11.2019
3525 Clouds 0 1019 68 10000 3 90 10:37 26.11.2019
3526 Clouds 0 1019 68 10000 3 90 10:19 26.11.2019
3527 Clouds -1 1019 74 10000 3 100 09:42 26.11.2019
3528 Clouds -1 1019 74 10000 3 100 09:24 26.11.2019
3529 Clouds -1 1020 74 10000 3 100 08:50 26.11.2019
3530 Clouds -2 1020 79 10000 3 100 08:31 26.11.2019
3531 Clouds -2 1020 79 10000 3 90 07:58 26.11.2019
3532 Clouds -2 1020 86 10000 2 90 07:40 26.11.2019
3533 Clouds -2 1020 86 10000 2 90 07:21 26.11.2019
3534 Clouds -3 1020 86 9000 2 90 06:50 26.11.2019
3535 Clouds -3 1020 86 10000 2 100 05:59 26.11.2019
3536 Clouds -3 1020 86 9000 2 110 05:26 26.11.2019
3537 Clouds -3 1020 92 10000 2 110 03:22 26.11.2019
3538 Clouds -3 1020 92 10000 2 110 03:22 26.11.2019
3539 Clouds -3 1021 86 10000 2 130 01:42 26.11.2019
3540 Clouds -3 1021 86 10000 2 120 01:22 26.11.2019
3541 Clouds -3 1021 86 10000 2 120 00:41 26.11.2019
3542 Clouds -3 1021 86 10000 2 140 00:18 26.11.2019
3543 Clouds -3 1022 86 10000 2 110 23:38 25.11.2019
3544 Clouds -3 1022 86 10000 2 130 23:19 25.11.2019
3545 Clouds -3 1022 86 10000 2 120 22:40 25.11.2019
3546 Snow -3 1022 79 10000 2 120 22:19 25.11.2019
3547 Snow -3 1022 79 10000 2 120 21:59 25.11.2019
3548 Snow -3 1022 79 10000 2 120 21:41 25.11.2019
3549 Snow -3 1022 79 9000 2 110 21:23 25.11.2019
3550 Snow -3 1022 79 9000 3 120 20:58 25.11.2019
3551 Clouds -3 1022 79 10000 3 110 20:40 25.11.2019
3552 Clouds -2 1022 79 10000 3 110 20:20 25.11.2019
3553 Clouds -3 1022 79 10000 4 120 19:57 25.11.2019
3554 Clouds -3 1022 79 10000 4 110 19:39 25.11.2019
3555 Clouds -3 1022 79 10000 4 110 19:20 25.11.2019
3556 Clouds -3 1022 79 10000 4 110 18:59 25.11.2019
3557 Clouds -3 1023 79 10000 4 100 18:41 25.11.2019
3558 Clouds -3 1023 79 10000 5 110 18:23 25.11.2019
3559 Clouds -2 1023 79 10000 5 110 17:58 25.11.2019
3560 Clouds -2 1023 74 10000 5 100 17:40 25.11.2019
3561 Clouds -2 1023 74 10000 5 110 17:22 25.11.2019
3562 Clouds -2 1023 74 10000 5 110 16:59 25.11.2019
3563 Clouds -2 1023 74 10000 5 110 16:59 25.11.2019
3564 Clouds -2 1023 74 10000 4 100 16:41 25.11.2019
3565 Clouds -2 1023 74 10000 4 100 16:22 25.11.2019
3566 Clouds -2 1022 74 10000 4 100 15:56 25.11.2019
3567 Clouds -2 1023 79 10000 4 110 15:37 25.11.2019
3568 Clouds -2 1023 79 10000 4 110 15:19 25.11.2019
3569 Clouds -2 1023 79 10000 4 110 15:19 25.11.2019
3570 Clouds -3 1023 79 10000 4 100 14:44 25.11.2019
3571 Clouds -2 1023 79 10000 4 110 14:26 25.11.2019
3572 Clouds -2 1023 79 10000 4 110 13:58 25.11.2019
3573 Clouds -2 1023 79 10000 4 110 13:39 25.11.2019
3574 Clouds -2 1023 79 10000 4 110 13:20 25.11.2019
3575 Clouds -2 1023 79 10000 3 110 12:59 25.11.2019
3576 Clouds -2 1023 79 10000 4 110 12:39 25.11.2019
3577 Clouds -2 1023 73 10000 3 100 12:19 25.11.2019
3578 Clouds -3 1024 73 10000 4 100 11:41 25.11.2019
3579 Clouds -3 1024 73 10000 4 100 11:22 25.11.2019
3580 Clouds -3 1024 73 10000 4 100 11:22 25.11.2019
3581 Clouds -4 1024 79 10000 4 90 10:59 25.11.2019
3582 Clouds -3 1024 79 10000 3 100 10:41 25.11.2019
3583 Clouds -5 1024 85 10000 3 100 10:20 25.11.2019
3584 Clouds -5 1024 79 10000 3 100 09:44 25.11.2019
3585 Clouds -5 1024 79 10000 3 100 09:26 25.11.2019
3586 Clouds -5 1024 79 10000 3 100 08:58 25.11.2019
3587 Clouds -6 1024 85 10000 3 110 08:39 25.11.2019
3588 Clouds -6 1024 85 10000 3 110 08:20 25.11.2019
3589 Clouds -7 1024 85 10000 2 90 07:41 25.11.2019
3590 Clouds -7 1024 85 10000 2 90 07:18 25.11.2019
3591 Clouds -8 1024 85 10000 3 80 06:43 25.11.2019
3592 Clouds -8 1024 85 10000 3 90 06:19 25.11.2019
3593 Clouds -8 1024 85 10000 3 90 06:19 25.11.2019
3594 Clouds -8 1024 85 10000 2 100 05:37 25.11.2019
3595 Clouds -8 1024 85 10000 3 100 04:50 25.11.2019
3596 Clouds -7 1025 85 10000 3 110 02:48 25.11.2019
3597 Clouds -7 1025 79 10000 3 110 01:57 25.11.2019
3598 Clouds -7 1025 85 10000 2 100 01:38 25.11.2019
3599 Clouds -7 1025 85 10000 2 100 01:19 25.11.2019
3600 Clouds -6 1025 85 10000 2 100 00:21 25.11.2019
3601 Clouds -7 1026 85 8000 2 100 23:46 24.11.2019
3602 Clouds -7 1026 92 8000 2 110 23:21 24.11.2019
3603 Clouds -7 1026 92 8000 2 110 22:59 24.11.2019
3604 Clouds -6 1026 85 7000 3 90 22:40 24.11.2019
3605 Clouds -6 1026 85 7000 3 90 22:21 24.11.2019
3606 Clouds -6 1026 85 7000 3 90 21:58 24.11.2019
3607 Clouds -6 1026 79 10000 2 110 21:40 24.11.2019
3608 Clouds -6 1026 79 10000 2 110 21:21 24.11.2019
3609 Clouds -6 1026 85 10000 2 130 20:58 24.11.2019
3610 Clouds -5 1027 79 10000 2 130 20:38 24.11.2019
3611 Clouds -5 1027 79 10000 2 130 20:19 24.11.2019
3612 Clouds -5 1027 79 10000 2 130 19:56 24.11.2019
3613 Clouds -6 1027 79 10000 2 130 19:38 24.11.2019
3614 Clouds -6 1027 79 10000 2 130 19:20 24.11.2019
3615 Clouds -5 1027 73 8000 2 120 18:58 24.11.2019
3616 Clouds -5 1027 73 8000 2 120 18:37 24.11.2019
3617 Clouds -5 1027 73 10000 2 120 18:19 24.11.2019
3618 Clouds -5 1027 73 10000 2 120 18:19 24.11.2019
3619 Clouds -5 1027 79 9000 2 110 17:56 24.11.2019
3620 Clouds -5 1027 79 9000 2 110 17:56 24.11.2019
3621 Clouds -5 1027 79 9000 2 110 17:38 24.11.2019
3622 Clouds -5 1027 79 10000 2 120 17:19 24.11.2019
3623 Clouds -5 1027 79 10000 2 120 16:57 24.11.2019
3624 Clouds -5 1027 68 10000 2 120 16:38 24.11.2019
3625 Clouds -5 1027 68 10000 2 120 16:19 24.11.2019
3626 Clouds -4 1027 73 10000 3 110 15:43 24.11.2019
3627 Clouds -4 1027 73 10000 3 110 15:25 24.11.2019
3628 Clouds -3 1027 68 10000 4 100 14:58 24.11.2019
3629 Clouds -3 1027 63 10000 4 100 14:38 24.11.2019
3630 Clouds -3 1027 63 10000 4 100 14:18 24.11.2019
3631 Clouds -2 1027 63 10000 4 90 13:41 24.11.2019
3632 Clouds -2 1027 63 10000 4 90 13:22 24.11.2019
3633 Clouds -2 1028 63 10000 4 90 12:59 24.11.2019
3634 Clouds -2 1028 63 10000 4 110 12:41 24.11.2019
3635 Clouds -2 1028 58 10000 4 110 12:19 24.11.2019
3636 Clouds -2 1028 58 10000 4 110 11:56 24.11.2019
3637 Clouds -3 1028 68 10000 4 90 11:37 24.11.2019
3638 Clouds -3 1028 68 10000 4 110 11:18 24.11.2019
3639 Clouds -4 1029 67 10000 4 120 10:47 24.11.2019
3640 Clouds -4 1029 67 10000 4 120 10:29 24.11.2019
3641 Clouds -4 1029 67 10000 4 100 09:57 24.11.2019
3642 Clouds -5 1029 73 10000 4 110 09:37 24.11.2019
3643 Clouds -5 1029 73 10000 4 110 09:18 24.11.2019
3644 Clouds -6 1029 67 10000 4 110 08:44 24.11.2019
3645 Clouds -7 1029 73 10000 4 120 08:22 24.11.2019
3646 Clouds -7 1029 67 10000 4 110 07:58 24.11.2019
3647 Clouds -7 1029 72 10000 4 110 07:37 24.11.2019
3648 Clouds -7 1029 67 10000 3 100 07:19 24.11.2019
3649 Clouds -8 1028 67 10000 3 100 06:19 24.11.2019
3650 Clouds -7 1029 57 10000 4 100 04:48 24.11.2019
3651 Clouds -7 1029 62 10000 3 100 03:33 24.11.2019
3652 Clouds -7 1029 62 10000 3 100 03:33 24.11.2019
3653 Clouds -6 1029 53 10000 3 100 01:59 24.11.2019
3654 Clouds -6 1029 53 10000 4 100 01:40 24.11.2019
3655 Clouds -6 1029 53 10000 4 100 01:21 24.11.2019
3656 Clouds -6 1030 53 10000 5 100 00:47 24.11.2019
3657 Clouds -6 1030 53 10000 4 100 00:23 24.11.2019
3658 Clouds -6 1030 53 10000 5 100 00:23 24.11.2019
3659 Clouds -6 1030 53 10000 4 100 23:45 23.11.2019
3660 Clouds -6 1030 53 10000 4 100 23:23 23.11.2019
3661 Clouds -5 1030 53 10000 3 100 22:59 23.11.2019
3662 Clouds -5 1030 53 10000 3 100 22:59 23.11.2019
3663 Clouds -5 1030 49 10000 4 100 22:40 23.11.2019
3664 Clouds -5 1030 49 10000 4 100 22:22 23.11.2019
3665 Clouds -5 1030 53 10000 4 110 21:59 23.11.2019
3666 Clouds -5 1030 53 10000 3 110 21:40 23.11.2019
3667 Clouds -5 1030 53 10000 3 110 21:22 23.11.2019
3668 Clouds -5 1030 53 10000 3 110 20:55 23.11.2019
3669 Clouds -5 1030 53 10000 4 110 20:36 23.11.2019
3670 Clouds -5 1030 53 10000 4 110 20:18 23.11.2019
3671 Clouds -4 1030 45 10000 4 110 19:54 23.11.2019
3672 Clouds -4 1030 45 10000 4 110 19:36 23.11.2019
3673 Clouds -4 1030 45 10000 4 120 19:18 23.11.2019
3674 Clouds -4 1030 45 10000 4 110 18:40 23.11.2019
3675 Clouds -4 1030 45 10000 3 120 18:20 23.11.2019
3676 Clouds -4 1030 45 10000 3 120 18:20 23.11.2019
3677 Clouds -4 1030 45 10000 3 120 18:20 23.11.2019
3678 Clouds -4 1030 45 10000 3 120 17:54 23.11.2019
3679 Clouds -4 1030 45 10000 3 120 17:36 23.11.2019
3680 Clouds -4 1030 45 10000 3 120 17:36 23.11.2019
3681 Clouds -4 1030 45 10000 4 120 17:18 23.11.2019
3682 Clouds -4 1030 45 10000 4 120 16:55 23.11.2019
3683 Clouds -4 1030 45 10000 4 110 16:36 23.11.2019
3684 Clouds -4 1030 45 10000 4 110 16:36 23.11.2019
3685 Clouds -4 1030 49 10000 5 110 16:18 23.11.2019
3686 Clouds -4 1030 49 10000 5 110 15:56 23.11.2019
3687 Clouds -4 1030 49 10000 4 110 15:37 23.11.2019
3688 Clouds -4 1030 49 10000 4 110 15:18 23.11.2019
3689 Clouds -4 1030 53 10000 5 110 14:42 23.11.2019
3690 Clouds -3 1030 53 10000 5 110 14:21 23.11.2019
3691 Clouds -3 1030 49 10000 5 120 13:57 23.11.2019
3692 Clouds -3 1030 53 10000 5 110 13:39 23.11.2019
3693 Clouds -3 1031 58 10000 6 110 13:18 23.11.2019
3694 Clouds -4 1031 58 10000 5 110 12:43 23.11.2019
3695 Clouds -3 1031 58 10000 5 110 12:24 23.11.2019
3696 Clouds -4 1032 62 10000 6 110 11:45 23.11.2019
3697 Clouds -4 1032 62 10000 6 110 11:24 23.11.2019
3698 Clouds -4 1032 62 10000 5 120 10:57 23.11.2019
3699 Clouds -5 1032 62 10000 5 110 10:39 23.11.2019
3700 Clouds -5 1032 62 10000 5 110 10:18 23.11.2019
3701 Clouds -6 1033 67 10000 6 110 09:41 23.11.2019
3702 Clouds -6 1033 67 10000 6 110 09:18 23.11.2019
3703 Clouds -7 1033 72 10000 5 110 08:41 23.11.2019
3704 Clouds -7 1033 72 10000 5 110 08:41 23.11.2019
3705 Clouds -7 1033 67 10000 5 110 08:19 23.11.2019
3706 Clouds -8 1033 72 10000 4 110 07:42 23.11.2019
3707 Clouds -9 1033 72 10000 5 110 07:00 23.11.2019
3708 Clouds -9 1033 72 10000 5 110 06:41 23.11.2019
3709 Clouds -9 1033 72 10000 5 110 06:19 23.11.2019
3710 Clouds -9 1033 72 10000 5 110 05:41 23.11.2019
3711 Clouds -8 1033 72 10000 5 110 05:22 23.11.2019
3712 Clouds -8 1033 72 10000 4 100 04:34 23.11.2019
3713 Clouds -8 1033 67 10000 4 100 03:32 23.11.2019
3714 Clouds -8 1033 72 10000 4 100 02:39 23.11.2019
3715 Clouds -7 1034 62 10000 5 100 01:41 23.11.2019
3716 Clouds -7 1034 62 10000 5 110 00:49 23.11.2019
3717 Clouds -7 1034 62 10000 5 110 00:21 23.11.2019
3718 Clouds -7 1034 62 10000 5 110 23:56 22.11.2019
3719 Clouds -7 1034 62 10000 6 110 23:37 22.11.2019
3720 Clouds -7 1034 57 10000 5 110 23:18 22.11.2019
3721 Clouds -6 1034 57 10000 5 110 22:56 22.11.2019
3722 Clouds -6 1034 57 10000 5 110 22:37 22.11.2019
3723 Clouds -6 1034 57 10000 5 110 22:18 22.11.2019
3724 Clouds -6 1034 57 10000 6 110 21:41 22.11.2019
3725 Clouds -6 1034 57 10000 5 110 21:21 22.11.2019
3726 Clouds -6 1034 57 10000 6 110 20:56 22.11.2019
3727 Clouds -6 1034 57 10000 6 110 20:38 22.11.2019
3728 Clear -6 1034 53 10000 6 110 20:20 22.11.2019
3729 Clear -5 1034 53 10000 6 110 19:40 22.11.2019
3730 Clear -5 1034 53 10000 6 110 19:21 22.11.2019
3731 Clear -5 1034 53 10000 5 110 18:59 22.11.2019
3732 Clear -5 1034 53 10000 5 110 18:38 22.11.2019
3733 Clear -5 1034 53 10000 5 110 18:20 22.11.2019
3734 Clear -5 1034 49 10000 5 110 17:42 22.11.2019
3735 Clouds -5 1034 49 10000 5 110 17:23 22.11.2019
3736 Clouds -5 1034 49 10000 5 100 16:56 22.11.2019
3737 Clouds -5 1034 49 10000 5 90 16:37 22.11.2019
3738 Clouds -5 1034 49 10000 5 90 16:19 22.11.2019
3739 Clouds -4 1035 41 10000 5 110 15:39 22.11.2019
3740 Clouds -4 1035 41 10000 5 110 15:39 22.11.2019
3741 Clouds -4 1035 41 10000 5 110 15:20 22.11.2019
3742 Clouds -4 1035 41 10000 6 110 14:54 22.11.2019
3743 Clouds -4 1035 41 10000 6 110 14:36 22.11.2019
3744 Clouds -4 1035 41 10000 6 110 14:36 22.11.2019
3745 Clouds -3 1035 41 10000 6 110 14:18 22.11.2019
3746 Clouds -4 1035 41 10000 6 100 13:39 22.11.2019
3747 Clouds -4 1035 41 10000 6 100 13:20 22.11.2019
3748 Clouds -4 1035 45 10000 6 100 12:58 22.11.2019
3749 Clouds -4 1035 49 10000 5 110 12:40 22.11.2019
3750 Clouds -4 1035 49 10000 5 110 12:20 22.11.2019
3751 Clouds -5 1036 53 10000 6 100 11:58 22.11.2019
3752 Clouds -5 1036 57 10000 6 100 11:37 22.11.2019
3753 Clouds -5 1036 57 10000 6 100 11:19 22.11.2019
3754 Clouds -6 1037 57 10000 5 100 10:55 22.11.2019
3755 Clouds -6 1037 57 10000 5 110 10:37 22.11.2019
3756 Clouds -6 1037 57 10000 5 110 10:18 22.11.2019
3757 Clouds -7 1037 62 10000 6 110 09:41 22.11.2019
3758 Clouds -7 1037 61 10000 6 100 09:22 22.11.2019
3759 Clouds -8 1038 61 10000 6 110 08:58 22.11.2019
3760 Clouds -8 1038 66 10000 5 110 08:38 22.11.2019
3761 Clouds -8 1038 66 10000 5 110 08:38 22.11.2019
3762 Clouds -8 1038 66 10000 5 110 08:38 22.11.2019
3763 Clouds -8 1038 66 10000 5 110 08:20 22.11.2019
3764 Clouds -9 1038 66 10000 5 110 07:42 22.11.2019
3765 Clouds -9 1038 66 10000 5 110 07:20 22.11.2019
3766 Clouds -9 1037 66 10000 5 110 06:47 22.11.2019
3767 Clouds -9 1037 66 10000 6 100 06:27 22.11.2019
3768 Clouds -9 1037 66 10000 6 110 05:37 22.11.2019
3769 Clouds -8 1037 61 10000 6 110 03:26 22.11.2019
3770 Clouds -8 1037 67 10000 6 110 02:43 22.11.2019
3771 Clouds -8 1037 67 10000 6 110 02:23 22.11.2019
3772 Clouds -8 1037 67 10000 5 110 01:43 22.11.2019
3773 Clouds -7 1037 67 10000 6 110 01:18 22.11.2019
3774 Clouds -7 1037 73 10000 6 100 00:45 22.11.2019
3775 Clouds -7 1037 73 10000 6 100 00:22 22.11.2019
3776 Clouds -7 1037 67 10000 5 110 23:44 21.11.2019
3777 Clear -6 1037 73 10000 6 110 23:25 21.11.2019
3778 Clear -6 1037 73 10000 6 110 22:57 21.11.2019
3779 Clear -6 1037 73 10000 6 110 22:38 21.11.2019
3780 Clear -6 1037 73 10000 6 110 22:20 21.11.2019
3781 Clear -6 1037 67 10000 6 110 21:55 21.11.2019
3782 Clear -5 1037 67 10000 6 110 21:37 21.11.2019
3783 Clear -5 1037 67 10000 6 110 21:37 21.11.2019
3784 Clear -5 1037 67 10000 6 110 21:18 21.11.2019
3785 Clouds -5 1037 67 10000 6 120 20:57 21.11.2019
3786 Clouds -5 1037 67 10000 5 110 20:37 21.11.2019
3787 Clouds -5 1037 67 10000 5 110 20:37 21.11.2019
3788 Clouds -5 1037 67 10000 5 110 20:18 21.11.2019
3789 Clouds -5 1037 67 10000 7 110 19:57 21.11.2019
3790 Clouds -5 1037 62 10000 8 110 19:38 21.11.2019
3791 Clouds -4 1037 62 10000 8 110 19:19 21.11.2019
3792 Clouds -4 1037 58 10000 8 110 18:54 21.11.2019
3793 Clouds -4 1036 58 10000 7 110 18:36 21.11.2019
3794 Clouds -4 1036 58 10000 7 110 18:36 21.11.2019
3795 Clouds -3 1036 58 10000 7 110 18:18 21.11.2019
3796 Clouds -3 1036 68 10000 6 110 17:40 21.11.2019
3797 Clouds -3 1036 68 10000 6 110 17:21 21.11.2019
3798 Clouds -2 1036 63 10000 6 100 16:58 21.11.2019
3799 Clouds -2 1036 68 10000 6 100 16:40 21.11.2019
3800 Clouds -2 1036 68 10000 6 100 16:20 21.11.2019
3801 Clouds -2 1036 68 10000 6 110 15:55 21.11.2019
3802 Clouds -1 1036 68 10000 6 110 15:37 21.11.2019
3803 Clouds -1 1036 68 10000 6 110 15:18 21.11.2019
3804 Clouds -1 1036 68 10000 5 110 14:39 21.11.2019
3805 Clouds -1 1036 68 10000 5 110 14:20 21.11.2019
3806 Clouds -1 1036 68 10000 6 110 13:59 21.11.2019
3807 Clouds -1 1036 74 10000 7 100 13:38 21.11.2019
3808 Clouds -1 1036 74 10000 7 100 13:19 21.11.2019
3809 Clouds -1 1036 74 10000 7 110 12:43 21.11.2019
3810 Clouds -1 1036 74 10000 7 110 12:25 21.11.2019
3811 Clouds -1 1036 74 10000 7 110 11:59 21.11.2019
3812 Clouds -1 1036 74 10000 7 110 11:40 21.11.2019
3813 Clouds -1 1036 74 10000 7 110 11:21 21.11.2019
3814 Clouds -1 1036 80 10000 8 110 10:55 21.11.2019
3815 Clouds -1 1036 80 10000 8 110 10:37 21.11.2019
3816 Clouds -1 1036 80 10000 8 110 10:37 21.11.2019
3817 Clouds -1 1036 80 10000 8 110 10:19 21.11.2019
3818 Clouds -1 1036 86 10000 7 130 09:43 21.11.2019
3819 Clouds 0 1036 61 10000 8 120 09:23 21.11.2019
3820 Clouds 0 1036 61 10000 7 110 08:58 21.11.2019
3821 Clouds 0 1035 80 10000 7 110 08:39 21.11.2019
3822 Clouds 1 1035 80 10000 7 110 08:18 21.11.2019
3823 Clouds 1 1035 66 10000 8 110 07:40 21.11.2019
3824 Clouds 1 1035 66 10000 8 110 07:18 21.11.2019
3825 Rain 1 1034 93 10000 6 110 06:47 21.11.2019
3826 Rain 2 1034 93 7000 6 110 06:28 21.11.2019
3827 Drizzle 2 1034 93 6000 5 110 05:27 21.11.2019
3828 Drizzle 2 1033 100 6000 5 110 03:31 21.11.2019
3829 Drizzle 1 1033 100 7000 5 110 02:40 21.11.2019
3830 Drizzle 1 1033 100 7000 4 110 01:53 21.11.2019
3831 Drizzle 1 1033 67 6000 4 120 01:23 21.11.2019
3832 Clouds 1 1033 67 10000 5 120 00:52 21.11.2019
3833 Clouds 1 1033 67 10000 6 110 00:20 21.11.2019
3834 Clouds 1 1033 67 10000 6 110 23:51 20.11.2019
3835 Clouds 1 1032 68 10000 7 110 23:23 20.11.2019
3836 Clouds 2 1032 93 10000 6 110 22:59 20.11.2019
3837 Clouds 2 1032 93 10000 6 110 22:41 20.11.2019
3838 Drizzle 2 1032 93 7000 6 110 22:20 20.11.2019
3839 Drizzle 2 1032 93 5000 7 110 21:59 20.11.2019
3840 Drizzle 2 1032 93 5000 7 110 21:59 20.11.2019
3841 Drizzle 2 1032 93 5000 7 110 21:40 20.11.2019
3842 Drizzle 2 1032 100 5000 6 110 21:22 20.11.2019
3843 Drizzle 2 1031 100 5000 6 110 20:58 20.11.2019
3844 Drizzle 2 1031 100 5000 6 110 20:58 20.11.2019
3845 Drizzle 2 1031 100 5000 5 100 20:40 20.11.2019
3846 Drizzle 2 1031 100 5000 5 100 20:22 20.11.2019
3847 Drizzle 2 1031 93 5000 5 100 19:59 20.11.2019
3848 Drizzle 3 1031 100 5000 6 100 19:37 20.11.2019
3849 Drizzle 3 1031 100 5000 6 100 19:19 20.11.2019
3850 Drizzle 3 1031 100 4900 6 100 18:59 20.11.2019
3851 Drizzle 3 1031 100 6000 5 110 18:40 20.11.2019
3852 Drizzle 3 1031 100 6000 5 110 18:22 20.11.2019
3853 Drizzle 3 1031 100 6000 5 110 17:58 20.11.2019
3854 Clouds 3 1031 100 6000 5 100 17:39 20.11.2019
3855 Clouds 3 1031 100 6000 5 100 17:20 20.11.2019
3856 Mist 3 1031 100 5000 5 100 16:57 20.11.2019
3857 Mist 3 1030 100 4900 4 100 16:39 20.11.2019
3858 Mist 3 1030 100 4900 4 100 16:19 20.11.2019
3859 Mist 4 1030 93 4900 4 100 15:56 20.11.2019
3860 Mist 3 1030 100 4300 5 90 15:38 20.11.2019
3861 Mist 3 1030 100 3100 5 90 15:19 20.11.2019
3862 Mist 4 1030 100 2500 6 80 14:40 20.11.2019
3863 Mist 4 1030 100 2500 6 80 14:22 20.11.2019
3864 Drizzle 4 1030 100 3200 4 100 14:22 20.11.2019
3865 Drizzle 4 1030 100 3200 4 100 14:22 20.11.2019
3866 Mist 4 1030 100 2500 6 80 14:22 20.11.2019
3867 Mist 4 1030 100 2500 6 80 14:22 20.11.2019
3868 Drizzle 4 1030 100 3200 4 100 13:58 20.11.2019
3869 Drizzle 4 1030 100 3100 4 110 13:39 20.11.2019
3870 Drizzle 4 1030 100 1900 4 100 13:20 20.11.2019
3871 Drizzle 4 1030 100 1900 4 100 12:58 20.11.2019
3872 Fog 4 1029 100 1100 5 100 12:37 20.11.2019
3873 Fog 4 1029 100 1100 5 100 12:19 20.11.2019
3874 Fog 4 1029 100 900 4 100 11:45 20.11.2019
3875 Mist 4 1029 100 1300 5 100 11:22 20.11.2019
3876 Fog 4 1029 100 700 4 90 10:56 20.11.2019
3877 Mist 4 1029 100 2100 3 110 10:38 20.11.2019
3878 Mist 4 1029 100 2100 3 110 10:20 20.11.2019
3879 Mist 4 1029 100 1400 3 100 09:55 20.11.2019
3880 Mist 4 1029 100 1200 3 100 09:37 20.11.2019
3881 Mist 4 1029 100 1200 3 100 09:18 20.11.2019
3882 Fog 4 1029 100 1400 4 100 08:39 20.11.2019
3883 Fog 4 1029 100 1400 4 100 08:21 20.11.2019
3884 Fog 4 1029 100 750 3 100 07:48 20.11.2019
3885 Fog 4 1029 100 700 4 110 07:28 20.11.2019
3886 Mist 5 1028 100 1200 4 100 06:50 20.11.2019
3887 Drizzle 5 1028 100 1900 4 90 06:22 20.11.2019
3888 Mist 5 1028 100 1500 4 90 05:51 20.11.2019
3889 Fog 5 1028 100 650 4 100 03:52 20.11.2019
3890 Fog 6 1028 100 1300 3 100 02:22 20.11.2019
3891 Mist 6 1028 100 1100 3 100 01:34 20.11.2019
3892 Fog 7 1028 100 700 2 110 00:43 20.11.2019
3893 Fog 7 1027 100 650 3 90 23:59 19.11.2019
3894 Fog 7 1027 100 750 3 90 23:36 19.11.2019
3895 Fog 7 1027 100 750 3 90 23:18 19.11.2019
3896 Rain 7 1028 100 550 2 90 22:42 19.11.2019
3897 Rain 7 1028 100 550 2 90 22:19 19.11.2019
3898 Rain 7 1027 100 550 2 100 21:58 19.11.2019
3899 Rain 7 1027 100 1400 2 90 21:38 19.11.2019
3900 Rain 7 1027 100 1400 2 90 21:20 19.11.2019
3901 Rain 7 1027 100 1200 2 110 20:57 19.11.2019
3902 Fog 7 1027 100 300 2 90 20:39 19.11.2019
3903 Fog 7 1027 100 300 2 90 20:21 19.11.2019
3904 Fog 7 1027 100 300 2 100 19:59 19.11.2019
3905 Fog 7 1027 100 250 2 100 19:41 19.11.2019
3906 Fog 7 1027 100 250 2 100 19:19 19.11.2019
3907 Fog 7 1027 100 250 2 100 19:19 19.11.2019
3908 Fog 7 1027 100 300 2 100 18:56 19.11.2019
3909 Fog 7 1027 100 450 2 100 18:38 19.11.2019
3910 Fog 7 1027 100 450 2 100 18:18 19.11.2019
3911 Fog 7 1027 100 700 2 110 17:56 19.11.2019
3912 Mist 7 1027 100 2400 2 100 17:37 19.11.2019
3913 Mist 7 1027 100 2400 2 100 17:18 19.11.2019
3914 Mist 7 1027 100 2800 1 100 16:55 19.11.2019
3915 Mist 8 1027 100 3500 2 100 16:37 19.11.2019
3916 Mist 8 1027 100 3500 2 100 16:18 19.11.2019
3917 Mist 8 1027 100 3500 2 60 15:41 19.11.2019
3918 Mist 8 1027 100 3500 2 60 15:23 19.11.2019
3919 Mist 8 1027 100 4200 2.28 128 14:56 19.11.2019
3920 Mist 8 1027 93 4600 2.28 128 14:38 19.11.2019
3921 Mist 8 1027 93 4600 2.28 128 14:38 19.11.2019
3922 Mist 8 1027 93 4600 2.6 143 14:19 19.11.2019
3923 Mist 8 1027 100 4000 1 0 13:41 19.11.2019
3924 Mist 7 1027 100 4000 1 0 13:20 19.11.2019
3925 Mist 7 1027 100 4000 1 0 13:20 19.11.2019
3926 Mist 7 1027 100 4000 1 0 13:20 19.11.2019
3927 Mist 7 1027 100 4000 1 0 13:20 19.11.2019
3928 Mist 7 1027 100 3700 2 120 12:42 19.11.2019
3929 Mist 7 1027 100 3700 2 120 12:23 19.11.2019
3930 Mist 7 1027 100 4000 2 140 11:59 19.11.2019
3931 Mist 7 1027 93 3400 1 0 11:39 19.11.2019
3932 Mist 7 1027 93 3400 1 0 11:20 19.11.2019
3933 Mist 7 1027 93 3700 1 0 10:48 19.11.2019
3934 Mist 6 1027 100 4000 1 0 10:23 19.11.2019
3935 Mist 6 1027 100 4000 1 0 10:23 19.11.2019
3936 Mist 6 1027 100 3600 1 0 09:59 19.11.2019
3937 Mist 6 1027 100 3600 2.26 150 09:41 19.11.2019
3938 Mist 6 1027 100 3600 2.26 150 09:19 19.11.2019
3939 Mist 6 1027 100 3500 1 0 09:19 19.11.2019
3940 Mist 6 1027 100 3500 1 0 08:42 19.11.2019
3941 Drizzle 5 1027 100 2900 1 0 08:24 19.11.2019
3942 Drizzle 5 1027 100 2300 1 0 07:59 19.11.2019
3943 Drizzle 5 1027 100 1600 2 150 07:41 19.11.2019
3944 Drizzle 5 1027 100 1600 2 150 07:22 19.11.2019
3945 Mist 5 1026 100 2400 2 140 06:52 19.11.2019
3946 Mist 5 1026 100 3300 2 140 06:33 19.11.2019
3947 Mist 4 1026 100 2700 2 140 05:40 19.11.2019
3948 Drizzle 4 1026 100 4000 2 130 04:24 19.11.2019
3949 Drizzle 4 1026 100 4900 2 120 03:34 19.11.2019
3950 Drizzle 4 1026 100 6000 2 140 02:57 19.11.2019
3951 Drizzle 4 1026 100 4800 2 150 02:31 19.11.2019
3952 Drizzle 4 1026 93 4700 2 140 01:40 19.11.2019
3953 Mist 4 1026 93 5000 2 150 00:22 19.11.2019
3954 Mist 4 1026 93 4800 2 170 23:57 18.11.2019
3955 Mist 3 1025 93 4900 2 130 23:37 18.11.2019
3956 Mist 3 1025 93 4900 2 130 23:18 18.11.2019
3957 Mist 3 1026 100 3300 2 150 22:42 18.11.2019
3958 Mist 3 1026 100 3300 2 150 22:23 18.11.2019
3959 Drizzle 3 1026 100 3500 3 130 21:55 18.11.2019
3960 Drizzle 3 1025 100 3200 3 120 21:37 18.11.2019
3961 Drizzle 3 1025 100 3200 3 120 21:19 18.11.2019
3962 Drizzle 3 1025 100 2900 2 120 20:56 18.11.2019
3963 Drizzle 3 1025 100 2400 3 120 20:38 18.11.2019
3964 Drizzle 3 1025 100 2400 3 120 20:18 18.11.2019
3965 Drizzle 3 1025 100 2400 3 120 20:18 18.11.2019
3966 Drizzle 3 1025 100 2800 3 130 19:54 18.11.2019
3967 Drizzle 3 1025 100 3500 3 130 19:36 18.11.2019
3968 Drizzle 3 1025 100 3500 3 130 19:18 18.11.2019
3969 Mist 3 1025 100 3400 2 140 18:54 18.11.2019
3970 Mist 3 1025 100 3400 2 140 18:54 18.11.2019
3971 Mist 3 1025 93 3800 2 130 18:36 18.11.2019
3972 Mist 3 1025 93 3800 2 130 18:18 18.11.2019
3973 Clouds 3 1025 100 6000 2 160 17:38 18.11.2019
3974 Clouds 3 1025 100 6000 2 160 17:19 18.11.2019
3975 -273 0 0 0 0 0 16:54 18.11.2019
3976 Clouds 3 1025 93 6000 2 170 16:54 18.11.2019
3977 Clouds 3 1025 93 6000 3 150 16:36 18.11.2019
3978 Clouds 3 1025 93 6000 3 150 16:18 18.11.2019
3979 Clouds 3 1025 93 7000 2 180 15:54 18.11.2019
3980 Clouds 3 1025 93 6000 3 150 15:36 18.11.2019
3981 Clouds 3 1025 93 7000 3 180 15:18 18.11.2019
3982 Clouds 3 1025 93 8000 4 170 14:41 18.11.2019
3983 Clouds 3 1025 93 8000 4 170 14:22 18.11.2019
3984 Clouds 3 1025 93 9000 2 160 13:46 18.11.2019
3985 Clouds 3 1025 93 9000 2 160 13:27 18.11.2019
3986 Clouds 3 1025 93 7000 3 150 12:57 18.11.2019
3987 Clouds 3 1025 93 7000 4 160 12:37 18.11.2019
3988 Clouds 4 1025 93 7000 4 160 12:18 18.11.2019
3989 Mist 3 1025 100 5000 4 140 11:44 18.11.2019
3990 Mist 3 1025 100 5000 4 140 11:25 18.11.2019
3991 Mist 2 1025 100 5000 3 140 10:55 18.11.2019
3992 Mist 2 1025 100 5000 4 140 10:37 18.11.2019
3993 Mist 3 1025 100 5000 4 140 10:18 18.11.2019
3994 -273 0 0 0 0 0 09:54 18.11.2019
3995 Mist 2 1026 100 1400 3 130 09:36 18.11.2019
3996 Mist 2 1026 100 1400 3 130 09:18 18.11.2019
3997 Mist 0 1026 81 1700 4 130 08:42 18.11.2019
3998 Mist 1 1026 89 1700 4 130 08:20 18.11.2019
3999 Fog 1 1026 100 550 4 120 07:47 18.11.2019
4000 Drizzle 1 1026 100 550 5 120 07:27 18.11.2019
4001 Fog 1 1025 100 650 5 120 06:52 18.11.2019
4002 Fog 1 1025 100 750 5 110 06:32 18.11.2019
4003 Fog 1 1025 100 750 5 110 05:47 18.11.2019
4004 Fog 1 1026 100 650 5 110 04:39 18.11.2019
4005 Fog 4 1026 100 1400 3 120 01:49 18.11.2019
4006 Fog 4 1026 100 500 3 110 01:31 18.11.2019
4007 Mist 5 1026 100 3000 3 140 00:22 18.11.2019
4008 Fog 5 1027 93 550 4 100 23:43 17.11.2019
4009 Mist 5 1026 100 2900 3 130 23:24 17.11.2019
4010 Mist 5 1026 93 4500 3 130 22:58 17.11.2019
4011 Mist 5 1027 93 5000 3 120 22:40 17.11.2019
4012 Mist 5 1027 93 5000 3 120 22:22 17.11.2019
4013 Mist 6 1027 93 5000 2 120 21:57 17.11.2019
4014 Clouds 6 1027 93 6000 3 130 21:39 17.11.2019
4015 Clouds 6 1027 93 6000 3 130 21:19 17.11.2019
4016 Clouds 6 1027 93 6000 3 130 20:56 17.11.2019
4017 Clouds 6 1027 100 6000 4 140 20:37 17.11.2019
4018 Mist 6 1027 100 5000 4 120 20:19 17.11.2019
4019 Mist 6 1027 100 5000 4 120 19:56 17.11.2019
4020 Mist 6 1027 100 5000 4 120 19:56 17.11.2019
4021 Fog 6 1027 100 550 3 120 19:37 17.11.2019
4022 Fog 6 1027 100 550 3 120 19:37 17.11.2019
4023 Fog 6 1027 100 550 3 120 19:19 17.11.2019
4024 Fog 7 1027 100 450 4 110 18:55 17.11.2019
4025 Fog 7 1027 100 500 4 130 18:36 17.11.2019
4026 Fog 7 1027 100 500 4 130 18:18 17.11.2019
4027 Fog 7 1027 100 500 4 130 18:18 17.11.2019
4028 Fog 7 1027 100 750 4 110 17:57 17.11.2019
4029 Fog 7 1027 100 1100 4 100 17:38 17.11.2019
4030 Mist 8 1027 100 4900 3 110 17:19 17.11.2019
4031 Mist 8 1027 100 4900 3 110 16:55 17.11.2019
4032 Mist 8 1027 100 5000 4 110 16:37 17.11.2019
4033 Clouds 8 1027 93 6000 4 110 16:19 17.11.2019
4034 Clouds 9 1027 93 6000 4 110 15:54 17.11.2019
4035 Clouds 9 1027 93 6000 4 110 15:54 17.11.2019
4036 Clouds 9 1027 93 6000 3 110 15:36 17.11.2019
4037 Clouds 9 1027 93 6000 3 110 15:18 17.11.2019
4038 Clouds 9 1027 93 6000 3 110 15:18 17.11.2019
4039 Clouds 10 1027 87 8000 3 110 14:54 17.11.2019
4040 Clouds 10 1027 81 10000 3 120 14:36 17.11.2019
4041 Clouds 10 1027 81 10000 3 120 14:18 17.11.2019
4042 Clouds 11 1027 81 10000 3 110 13:40 17.11.2019
4043 Clouds 11 1027 87 10000 4 120 13:20 17.11.2019
4044 Clouds 11 1027 87 9000 3 130 12:55 17.11.2019
4045 Clouds 11 1027 87 10000 3 120 12:36 17.11.2019
4046 Clouds 11 1027 87 10000 2 140 12:18 17.11.2019
4047 Clouds 11 1027 87 10000 3 120 12:18 17.11.2019
4048 Clouds 11 1027 87 10000 2 140 11:54 17.11.2019
4049 Clouds 11 1027 87 9000 2 120 11:36 17.11.2019
4050 Clouds 11 1027 87 10000 2 130 11:18 17.11.2019
4051 Clouds 11 1027 87 9000 1 0 10:41 17.11.2019
4052 Clouds 11 1027 87 9000 1 0 10:22 17.11.2019
4053 Clouds 10 1028 93 9000 2 140 09:42 17.11.2019
4054 Clouds 10 1028 93 9000 2 140 09:24 17.11.2019
4055 Clouds 10 1027 87 8000 3 130 08:47 17.11.2019
4056 Clouds 10 1027 87 8000 2 130 08:27 17.11.2019
4057 Clouds 9 1027 93 7000 2 140 07:59 17.11.2019
4058 Clouds 9 1027 93 7000 2 120 07:40 17.11.2019
4059 Clouds 9 1027 93 7000 2 120 07:20 17.11.2019
4060 Clouds 9 1027 93 7000 2 130 06:54 17.11.2019
4061 Clouds 9 1027 93 8000 2 150 06:30 17.11.2019
4062 Clouds 9 1026 93 8000 2 140 05:39 17.11.2019
4063 Clouds 9 1026 93 8000 2 130 04:18 17.11.2019
4064 Clouds 9 1026 93 8000 2 130 03:39 17.11.2019
4065 Clouds 9 1026 93 8000 2 130 03:20 17.11.2019
4066 Clouds 9 1026 93 8000 2 140 01:59 17.11.2019
4067 Clouds 9 1026 93 8000 3 120 01:22 17.11.2019
4068 Clouds 9 1026 93 7000 2 120 00:41 17.11.2019
4069 Clouds 9 1026 93 7000 2 110 00:21 17.11.2019
4070 Clouds 9 1026 93 7000 2 130 23:42 16.11.2019
4071 Clouds 9 1026 93 7000 2 130 23:19 16.11.2019
4072 Clouds 9 1026 87 8000 2 130 22:55 16.11.2019
4073 Clouds 9 1026 87 8000 2 130 22:36 16.11.2019
4074 Clouds 9 1026 87 8000 2 130 22:18 16.11.2019
4075 Clouds 9 1025 87 8000 3 130 21:41 16.11.2019
4076 Clouds 9 1025 87 8000 3 130 21:23 16.11.2019
4077 Clouds 9 1026 87 8000 2 120 20:58 16.11.2019
4078 Clouds 9 1026 87 8000 2 120 20:58 16.11.2019
4079 Clouds 9 1025 93 9000 2 130 20:39 16.11.2019
4080 Clouds 9 1025 93 9000 2 130 20:19 16.11.2019
4081 Clouds 9 1025 87 9000 2 130 19:54 16.11.2019
4082 Clouds 9 1025 93 10000 3 130 19:36 16.11.2019
4083 Clouds 9 1025 93 10000 3 130 19:18 16.11.2019
4084 Clouds 9 1025 87 10000 4 130 18:40 16.11.2019
4085 Clouds 9 1025 87 10000 4 130 18:20 16.11.2019
4086 Clouds 9 1025 87 10000 4 130 17:55 16.11.2019
4087 Clouds 10 1025 87 10000 3 130 17:37 16.11.2019
4088 Clouds 10 1025 87 10000 3 130 17:18 16.11.2019
4089 Clouds 10 1025 87 9000 4 120 16:45 16.11.2019
4090 Clouds 10 1025 87 9000 3 120 16:26 16.11.2019
4091 Clouds 10 1025 87 9000 3 130 15:56 16.11.2019
4092 Clouds 10 1024 87 9000 2 140 15:37 16.11.2019
4093 Clouds 10 1024 87 9000 2 140 15:18 16.11.2019
4094 Clouds 10 1024 87 10000 3 120 14:40 16.11.2019
4095 Clouds 10 1024 87 10000 3 120 14:21 16.11.2019
4096 Clouds 10 1024 87 10000 3 130 13:57 16.11.2019
4097 Clouds 10 1024 87 10000 3 130 13:38 16.11.2019
4098 Clouds 10 1024 87 10000 3 130 13:19 16.11.2019
4099 Clouds 10 1024 87 10000 3 130 12:58 16.11.2019
4100 Clouds 10 1024 87 10000 2 120 12:40 16.11.2019
4101 Clouds 9 1024 87 10000 2 120 12:20 16.11.2019
4102 Clouds 9 1024 87 10000 3 140 11:45 16.11.2019
4103 Clouds 9 1024 87 10000 3 140 11:26 16.11.2019
4104 Clouds 9 1024 87 10000 2 140 10:57 16.11.2019
4105 Clouds 8 1024 93 9000 3 130 10:39 16.11.2019
4106 Clouds 8 1024 93 9000 3 130 10:20 16.11.2019
4107 Clouds 8 1025 93 8000 3 130 09:43 16.11.2019
4108 Clouds 8 1025 93 8000 3 130 09:21 16.11.2019
4109 Rain 8 1024 93 7000 3 130 08:58 16.11.2019
4110 Rain 7 1024 100 6000 3 140 08:38 16.11.2019
4111 Rain 7 1024 93 5000 3 130 08:18 16.11.2019
4112 Rain 7 1024 100 6000 3 140 08:18 16.11.2019
4113 Mist 7 1024 100 5000 3 130 07:42 16.11.2019
4114 Mist 7 1024 100 5000 3 130 07:20 16.11.2019
4115 Mist 7 1024 100 4900 3 130 06:51 16.11.2019
4116 Drizzle 7 1023 100 4200 2 130 06:33 16.11.2019
4117 Clouds 7 1023 93 7000 2 120 05:28 16.11.2019
4118 Clouds 7 1023 93 10000 3 130 03:42 16.11.2019
4119 Clouds 7 1023 93 9000 2 130 03:23 16.11.2019
4120 Clouds 7 1023 87 9000 2 130 01:47 16.11.2019
4121 Clouds 7 1023 87 9000 2 140 01:19 16.11.2019
4122 Clouds 6 1022 87 8000 2 120 00:42 16.11.2019
4123 Clouds 6 1022 87 8000 2 120 00:22 16.11.2019
4124 Clouds 6 1023 93 9000 1 0 23:39 15.11.2019
4125 Clouds 6 1023 93 9000 1 0 23:20 15.11.2019
4126 Clouds 6 1023 87 8000 2 150 22:55 15.11.2019
4127 Clouds 6 1023 87 8000 2 150 22:55 15.11.2019
4128 Clouds 6 1023 87 8000 2 160 22:36 15.11.2019
4129 Clouds 5 1023 87 8000 2 160 22:18 15.11.2019
4130 Clouds 5 1023 87 7000 2 180 21:41 15.11.2019
4131 Clouds 6 1022 87 8000 2 160 21:20 15.11.2019
4132 Clouds 5 1022 87 8000 2 150 20:58 15.11.2019
4133 Clouds 6 1022 87 7000 2 150 20:40 15.11.2019
4134 Clouds 6 1022 87 7000 2 150 20:40 15.11.2019
4135 Clouds 6 1022 87 7000 2 150 20:21 15.11.2019
4136 Clouds 5 1022 87 7000 2 150 19:58 15.11.2019
4137 Clouds 5 1022 87 7000 2 150 19:40 15.11.2019
4138 Clouds 5 1022 87 7000 2 150 19:20 15.11.2019
4139 Clouds 5 1022 93 7000 3 140 18:58 15.11.2019
4140 Clouds 5 1022 93 6000 3 150 18:40 15.11.2019
4141 Clouds 5 1022 93 6000 3 150 18:21 15.11.2019
4142 Clouds 5 1022 93 6000 3 160 17:43 15.11.2019
4143 Clouds 5 1022 93 6000 3 160 17:25 15.11.2019
4144 Clouds 5 1022 93 6000 3 160 17:25 15.11.2019
4145 Clouds 5 1022 93 6000 3 150 16:57 15.11.2019
4146 Clouds 5 1022 93 7000 3 150 16:38 15.11.2019
4147 Clouds 5 1022 93 7000 3 150 16:19 15.11.2019
4148 Clouds 5 1022 86 7000 3 130 15:39 15.11.2019
4149 Clouds 5 1022 86 7000 3 130 15:20 15.11.2019
4150 Clouds 6 1022 86 6000 4 120 14:57 15.11.2019
4151 Clouds 5 1022 86 6000 3 120 14:38 15.11.2019
4152 Clouds 5 1022 86 6000 3 120 14:19 15.11.2019
4153 Clouds 5 1022 86 6000 4 120 13:58 15.11.2019
4154 Clouds 5 1022 86 6000 3 130 13:39 15.11.2019
4155 Clouds 5 1021 86 6000 3 140 13:21 15.11.2019
4156 Clouds 5 1021 86 6000 3 140 12:58 15.11.2019
4157 Clouds 5 1021 93 6000 3 130 12:40 15.11.2019
4158 Clouds 5 1021 93 6000 3 130 12:20 15.11.2019
4159 Clouds 5 1021 86 7000 3 150 11:57 15.11.2019
4160 Clouds 5 1021 93 6000 2 120 11:38 15.11.2019
4161 Clouds 5 1021 93 6000 2 120 11:20 15.11.2019
4162 Clouds 5 1021 93 6000 2 130 10:56 15.11.2019
4163 Mist 5 1021 93 5000 3 100 10:38 15.11.2019
4164 Clouds 5 1022 93 6000 2 120 10:18 15.11.2019
4165 Clouds 5 1022 93 6000 2 120 10:18 15.11.2019
4166 Mist 4 1022 93 5000 3 130 09:40 15.11.2019
4167 Mist 4 1022 93 5000 3 130 09:19 15.11.2019
4168 Clouds 4 1022 93 8000 3 120 08:44 15.11.2019
4169 Clouds 4 1022 93 8000 3 120 08:23 15.11.2019
4170 Clouds 4 1021 93 10000 3 110 07:49 15.11.2019
4171 Clouds 3 1021 93 10000 3 110 07:28 15.11.2019
4172 Clouds 3 1021 93 10000 4 110 06:50 15.11.2019
4173 Clouds 3 1021 93 10000 4 110 06:31 15.11.2019
4174 Clouds 3 1021 93 10000 4 110 05:40 15.11.2019
4175 Clouds 3 1021 93 10000 4 110 05:22 15.11.2019
4176 Clouds 3 1021 86 10000 4 110 03:50 15.11.2019
4177 Clouds 3 1021 93 10000 3 110 03:23 15.11.2019
4178 Clear 3 1021 93 10000 4 110 02:19 15.11.2019
4179 Clear 3 1020 86 10000 4 110 01:33 15.11.2019
4180 Clear 3 1020 86 10000 4 110 00:51 15.11.2019
4181 Clear 3 1020 86 10000 4 110 00:32 15.11.2019
4182 Clouds 5 1021 86 10000 4 110 23:52 14.11.2019
4183 Clouds 5 1021 86 10000 4 110 23:28 14.11.2019
4184 Clouds 5 1021 86 10000 4 110 22:59 14.11.2019
4185 Clouds 5 1021 86 10000 3 110 22:39 14.11.2019
4186 Clouds 5 1021 86 10000 3 110 22:21 14.11.2019
4187 Clouds 5 1021 86 10000 4 110 21:55 14.11.2019
4188 Clouds 5 1021 87 10000 3 120 21:37 14.11.2019
4189 Clouds 5 1021 87 10000 3 120 21:18 14.11.2019
4190 Clear 5 1021 87 9000 3 110 20:42 14.11.2019
4191 Clear 6 1021 87 9000 3 110 20:23 14.11.2019
4192 Clear 6 1020 93 9000 3 120 19:59 14.11.2019
4193 Clear 5 1020 93 7000 3 110 19:40 14.11.2019
4194 Clear 6 1020 93 7000 2 110 19:18 14.11.2019
4195 Clear 6 1020 93 7000 2 110 19:18 14.11.2019
4196 Clear 6 1020 87 10000 3 130 18:55 14.11.2019
4197 Clear 6 1020 87 10000 3 130 18:37 14.11.2019
4198 Clear 6 1020 87 10000 3 130 18:18 14.11.2019
4199 Clear 7 1020 87 9000 3 110 17:39 14.11.2019
4200 Clear 7 1020 87 10000 2 110 17:20 14.11.2019
4201 Clear 7 1020 87 10000 2 110 16:58 14.11.2019
4202 Clear 7 1020 93 10000 3 110 16:39 14.11.2019
4203 Clear 7 1020 93 10000 3 110 16:21 14.11.2019
4204 Clear 7 1020 87 10000 2 110 15:59 14.11.2019
4205 Clear 8 1020 81 10000 3 110 15:41 14.11.2019
4206 Clear 8 1020 81 10000 3 110 15:22 14.11.2019
4207 Clouds 8 1020 81 10000 4 110 14:58 14.11.2019
4208 Clouds 8 1020 87 10000 5 110 14:40 14.11.2019
4209 Clouds 8 1020 87 10000 5 110 14:40 14.11.2019
4210 Clouds 9 1020 87 10000 5 110 14:22 14.11.2019
4211 Clouds 8 1020 87 10000 4 110 13:55 14.11.2019
4212 Clouds 8 1020 81 10000 5 110 13:36 14.11.2019
4213 Clouds 8 1020 81 10000 5 110 13:18 14.11.2019
4214 Clouds 8 1020 81 9000 6 100 12:45 14.11.2019
4215 Clouds 8 1021 87 9000 6 110 12:25 14.11.2019
4216 Clouds 8 1021 87 7000 5 100 11:56 14.11.2019
4217 Clouds 8 1021 87 6000 5 110 11:38 14.11.2019
4218 Clouds 8 1021 87 6000 5 110 11:19 14.11.2019
4219 Clouds 8 1021 87 6000 5 120 10:57 14.11.2019
4220 Clouds 8 1021 87 7000 6 130 10:37 14.11.2019
4221 Clouds 8 1021 87 7000 6 130 10:19 14.11.2019
4222 Clouds 8 1021 87 6000 4 120 09:54 14.11.2019
4223 Mist 8 1021 87 5000 4 130 09:36 14.11.2019
4224 Clouds 7 1021 93 6000 4 130 09:18 14.11.2019
4225 Clouds 7 1021 93 6000 4 130 08:41 14.11.2019
4226 Clouds 7 1021 93 6000 4 130 08:23 14.11.2019
4227 Clouds 7 1021 93 6000 4 120 07:42 14.11.2019
4228 Clouds 7 1021 93 6000 5 130 07:24 14.11.2019
4229 Mist 7 1020 93 4800 5 130 06:46 14.11.2019
4230 Mist 7 1020 93 5000 4 130 06:21 14.11.2019
4231 Mist 7 1020 93 4700 4 130 05:38 14.11.2019
4232 Clear 8 1020 70 0 6.29 147 04:38 14.11.2019
4233 Mist 6 1019 100 5000 3 140 03:27 14.11.2019
4234 Mist 7 1019 93 5000 3 130 02:35 14.11.2019
4235 Mist 7 1020 100 4800 3 130 01:40 14.11.2019
4236 Mist 7 1019 100 5000 3 130 00:57 14.11.2019
4237 Mist 7 1019 100 5000 3 120 00:37 14.11.2019
4238 Mist 7 1019 100 5000 3 120 00:18 14.11.2019
4239 Clear 8 1019 93 6000 5 120 23:38 13.11.2019
4240 Clear 8 1019 93 6000 5 120 23:20 13.11.2019
4241 Clouds 8 1019 93 7000 5 130 22:55 13.11.2019
4242 Clouds 8 1019 100 6000 4 130 22:37 13.11.2019
4243 Clouds 8 1019 100 6000 4 130 22:37 13.11.2019
4244 Clouds 8 1019 100 6000 4 130 22:18 13.11.2019
4245 Mist 8 1020 100 5000 4 130 21:54 13.11.2019
4246 Mist 9 1019 93 5000 6 130 21:36 13.11.2019
4247 Mist 9 1019 93 5000 6 130 21:36 13.11.2019
4248 Mist 9 1019 93 5000 6 130 21:18 13.11.2019
4249 Mist 9 1020 93 5000 5 130 20:54 13.11.2019
4250 Clouds 9 1020 93 6000 5 130 20:36 13.11.2019
4251 Clouds 9 1020 93 6000 5 130 20:18 13.11.2019
4252 Clouds 9 1020 93 6000 5 130 19:41 13.11.2019
4253 Clouds 9 1020 93 6000 5 130 19:19 13.11.2019
4254 Mist 9 1020 93 5000 5 130 18:56 13.11.2019
4255 Mist 9 1020 93 5000 6 130 18:37 13.11.2019
4256 Mist 9 1020 93 5000 6 130 18:19 13.11.2019
4257 Clouds 9 1020 93 6000 5 130 17:56 13.11.2019
4258 Clouds 10 1020 87 6000 6 130 17:38 13.11.2019
4259 Clouds 10 1020 87 6000 6 130 17:19 13.11.2019
4260 Clouds 10 1020 87 6000 6 130 16:56 13.11.2019
4261 Clouds 10 1020 87 6000 6 120 16:37 13.11.2019
4262 Clouds 10 1020 87 6000 4 130 16:19 13.11.2019
4263 Clouds 10 1020 87 6000 4 130 15:57 13.11.2019
4264 Clouds 10 1020 87 6000 6 120 15:37 13.11.2019
4265 Clouds 10 1020 87 6000 5 130 15:18 13.11.2019
4266 Clouds 10 1020 87 7000 6 130 14:41 13.11.2019
4267 Clouds 11 1020 87 7000 7 120 14:21 13.11.2019
4268 Clouds 11 1020 81 9000 6 120 13:39 13.11.2019
4269 Clouds 11 1020 81 9000 6 120 13:39 13.11.2019
4270 Clouds 11 1020 81 9000 6 120 13:20 13.11.2019
4271 Clouds 11 1020 81 9000 6 130 12:59 13.11.2019
4272 Clouds 11 1020 87 9000 5 130 12:41 13.11.2019
4273 Clouds 11 1020 87 9000 5 130 12:23 13.11.2019
4274 Clouds 11 1020 87 9000 7 130 11:55 13.11.2019
4275 Clouds 11 1020 87 6000 6 130 11:37 13.11.2019
4276 Clouds 11 1020 87 6000 6 130 11:18 13.11.2019
4277 Mist 11 1021 87 5000 5 130 10:55 13.11.2019
4278 Mist 11 1021 87 5000 5 140 10:37 13.11.2019
4279 Mist 11 1021 87 5000 5 140 10:19 13.11.2019
4280 Clouds 11 1021 87 7000 5 130 09:42 13.11.2019
4281 Clouds 11 1021 93 7000 6 130 09:20 13.11.2019
4282 Clouds 10 1022 93 7000 5 130 08:41 13.11.2019
4283 Clouds 10 1022 93 7000 5 130 08:23 13.11.2019
4284 Clouds 10 1022 93 7000 5 130 07:58 13.11.2019
4285 Clouds 10 1022 93 7000 4 140 07:39 13.11.2019
4286 Clouds 10 1022 93 7000 4 140 07:18 13.11.2019
4287 Clouds 10 1022 93 6000 4 140 06:41 13.11.2019
4288 Clouds 10 1022 93 6000 4 140 06:19 13.11.2019
4289 Clouds 10 1022 93 7000 4 140 05:47 13.11.2019
4290 Clouds 10 1022 87 9000 4 140 04:59 13.11.2019
4291 Clouds 10 1022 87 8000 5 140 03:56 13.11.2019
4292 Clouds 10 1022 87 7000 4 140 01:51 13.11.2019
4293 Clouds 10 1023 87 8000 4 140 01:27 13.11.2019
4294 Clouds 10 1023 87 7000 3 140 00:43 13.11.2019
4295 Clouds 10 1023 93 7000 5 140 23:56 12.11.2019
4296 Clouds 10 1023 93 6000 5 140 23:37 12.11.2019
4297 Clouds 10 1023 93 6000 5 140 23:18 12.11.2019
4298 Clouds 10 1023 93 6000 5 140 22:42 12.11.2019
4299 Clouds 10 1023 93 6000 5 140 22:18 12.11.2019
4300 Clouds 10 1023 93 6000 5 140 22:18 12.11.2019
4301 Clouds 10 1023 93 6000 4 140 21:56 12.11.2019
4302 Mist 10 1023 93 5000 4 140 21:36 12.11.2019
4303 Mist 10 1023 93 5000 4 140 21:18 12.11.2019
4304 Mist 10 1023 93 5000 4 130 20:55 12.11.2019
4305 Clouds 10 1023 93 6000 4 130 20:36 12.11.2019
4306 Clouds 9 1023 93 6000 4 130 20:18 12.11.2019
4307 Clouds 10 1023 93 6000 4 120 19:54 12.11.2019
4308 Clouds 10 1023 93 6000 4 120 19:54 12.11.2019
4309 Clouds 9 1023 93 6000 4 140 19:36 12.11.2019
4310 Clouds 9 1023 93 6000 4 140 19:18 12.11.2019
4311 Clouds 9 1023 100 6000 5 140 18:54 12.11.2019
4312 Clouds 9 1023 93 7000 4 140 18:36 12.11.2019
4313 Clouds 9 1023 87 10000 5 130 18:18 12.11.2019
4314 Clouds 9 1023 87 10000 5 130 17:55 12.11.2019
4315 Clouds 9 1023 87 10000 4 120 17:36 12.11.2019
4316 Clouds 9 1023 87 10000 3 110 17:18 12.11.2019
4317 Clouds 9 1022 87 10000 4 120 16:41 12.11.2019
4318 Clouds 9 1023 87 10000 4 110 16:23 12.11.2019
4319 Clouds 10 1023 81 10000 5 110 15:42 12.11.2019
4320 Clouds 10 1023 81 10000 5 110 15:23 12.11.2019
4321 Clouds 10 1023 76 10000 6 110 14:58 12.11.2019
4322 Clouds 10 1023 76 10000 4 110 14:39 12.11.2019
4323 Clouds 10 1023 76 10000 4 110 14:19 12.11.2019
4324 Clouds 11 1023 76 10000 5 100 13:57 12.11.2019
4325 Clouds 11 1023 81 10000 4 100 13:39 12.11.2019
4326 Clouds 11 1023 81 10000 4 100 13:19 12.11.2019
4327 Clouds 10 1024 76 10000 4 100 12:43 12.11.2019
4328 Clouds 10 1024 76 10000 4 100 12:43 12.11.2019
4329 Clouds 10 1024 76 10000 3 110 12:20 12.11.2019
4330 Clouds 10 1024 76 10000 3 100 12:20 12.11.2019
4331 Clouds 10 1024 76 10000 3 100 11:59 12.11.2019
4332 Clouds 10 1024 76 10000 3 100 11:59 12.11.2019
4333 Clouds 10 1024 81 10000 4 120 11:41 12.11.2019
4334 Clouds 10 1024 81 10000 4 120 11:22 12.11.2019
4335 Clouds 10 1023 66 10000 4 130 10:57 12.11.2019
4336 Clouds 9 1024 76 10000 5 120 10:38 12.11.2019
4337 Clouds 9 1024 76 10000 5 120 10:20 12.11.2019
4338 Clouds 9 1024 81 10000 4 120 09:56 12.11.2019
4339 Clouds 9 1024 81 10000 3 130 09:38 12.11.2019
4340 Clouds 9 1024 81 10000 3 130 09:38 12.11.2019
4341 Clouds 9 1024 81 10000 2 120 09:18 12.11.2019
4342 Clouds 5 1024 100 9000 2 100 08:41 12.11.2019
4343 Clouds 5 1024 100 9000 2 100 08:41 12.11.2019
4344 Clouds 5 1024 100 9000 2 100 08:22 12.11.2019
4345 Clouds 3 1024 100 6000 2 80 07:41 12.11.2019
4346 Clouds 3 1024 100 6000 2 80 07:23 12.11.2019
4347 Fog 2 1024 100 3000 1 100 06:45 12.11.2019
4348 Mist 2 1023 100 6000 3 90 06:23 12.11.2019
4349 Fog 3 1023 100 750 1.47 119 05:46 12.11.2019
4350 Clouds 2 1023 77 7000 0.3 9 04:50 12.11.2019
4351 Fog 3 1022 100 600 0.3 9 03:49 12.11.2019
4352 Clouds 4 1022 100 10000 1 210 01:49 12.11.2019
4353 Clouds 5 1021 93 10000 1 220 01:22 12.11.2019
4354 Clouds 5 1021 93 10000 1 220 01:22 12.11.2019
4355 Clouds 6 1021 93 10000 2 240 00:48 12.11.2019
4356 Clear 6 1021 87 10000 2 260 00:29 12.11.2019
4357 Clouds 8 1021 81 10000 2 290 23:47 11.11.2019
4358 Clouds 8 1021 81 10000 3 270 23:24 11.11.2019
4359 Clouds 8 1021 81 10000 3 280 22:58 11.11.2019
4360 Clouds 8 1020 76 10000 4 290 22:37 11.11.2019
4361 Clouds 8 1020 76 10000 4 290 22:18 11.11.2019
4362 Clouds 8 1020 76 10000 4 290 21:57 11.11.2019
4363 Clouds 8 1020 81 10000 4 290 21:38 11.11.2019
4364 Clouds 8 1020 81 10000 4 290 21:19 11.11.2019
4365 Clouds 9 1019 81 10000 4 280 20:43 11.11.2019
4366 Clouds 9 1019 81 10000 4 280 20:21 11.11.2019
4367 Clouds 8 1019 87 10000 4 270 19:59 11.11.2019
4368 Clouds 8 1019 87 10000 5 270 19:41 11.11.2019
4369 Clouds 8 1018 81 10000 6 270 19:19 11.11.2019
4370 Clouds 9 1018 81 10000 6 270 18:56 11.11.2019
4371 Clouds 9 1018 76 10000 6 270 18:38 11.11.2019
4372 Clouds 9 1018 76 10000 6 270 18:19 11.11.2019
4373 Clouds 10 1017 76 10000 3 260 17:42 11.11.2019
4374 Clouds 10 1017 76 10000 3 260 17:24 11.11.2019
4375 Clouds 10 1017 81 10000 5 280 16:44 11.11.2019
4376 Clouds 11 1016 81 10000 6 270 16:24 11.11.2019
4377 Clouds 11 1016 81 10000 6 270 16:24 11.11.2019
4378 Clouds 11 1016 81 10000 4 250 15:59 11.11.2019
4379 Clouds 11 1016 81 10000 4 250 15:40 11.11.2019
4380 Clouds 11 1015 81 10000 5 270 15:20 11.11.2019
4381 Clouds 12 1015 81 10000 6 270 14:45 11.11.2019
4382 Clouds 13 1015 81 10000 6 270 14:25 11.11.2019
4383 Clouds 13 1014 82 10000 7 260 13:58 11.11.2019
4384 Clouds 13 1014 82 10000 7 260 13:38 11.11.2019
4385 Clouds 13 1014 93 10000 4 270 13:20 11.11.2019
4386 Clouds 13 1013 93 10000 5 270 12:57 11.11.2019
4387 Clouds 13 1013 100 9000 5 270 12:39 11.11.2019
4388 Clouds 13 1013 100 9000 5 270 12:39 11.11.2019
4389 Clouds 13 1013 100 9000 5 270 12:21 11.11.2019
4390 Rain 12 1013 100 6000 5 260 11:42 11.11.2019
4391 Clouds 11 1013 100 10000 4 250 11:22 11.11.2019
4392 Clouds 11 1012 100 10000 3 240 10:57 11.11.2019
4393 Rain 10 1013 100 10000 3 220 10:38 11.11.2019
4394 Rain 10 1013 100 10000 3 220 10:18 11.11.2019
4395 Rain 10 1012 100 6000 3 220 09:54 11.11.2019
4396 Rain 10 1012 100 2600 3 190 09:36 11.11.2019
4397 Rain 10 1012 100 2600 3 190 09:18 11.11.2019
4398 Rain 9 1012 100 9000 2 170 08:37 11.11.2019
4399 Rain 9 1012 100 9000 2 170 08:19 11.11.2019
4400 Rain 9 1012 100 4300 3 110 07:54 11.11.2019
4401 Rain 9 1012 100 2800 2 150 07:36 11.11.2019
4402 Rain 9 1012 100 2800 2 150 07:36 11.11.2019
4403 Rain 9 1012 100 2800 2 150 07:18 11.11.2019
4404 Rain 9 1012 100 3700 2 150 06:41 11.11.2019
4405 Rain 9 1012 100 3700 2 150 06:20 11.11.2019
4406 Rain 9 1012 100 3700 2 150 05:49 11.11.2019
4407 Rain 9 1012 100 3700 2 150 05:49 11.11.2019
4408 Mist 9 1013 100 4100 3 140 03:59 11.11.2019
4409 Mist 9 1013 100 3300 2 140 03:20 11.11.2019
4410 Mist 9 1014 100 3400 3 150 02:20 11.11.2019
4411 Mist 9 1014 100 4200 4 140 01:52 11.11.2019
4412 Mist 9 1014 93 5000 2 140 01:31 11.11.2019
4413 Mist 9 1014 100 5000 3 150 00:42 11.11.2019
4414 Mist 9 1015 100 4300 3 160 23:58 10.11.2019
4415 Mist 9 1015 100 4300 3 180 23:39 10.11.2019
4416 Mist 9 1015 100 4300 3 180 23:19 10.11.2019
4417 Mist 9 1015 93 4600 3 150 22:57 10.11.2019
4418 Mist 9 1015 93 4900 4 150 22:38 10.11.2019
4419 Mist 9 1015 93 4900 4 150 22:20 10.11.2019
4420 Mist 9 1015 93 5000 3 140 21:56 10.11.2019
4421 Mist 9 1015 100 4700 3 140 21:38 10.11.2019
4422 Mist 9 1015 100 4700 3 140 21:20 10.11.2019
4423 Mist 9 1016 100 4500 3 130 20:41 10.11.2019
4424 Mist 10 1016 93 4400 3 140 20:22 10.11.2019
4425 Mist 9 1016 100 4600 5 130 19:56 10.11.2019
4426 Mist 10 1016 100 4600 5 130 19:38 10.11.2019
4427 Mist 10 1016 93 4500 5 130 19:19 10.11.2019
4428 Mist 10 1015 93 4100 6 120 18:58 10.11.2019
4429 Mist 10 1015 93 4100 6 120 18:58 10.11.2019
4430 Mist 10 1015 93 3900 6 130 18:40 10.11.2019
4431 Mist 10 1015 93 3900 6 130 18:40 10.11.2019
4432 Mist 10 1015 93 3900 6 130 18:19 10.11.2019
4433 Mist 10 1016 93 3700 5 130 17:57 10.11.2019
4434 Mist 10 1016 100 3400 5 120 17:38 10.11.2019
4435 Mist 10 1016 100 3400 5 120 17:20 10.11.2019
4436 Mist 10 1015 100 3200 5 120 16:58 10.11.2019
4437 Mist 10 1015 100 3200 5 120 16:39 10.11.2019
4438 Mist 10 1015 100 3200 5 120 16:39 10.11.2019
4439 Mist 10 1015 100 3000 4 110 16:20 10.11.2019
4440 Mist 10 1015 100 2700 4 110 15:56 10.11.2019
4441 Mist 11 1016 100 2700 4 100 15:36 10.11.2019
4442 Mist 11 1016 100 2700 4 100 15:18 10.11.2019
4443 Mist 11 1016 93 4900 2 120 14:41 10.11.2019
4444 Mist 12 1016 93 5000 3 140 14:23 10.11.2019
4445 Mist 11 1016 100 4400 3 130 13:58 10.11.2019
4446 Mist 12 1016 100 3600 3 130 13:40 10.11.2019
4447 Mist 12 1016 100 3600 3 130 13:20 10.11.2019
4448 Mist 12 1016 100 4000 4 130 12:44 10.11.2019
4449 Mist 12 1016 100 4000 4 130 12:22 10.11.2019
4450 Mist 11 1017 100 4600 3 150 11:57 10.11.2019
4451 Mist 11 1017 100 4900 3 140 11:39 10.11.2019
4452 Mist 11 1017 100 4900 3 140 11:21 10.11.2019
4453 Mist 11 1017 100 4900 3 150 10:59 10.11.2019
4454 Mist 11 1017 100 4900 3 150 10:40 10.11.2019
4455 Drizzle 11 1017 100 3400 3 140 10:20 10.11.2019
4456 Drizzle 11 1017 100 1200 3 130 09:43 10.11.2019
4457 Drizzle 11 1017 100 800 3 130 09:23 10.11.2019
4458 Drizzle 10 1017 100 700 4 120 08:43 10.11.2019
4459 Drizzle 10 1017 100 900 4 130 08:21 10.11.2019
4460 Drizzle 10 1017 100 1000 4 130 07:59 10.11.2019
4461 Drizzle 10 1017 100 1000 4 130 07:40 10.11.2019
4462 Drizzle 11 1017 100 1100 3 130 07:21 10.11.2019
4463 Mist 11 1017 100 1400 3 140 06:31 10.11.2019
4464 Mist 11 1016 100 2800 3 140 05:32 10.11.2019
4465 Mist 11 1016 100 5000 3 140 03:22 10.11.2019
4466 Mist 12 1016 100 5000 3 130 01:45 10.11.2019
4467 Mist 12 1017 93 5000 3 140 01:19 10.11.2019
4468 Clouds 12 1016 93 6000 3 130 00:40 10.11.2019
4469 Rain 12 1017 100 5000 2 120 23:46 09.11.2019
4470 Mist 12 1017 100 5000 2 120 23:21 09.11.2019
4471 Mist 12 1017 100 4800 2 120 22:59 09.11.2019
4472 Clouds 12 1017 93 7000 2 140 22:40 09.11.2019
4473 Clouds 12 1017 93 7000 2 140 22:20 09.11.2019
4474 Clouds 12 1017 93 7000 3 140 21:55 09.11.2019
4475 Clouds 12 1017 93 7000 3 140 21:37 09.11.2019
4476 Clouds 12 1017 93 7000 3 140 21:19 09.11.2019
4477 Clouds 12 1017 93 6000 4 130 20:41 09.11.2019
4478 Clear 12 1017 93 6000 3 130 20:22 09.11.2019
4479 Clear 12 1017 100 6000 4 130 19:57 09.11.2019
4480 Mist 13 1017 100 5000 2 120 19:38 09.11.2019
4481 Mist 13 1017 100 5000 2 120 19:19 09.11.2019
4482 Mist 13 1017 100 4400 3 110 18:40 09.11.2019
4483 Mist 13 1017 100 4500 3 110 18:19 09.11.2019
4484 Mist 13 1017 100 4800 2 120 17:58 09.11.2019
4485 Mist 13 1017 100 4800 2 120 17:58 09.11.2019
4486 Mist 13 1017 100 4000 2 130 17:40 09.11.2019
4487 Mist 13 1017 100 4000 2 130 17:22 09.11.2019
4488 Mist 13 1017 100 3200 1 130 16:42 09.11.2019
4489 Mist 13 1016 100 2100 2 100 16:21 09.11.2019
4490 Mist 13 1016 100 1200 3 90 15:57 09.11.2019
4491 Mist 13 1016 100 1200 3 90 15:39 09.11.2019
4492 Mist 13 1016 93 3000 2 120 15:20 09.11.2019
4493 Mist 14 1016 100 3000 2 100 14:42 09.11.2019
4494 Mist 14 1016 100 2500 2 110 14:22 09.11.2019
4495 Mist 14 1016 100 2700 2 120 13:57 09.11.2019
4496 Mist 13 1016 100 2800 2 130 13:37 09.11.2019
4497 Mist 13 1016 100 2800 2 130 13:19 09.11.2019
4498 Mist 13 1016 100 2200 2 130 12:50 09.11.2019
4499 Mist 13 1016 100 1100 2 130 12:29 09.11.2019
4500 Fog 12 1016 100 600 2 140 11:57 09.11.2019
4501 Fog 12 1016 100 600 2 140 11:39 09.11.2019
4502 Fog 12 1016 100 600 3 130 11:19 09.11.2019
4503 Fog 11 1017 100 500 3 140 10:42 09.11.2019
4504 Fog 11 1017 100 500 4 140 10:20 09.11.2019
4505 Fog 11 1017 100 500 4 140 09:59 09.11.2019
4506 Fog 11 1017 100 500 4 140 09:59 09.11.2019
4507 Fog 11 1016 100 450 4 120 09:41 09.11.2019
4508 Fog 11 1017 100 500 3 130 09:20 09.11.2019
4509 Fog 11 1017 100 700 3 130 08:43 09.11.2019
4510 Fog 10 1017 100 700 3 130 08:24 09.11.2019
4511 Fog 10 1017 100 500 4 130 07:49 09.11.2019
4512 Fog 10 1017 100 500 4 130 07:25 09.11.2019
4513 Fog 10 1017 100 750 4 130 06:57 09.11.2019
4514 Mist 10 1017 100 2400 4 120 06:39 09.11.2019
4515 Mist 10 1017 100 2400 4 120 06:20 09.11.2019
4516 Mist 9 1017 100 1900 4 120 05:38 09.11.2019
4517 Mist 9 1017 100 3100 5 110 04:29 09.11.2019
4518 Mist 9 1018 100 3100 5 110 02:47 09.11.2019
4519 Mist 9 1018 100 3900 5 120 02:24 09.11.2019
4520 Rain 8 1019 100 6000 4 110 01:18 09.11.2019
4521 Drizzle 8 1019 100 2300 4 120 00:39 09.11.2019
4522 Drizzle 8 1019 100 2200 4 120 00:21 09.11.2019
4523 Drizzle 8 1019 100 2000 5 110 23:40 08.11.2019
4524 Drizzle 8 1019 100 2000 5 110 23:22 08.11.2019
4525 Mist 8 1019 100 2500 5 120 22:56 08.11.2019
4526 Mist 8 1019 100 2500 5 120 22:56 08.11.2019
4527 Drizzle 8 1019 100 2800 5 110 22:38 08.11.2019
4528 Drizzle 8 1019 100 2800 5 110 22:19 08.11.2019
4529 Mist 8 1019 100 3300 5 120 21:41 08.11.2019
4530 Mist 8 1019 100 3800 5 120 21:23 08.11.2019
4531 Mist 8 1019 100 4200 6 110 20:57 08.11.2019
4532 Clouds 8 1019 100 7000 6 110 20:38 08.11.2019
4533 Clouds 8 1019 100 7000 6 110 20:18 08.11.2019
4534 Clouds 8 1019 93 8000 5 110 19:40 08.11.2019
4535 Clouds 8 1019 93 8000 5 110 19:19 08.11.2019
4536 Clouds 8 1019 93 8000 5 110 19:19 08.11.2019
4537 Clouds 9 1019 93 9000 4 110 18:57 08.11.2019
4538 Clouds 9 1019 93 9000 4 110 18:57 08.11.2019
4539 Clouds 9 1019 93 9000 4 110 18:57 08.11.2019
4540 Clouds 9 1019 93 9000 4 110 18:57 08.11.2019
4541 Clouds 9 1019 93 10000 5 110 18:39 08.11.2019
4542 Clouds 9 1019 93 10000 5 110 18:20 08.11.2019
4543 Clouds 9 1019 93 10000 5 100 17:56 08.11.2019
4544 Clouds 9 1019 93 10000 4 100 17:38 08.11.2019
4545 Clouds 9 1019 93 10000 4 100 17:20 08.11.2019
4546 Clouds 9 1019 93 10000 4 110 16:59 08.11.2019
4547 Clouds 9 1019 93 10000 5 100 16:40 08.11.2019
4548 Clouds 9 1019 93 10000 5 100 16:40 08.11.2019
4549 Clouds 9 1019 93 10000 5 100 16:21 08.11.2019
4550 Clouds 9 1019 87 10000 3 110 15:59 08.11.2019
4551 Clouds 10 1019 87 10000 5 90 15:40 08.11.2019
4552 Clouds 10 1019 87 10000 5 90 15:22 08.11.2019
4553 Clouds 10 1019 87 10000 3 100 14:56 08.11.2019
4554 Clouds 10 1019 87 10000 4 110 14:37 08.11.2019
4555 Clouds 10 1019 87 10000 4 110 14:37 08.11.2019
4556 Clouds 10 1019 87 10000 4 110 14:19 08.11.2019
4557 Clouds 10 1019 87 10000 3 100 13:58 08.11.2019
4558 Clouds 10 1019 87 10000 4 110 13:39 08.11.2019
4559 Clouds 10 1019 87 10000 4 110 13:20 08.11.2019
4560 Clouds 10 1018 87 10000 4 90 12:44 08.11.2019
4561 Clouds 10 1018 87 10000 3 100 12:26 08.11.2019
4562 Clouds 10 1018 87 10000 4 80 11:57 08.11.2019
4563 Clouds 10 1018 87 8000 3 80 11:39 08.11.2019
4564 Clouds 10 1018 87 8000 2 80 11:20 08.11.2019
4565 Clouds 10 1018 87 8000 3 80 11:20 08.11.2019
4566 Clouds 10 1018 87 8000 3 80 11:20 08.11.2019
4567 Clouds 10 1018 87 8000 2 80 10:57 08.11.2019
4568 Clouds 10 1018 93 6000 2 80 10:39 08.11.2019
4569 Clouds 10 1018 93 6000 2 80 10:20 08.11.2019
4570 Clouds 9 1017 93 6000 2 90 09:42 08.11.2019
4571 Clouds 9 1017 93 6000 2 90 09:24 08.11.2019
4572 Mist 9 1017 93 5000 2 110 08:59 08.11.2019
4573 Mist 8 1017 100 5000 2 120 08:38 08.11.2019
4574 Mist 8 1017 100 5000 2 120 08:19 08.11.2019
4575 Clouds 8 1016 100 6000 1 0 07:41 08.11.2019
4576 Clouds 8 1015 100 6000 2 90 07:22 08.11.2019
4577 Clouds 7 1015 100 6000 0.31 159 06:41 08.11.2019
4578 Clouds 7 1015 100 6000 0.31 159 06:23 08.11.2019
4579 Mist 8 1014 93 5000 0.31 159 05:55 08.11.2019
4580 Mist 8 1014 93 5000 0.31 159 05:55 08.11.2019
4581 Clouds 8 1014 100 6000 0.64 113 05:22 08.11.2019
4582 Clouds 8 1013 93 10000 2 70 03:46 08.11.2019
4583 Clouds 8 1013 93 10000 1 70 03:24 08.11.2019
4584 Clouds 8 1013 93 10000 2 100 02:46 08.11.2019
4585 Clouds 8 1012 93 10000 2 90 01:48 08.11.2019
4586 Clouds 8 1012 93 10000 2 70 01:30 08.11.2019
4587 Rain 8 1011 93 10000 2 70 00:24 08.11.2019
4588 Rain 8 1011 93 10000 3 90 23:59 07.11.2019
4589 Rain 8 1011 93 10000 2 70 23:41 07.11.2019
4590 Rain 8 1011 93 10000 2 70 23:22 07.11.2019
4591 Rain 8 1011 93 10000 2 70 22:42 07.11.2019
4592 Rain 8 1011 93 10000 2 70 22:22 07.11.2019
4593 Rain 8 1011 93 10000 2 70 22:22 07.11.2019
4594 Rain 8 1011 93 10000 3 50 21:56 07.11.2019
4595 Rain 8 1011 93 10000 3 80 21:37 07.11.2019
4596 Rain 8 1011 93 10000 3 80 21:19 07.11.2019
4597 Rain 8 1011 93 9000 3 80 20:58 07.11.2019
4598 Rain 8 1011 100 8000 3 80 20:39 07.11.2019
4599 Rain 8 1011 100 8000 3 80 20:21 07.11.2019
4600 Rain 8 1011 100 6000 3 80 19:55 07.11.2019
4601 Rain 8 1011 100 4800 2 80 19:36 07.11.2019
4602 Rain 8 1011 100 4800 2 80 19:18 07.11.2019
4603 Rain 8 1011 93 6000 2 90 18:55 07.11.2019
4604 Rain 8 1012 93 9000 3 90 18:37 07.11.2019
4605 Rain 8 1012 93 9000 3 90 18:37 07.11.2019
4606 Rain 8 1012 93 9000 3 90 18:19 07.11.2019
4607 Rain 8 1011 93 10000 3 100 17:40 07.11.2019
4608 Rain 9 1011 87 10000 3 110 17:21 07.11.2019
4609 Rain 9 1011 87 10000 3 110 16:58 07.11.2019
4610 -273 0 0 0 0 0 16:40 07.11.2019
4611 Clouds 9 1011 87 10000 3 110 16:20 07.11.2019
4612 Rain 9 1011 87 10000 3 100 15:57 07.11.2019
4613 Rain 9 1011 87 10000 3 100 15:57 07.11.2019
4614 Rain 9 1011 87 9000 2 110 15:38 07.11.2019
4615 Rain 9 1011 76 10000 2 110 15:19 07.11.2019
4616 Rain 9 1011 76 10000 2 110 15:19 07.11.2019
4617 Rain 10 1011 76 10000 3 120 14:45 07.11.2019
4618 Clouds 10 1011 76 10000 3 120 14:27 07.11.2019
4619 Clouds 10 1011 76 10000 3 120 14:27 07.11.2019
4620 Clouds 10 1012 76 10000 3 100 13:57 07.11.2019
4621 Clouds 10 1012 76 10000 3 100 13:57 07.11.2019
4622 Rain 10 1011 76 10000 3 100 13:38 07.11.2019
4623 Rain 10 1011 76 10000 3 100 13:20 07.11.2019
4624 Clouds 11 1012 71 10000 2 150 12:58 07.11.2019
4625 Clouds 11 1012 66 10000 2 130 12:39 07.11.2019
4626 Clouds 11 1012 66 10000 1 0 12:20 07.11.2019
4627 Clouds 10 1012 76 10000 1 0 11:44 07.11.2019
4628 Clouds 10 1012 76 10000 1 0 11:24 07.11.2019
4629 Clouds 10 1012 76 10000 1 0 11:23 07.11.2019
4630 Clouds 10 1012 76 10000 1 0 10:59 07.11.2019
4631 Clouds 10 1012 76 10000 2 140 10:40 07.11.2019
4632 Clouds 9 1012 100 9000 1 0 10:18 07.11.2019
4633 Clouds 9 1012 87 8000 1.53 132 09:42 07.11.2019
4634 Clouds 9 1012 87 8000 1.53 132 09:22 07.11.2019
4635 Clouds 9 1012 93 8000 1 0 08:56 07.11.2019
4636 Clouds 8 1011 93 8000 1 0 08:37 07.11.2019
4637 Clouds 8 1011 93 8000 1 0 08:19 07.11.2019
4638 Clouds 7 1011 100 9000 1 270 07:41 07.11.2019
4639 Clouds 7 1011 100 9000 1 270 07:22 07.11.2019
4640 Clouds 6 1011 100 9000 1 220 06:49 07.11.2019
4641 Clouds 6 1011 100 9000 1 220 06:28 07.11.2019
4642 Clouds 6 1011 100 9000 1 240 05:57 07.11.2019
4643 Clouds 6 1011 100 9000 2 230 05:38 07.11.2019
4644 Clouds 6 1011 93 10000 2 260 05:20 07.11.2019
4645 Clouds 6 1011 93 10000 2 260 05:19 07.11.2019
4646 Clouds 6 1011 100 10000 2 230 04:41 07.11.2019
4647 Clouds 6 1010 100 10000 1 230 02:58 07.11.2019
4648 Clouds 6 1010 100 10000 1 230 02:58 07.11.2019
4649 Clouds 7 1009 93 10000 2 260 00:47 07.11.2019
4650 Clouds 7 1009 93 10000 2 260 00:20 07.11.2019
4651 Clouds 8 1008 81 10000 2 280 23:47 06.11.2019
4652 Clouds 8 1008 81 10000 2 280 23:47 06.11.2019
4653 Clouds 8 1008 81 10000 2 280 23:22 06.11.2019
4654 Clouds 9 1008 81 10000 3 290 22:56 06.11.2019
4655 Clouds 9 1008 81 10000 3 330 22:37 06.11.2019
4656 Clouds 10 1007 76 10000 5 320 22:18 06.11.2019
4657 Clouds 10 980 73 0 3.63 291 21:42 06.11.2019
4658 Clouds 10 1006 79 0 0.45 333 21:21 06.11.2019
4659 Clouds 12 1005 76 10000 8 310 20:59 06.11.2019
4660 Clouds 12 1005 76 10000 8 310 20:40 06.11.2019
4661 Clouds 12 1005 76 10000 8 310 20:40 06.11.2019
4662 Clouds 12 1005 76 10000 8 310 20:21 06.11.2019
4663 Clouds 12 1005 76 10000 8 310 19:58 06.11.2019
4664 Clouds 12 1005 82 10000 7 310 19:39 06.11.2019
4665 Clouds 13 1004 76 10000 5 280 19:21 06.11.2019
4666 Clouds 14 1004 76 10000 5 280 18:57 06.11.2019
4667 Clouds 14 1004 67 10000 5 290 18:38 06.11.2019
4668 Clouds 15 1004 67 10000 5 290 18:19 06.11.2019
4669 Clouds 16 1003 62 10000 5 280 17:54 06.11.2019
4670 Clouds 16 1002 59 10000 5 270 17:36 06.11.2019
4671 Clouds 16 1002 59 10000 3 240 17:18 06.11.2019
4672 Clouds 16 1002 59 10000 3 240 16:54 06.11.2019
4673 Clouds 16 1001 55 10000 3 230 16:36 06.11.2019
4674 Clouds 16 1001 55 10000 3 230 16:36 06.11.2019
4675 Clouds 16 1001 55 10000 3 230 16:18 06.11.2019
4676 Clouds 16 1001 55 10000 3 220 15:54 06.11.2019
4677 Clouds 17 1000 55 10000 2 210 15:36 06.11.2019
4678 Clouds 17 1000 55 10000 2 210 15:18 06.11.2019
4679 Clouds 18 1000 52 10000 2 200 14:54 06.11.2019
4680 Clouds 18 1000 52 10000 3 230 14:36 06.11.2019
4681 Clouds 18 1000 52 10000 3 230 14:18 06.11.2019
4682 Clouds 19 999 52 10000 4 210 13:38 06.11.2019
4683 Clouds 19 999 52 10000 4 210 13:38 06.11.2019
4684 Clouds 18 999 52 10000 4 210 13:38 06.11.2019
4685 Clouds 18 999 52 10000 4 210 13:20 06.11.2019
4686 Clouds 18 999 52 10000 4 210 12:56 06.11.2019
4687 Clouds 18 999 52 10000 4 210 12:56 06.11.2019
4688 Clouds 18 999 52 10000 4 210 12:37 06.11.2019
4689 Clouds 18 999 52 10000 4 210 12:19 06.11.2019
4690 Clouds 18 1000 51 10000 5 220 11:57 06.11.2019
4691 Clouds 17 1000 55 10000 4 190 11:36 06.11.2019
4692 Clouds 17 1000 55 10000 4 190 11:18 06.11.2019
4693 Clouds 16 1000 55 10000 3 200 10:56 06.11.2019
4694 Clouds 15 1000 62 10000 4 200 10:37 06.11.2019
4695 Clouds 15 1000 62 10000 4 200 10:19 06.11.2019
4696 Clouds 15 1000 62 10000 4 200 10:19 06.11.2019
4697 Clouds 14 1000 62 10000 2 180 09:42 06.11.2019
4698 Clouds 14 1000 62 10000 2 180 09:21 06.11.2019
4699 Clouds 13 1000 66 10000 3 190 08:56 06.11.2019
4700 Clouds 12 1001 66 10000 2 170 08:38 06.11.2019
4701 Clouds 11 1001 71 10000 4 190 08:19 06.11.2019
4702 Clouds 10 1000 76 10000 4 190 07:47 06.11.2019
4703 Clouds 10 1000 76 10000 4 190 07:29 06.11.2019
4704 Clouds 10 1000 76 10000 4 180 06:59 06.11.2019
4705 Clouds 9 1000 81 10000 4 200 06:38 06.11.2019
4706 Clouds 9 1000 81 10000 4 200 06:20 06.11.2019
4707 Clouds 10 1001 76 10000 1 0 03:52 06.11.2019
4708 Clouds 11 1002 66 10000 2 190 02:18 06.11.2019
4709 Clear 12 1003 62 10000 3 180 00:51 06.11.2019
4710 Clear 12 1003 62 10000 3 190 00:26 06.11.2019
4711 Clear 12 1004 62 10000 3 200 23:57 05.11.2019
4712 Clear 11 1004 62 10000 2 200 23:37 05.11.2019
4713 Clear 11 1004 62 10000 2 200 23:37 05.11.2019
4714 Clear 11 1004 66 10000 2 200 23:18 05.11.2019
4715 Clear 11 1004 66 10000 2 200 23:18 05.11.2019
4716 Clear 11 1004 66 10000 2 200 23:18 05.11.2019
4717 Clear 11 1004 66 10000 2 200 22:41 05.11.2019
4718 Clear 11 1004 66 10000 2 200 22:19 05.11.2019
4719 Clear 11 1004 62 10000 4 200 21:55 05.11.2019
4720 Clear 11 1004 62 10000 4 200 21:55 05.11.2019
4721 Clear 12 1004 62 10000 3 200 21:37 05.11.2019
4722 Clear 12 1004 62 10000 4 210 21:19 05.11.2019
4723 Clear 12 1004 62 10000 4 210 20:56 05.11.2019
4724 Clear 12 1005 62 10000 4 210 20:37 05.11.2019
4725 Clouds 12 1005 62 10000 4 210 20:19 05.11.2019
4726 Clouds 12 1005 62 10000 4 220 19:42 05.11.2019
4727 Clouds 12 1005 62 10000 4 220 19:23 05.11.2019
4728 Clouds 12 1005 66 10000 4 210 18:58 05.11.2019
4729 Clouds 13 1005 66 10000 3 210 18:40 05.11.2019
4730 Clouds 12 1005 66 10000 3 210 18:21 05.11.2019
4731 Clouds 13 1005 62 10000 3 200 17:59 05.11.2019
4732 Clouds 13 1005 62 10000 4 210 17:39 05.11.2019
4733 Clear 13 1005 62 10000 4 210 17:20 05.11.2019
4734 Clear 14 1005 58 10000 3 220 16:57 05.11.2019
4735 Clear 14 1005 58 10000 3 220 16:57 05.11.2019
4736 Clear 14 1005 62 10000 3 220 16:39 05.11.2019
4737 Clear 15 1004 58 10000 3 220 16:19 05.11.2019
4738 Clear 14 1005 62 10000 3 220 16:19 05.11.2019
4739 Clear 16 1004 55 10000 4 230 15:39 05.11.2019
4740 Clear 16 1004 55 10000 4 230 15:20 05.11.2019
4741 Clear 16 1004 55 10000 5 230 14:58 05.11.2019
4742 Clear 17 1004 51 10000 4 230 14:40 05.11.2019
4743 Clouds 17 1004 51 10000 4 230 14:21 05.11.2019
4744 Clouds 17 1003 48 10000 6 250 13:56 05.11.2019
4745 Clouds 17 1003 48 10000 6 250 13:38 05.11.2019
4746 Clear 17 1003 48 10000 6 250 13:20 05.11.2019
4747 Clear 17 1003 55 10000 7 250 12:39 05.11.2019
4748 Clear 16 1003 55 10000 7 250 12:21 05.11.2019
4749 Clear 16 1003 55 10000 7 260 11:56 05.11.2019
4750 Clear 16 1003 62 10000 7 260 11:37 05.11.2019
4751 Clear 16 1003 62 10000 7 260 11:19 05.11.2019
4752 Clouds 15 1003 62 10000 8 260 10:45 05.11.2019
4753 Clouds 14 1002 71 10000 7 270 10:27 05.11.2019
4754 Clouds 15 1002 71 10000 8 270 09:59 05.11.2019
4755 Clouds 14 1002 76 10000 7 270 09:40 05.11.2019
4756 Clouds 14 1002 76 10000 7 270 09:20 05.11.2019
4757 Clouds 13 1001 82 10000 7 280 08:55 05.11.2019
4758 Clear 14 1001 82 10000 7 270 08:37 05.11.2019
4759 Clouds 13 1001 82 10000 7 270 08:18 05.11.2019
4760 Clouds 13 1000 87 10000 8 280 07:45 05.11.2019
4761 Clouds 13 1000 87 10000 8 280 07:25 05.11.2019
4762 Clouds 13 1000 87 10000 8 280 07:25 05.11.2019
4763 Clouds 13 999 87 10000 7 250 06:51 05.11.2019
4764 Clouds 13 999 93 10000 5 230 06:28 05.11.2019
4765 Rain 13 998 93 8000 4 220 05:40 05.11.2019
4766 Rain 13 998 93 8000 4 220 05:19 05.11.2019
4767 Rain 13 998 93 5000 3 220 04:20 05.11.2019
4768 Rain 14 998 93 7000 4 210 03:24 05.11.2019
4769 Rain 14 998 93 10000 4 200 02:42 05.11.2019
4770 Clouds 14 997 93 10000 4 180 01:52 05.11.2019
4771 Clouds 14 997 93 10000 4 180 01:52 05.11.2019
4772 Clouds 14 997 93 10000 4 180 01:52 05.11.2019
4773 Clouds 13 998 93 10000 3 170 00:43 05.11.2019
4774 Clouds 13 998 93 10000 3 170 00:23 05.11.2019
4775 Clouds 13 998 87 10000 4 170 23:41 04.11.2019
4776 Clouds 13 999 87 10000 3 160 23:19 04.11.2019
4777 Clouds 13 999 87 10000 3 160 23:19 04.11.2019
4778 Clouds 13 999 82 10000 3 150 22:55 04.11.2019
4779 Clouds 14 999 82 10000 3 160 22:37 04.11.2019
4780 Clouds 14 999 82 10000 3 160 22:37 04.11.2019
4781 Clouds 14 999 82 10000 3 160 22:19 04.11.2019
4782 Clouds 14 999 82 10000 3 170 21:54 04.11.2019
4783 Clouds 14 999 82 10000 4 160 21:36 04.11.2019
4784 Clouds 14 999 82 10000 4 160 21:36 04.11.2019
4785 Clouds 14 999 82 10000 4 160 21:18 04.11.2019
4786 Clouds 14 1000 77 10000 3 160 20:55 04.11.2019
4787 Clouds 14 1000 82 10000 4 160 20:36 04.11.2019
4788 Clouds 14 1000 82 10000 4 160 20:18 04.11.2019
4789 Clouds 14 1000 87 10000 3 150 19:42 04.11.2019
4790 Clouds 14 1000 87 10000 3 150 19:23 04.11.2019
4791 Clouds 14 1000 82 10000 3 150 18:58 04.11.2019
4792 Clouds 14 1000 82 10000 3 140 18:39 04.11.2019
4793 Clouds 14 1000 82 10000 3 140 18:39 04.11.2019
4794 Clouds 14 1000 82 10000 3 140 18:21 04.11.2019
4795 Clouds 14 1001 82 10000 2 140 17:56 04.11.2019
4796 Clouds 14 1001 82 10000 3 120 17:36 04.11.2019
4797 Clear 15 1001 82 10000 3 130 17:18 04.11.2019
4798 Clear 15 1001 77 10000 3 140 16:42 04.11.2019
4799 Clear 15 1001 77 10000 3 140 16:24 04.11.2019
4800 Clear 15 1001 77 10000 3 130 15:58 04.11.2019
4801 Clear 16 1001 77 10000 3 140 15:39 04.11.2019
4802 Clear 16 1001 77 10000 3 140 15:21 04.11.2019
4803 Clear 17 1001 77 10000 3 150 14:57 04.11.2019
4804 Clouds 17 1002 72 10000 4 170 14:39 04.11.2019
4805 Clouds 18 1002 72 10000 4 170 14:20 04.11.2019
4806 Clouds 17 1001 77 10000 3 160 13:57 04.11.2019
4807 Clouds 17 1002 72 10000 4 160 13:39 04.11.2019
4808 Clouds 17 1002 72 10000 4 160 13:20 04.11.2019
4809 Clouds 16 1002 77 10000 3 190 12:45 04.11.2019
4810 Clouds 16 1002 77 10000 3 190 12:25 04.11.2019
4811 Clouds 15 1003 82 10000 3 190 11:58 04.11.2019
4812 Clouds 15 1003 82 10000 4 180 11:40 04.11.2019
4813 Clouds 15 1003 82 10000 4 180 11:21 04.11.2019
4814 Clouds 14 1003 87 10000 4 180 10:47 04.11.2019
4815 Clouds 14 1003 87 10000 4 180 10:26 04.11.2019
4816 Clouds 14 1004 87 10000 4 180 09:56 04.11.2019
4817 Clouds 14 1004 87 10000 3 180 09:38 04.11.2019
4818 Clouds 14 1004 87 10000 3 180 09:19 04.11.2019
4819 Clouds 14 1004 87 10000 4 170 08:42 04.11.2019
4820 Clouds 13 1004 87 10000 3 160 08:23 04.11.2019
4821 Clouds 13 1004 87 10000 3 160 08:23 04.11.2019
4822 Clouds 13 1004 87 10000 3 160 08:23 04.11.2019
4823 Clouds 13 1004 87 10000 3 150 07:56 04.11.2019
4824 Clouds 12 1005 93 10000 2 160 07:38 04.11.2019
4825 Clouds 12 1005 93 10000 2 160 07:38 04.11.2019
4826 Clouds 12 1005 93 10000 2 160 07:19 04.11.2019
4827 Clouds 12 1005 93 10000 3 160 06:47 04.11.2019
4828 Clouds 12 1004 93 10000 2 150 06:18 04.11.2019
4829 Rain 12 1005 93 10000 3 150 05:31 04.11.2019
4830 Rain 11 1005 87 10000 3 160 04:27 04.11.2019
4831 Rain 11 1005 87 10000 3 150 03:31 04.11.2019
4832 Clouds 12 1006 87 10000 3 170 01:37 04.11.2019
4833 Clouds 12 1006 87 10000 4 170 01:18 04.11.2019
4834 Clouds 12 1006 87 10000 3 170 00:22 04.11.2019
4835 Clouds 12 1006 87 10000 3 160 23:58 03.11.2019
4836 Clouds 11 1007 87 10000 3 170 23:37 03.11.2019
4837 Clouds 11 1007 87 10000 3 170 23:18 03.11.2019
4838 Rain 11 1007 93 10000 4 170 22:56 03.11.2019
4839 Rain 11 1007 100 10000 4 170 22:38 03.11.2019
4840 Rain 11 1007 100 10000 4 170 22:19 03.11.2019
4841 Rain 12 1007 87 10000 4 170 21:43 03.11.2019
4842 Rain 12 1007 87 10000 4 170 21:43 03.11.2019
4843 Rain 12 1007 87 10000 4 170 21:21 03.11.2019
4844 Clouds 12 1007 87 10000 4 170 20:58 03.11.2019
4845 Clouds 11 1007 87 10000 4 170 20:38 03.11.2019
4846 Clouds 11 1007 87 10000 4 170 20:19 03.11.2019
4847 Clouds 11 1007 87 10000 4 160 19:57 03.11.2019
4848 Clouds 11 1008 93 10000 4 160 19:38 03.11.2019
4849 Clouds 11 1008 93 10000 4 160 19:20 03.11.2019
4850 Clouds 11 1008 93 10000 3 160 18:56 03.11.2019
4851 Clouds 11 1008 81 10000 3 160 18:37 03.11.2019
4852 Clouds 11 1008 81 10000 3 160 18:18 03.11.2019
4853 Clouds 11 1008 93 10000 3 160 17:42 03.11.2019
4854 Clouds 11 1008 87 10000 3 160 17:20 03.11.2019
4855 Clouds 11 1008 87 10000 3 160 16:57 03.11.2019
4856 Clouds 11 1008 87 10000 3 160 16:57 03.11.2019
4857 Clouds 11 1008 87 10000 3 160 16:39 03.11.2019
4858 Clouds 11 1008 87 10000 3 160 16:21 03.11.2019
4859 Clouds 11 1008 87 10000 3 150 15:57 03.11.2019
4860 Clouds 11 1008 87 10000 3 170 15:39 03.11.2019
4861 Clouds 11 1008 87 10000 3 170 15:39 03.11.2019
4862 Clouds 11 1008 87 10000 3 170 15:21 03.11.2019
4863 Clouds 11 1008 93 10000 3 170 14:42 03.11.2019
4864 Clouds 11 1008 93 10000 3 170 14:20 03.11.2019
4865 Clouds 11 1008 93 10000 3 170 13:59 03.11.2019
4866 Clouds 11 1009 87 10000 3 170 13:40 03.11.2019
4867 Clouds 10 1009 87 10000 3 170 13:18 03.11.2019
4868 Clouds 10 1009 93 10000 3 180 12:39 03.11.2019
4869 Rain 10 1009 93 10000 3 180 12:20 03.11.2019
4870 Rain 9 1010 93 7000 5 170 12:20 03.11.2019
4871 Rain 9 1009 100 10000 3 190 11:59 03.11.2019
4872 Rain 9 1009 100 4700 3 190 11:41 03.11.2019
4873 Rain 9 1009 100 4700 3 190 11:41 03.11.2019
4874 Rain 9 1009 100 4700 3 190 11:20 03.11.2019
4875 Rain 9 1009 93 10000 3 190 10:55 03.11.2019
4876 Rain 9 1010 93 10000 3 190 10:37 03.11.2019
4877 Rain 8 1010 100 9000 3 190 10:18 03.11.2019
4878 Rain 9 1010 93 10000 3 190 10:18 03.11.2019
4879 Rain 8 1010 93 4800 4 190 09:42 03.11.2019
4880 Rain 8 1010 93 4800 4 190 09:23 03.11.2019
4881 Rain 8 1010 93 10000 4 180 08:55 03.11.2019
4882 Rain 7 1010 93 10000 3 180 08:36 03.11.2019
4883 Rain 7 1010 93 10000 3 180 08:18 03.11.2019
4884 Rain 7 1010 93 10000 4 170 07:43 03.11.2019
4885 Clouds 7 1010 93 10000 4 170 07:18 03.11.2019
4886 Clouds 7 1010 87 10000 4 170 06:39 03.11.2019
4887 Clouds 7 1010 87 10000 3 170 05:41 03.11.2019
4888 Clouds 7 1010 87 10000 4 180 05:19 03.11.2019
4889 Clouds 7 1010 87 10000 4 160 04:48 03.11.2019
4890 Clouds 6 1010 93 10000 3 160 03:50 03.11.2019
4891 Rain 6 1010 93 10000 4 170 02:46 03.11.2019
4892 Clouds 6 1010 93 10000 4 160 02:21 03.11.2019
4893 Clouds 6 1010 93 10000 4 160 02:21 03.11.2019
4894 Rain 6 1011 87 10000 4 160 01:45 03.11.2019
4895 Clouds 6 1011 87 10000 4 160 01:22 03.11.2019
4896 Clouds 6 1011 87 10000 5 170 00:47 03.11.2019
4897 Clouds 5 1011 87 10000 5 170 00:28 03.11.2019
4898 Clouds 6 1011 87 10000 6 160 23:59 02.11.2019
4899 Rain 6 1012 93 10000 6 170 23:39 02.11.2019
4900 Rain 6 1012 93 10000 6 170 23:20 02.11.2019
4901 Rain 5 1012 93 10000 4 160 22:56 02.11.2019
4902 Rain 6 1012 93 6000 5 170 22:38 02.11.2019
4903 Rain 6 1012 93 6000 5 170 22:19 02.11.2019
4904 Rain 6 1012 93 6000 5 170 22:19 02.11.2019
4905 Rain 6 1012 93 4700 5 170 21:57 02.11.2019
4906 Rain 6 1013 81 10000 5 180 21:38 02.11.2019
4907 Rain 7 1013 81 10000 5 180 21:18 02.11.2019
4908 Rain 7 1013 81 10000 5 180 21:18 02.11.2019
4909 Rain 7 1013 81 10000 5 180 21:18 02.11.2019
4910 Rain 7 1013 75 10000 4 180 20:59 02.11.2019
4911 Rain 7 1013 70 10000 5 190 20:40 02.11.2019
4912 Rain 7 1013 70 10000 5 190 20:20 02.11.2019
4913 Rain 8 1013 57 10000 5 170 19:55 02.11.2019
4914 Clouds 8 1013 58 10000 4 170 19:36 02.11.2019
4915 Clouds 8 1013 58 10000 4 160 19:18 02.11.2019
4916 Clouds 8 1013 58 10000 4 160 18:43 02.11.2019
4917 Clouds 8 1014 58 10000 4 160 18:24 02.11.2019
4918 Clouds 8 1014 52 10000 5 150 17:59 02.11.2019
4919 Clouds 8 1014 52 10000 4 160 17:40 02.11.2019
4920 Clouds 8 1014 52 10000 4 160 17:22 02.11.2019
4921 Clouds 8 1014 52 10000 4 160 17:22 02.11.2019
4922 Clouds 8 1015 52 10000 5 160 16:58 02.11.2019
4923 Clouds 8 1015 52 10000 6 160 16:38 02.11.2019
4924 Clouds 8 1015 52 10000 5 170 16:20 02.11.2019
4925 Clouds 8 1015 52 10000 4 170 15:42 02.11.2019
4926 Clouds 8 1015 52 10000 4 170 15:20 02.11.2019
4927 Clouds 8 1015 52 10000 5 180 14:43 02.11.2019
4928 Clouds 8 1015 52 10000 5 180 14:43 02.11.2019
4929 Clouds 8 1016 49 10000 5 170 14:24 02.11.2019
4930 Clouds 8 1016 49 10000 5 170 13:59 02.11.2019
4931 Clouds 8 1016 49 10000 6 180 13:40 02.11.2019
4932 Clouds 8 1017 49 10000 6 190 13:20 02.11.2019
4933 Clouds 8 1017 49 10000 6 190 12:56 02.11.2019
4934 Clouds 8 1017 49 10000 5 180 12:37 02.11.2019
4935 Clouds 8 1017 49 10000 5 180 12:19 02.11.2019
4936 Clouds 8 1018 52 10000 5 190 11:42 02.11.2019
4937 Clouds 8 1018 52 10000 5 190 11:23 02.11.2019
4938 Clouds 8 1019 48 10000 6 190 10:56 02.11.2019
4939 Clouds 7 1019 52 10000 6 190 10:38 02.11.2019
4940 Clouds 6 1019 52 10000 6 190 10:18 02.11.2019
4941 Clouds 6 1020 56 10000 4 190 10:18 02.11.2019
4942 Clouds 5 1020 60 10000 3 180 09:40 02.11.2019
4943 Clouds 5 1020 60 10000 3 180 09:21 02.11.2019
4944 Clouds 4 1020 64 10000 5 190 08:50 02.11.2019
4945 Clear 2 1020 64 10000 5 190 08:24 02.11.2019
4946 Clouds 1 1020 69 10000 4 190 07:52 02.11.2019
4947 Clouds 0 1020 52 10000 4 190 07:33 02.11.2019
4948 Clouds 0 1020 52 10000 4 190 06:59 02.11.2019
4949 Clouds -1 1020 80 10000 4 190 06:41 02.11.2019
4950 Clouds -1 1021 74 10000 4 200 06:20 02.11.2019
4951 Clouds -2 1021 80 10000 4 190 05:33 02.11.2019
4952 Clouds -2 1021 80 10000 3 210 04:23 02.11.2019
4953 Clouds -2 1021 86 10000 3 210 03:50 02.11.2019
4954 Clouds -4 1021 92 10000 3 220 02:50 02.11.2019
4955 Clear -2 1022 92 9000 1 200 01:57 02.11.2019
4956 Clear -2 1022 86 8000 1 0 01:27 02.11.2019
4957 Clear -2 1022 92 7000 2.61 205 00:55 02.11.2019
4958 Clear -2 1022 92 7000 1 0 00:28 02.11.2019
4959 Clear -1 1022 92 7000 1 0 23:50 01.11.2019
4960 Clear -1 1022 92 6000 1 190 23:25 01.11.2019
4961 Clear -1 1022 92 6000 2.12 230 22:59 01.11.2019
4962 Clear 0 1022 92 6000 2.12 230 22:41 01.11.2019
4963 Clear 0 1022 92 6000 2.12 230 22:20 01.11.2019
4964 Clear 2 1023 80 7000 2 240 21:42 01.11.2019
4965 Clear 2 1023 80 7000 2 240 21:24 01.11.2019
4966 Clear 2 1023 74 8000 2 240 20:59 01.11.2019
4967 Clear 2 1023 74 8000 2 240 20:40 01.11.2019
4968 Clouds 3 1023 74 7000 2 240 20:21 01.11.2019
4969 Clouds 3 1023 74 9000 2 250 19:56 01.11.2019
4970 Clouds 2 1023 80 6000 2 240 19:38 01.11.2019
4971 Clouds 2 1023 80 6000 2 240 19:20 01.11.2019
4972 Clouds 3 1023 74 9000 3 250 18:40 01.11.2019
4973 Clouds 3 1023 74 9000 3 250 18:21 01.11.2019
4974 Clouds 3 1023 69 10000 3 250 17:56 01.11.2019
4975 Clouds 3 1023 69 10000 3 230 17:37 01.11.2019
4976 Clouds 3 1023 69 10000 3 230 17:19 01.11.2019
4977 Clouds 4 1023 69 10000 3 250 16:38 01.11.2019
4978 Clouds 4 1023 69 10000 3 250 16:20 01.11.2019
4979 Clouds 4 1023 64 10000 4 260 15:55 01.11.2019
4980 Clouds 5 1022 60 10000 5 270 15:36 01.11.2019
4981 Clouds 5 1022 60 10000 5 270 15:18 01.11.2019
4982 Clouds 5 1023 60 10000 5 260 14:41 01.11.2019
4983 Clouds 5 1023 60 10000 5 260 14:41 01.11.2019
4984 Clouds 6 1023 60 10000 5 260 14:23 01.11.2019
4985 Clouds 6 1023 60 10000 6 280 13:57 01.11.2019
4986 Clouds 6 1023 60 10000 6 280 13:57 01.11.2019
4987 Clouds 6 1023 60 10000 6 270 13:38 01.11.2019
4988 Clouds 6 1023 60 10000 6 270 13:19 01.11.2019
4989 Clouds 5 1023 65 10000 4 260 12:43 01.11.2019
4990 Clouds 5 1023 65 10000 4 260 12:25 01.11.2019
4991 Clouds 5 1024 64 10000 3 260 11:56 01.11.2019
4992 Clouds 5 1024 64 10000 4 260 11:38 01.11.2019
4993 Clear 5 1024 64 10000 4 260 11:19 01.11.2019
4994 Clouds 4 1024 64 10000 4 250 10:41 01.11.2019
4995 Clouds 4 1024 64 10000 4 250 10:21 01.11.2019
4996 Clear 3 1024 64 10000 2 270 09:57 01.11.2019
4997 Clear 2 1024 64 10000 2 270 09:38 01.11.2019
4998 Clear 1 1024 74 10000 2 260 09:19 01.11.2019
4999 Clear 2 1024 64 10000 2 270 09:19 01.11.2019
5000 Clear 1 1024 74 10000 2 260 08:42 01.11.2019
5001 Clouds 0 1025 71 10000 2 270 08:22 01.11.2019
5002 Clouds 0 1025 71 10000 2 270 08:22 01.11.2019
5003 Clouds 1 1025 71 10000 2 270 08:22 01.11.2019
5004 Clouds 0 1025 86 10000 2 260 07:55 01.11.2019
5005 Clouds -2 1025 100 6000 2 250 07:36 01.11.2019
5006 Clouds -3 1025 100 6000 2 250 07:18 01.11.2019
5007 Clouds -3 1025 100 6000 2 250 07:18 01.11.2019
5008 Mist -4 1024 92 4000 2 250 06:40 01.11.2019
5009 Mist -4 1024 92 4000 2 250 06:21 01.11.2019
5010 Mist -4 1024 92 4000 2 250 06:21 01.11.2019
5011 Mist -4 1024 100 4700 2 250 05:43 01.11.2019
5012 Mist -3 1024 92 4900 1 250 03:42 01.11.2019
5013 Clouds -2 1024 100 6000 1 260 02:47 01.11.2019
5014 Snow -1 1025 92 7000 0.95 209 01:28 01.11.2019
5015 Clouds 0 1025 84 10000 0.95 209 00:22 01.11.2019
5016 Clouds 0 1025 84 10000 0.95 209 23:59 31.10.2019
5017 Clouds 0 1025 84 10000 1 110 23:41 31.10.2019
5018 Clouds 0 1025 91 10000 1 110 23:22 31.10.2019
5019 Clouds 0 1025 91 10000 1 80 22:42 31.10.2019
5020 Clouds 0 1025 80 10000 1 70 22:24 31.10.2019
5021 Clouds 0 1025 91 10000 1 130 21:59 31.10.2019
5022 Clouds 1 1025 86 10000 1 160 21:41 31.10.2019
5023 Clouds 1 1025 86 10000 1 160 21:20 31.10.2019
5024 Clouds 1 1025 86 10000 0.67 173 20:55 31.10.2019
5025 Clouds 1 1025 80 10000 1 0 20:37 31.10.2019
5026 Clouds 1 1025 80 10000 1 0 20:19 31.10.2019
5027 Clouds 1 1025 80 10000 2 170 19:40 31.10.2019
5028 Clouds 1 1025 86 7000 0.77 307 19:21 31.10.2019
5029 Clouds 1 1025 86 6000 0.77 307 18:55 31.10.2019
5030 Clouds 2 1026 74 7000 0.77 307 18:36 31.10.2019
5031 Clouds 2 1026 74 7000 0.77 307 18:18 31.10.2019
5032 Clouds 2 1026 74 7000 0.77 307 17:41 31.10.2019
5033 Clouds 2 1026 74 7000 1.83 312 17:21 31.10.2019
5034 Clouds 2 1026 80 10000 1.83 312 16:56 31.10.2019
5035 Clouds 2 1026 74 10000 1 0 16:37 31.10.2019
5036 Clouds 2 1026 74 10000 1 0 16:18 31.10.2019
5037 Clouds 3 1026 69 10000 2 260 15:41 31.10.2019
5038 Clouds 3 1026 69 10000 2 260 15:23 31.10.2019
5039 Clouds 3 1026 69 10000 2 310 14:59 31.10.2019
5040 Clouds 4 1026 74 10000 3 310 14:41 31.10.2019
5041 Clouds 4 1026 74 10000 3 310 14:23 31.10.2019
5042 Clouds 4 1026 74 10000 3 310 13:59 31.10.2019
5043 Snow 4 1026 69 10000 3 290 13:39 31.10.2019
5044 Snow 4 1026 69 10000 3 290 13:19 31.10.2019
5045 Snow 4 1026 69 10000 3 310 13:19 31.10.2019
5046 Snow 4 1026 69 10000 3 310 12:57 31.10.2019
5047 Snow 4 1026 69 10000 4 280 12:38 31.10.2019
5048 Snow 4 1026 69 10000 4 280 12:20 31.10.2019
5049 Clouds 4 1026 64 10000 3 300 11:46 31.10.2019
5050 Clouds 4 1026 64 10000 3 300 11:21 31.10.2019
5051 Clouds 4 1027 59 10000 4 290 10:58 31.10.2019
5052 Clouds 3 1027 59 10000 2 290 10:39 31.10.2019
5053 Clouds 3 1027 59 10000 2 290 10:21 31.10.2019
5054 Clouds 3 1027 59 10000 3 270 09:56 31.10.2019
5055 Clouds 2 1027 64 10000 3 280 09:37 31.10.2019
5056 Clouds 2 1027 64 10000 3 280 09:18 31.10.2019
5057 Clouds 1 1027 69 10000 3 270 08:44 31.10.2019
5058 Clouds 0 1027 80 10000 2 250 08:26 31.10.2019
5059 Clouds 0 1027 80 9000 1 270 07:48 31.10.2019
5060 Snow -2 1027 86 9000 2 270 07:27 31.10.2019
5061 Clouds -2 1027 86 8000 1 290 06:54 31.10.2019
5062 Clouds -1 1027 92 7000 1 230 06:32 31.10.2019
5063 Clouds -3 1027 86 7000 0.9 353 05:27 31.10.2019
5064 Mist -4 1026 85 5000 0.89 326 02:50 31.10.2019
5065 Mist -5 1026 92 5000 1 210 02:27 31.10.2019
5066 Mist -5 1026 92 5000 0.24 119 01:21 31.10.2019
5067 Mist -4 1026 92 5000 0.24 119 00:26 31.10.2019
5068 Mist -4 1026 85 5000 1 210 23:49 30.10.2019
5069 Mist -3 1026 85 5000 1 210 23:25 30.10.2019
5070 Clouds -2 1026 79 6000 1 0 22:42 30.10.2019
5071 Clouds -2 1026 79 6000 1 0 22:20 30.10.2019
5072 Clouds -3 1026 79 7000 1 0 21:55 30.10.2019
5073 Clouds -1 1026 74 7000 2 320 21:37 30.10.2019
5074 Clouds -1 1026 74 7000 2 320 21:18 30.10.2019
5075 Clouds -1 1026 74 6000 3 280 20:58 30.10.2019
5076 Clouds -3 1026 79 6000 2 290 20:39 30.10.2019
5077 Clear -3 1026 79 6000 2 290 20:21 30.10.2019
5078 Clear -1 1025 34 8000 1 280 19:54 30.10.2019
5079 Clear -1 1025 74 7000 2 280 19:36 30.10.2019
5080 Clear -1 1025 74 7000 2 280 19:18 30.10.2019
5081 Clear 1 1025 59 7000 2 270 18:39 30.10.2019
5082 Clear 1 1025 59 7000 2 270 18:19 30.10.2019
5083 Clear 1 1025 59 7000 2 270 18:19 30.10.2019
5084 Clear 1 1025 34 10000 2 320 17:57 30.10.2019
5085 Clear 2 1025 55 10000 2 310 17:38 30.10.2019
5086 Clear 2 1025 55 10000 2 310 17:18 30.10.2019
5087 Clear 3 1024 47 10000 2 320 16:55 30.10.2019
5088 Clear 3 1024 44 10000 3 330 16:37 30.10.2019
5089 Clear 3 1024 44 10000 3 330 16:18 30.10.2019
5090 Clear 4 1024 48 10000 4 330 15:54 30.10.2019
5091 Clear 5 1024 44 10000 5 310 15:36 30.10.2019
5092 Clear 5 1024 44 10000 5 310 15:18 30.10.2019
5093 Clear 6 1023 45 10000 6 310 14:41 30.10.2019
5094 Clouds 6 1023 45 10000 6 310 14:22 30.10.2019
5095 Clouds 6 1023 45 10000 5 310 13:58 30.10.2019
5096 Clouds 6 1023 48 10000 4 320 13:39 30.10.2019
5097 Clouds 6 1023 48 10000 4 320 13:19 30.10.2019
5098 Clouds 6 1023 52 10000 3 300 12:56 30.10.2019
5099 Clouds 6 1023 56 10000 4 300 12:37 30.10.2019
5100 Clouds 6 1023 56 10000 4 300 12:18 30.10.2019
5101 Clouds 5 1023 60 10000 4 320 11:41 30.10.2019
5102 Clouds 4 1023 74 10000 5 330 11:21 30.10.2019
5103 Clouds 3 1023 74 10000 5 320 10:45 30.10.2019
5104 Clouds 4 1023 74 10000 5 320 10:24 30.10.2019
5105 Clouds 3 1023 65 10000 5 320 09:57 30.10.2019
5106 Clouds 3 1023 65 10000 5 340 09:39 30.10.2019
5107 Clouds 3 1023 65 10000 5 340 09:19 30.10.2019
5108 Clouds 3 1022 65 10000 6 310 08:41 30.10.2019
5109 Clouds 2 1022 68 10000 6 310 08:22 30.10.2019
5110 Clear 2 1022 86 10000 5 280 07:51 30.10.2019
5111 Clear 1 1022 68 10000 3 260 07:32 30.10.2019
5112 Clear 0 1021 92 10000 3 250 06:43 30.10.2019
5113 Clear -1 1021 92 10000 3 260 06:22 30.10.2019
5114 Clear -1 1021 92 10000 3 260 05:50 30.10.2019
5115 Clear -1 1021 92 10000 3 270 05:32 30.10.2019
5116 Clear 0 1020 62 10000 4 310 03:46 30.10.2019
5117 Clear 0 1020 62 10000 4 310 03:18 30.10.2019
5118 Clouds 1 1020 86 10000 4 320 02:19 30.10.2019
5119 Clouds 2 1019 61 10000 4 310 01:34 30.10.2019
5120 Clouds 2 1019 93 10000 3 300 00:31 30.10.2019
5121 Clouds 3 1019 86 10000 3 300 23:46 29.10.2019
5122 Clouds 3 1019 86 10000 3 320 23:27 29.10.2019
5123 Clouds 3 1018 80 10000 3 320 22:55 29.10.2019
5124 Clouds 3 1018 80 10000 3 320 22:55 29.10.2019
5125 Clouds 5 1018 80 10000 4 320 22:37 29.10.2019
5126 Clouds 5 1018 80 10000 4 320 22:37 29.10.2019
5127 Clouds 5 1018 80 10000 4 320 22:37 29.10.2019
5128 Clouds 4 1018 86 10000 4 310 22:18 29.10.2019
5129 Clouds 5 1018 86 10000 3 290 21:42 29.10.2019
5130 Clouds 5 1018 86 10000 3 290 21:21 29.10.2019
5131 Clouds 6 1018 81 10000 4 290 20:59 29.10.2019
5132 Clouds 6 1018 81 10000 4 300 20:40 29.10.2019
5133 Clouds 6 1018 81 10000 4 300 20:21 29.10.2019
5134 Clouds 7 1018 75 10000 4 300 19:57 29.10.2019
5135 Clouds 7 1017 81 10000 3 300 19:38 29.10.2019
5136 Clouds 7 1017 75 10000 4 300 19:19 29.10.2019
5137 Clouds 7 1017 75 10000 4 300 18:55 29.10.2019
5138 Clouds 7 1017 75 10000 3 270 18:37 29.10.2019
5139 Rain 7 1017 75 9000 5 280 18:19 29.10.2019
5140 Rain 7 1017 75 9000 5 280 17:54 29.10.2019
5141 Rain 7 1017 75 9000 5 280 17:54 29.10.2019
5142 Clouds 8 1017 65 10000 4 270 17:36 29.10.2019
5143 Clouds 8 1017 65 10000 4 270 17:18 29.10.2019
5144 Clouds 8 1016 61 10000 3 270 16:39 29.10.2019
5145 Clouds 8 1016 61 10000 3 270 16:20 29.10.2019
5146 Clouds 8 1016 61 10000 4 280 15:56 29.10.2019
5147 Clouds 9 1016 57 10000 4 280 15:38 29.10.2019
5148 Clouds 9 1016 57 10000 4 280 15:19 29.10.2019
5149 Clouds 9 1016 57 10000 5 270 14:55 29.10.2019
5150 Clouds 9 1016 57 10000 4 280 14:37 29.10.2019
5151 Clouds 10 1016 53 10000 5 280 14:18 29.10.2019
5152 Clouds 10 1017 57 10000 6 290 13:40 29.10.2019
5153 Clouds 10 1017 57 10000 6 290 13:40 29.10.2019
5154 Clouds 10 1016 57 10000 6 280 13:22 29.10.2019
5155 Clouds 10 1017 57 10000 4 270 12:45 29.10.2019
5156 Clouds 10 1017 57 10000 4 270 12:26 29.10.2019
5157 Clouds 10 1017 61 10000 4 290 11:59 29.10.2019
5158 Clouds 10 1017 61 10000 4 290 11:40 29.10.2019
5159 Clouds 10 1017 70 10000 4 280 11:19 29.10.2019
5160 Clouds 9 1017 76 10000 4 280 10:57 29.10.2019
5161 Clouds 9 1017 81 10000 4 270 10:38 29.10.2019
5162 Clouds 9 1017 81 10000 4 270 10:20 29.10.2019
5163 Clouds 8 1017 87 10000 4 270 09:44 29.10.2019
5164 Clouds 7 1017 87 10000 4 270 09:23 29.10.2019
5165 Clouds 6 1017 87 10000 3 260 08:58 29.10.2019
5166 Clouds 6 1017 87 10000 3 260 08:39 29.10.2019
5167 Clouds 5 1017 86 10000 3 250 08:21 29.10.2019
5168 Clouds 4 1017 100 9000 3 250 07:49 29.10.2019
5169 Clouds 2 1017 100 8000 2 240 07:22 29.10.2019
5170 Clouds 2 1017 100 7000 2 240 06:55 29.10.2019
5171 Clouds 1 1017 68 6000 2 240 06:36 29.10.2019
5172 Clouds 1 1017 68 6000 2 240 06:18 29.10.2019
5173 Clouds 0 1017 68 7000 3 240 05:48 29.10.2019
5174 Clear 1 1017 100 7000 2 250 05:18 29.10.2019
5175 Clear 2 1017 100 9000 3 250 03:31 29.10.2019
5176 Clouds 3 1017 100 9000 3 250 01:57 29.10.2019
5177 Clouds 3 1017 93 9000 3 250 01:36 29.10.2019
5178 Clouds 3 1017 93 10000 3 250 00:54 29.10.2019
5179 Clouds 4 1017 100 10000 3 250 00:26 29.10.2019
5180 Clouds 4 1017 93 10000 2 260 23:40 28.10.2019
5181 Clouds 4 1017 93 10000 2 260 23:20 28.10.2019
5182 Clouds 5 1017 93 10000 2 270 22:57 28.10.2019
5183 Clouds 5 1017 93 10000 2 270 22:57 28.10.2019
5184 Clouds 6 1017 93 10000 2 270 22:36 28.10.2019
5185 Clouds 5 1017 93 10000 3 270 22:18 28.10.2019
5186 Clouds 5 1017 93 10000 3 270 21:42 28.10.2019
5187 Clouds 6 1017 87 10000 3 260 21:22 28.10.2019
5188 Clouds 6 1017 87 10000 2 260 20:59 28.10.2019
5189 Clouds 6 1016 87 10000 2 260 20:40 28.10.2019
5190 Clouds 6 1016 87 10000 2 260 20:21 28.10.2019
5191 Clouds 7 1016 81 10000 1 260 19:55 28.10.2019
5192 Clouds 7 1016 81 10000 2 290 19:36 28.10.2019
5193 Clouds 7 1016 81 10000 2 290 19:36 28.10.2019
5194 Clouds 7 1016 81 10000 2 290 19:18 28.10.2019
5195 Clouds 8 1016 75 10000 3 290 18:57 28.10.2019
5196 Clouds 9 1016 76 10000 3 290 18:38 28.10.2019
5197 Clouds 9 1016 76 10000 3 290 18:20 28.10.2019
5198 Clouds 9 1016 76 10000 2 270 17:55 28.10.2019
5199 Clouds 9 1016 71 10000 2 300 17:36 28.10.2019
5200 Rain 9 1016 71 10000 2 300 17:18 28.10.2019
5201 Rain 10 1015 71 10000 3 310 16:54 28.10.2019
5202 Clouds 10 1015 76 10000 2 310 16:36 28.10.2019
5203 Clouds 10 1015 76 10000 3 310 16:18 28.10.2019
5204 Clouds 10 1015 76 10000 3 310 15:55 28.10.2019
5205 Clouds 10 1015 81 10000 2 300 15:37 28.10.2019
5206 Clouds 10 1015 81 10000 2 300 15:18 28.10.2019
5207 Rain 10 1015 81 10000 3 300 14:54 28.10.2019
5208 Rain 10 1015 81 10000 3 330 14:36 28.10.2019
5209 Rain 11 1015 81 10000 3 330 14:18 28.10.2019
5210 Rain 11 1015 76 10000 4 320 13:41 28.10.2019
5211 Clouds 11 1014 81 10000 4 320 13:18 28.10.2019
5212 Clouds 11 1014 81 10000 3 310 12:43 28.10.2019
5213 Clouds 11 1014 81 10000 3 310 12:22 28.10.2019
5214 Clouds 12 1014 81 10000 3 300 11:59 28.10.2019
5215 Clouds 12 1014 87 10000 3 300 11:38 28.10.2019
5216 Clouds 12 1014 87 10000 3 300 11:19 28.10.2019
5217 Clouds 11 1014 81 9000 2 290 10:41 28.10.2019
5218 Clouds 11 1014 81 9000 2 290 10:22 28.10.2019
5219 Clouds 11 1014 87 9000 2 280 09:58 28.10.2019
5220 Clouds 11 1014 87 9000 2 280 09:39 28.10.2019
5221 Clouds 10 1014 87 9000 2 280 09:19 28.10.2019
5222 Clouds 10 1014 93 7000 2 280 08:57 28.10.2019
5223 Clouds 10 1014 93 7000 2 280 08:39 28.10.2019
5224 Clouds 9 1014 93 7000 2 280 08:19 28.10.2019
5225 Clouds 9 1014 87 8000 2 270 07:56 28.10.2019
5226 Clouds 9 1014 93 7000 3 280 07:38 28.10.2019
5227 Clouds 8 1014 93 7000 3 280 07:19 28.10.2019
5228 Mist 7 1013 93 5000 2 240 06:40 28.10.2019
5229 Mist 7 1013 100 5000 3 270 05:53 28.10.2019
5230 Clear 7 1013 93 8000 3 260 03:56 28.10.2019
5231 Clear 8 1012 87 8000 4 260 03:38 28.10.2019
5232 Clear 7 1012 100 7000 4 250 02:40 28.10.2019
5233 Clear 8 1013 93 8000 4 250 00:57 28.10.2019
5234 Clear 8 1013 93 7000 4 250 00:38 28.10.2019
5235 Clear 8 1013 93 7000 4 250 00:19 28.10.2019
5236 Clear 8 1013 100 6000 3 240 23:42 27.10.2019
5237 Clear 8 1013 100 6000 3 240 23:18 27.10.2019
5238 Clear 8 1013 93 6000 4 250 22:42 27.10.2019
5239 Clear 8 1013 93 6000 4 250 22:22 27.10.2019
5240 Clear 8 1013 93 6000 4 250 21:58 27.10.2019
5241 Clear 8 1013 93 6000 4 250 21:39 27.10.2019
5242 Clear 8 1013 93 6000 4 250 21:21 27.10.2019
5243 Mist 8 1013 93 5000 4 240 20:58 27.10.2019
5244 Mist 9 1013 100 5000 5 240 20:39 27.10.2019
5245 Mist 9 1013 100 5000 5 240 20:21 27.10.2019
5246 Mist 9 1013 100 5000 4 240 19:55 27.10.2019
5247 Mist 9 1013 93 4900 4 240 19:36 27.10.2019
5248 Mist 9 1013 93 4900 4 240 19:18 27.10.2019
5249 Mist 9 1013 93 5000 5 240 18:55 27.10.2019
5250 Mist 10 1013 93 5000 5 230 18:36 27.10.2019
5251 Mist 10 1014 93 5000 4 230 18:18 27.10.2019
5252 Mist 10 1013 93 5000 4 230 17:40 27.10.2019
5253 Mist 10 1013 93 5000 4 230 17:20 27.10.2019
5254 Clear 11 1013 87 6000 3 210 16:58 27.10.2019
5255 Mist 11 1014 93 5000 4 210 16:39 27.10.2019
5256 Mist 11 1014 93 5000 4 210 16:21 27.10.2019
5257 Clear 11 1014 87 7000 4 220 15:56 27.10.2019
5258 Clear 12 1014 81 7000 4 210 15:38 27.10.2019
5259 Clear 12 1014 81 7000 4 210 15:19 27.10.2019
5260 Clear 13 1015 76 9000 4 220 14:42 27.10.2019
5261 Clouds 13 1015 76 9000 4 220 14:21 27.10.2019
5262 Clouds 13 1015 81 9000 4 220 13:58 27.10.2019
5263 Clear 13 1016 76 10000 4 220 13:38 27.10.2019
5264 Clear 13 1016 76 10000 4 220 13:20 27.10.2019
5265 Clear 13 1016 81 10000 3 220 12:55 27.10.2019
5266 Clouds 12 1016 81 10000 4 210 12:37 27.10.2019
5267 Clouds 12 1016 81 10000 4 210 12:19 27.10.2019
5268 Clouds 11 1017 100 7000 4 220 11:41 27.10.2019
5269 Clouds 11 1017 100 7000 4 220 11:21 27.10.2019
5270 Clouds 10 1017 100 8000 3 220 10:44 27.10.2019
5271 Mist 9 1017 100 4800 5 230 10:25 27.10.2019
5272 Mist 9 1018 100 3500 3 230 09:57 27.10.2019
5273 Mist 9 1018 100 1300 3 220 09:39 27.10.2019
5274 Mist 9 1018 100 1300 3 220 09:18 27.10.2019
5275 Mist 9 1018 100 1300 3 220 09:18 27.10.2019
5276 Mist 8 1018 100 1900 4 230 08:56 27.10.2019
5277 Mist 8 1018 100 1300 4 220 08:37 27.10.2019
5278 Mist 8 1018 100 1300 4 220 08:18 27.10.2019
5279 Mist 8 1019 100 1600 4 240 07:43 27.10.2019
5280 Mist 8 1019 100 1600 4 240 07:24 27.10.2019
5281 Mist 8 1019 100 1200 3 240 06:49 27.10.2019
5282 Mist 8 1019 100 1200 3 240 06:26 27.10.2019
5283 Mist 8 1019 100 2300 3 230 05:39 27.10.2019
5284 Fog 8 1019 100 1400 3 230 04:51 27.10.2019
5285 Fog 9 1020 100 800 3 220 02:55 27.10.2019
5286 Mist 10 1021 100 3300 3 230 01:49 27.10.2019
5287 Mist 10 1021 100 3300 3 230 01:20 27.10.2019
5288 Mist 10 1021 100 4900 3 240 00:46 27.10.2019
5289 Mist 10 1021 100 5000 3 230 00:22 27.10.2019
5290 Mist 11 1021 100 5000 3 230 23:55 26.10.2019
5291 Clouds 11 1021 87 6000 4 230 23:36 26.10.2019
5292 Clouds 11 1021 93 6000 4 230 23:18 26.10.2019
5293 Clouds 11 1021 87 6000 3 230 22:40 26.10.2019
5294 Clouds 11 1021 87 6000 3 230 22:20 26.10.2019
5295 Clouds 10 1022 87 6000 3 230 21:59 26.10.2019
5296 Clouds 11 1022 87 6000 3 230 21:41 26.10.2019
5297 Clouds 11 1022 87 6000 2 220 21:21 26.10.2019
5298 Clouds 11 1022 93 6000 2 230 20:45 26.10.2019
5299 Clouds 11 1022 87 6000 2 230 20:45 26.10.2019
5300 Clouds 12 1022 87 7000 3 250 20:20 26.10.2019
5301 Clouds 12 1022 87 7000 3 250 19:59 26.10.2019
5302 Clouds 12 1022 87 6000 2 250 19:40 26.10.2019
5303 Clouds 12 1022 87 6000 2 250 19:20 26.10.2019
5304 Clouds 12 1022 87 6000 1 230 18:56 26.10.2019
5305 Clouds 12 1022 87 7000 2 270 18:37 26.10.2019
5306 Clouds 12 1022 87 7000 2 270 18:18 26.10.2019
5307 Clouds 12 1022 87 6000 2 260 17:56 26.10.2019
5308 Clouds 12 1022 87 7000 2 250 17:36 26.10.2019
5309 Clouds 12 1022 87 7000 2 250 17:18 26.10.2019
5310 Clouds 12 1022 87 8000 3 280 16:42 26.10.2019
5311 Clouds 12 1022 87 8000 3 280 16:22 26.10.2019
5312 Clouds 12 1023 87 7000 3 300 15:43 26.10.2019
5313 Clouds 13 1022 82 7000 2 260 15:20 26.10.2019
5314 Clouds 13 1023 82 7000 3 300 14:54 26.10.2019
5315 Clouds 13 1023 82 8000 3 280 14:36 26.10.2019
5316 Clouds 13 1023 82 6000 2 240 14:18 26.10.2019
5317 Clouds 16 1022 55 0 1.24 293 13:41 26.10.2019
5318 Clouds 16 1022 55 0 1.24 293 13:21 26.10.2019
5319 Mist 12 1023 93 5000 2 250 12:49 26.10.2019
5320 Mist 12 1024 87 5000 2 280 12:25 26.10.2019
5321 Mist 12 1024 87 5000 2 280 11:50 26.10.2019
5322 Mist 12 1024 87 5000 2 280 11:29 26.10.2019
5323 Mist 11 1024 93 4700 2 290 10:57 26.10.2019
5324 Mist 11 1024 93 4200 2 280 10:39 26.10.2019
5325 Mist 11 1024 93 4200 2 280 10:21 26.10.2019
5326 Mist 10 1023 100 3700 1 0 09:44 26.10.2019
5327 Mist 10 1023 100 3700 1 0 09:26 26.10.2019
5328 Mist 10 1023 100 3100 2 240 08:44 26.10.2019
5329 Mist 10 1023 100 3100 2 240 08:25 26.10.2019
5330 Mist 10 1023 100 3000 1 0 07:55 26.10.2019
5331 Mist 9 1023 100 3100 2 210 07:31 26.10.2019
5332 Mist 9 1022 100 4100 2 220 06:46 26.10.2019
5333 Mist 9 1022 100 4400 2 240 06:27 26.10.2019
5334 Drizzle 9 1022 100 4400 1.52 232 05:21 26.10.2019
5335 Drizzle 9 1022 100 5000 1.52 232 04:32 26.10.2019
5336 Drizzle 9 1022 100 2600 1 0 02:57 26.10.2019
5337 Drizzle 9 1023 100 4300 4 290 01:57 26.10.2019
5338 Drizzle 9 1022 100 4800 3 260 01:34 26.10.2019
5339 Drizzle 9 1022 100 4100 3 250 00:26 26.10.2019
5340 Drizzle 9 1022 100 2500 4 270 23:46 25.10.2019
5341 Drizzle 9 1022 100 2700 3 230 23:21 25.10.2019
5342 Drizzle 9 1022 100 2800 3 240 22:41 25.10.2019
5343 Drizzle 9 1022 100 2800 3 240 22:23 25.10.2019
5344 Drizzle 9 1022 100 3400 2 220 21:58 25.10.2019
5345 Drizzle 9 1022 100 3100 2 230 21:40 25.10.2019
5346 Drizzle 9 1022 100 3100 2 230 21:21 25.10.2019
5347 Drizzle 9 1022 100 3000 2 210 20:56 25.10.2019
5348 Drizzle 10 1022 100 2900 2 190 20:38 25.10.2019
5349 Drizzle 9 1022 100 2900 2 190 20:19 25.10.2019
5350 Drizzle 10 1022 100 4200 2 200 19:44 25.10.2019
5351 Drizzle 10 1022 100 4200 2 200 19:25 25.10.2019
5352 Drizzle 10 1022 100 3300 2 170 18:46 25.10.2019
5353 Drizzle 10 1022 100 3300 2 170 18:24 25.10.2019
5354 Drizzle 10 1021 100 2500 1 0 17:42 25.10.2019
5355 Drizzle 10 1021 100 2500 1 0 17:22 25.10.2019
5356 Drizzle 10 1021 100 1400 2 180 16:58 25.10.2019
5357 Drizzle 10 1021 100 1400 2 180 16:58 25.10.2019
5358 Fog 10 1021 100 900 2 150 16:40 25.10.2019
5359 Fog 10 1021 100 900 2 150 16:19 25.10.2019
5360 Fog 10 1021 100 800 2 150 15:41 25.10.2019
5361 Fog 10 1021 100 900 2 190 15:23 25.10.2019
5362 Fog 10 1021 100 700 3 150 14:59 25.10.2019
5363 Fog 11 1021 100 650 1 0 14:40 25.10.2019
5364 Fog 11 1021 100 650 1 0 14:21 25.10.2019
5365 Drizzle 10 1022 100 1600 3 150 13:44 25.10.2019
5366 Drizzle 10 1022 100 1600 3 150 13:44 25.10.2019
5367 Fog 10 1021 100 750 2 170 13:44 25.10.2019
5368 Drizzle 10 1022 100 1600 3 150 13:24 25.10.2019
5369 Drizzle 10 1022 100 500 2 160 12:57 25.10.2019
5370 Drizzle 10 1022 100 650 2 140 12:39 25.10.2019
5371 Drizzle 10 1022 100 500 2 170 12:19 25.10.2019
5372 Drizzle 11 1022 100 450 2 130 11:41 25.10.2019
5373 Drizzle 11 1022 100 450 2 130 11:23 25.10.2019
5374 Drizzle 10 1022 100 450 3 150 10:59 25.10.2019
5375 Drizzle 10 1022 100 700 2 160 10:39 25.10.2019
5376 Drizzle 10 1022 100 700 2 160 10:20 25.10.2019
5377 Drizzle 10 1022 100 450 2 160 09:54 25.10.2019
5378 Drizzle 9 1022 100 400 2 140 09:36 25.10.2019
5379 Drizzle 9 1022 100 400 2 140 09:18 25.10.2019
5380 Drizzle 9 1022 100 300 2 130 08:42 25.10.2019
5381 Drizzle 9 1022 100 300 2 130 08:23 25.10.2019
5382 Drizzle 9 1021 100 350 3 120 07:49 25.10.2019
5383 Drizzle 9 1021 100 350 3 100 07:49 25.10.2019
5384 Drizzle 9 1021 100 350 3 100 07:49 25.10.2019
5385 Drizzle 9 1021 100 350 3 100 07:30 25.10.2019
5386 Fog 9 1021 100 600 2 130 06:38 25.10.2019
5387 Fog 9 1021 100 400 2 150 05:50 25.10.2019
5388 Fog 9 1021 100 450 2 130 05:32 25.10.2019
5389 Fog 9 1021 100 450 1 0 04:37 25.10.2019
5390 Fog 9 1021 100 300 1 0 02:42 25.10.2019
5391 Fog 9 1021 100 300 1 0 01:53 25.10.2019
5392 Fog 10 1021 100 300 2 150 00:39 25.10.2019
5393 Fog 10 1021 100 300 2 140 23:56 24.10.2019
5394 Fog 10 1021 100 300 2 130 23:37 24.10.2019
5395 Fog 10 1021 100 300 2 130 23:19 24.10.2019
5396 Fog 10 1022 100 300 2 140 23:19 24.10.2019
5397 Fog 10 1021 100 300 2 140 22:39 24.10.2019
5398 Fog 10 1022 100 300 2 140 22:39 24.10.2019
5399 Fog 10 1021 100 300 2 140 22:19 24.10.2019
5400 Fog 10 1022 100 300 2 120 21:59 24.10.2019
5401 Fog 10 1022 100 300 2 120 21:59 24.10.2019
5402 Drizzle 10 1021 100 250 2 110 21:40 24.10.2019
5403 Drizzle 10 1021 100 250 2 110 21:20 24.10.2019
5404 Drizzle 10 1021 100 300 2 130 20:59 24.10.2019
5405 Drizzle 10 1021 100 250 2 130 20:40 24.10.2019
5406 Drizzle 10 1021 100 250 2 130 20:40 24.10.2019
5407 Drizzle 10 1021 100 250 2 130 20:22 24.10.2019
5408 Drizzle 10 1021 100 250 2 120 19:58 24.10.2019
5409 Fog 10 1021 100 250 2 120 19:40 24.10.2019
5410 Fog 10 1021 100 250 2 120 19:22 24.10.2019
5411 Fog 10 1021 100 250 2 100 18:57 24.10.2019
5412 Fog 11 1021 100 350 2 110 18:38 24.10.2019
5413 Fog 10 1021 100 350 2 110 18:19 24.10.2019
5414 Fog 11 1021 100 450 3 90 17:42 24.10.2019
5415 Fog 11 1021 100 450 3 90 17:21 24.10.2019
5416 Fog 11 1021 100 400 3 90 16:58 24.10.2019
5417 Fog 11 1021 100 900 3 110 16:40 24.10.2019
5418 Fog 11 1021 100 900 3 110 16:22 24.10.2019
5419 Mist 12 1021 93 1400 3 100 15:58 24.10.2019
5420 Mist 12 1021 93 1400 3 100 15:58 24.10.2019
5421 Mist 12 1021 93 1400 3 100 15:58 24.10.2019
5422 Mist 12 1021 82 3300 3 90 15:40 24.10.2019
5423 Mist 13 1021 82 3300 3 90 15:22 24.10.2019
5424 Mist 13 1021 82 3300 3 90 15:22 24.10.2019
5425 Mist 13 1021 82 4000 3 90 14:58 24.10.2019
5426 Mist 13 1021 82 4000 3 90 14:58 24.10.2019
5427 Mist 13 1021 82 4000 3 90 14:40 24.10.2019
5428 Mist 13 1021 82 4000 3 70 14:20 24.10.2019
5429 Mist 12 1021 93 2300 1 0 13:42 24.10.2019
5430 Mist 12 1021 93 2300 1 0 13:20 24.10.2019
5431 Mist 12 1021 100 2100 1.24 37 12:58 24.10.2019
5432 Mist 12 1021 100 1500 1 0 12:40 24.10.2019
5433 Mist 12 1021 100 1500 1 0 12:19 24.10.2019
5434 Mist 11 1022 100 1000 1 0 11:57 24.10.2019
5435 Fog 11 1022 100 300 0.44 45 11:38 24.10.2019
5436 Fog 11 1022 100 300 0.44 45 11:19 24.10.2019
5437 Fog 10 1022 100 150 1 0 10:58 24.10.2019
5438 Fog 10 1021 100 150 0.44 45 10:38 24.10.2019
5439 Fog 10 1021 100 150 0.44 45 10:38 24.10.2019
5440 Fog 10 1021 100 150 0.44 45 10:20 24.10.2019
5441 Fog 9 1021 100 150 1 0 09:38 24.10.2019
5442 Fog 9 1021 100 150 1 0 09:38 24.10.2019
5443 Fog 10 1021 100 150 1 0 09:18 24.10.2019
5444 Fog 9 1021 100 100 0.78 43 08:54 24.10.2019
5445 Rain 9 1021 100 100 0.78 43 08:36 24.10.2019
5446 Rain 9 1021 100 100 0.78 43 08:36 24.10.2019
5447 Rain 9 1021 100 100 0.78 43 08:18 24.10.2019
5448 Fog 8 1021 100 200 0.78 43 07:42 24.10.2019
5449 Fog 8 1021 100 200 1 240 07:21 24.10.2019
5450 Fog 7 1020 100 200 1 240 06:40 24.10.2019
5451 Fog 7 1020 100 200 1 230 06:20 24.10.2019
5452 Fog 7 1020 100 200 1 230 05:48 24.10.2019
5453 Fog 7 1020 100 200 1 230 05:28 24.10.2019
5454 Fog 9 1021 100 1700 1.35 11 03:37 24.10.2019
5455 Fog 8 1021 100 600 1 0 02:55 24.10.2019
5456 Fog 8 1021 100 1300 1 220 02:25 24.10.2019
5457 Mist 7 1021 100 1600 2 230 01:49 24.10.2019
5458 Fog 8 1021 100 2000 2 240 01:27 24.10.2019
5459 Mist 9 1021 100 2900 1 220 00:41 24.10.2019
5460 Mist 9 1021 100 2900 1 220 00:18 24.10.2019
5461 Fog 9 1021 100 3700 1.33 304 23:42 23.10.2019
5462 Fog 9 1021 100 3700 1.33 304 23:23 23.10.2019
5463 Mist 9 1021 100 2800 1.33 304 22:57 23.10.2019
5464 Mist 10 1021 100 3900 1.33 304 22:38 23.10.2019
5465 Mist 10 1021 100 4000 1.33 304 22:18 23.10.2019
5466 Mist 10 1021 100 4000 1.33 304 21:57 23.10.2019
5467 Mist 10 1021 100 4000 1.33 304 21:57 23.10.2019
5468 Mist 10 1021 100 5000 1 210 21:38 23.10.2019
5469 Mist 10 1021 100 5000 1 210 21:19 23.10.2019
5470 Mist 11 1021 100 4200 1.8 273 20:56 23.10.2019
5471 Mist 11 1021 100 4200 1.8 273 20:56 23.10.2019
5472 Mist 12 1021 93 4900 2 290 20:37 23.10.2019
5473 Mist 12 1021 93 4900 2 290 20:37 23.10.2019
5474 Mist 12 1021 93 4900 2 290 20:19 23.10.2019
5475 Mist 12 1020 93 5000 2 260 19:54 23.10.2019
5476 Mist 12 1021 100 5000 2 230 19:36 23.10.2019
5477 Mist 13 1021 93 4800 2 230 19:18 23.10.2019
5478 Mist 14 1021 93 4900 2 220 18:39 23.10.2019
5479 Mist 14 1021 93 4900 2 220 18:19 23.10.2019
5480 Clouds 14 1021 87 7000 2 230 17:58 23.10.2019
5481 Clouds 14 1021 87 7000 2 230 17:58 23.10.2019
5482 Mist 15 1021 82 5000 2 240 17:40 23.10.2019
5483 Mist 15 1021 82 5000 2 240 17:19 23.10.2019
5484 Clouds 16 1021 77 7000 1 220 16:54 23.10.2019
5485 Clouds 17 1021 72 9000 2 220 16:36 23.10.2019
5486 Clouds 17 1021 72 9000 2 220 16:36 23.10.2019
5487 Clouds 17 1021 72 9000 2 220 16:18 23.10.2019
5488 Clouds 17 1021 72 10000 2 230 15:40 23.10.2019
5489 Clouds 17 1021 72 10000 2 230 15:21 23.10.2019
5490 Clouds 17 1021 72 10000 3 210 14:57 23.10.2019
5491 Clouds 18 1021 72 10000 3 220 14:38 23.10.2019
5492 Clouds 18 1021 72 10000 2 220 14:19 23.10.2019
5493 Clouds 18 1021 72 10000 2 220 13:54 23.10.2019
5494 Clouds 16 1021 72 9000 2 200 13:36 23.10.2019
5495 Clouds 16 1021 72 9000 2 200 13:18 23.10.2019
5496 Clouds 14 1022 82 6000 2 220 12:41 23.10.2019
5497 Clouds 15 1022 82 6000 2 220 12:20 23.10.2019
5498 Clouds 14 1022 100 6000 2 270 11:58 23.10.2019
5499 Mist 13 1022 100 4600 2 300 11:40 23.10.2019
5500 Mist 13 1022 100 4600 2 300 11:21 23.10.2019
5501 Mist 12 1022 100 3800 2 290 10:59 23.10.2019
5502 Mist 10 1022 100 1500 2 250 10:40 23.10.2019
5503 Mist 10 1022 100 1500 2 250 10:22 23.10.2019
5504 Fog 9 1023 100 250 2 240 09:41 23.10.2019
5505 Fog 10 1023 100 250 2 240 09:22 23.10.2019
5506 Fog 9 1023 100 150 2 240 08:56 23.10.2019
5507 Fog 9 1023 100 250 2 250 08:38 23.10.2019
5508 Fog 8 1023 100 200 2 260 08:18 23.10.2019
5509 Fog 8 1023 100 200 2 260 07:45 23.10.2019
5510 Fog 8 1022 100 250 2.36 238 07:21 23.10.2019
5511 Fog 8 1022 100 250 2.36 238 06:45 23.10.2019
5512 Fog 8 1022 100 150 1 210 06:19 23.10.2019
5513 Fog 7 1023 100 150 2.23 218 05:20 23.10.2019
5514 Rain 8 1023 100 200 1 300 03:58 23.10.2019
5515 Fog 9 1023 100 150 2.15 215 02:44 23.10.2019
5516 Fog 9 1023 100 250 2.1 214 01:43 23.10.2019
5517 Fog 9 1023 100 250 2.1 214 01:18 23.10.2019
5518 Fog 9 1024 100 150 2.1 214 00:34 23.10.2019
5519 Fog 10 1024 100 150 1.44 218 23:56 22.10.2019
5520 Fog 10 1024 100 200 1 0 23:37 22.10.2019
5521 Fog 10 1024 100 200 1 0 23:18 22.10.2019
5522 Fog 10 1024 100 250 1.44 218 22:41 22.10.2019
5523 Fog 10 1024 100 250 1.44 218 22:41 22.10.2019
5524 Fog 11 1024 100 250 1.44 218 22:23 22.10.2019
5525 Fog 11 1024 100 200 1.44 218 21:57 22.10.2019
5526 Fog 11 1024 100 200 1.44 218 21:57 22.10.2019
5527 Fog 11 1024 100 150 1.51 217 21:39 22.10.2019
5528 Fog 11 1024 100 150 1.82 170 21:19 22.10.2019
5529 Mist 11 1023 100 3300 3 150 20:59 22.10.2019
5530 Fog 11 1024 100 450 1.82 170 20:41 22.10.2019
5531 Fog 11 1024 100 450 1.82 170 20:41 22.10.2019
5532 Fog 11 1024 100 450 1.82 170 20:23 22.10.2019
5533 Fog 12 1024 100 750 1.82 170 19:59 22.10.2019
5534 Fog 12 1024 100 3500 1 0 19:41 22.10.2019
5535 Fog 12 1024 100 3500 1 0 19:23 22.10.2019
5536 Mist 12 1024 100 4200 2 100 18:56 22.10.2019
5537 Mist 12 1024 100 4700 1 100 18:38 22.10.2019
5538 Mist 12 1024 100 4700 1 100 18:20 22.10.2019
5539 Clouds 12 1024 87 6000 2 100 17:56 22.10.2019
5540 Mist 13 1024 93 4900 3 90 17:37 22.10.2019
5541 Mist 14 1024 93 4900 3 90 17:18 22.10.2019
5542 Clouds 14 1024 87 8000 2 100 16:55 22.10.2019
5543 Clouds 16 1024 77 9000 2 100 16:36 22.10.2019
5544 Clouds 16 1024 77 9000 2 100 16:18 22.10.2019
5545 Clouds 17 1024 68 8000 2 130 15:42 22.10.2019
5546 Clouds 17 1024 68 9000 0.59 273 15:20 22.10.2019
5547 Clouds 17 1024 72 9000 1 0 14:47 22.10.2019
5548 Clouds 16 1024 72 8000 2 260 14:22 22.10.2019
5549 Clouds 16 1024 77 9000 2 280 13:59 22.10.2019
5550 Clouds 16 1024 77 9000 2 280 13:41 22.10.2019
5551 Clouds 15 1025 82 8000 2 290 13:18 22.10.2019
5552 -273 0 0 0 0 0 12:55 22.10.2019
5553 Mist 13 1025 100 5000 2 240 12:37 22.10.2019
5554 Mist 14 1025 100 5000 2 240 12:19 22.10.2019
5555 Mist 13 1025 100 4100 1 0 11:40 22.10.2019
5556 Mist 11 1025 100 2400 1.04 200 11:22 22.10.2019
5557 Fog 11 1025 100 1000 1 280 10:58 22.10.2019
5558 Fog 10 1025 100 300 1 0 10:38 22.10.2019
5559 Fog 10 1025 100 300 1 0 10:19 22.10.2019
5560 Fog 10 1025 100 250 1 0 09:57 22.10.2019
5561 Fog 9 1025 100 200 2 270 09:38 22.10.2019
5562 Fog 10 1025 100 200 2 270 09:20 22.10.2019
5563 Fog 9 1024 100 200 1 260 08:43 22.10.2019
5564 Fog 9 1024 100 200 1 260 08:22 22.10.2019
5565 Fog 9 1024 100 200 2 260 07:50 22.10.2019
5566 Fog 9 1024 100 200 2 270 07:30 22.10.2019
5567 Fog 9 1024 100 250 3 280 06:52 22.10.2019
5568 Fog 9 1023 100 400 3 260 06:32 22.10.2019
5569 Fog 9 1024 100 300 3 270 05:59 22.10.2019
5570 Fog 9 1024 100 350 2 250 05:24 22.10.2019
5571 Fog 9 1023 100 400 2 240 03:19 22.10.2019
5572 Rain 9 1023 100 200 2 240 02:28 22.10.2019
5573 Fog 9 1023 100 150 2 260 01:31 22.10.2019
5574 Fog 7 1023 100 250 2 250 00:58 22.10.2019
5575 Fog 9 1023 100 250 2 250 00:40 22.10.2019
5576 Fog 9 1023 100 150 1 0 00:21 22.10.2019
5577 Mist 10 1023 100 1100 2 240 23:56 21.10.2019
5578 Mist 10 1023 100 2700 2 240 23:37 21.10.2019
5579 Mist 10 1023 100 2700 2 240 23:18 21.10.2019
5580 Mist 10 1023 100 2900 3 250 22:56 21.10.2019
5581 Mist 10 1023 100 2900 3 250 22:56 21.10.2019
5582 Mist 11 1023 100 2400 2 220 22:37 21.10.2019
5583 Mist 12 1023 100 2400 2 220 22:19 21.10.2019
5584 Mist 10 1023 100 2800 2 220 21:54 21.10.2019
5585 Mist 10 1023 100 2800 2 220 21:54 21.10.2019
5586 Mist 10 1023 100 2800 2 220 21:54 21.10.2019
5587 Fog 8 1023 100 650 1 0 21:36 21.10.2019
5588 Fog 8 1023 100 650 1 0 21:36 21.10.2019
5589 Fog 10 1023 100 900 1 0 21:18 21.10.2019
5590 Fog 10 1023 100 1000 1 230 20:41 21.10.2019
5591 Fog 10 1023 100 1000 1 230 20:21 21.10.2019
5592 Fog 9 1022 100 300 2.46 208 19:59 21.10.2019
5593 Fog 9 1023 100 200 2 250 19:41 21.10.2019
5594 Fog 9 1023 100 200 2 250 19:22 21.10.2019
5595 Fog 11 1022 100 700 1 250 18:56 21.10.2019
5596 Fog 11 1022 100 750 1 240 18:37 21.10.2019
5597 Fog 10 1022 100 750 1 240 18:19 21.10.2019
5598 Mist 12 1022 100 3700 2 250 17:56 21.10.2019
5599 Mist 12 1022 100 3800 2 250 17:38 21.10.2019
5600 Mist 12 1022 100 3800 2 250 17:18 21.10.2019
5601 Mist 13 1022 93 4900 1 250 16:56 21.10.2019
5602 Mist 14 1022 93 4800 2 250 16:38 21.10.2019
5603 Mist 14 1022 93 4800 2 250 16:38 21.10.2019
5604 Mist 14 1022 93 4800 2 250 16:19 21.10.2019
5605 Mist 15 1022 87 5000 2 230 15:45 21.10.2019
5606 Mist 15 1022 87 4900 3 200 15:25 21.10.2019
5607 Mist 15 1023 87 5000 3 220 14:58 21.10.2019
5608 Clouds 14 1023 87 6000 3 210 14:38 21.10.2019
5609 Clouds 14 1023 87 6000 3 210 14:19 21.10.2019
5610 Clouds 14 1023 87 7000 3 220 13:56 21.10.2019
5611 Clouds 13 1023 93 6000 2 190 13:37 21.10.2019
5612 Clouds 13 1023 93 6000 2 190 13:18 21.10.2019
5613 Clouds 13 1023 93 6000 3 210 12:41 21.10.2019
5614 Mist 12 1023 100 4800 2 190 12:22 21.10.2019
5615 Mist 11 1023 100 3800 2 190 11:55 21.10.2019
5616 Mist 11 1023 100 2200 2 210 11:37 21.10.2019
5617 Mist 11 1023 100 2200 2 210 11:19 21.10.2019
5618 Mist 10 1023 100 1300 2 180 10:56 21.10.2019
5619 Mist 10 1023 100 1300 2 180 10:56 21.10.2019
5620 Fog 10 1023 100 750 2 210 10:37 21.10.2019
5621 Fog 10 1023 100 750 2 210 10:18 21.10.2019
5622 Fog 10 1023 100 300 2 180 09:44 21.10.2019
5623 Fog 10 1023 100 200 2 220 09:25 21.10.2019
5624 Fog 9 1023 100 200 2 230 08:43 21.10.2019
5625 Fog 9 1023 100 250 2 200 08:24 21.10.2019
5626 Fog 9 1023 100 200 2 210 07:59 21.10.2019
5627 Fog 9 1023 100 250 2 220 07:37 21.10.2019
5628 Fog 9 1023 100 250 2 220 07:37 21.10.2019
5629 Fog 9 1023 100 250 2 220 07:19 21.10.2019
5630 Fog 9 1022 100 250 1 0 06:53 21.10.2019
5631 Fog 9 1022 100 300 2 240 06:33 21.10.2019
5632 Fog 8 1022 100 300 2 220 05:50 21.10.2019
5633 Fog 8 1022 100 300 2 220 05:50 21.10.2019
5634 Fog 8 1022 100 300 2 230 04:43 21.10.2019
5635 Mist 9 1022 100 4300 1 200 02:42 21.10.2019
5636 Mist 9 1022 100 4900 1 0 02:23 21.10.2019
5637 Mist 9 1022 100 5000 1 210 01:53 21.10.2019
5638 Mist 9 1022 100 5000 1 0 01:23 21.10.2019
5639 Mist 9 1022 100 7000 1 0 00:43 21.10.2019
5640 Mist 10 1022 100 4900 1 0 00:24 21.10.2019
5641 Mist 9 1022 100 6000 1 0 23:41 20.10.2019
5642 Mist 8 1022 100 6000 1 0 23:22 20.10.2019
5643 Mist 10 1022 100 5000 1 180 22:56 20.10.2019
5644 Clouds 11 1022 87 7000 3.34 191.398 22:37 20.10.2019
5645 Clouds 11 1022 87 7000 3.34 191.398 22:18 20.10.2019
5646 Clouds 11 1022 87 8000 2 210 21:56 20.10.2019
5647 Clouds 12 1022 81 9000 3 200 21:38 20.10.2019
5648 Clouds 12 1022 81 9000 3 200 21:19 20.10.2019
5649 Clear 13 1022 76 9000 2 210 20:39 20.10.2019
5650 Clear 13 1022 76 9000 2 210 20:18 20.10.2019
5651 Clear 13 1022 76 9000 3 190 19:56 20.10.2019
5652 Clear 13 1022 76 9000 4 190 19:37 20.10.2019
5653 Clear 13 1022 76 9000 4 190 19:19 20.10.2019
5654 Clear 14 1022 76 6000 2 180 18:42 20.10.2019
5655 Clear 14 1022 76 7000 2 170 18:24 20.10.2019
5656 Clear 13 1022 72 9000 2 170 17:59 20.10.2019
5657 Clear 13 1022 72 9000 2 170 17:59 20.10.2019
5658 Clear 15 1022 72 10000 2 170 17:41 20.10.2019
5659 Clear 15 1022 72 10000 2 170 17:22 20.10.2019
5660 Clear 16 1021 67 10000 2 170 16:56 20.10.2019
5661 Clear 17 1021 67 10000 3 160 16:38 20.10.2019
5662 Clear 17 1021 67 10000 3 160 16:19 20.10.2019
5663 Clear 17 1022 67 10000 3 170 15:55 20.10.2019
5664 Clear 17 1021 63 10000 4 170 15:36 20.10.2019
5665 Clear 18 1021 63 10000 4 170 15:18 20.10.2019
5666 Clear 17 1022 67 10000 3 170 14:41 20.10.2019
5667 Clear 17 1022 67 10000 3 170 14:23 20.10.2019
5668 Clear 17 1022 67 10000 3 160 13:56 20.10.2019
5669 Clear 17 1022 72 10000 3 180 13:37 20.10.2019
5670 Clear 17 1022 72 10000 3 180 13:19 20.10.2019
5671 Clear 16 1022 72 10000 3 180 12:58 20.10.2019
5672 Clear 16 1022 72 10000 3 190 12:39 20.10.2019
5673 Clear 16 1022 72 10000 3 190 12:39 20.10.2019
5674 Clear 16 1022 72 10000 3 190 12:21 20.10.2019
5675 Clear 15 1022 77 10000 4 180 11:59 20.10.2019
5676 Clear 16 1022 77 10000 4 180 11:40 20.10.2019
5677 Clear 16 1022 77 10000 4 200 11:22 20.10.2019
5678 Clear 15 1022 76 10000 3 180 10:58 20.10.2019
5679 Clear 14 1022 82 9000 3 180 10:39 20.10.2019
5680 Clear 14 1022 82 9000 3 180 10:39 20.10.2019
5681 Clear 14 1022 82 9000 3 180 10:20 20.10.2019
5682 Clear 13 1022 82 9000 3 180 09:55 20.10.2019
5683 Mist 12 1022 87 8000 4 200 09:37 20.10.2019
5684 Mist 12 1022 87 8000 4 200 09:18 20.10.2019
5685 Mist 10 1022 93 5000 3 200 08:39 20.10.2019
5686 Mist 10 1022 93 5000 3 200 08:20 20.10.2019
5687 Mist 9 1022 100 4400 2 210 07:47 20.10.2019
5688 Mist 8 1022 100 3700 3 210 07:26 20.10.2019
5689 Mist 9 1021 100 4700 2 210 06:30 20.10.2019
5690 Mist 9 1021 93 6000 3 230 04:29 20.10.2019
5691 Clouds 10 1021 93 6000 3 220 03:50 20.10.2019
5692 Clouds 10 1021 87 7000 3 210 03:22 20.10.2019
5693 Clouds 10 1021 87 7000 3 220 02:48 20.10.2019
5694 Clouds 10 1021 87 7000 2 190 02:22 20.10.2019
5695 Clouds 11 1021 81 8000 2 190 01:47 20.10.2019
5696 Clear 12 1021 81 9000 1 0 01:20 20.10.2019
5697 Clear 12 1021 76 9000 2 190 00:47 20.10.2019
5698 Clear 13 1020 76 9000 1 0 00:20 20.10.2019
5699 Clear 12 1020 76 9000 1 0 23:44 19.10.2019
5700 Clear 13 1020 76 10000 1 0 23:24 19.10.2019
5701 Clear 14 1020 66 9000 1 0 22:59 19.10.2019
5702 Clear 14 1020 66 9000 1 0 22:40 19.10.2019
5703 Clear 14 1020 62 9000 1 0 22:20 19.10.2019
5704 Clear 14 1020 58 10000 1 0 21:54 19.10.2019
5705 Clear 15 1020 51 10000 2 190 21:36 19.10.2019
5706 Clear 15 1020 51 10000 2 190 21:18 19.10.2019
5707 Clear 15 1020 51 10000 2 180 20:41 19.10.2019
5708 Clear 14 1020 71 10000 2 160 20:20 19.10.2019
5709 Smoke 13 1020 81 10000 1 140 19:42 19.10.2019
5710 Smoke 15 1019 71 10000 1 110 19:24 19.10.2019
5711 Clear 15 1019 58 10000 2 120 18:55 19.10.2019
5712 Smoke 16 1019 66 9000 1 0 18:37 19.10.2019
5713 Smoke 16 1019 66 9000 1 0 18:18 19.10.2019
5714 Smoke 19 1019 51 8000 2 110 17:41 19.10.2019
5715 Smoke 19 1019 51 8000 2 110 17:21 19.10.2019
5716 Smoke 20 1019 42 8000 1 140 16:56 19.10.2019
5717 Clear 21 1019 40 10000 2 150 16:37 19.10.2019
5718 Clear 21 1019 40 10000 2 150 16:18 19.10.2019
5719 Clear 21 1019 40 10000 2 150 16:18 19.10.2019
5720 Clear 23 1019 35 10000 2 150 15:41 19.10.2019
5721 Clear 23 1019 35 10000 2 150 15:23 19.10.2019
5722 Clear 23 1019 35 10000 3 170 14:39 19.10.2019
5723 Clear 23 1019 35 10000 3 170 14:20 19.10.2019
5724 Clear 23 1019 35 10000 2 170 13:58 19.10.2019
5725 Clear 23 1019 35 10000 2 170 13:40 19.10.2019
5726 Clear 23 1019 38 10000 3 190 13:19 19.10.2019
5727 Clear 22 1019 40 10000 3 160 12:57 19.10.2019
5728 Clear 22 1019 40 10000 3 180 12:37 19.10.2019
5729 Clear 22 1019 40 10000 3 180 12:18 19.10.2019
5730 Clear 21 1020 49 10000 2 190 11:41 19.10.2019
5731 Clear 20 1020 49 10000 2 190 11:23 19.10.2019
5732 Clear 19 1020 52 10000 2 180 10:56 19.10.2019
5733 Clear 18 1020 55 10000 2 190 10:38 19.10.2019
5734 Clear 18 1020 55 10000 2 190 10:20 19.10.2019
5735 Clouds 16 1020 72 8000 1 0 09:42 19.10.2019
5736 Clear 15 1020 72 8000 1 0 09:24 19.10.2019
5737 Clear 14 1020 82 6000 2.28 170.951 08:59 19.10.2019
5738 Mist 12 1020 93 4900 1 80 08:40 19.10.2019
5739 Mist 12 1020 93 4900 1 80 08:21 19.10.2019
5740 Mist 8 1019 100 4300 2 80 07:44 19.10.2019
5741 Mist 8 1019 100 4300 2 80 07:24 19.10.2019
5742 Mist 8 1019 100 4900 1 50 07:24 19.10.2019
5743 Mist 9 1019 93 7000 1 0 06:47 19.10.2019
5744 Fog 8 1019 100 4500 1 0 05:58 19.10.2019
5745 Fog 8 1019 100 7000 2 190 05:32 19.10.2019
5746 Clear 7 1019 100 8000 2 168.274 03:59 19.10.2019
5747 Clear 7 1019 93 9000 1 0 02:44 19.10.2019
5748 Clear 9 1019 93 9000 2.04 171.771 01:53 19.10.2019
5749 Clear 9 1019 93 9000 2 169.646 01:20 19.10.2019
5750 Clear 9 1019 93 9000 2 169.646 01:20 19.10.2019
5751 Clear 7 1019 100 10000 2 169.646 00:48 19.10.2019
5752 Clear 8 1019 93 10000 1 90 00:26 19.10.2019
5753 Clear 9 1019 93 10000 1 90 23:43 18.10.2019
5754 Clear 9 1019 93 10000 2.26 152.597 23:25 18.10.2019
5755 Clear 9 1019 87 10000 1 90 22:56 18.10.2019
5756 Clear 9 1019 87 10000 1 90 22:38 18.10.2019
5757 Clear 9 1019 87 10000 1 90 22:20 18.10.2019
5758 Clear 10 1019 93 10000 1 80 21:57 18.10.2019
5759 Clear 10 1019 93 10000 1 110 21:38 18.10.2019
5760 Clear 10 1019 93 10000 1 110 21:20 18.10.2019
5761 Clear 10 1019 87 9000 1.92 118.153 20:56 18.10.2019
5762 Clear 10 1019 87 9000 1.92 118.153 20:38 18.10.2019
5763 Clear 10 1019 87 9000 1.92 118.153 20:20 18.10.2019
5764 Clear 11 1019 87 8000 1 100 19:55 18.10.2019
5765 Clear 11 1019 81 8000 1 100 19:37 18.10.2019
5766 Clear 11 1019 81 8000 1 100 19:19 18.10.2019
5767 Clear 12 1019 81 9000 1.92 118.153 18:42 18.10.2019
5768 Clear 13 1019 76 10000 1.92 118.153 18:24 18.10.2019
5769 Clear 13 1019 76 10000 1.4 84.606 18:24 18.10.2019
5770 Clear 16 1018 71 9000 1 0 17:59 18.10.2019
5771 Clear 17 1018 59 10000 2 120 17:38 18.10.2019
5772 Clear 17 1018 59 10000 2 120 17:20 18.10.2019
5773 Clear 17 1018 59 10000 2 120 17:20 18.10.2019
5774 Clear 20 1018 45 10000 1.4 84.606 16:44 18.10.2019
5775 Clear 20 1018 45 10000 1.4 84.606 16:44 18.10.2019
5776 Clear 20 1018 45 10000 1.4 84.606 16:44 18.10.2019
5777 -273 0 0 0 0 0 16:43 18.10.2019
5778 Clear 20 1018 45 10000 1.4 84.606 16:43 18.10.2019
5779 Clear 20 1018 45 10000 1.4 84.606 16:21 18.10.2019
5780 Clear 21 1018 49 10000 1.4 84.606 15:58 18.10.2019
5781 Clear 20 1019 49 10000 1.4 84.606 15:38 18.10.2019
5782 Clear 20 1019 49 10000 0.43 100.186 15:20 18.10.2019
5783 Clear 21 1019 46 10000 2 320 14:57 18.10.2019
5784 Clear 21 1019 43 10000 1 0 14:38 18.10.2019
5785 Clear 21 1019 43 10000 1 0 14:19 18.10.2019
5786 Clear 21 1019 45 10000 1 0 13:57 18.10.2019
5787 Clear 20 1019 45 10000 1 0 13:38 18.10.2019
5788 Clear 20 1019 45 10000 1 0 13:19 18.10.2019
5789 Clear 20 1020 49 10000 2 350 12:55 18.10.2019
5790 Clear 20 1020 45 10000 1 0 12:37 18.10.2019
5791 Clear 20 1020 45 10000 1 0 12:19 18.10.2019
5792 Clear 19 1020 48 10000 1 0 11:42 18.10.2019
5793 Clear 19 1020 48 10000 2 60 11:21 18.10.2019
5794 Clear 19 1020 48 10000 1 0 10:59 18.10.2019
5795 Clear 18 1020 48 10000 1 0 10:59 18.10.2019
5796 Clear 17 1020 55 10000 2 90 10:41 18.10.2019
5797 Clear 17 1020 55 10000 2 90 10:22 18.10.2019
5798 Clear 16 1020 59 10000 2 90 09:57 18.10.2019
5799 Clear 15 1020 62 10000 2 80 09:39 18.10.2019
5800 Clear 15 1020 62 10000 2 80 09:39 18.10.2019
5801 Clear 14 1020 62 10000 2 80 09:19 18.10.2019
5802 Clouds 12 1020 87 8000 1 0 08:45 18.10.2019
5803 Mist 9 1020 100 4500 0.98 53.305 08:25 18.10.2019
5804 Mist 8 1020 100 2100 0.98 53.305 07:57 18.10.2019
5805 Fog 6 1020 100 900 1 290 07:38 18.10.2019
5806 Fog 6 1020 100 700 1 270 06:56 18.10.2019
5807 Fog 5 1019 100 1200 0.98 53.305 06:37 18.10.2019
5808 Fog 6 1020 100 800 1.1 52.954 06:19 18.10.2019
5809 Fog 6 1020 100 800 1.1 52.954 05:53 18.10.2019
5810 Fog 5 1020 100 350 1.1 52.954 05:20 18.10.2019
5811 Fog 6 1020 100 4100 1.1 52.954 03:41 18.10.2019
5812 Fog 7 1020 100 2200 1.47 15.303 02:56 18.10.2019
5813 Fog 7 1020 100 2200 1.47 15.303 02:56 18.10.2019
5814 Fog 7 1020 100 1100 1.47 15.303 02:32 18.10.2019
5815 Mist 7 1020 100 2400 1.47 15.303 01:40 18.10.2019
5816 Mist 8 1020 100 4400 1 250 01:21 18.10.2019
5817 Mist 8 1020 100 3600 1 250 00:43 18.10.2019
5818 Mist 9 1020 100 4900 2.06 339.106 00:20 18.10.2019
5819 Mist 8 1019 100 3800 2.06 339.106 23:40 17.10.2019
5820 Mist 10 1019 100 4100 2.06 339.106 23:21 17.10.2019
5821 Mist 10 1019 100 4900 2.06 339.106 22:57 17.10.2019
5822 Mist 10 1019 100 4300 2.06 339.106 22:39 17.10.2019
5823 Mist 10 1019 100 4300 2.06 339.106 22:19 17.10.2019
5824 Mist 10 1019 93 4700 2.06 339.106 21:57 17.10.2019
5825 Mist 10 1019 93 4700 2.06 339.106 21:57 17.10.2019
5826 Mist 11 1019 87 5000 2.06 339.106 21:39 17.10.2019
5827 Mist 11 1019 87 5000 1.42 279.542 21:20 17.10.2019
5828 Mist 11 1019 93 4500 1 280 20:58 17.10.2019
5829 Mist 12 1019 93 4500 1.58 277.463 20:39 17.10.2019
5830 Mist 12 1019 93 4500 1.58 277.463 20:19 17.10.2019
5831 Mist 12 1019 93 4500 1.58 277.463 20:19 17.10.2019
5832 Mist 12 1019 93 4700 1 250 19:58 17.10.2019
5833 Smoke 12 1019 81 4900 1.58 277.463 19:39 17.10.2019
5834 Smoke 13 1019 76 4800 1 240 19:19 17.10.2019
5835 Smoke 13 1019 81 4900 1.58 277.463 19:19 17.10.2019
5836 Smoke 14 1019 76 4800 1 240 18:43 17.10.2019
5837 Mist 15 1019 76 6000 1.59 271.771 18:21 17.10.2019
5838 Clouds 15 1019 71 6000 1 250 18:00 17.10.2019
5839 Clouds 18 1019 63 8000 1 250 17:41 17.10.2019
5840 Clouds 18 1019 63 8000 1 250 17:23 17.10.2019
5841 Clouds 20 1018 55 10000 2 270 16:56 17.10.2019
5842 Clouds 21 1018 52 10000 2 280 16:37 17.10.2019
5843 Clouds 21 1018 52 10000 2 280 16:18 17.10.2019
5844 Clouds 21 1018 49 10000 3 300 15:55 17.10.2019
5845 Clouds 21 1018 49 10000 3 300 15:55 17.10.2019
5846 Clouds 22 1018 49 10000 2 280 15:37 17.10.2019
5847 Clouds 22 1018 49 10000 2 280 15:19 17.10.2019
5848 Clouds 22 1018 49 10000 2 250 14:42 17.10.2019
5849 Clouds 22 1019 49 10000 3 280 14:23 17.10.2019
5850 -273 0 0 0 0 0 13:56 17.10.2019
5851 Clouds 22 1019 46 10000 3 260 13:38 17.10.2019
5852 Clouds 22 1019 46 10000 3 260 13:18 17.10.2019
5853 Clouds 21 1019 55 10000 3 240 12:41 17.10.2019
5854 Clear 20 1019 55 10000 3 240 12:20 17.10.2019
5855 Clear 19 1019 55 10000 3 230 11:58 17.10.2019
5856 Clear 19 1020 59 10000 3 240 11:40 17.10.2019
5857 Clear 18 1020 59 10000 3 240 11:19 17.10.2019
5858 Clear 17 1020 63 10000 4 270 10:55 17.10.2019
5859 Clear 17 1020 59 10000 5 250 10:36 17.10.2019
5860 Clear 17 1020 59 10000 5 250 10:18 17.10.2019
5861 Clear 14 1019 62 10000 3 230 09:42 17.10.2019
5862 Clouds 14 1019 62 10000 3 230 09:22 17.10.2019
5863 -273 0 0 0 0 0 08:58 17.10.2019
5864 Clouds 14 1019 62 10000 3 220 08:58 17.10.2019
5865 Clouds 12 1019 62 10000 3 240 08:39 17.10.2019
5866 Clouds 12 1019 62 10000 3 240 08:21 17.10.2019
5867 Clouds 10 1019 71 10000 3 240 07:55 17.10.2019
5868 Clouds 11 1019 71 10000 3 240 07:54 17.10.2019
5869 Clouds 10 1019 71 10000 3 210 07:36 17.10.2019
5870 Clouds 10 1019 71 10000 3 210 07:18 17.10.2019
5871 Clouds 9 1019 81 10000 3 210 06:39 17.10.2019
5872 Clouds 9 1019 81 10000 3 210 06:20 17.10.2019
5873 Clouds 9 1019 75 10000 2 220 05:51 17.10.2019
5874 Clouds 9 1019 75 10000 2 220 05:31 17.10.2019
5875 Clouds 9 1019 75 10000 3 220 04:52 17.10.2019
5876 Clouds 10 1019 66 10000 1 0 03:55 17.10.2019
5877 Clouds 11 1019 62 10000 1 0 02:36 17.10.2019
5878 Clouds 13 1019 54 10000 2 180 00:57 17.10.2019
5879 Clouds 12 1019 50 10000 2 200 00:38 17.10.2019
5880 Clouds 13 1019 50 10000 2 200 00:18 17.10.2019
5881 Clouds 13 1019 47 10000 3 190 23:42 16.10.2019
5882 Clouds 13 1019 54 10000 2 180 23:21 16.10.2019
5883 Clouds 13 1019 54 10000 2 180 23:21 16.10.2019
5884 Clouds 14 1019 51 10000 2 180 22:55 16.10.2019
5885 Clouds 14 1019 47 10000 3 170 22:36 16.10.2019
5886 Clouds 13 1019 47 10000 3 170 22:18 16.10.2019
5887 -273 0 0 0 0 0 21:56 16.10.2019
5888 Clouds 14 1019 44 10000 2 150 21:37 16.10.2019
5889 Clouds 14 1019 44 10000 2 150 21:18 16.10.2019
5890 Clouds 15 1019 42 10000 2 160 20:56 16.10.2019
5891 Clouds 15 1019 42 10000 2 150 20:38 16.10.2019
5892 Clouds 16 1019 42 10000 2 150 20:20 16.10.2019
5893 Clouds 16 1019 39 10000 3 160 19:56 16.10.2019
5894 Clouds 16 1019 39 10000 3 150 19:38 16.10.2019
5895 Clouds 16 1019 39 10000 3 150 19:38 16.10.2019
5896 Clouds 16 1019 39 10000 3 150 19:19 16.10.2019
5897 Clouds 17 1019 36 10000 2 140 18:39 16.10.2019
5898 Clouds 17 1019 36 10000 2 140 18:39 16.10.2019
5899 Clouds 17 1019 36 10000 2 140 18:39 16.10.2019
5900 Clear 17 1019 36 10000 2 140 18:19 16.10.2019
5901 Clear 18 1019 36 10000 2 140 17:56 16.10.2019
5902 Clear 19 1019 32 10000 2 150 17:38 16.10.2019
5903 Clear 19 1019 32 10000 2 150 17:20 16.10.2019
5904 Clear 21 1019 30 10000 2 150 16:58 16.10.2019
5905 Clear 21 1019 30 10000 2 150 16:40 16.10.2019
5906 Clear 22 1019 30 10000 3 160 16:20 16.10.2019
5907 Clear 22 1019 33 10000 2 150 15:56 16.10.2019
5908 -273 0 0 0 0 0 15:55 16.10.2019
5909 Clear 23 1019 26 10000 5 150 15:36 16.10.2019
5910 Clear 23 1019 26 10000 5 150 15:18 16.10.2019
5911 Clear 23 1019 26 10000 5 150 14:55 16.10.2019
5912 Clear 23 1019 26 10000 5 150 14:36 16.10.2019
5913 Clear 22 1019 28 10000 3 190 14:18 16.10.2019
5914 -273 0 0 0 0 0 13:42 16.10.2019
5915 Clear 21 1020 35 10000 3 180 13:23 16.10.2019
5916 Clear 21 1020 37 10000 2 160 12:57 16.10.2019
5917 Clear 20 1019 34 10000 5 180 12:39 16.10.2019
5918 Clear 21 1020 40 10000 3 190 12:18 16.10.2019
5919 Clear 19 1020 52 10000 3 180 11:42 16.10.2019
5920 Clear 19 1020 52 10000 3 180 11:42 16.10.2019
5921 Clear 18 1021 63 10000 3 190 11:18 16.10.2019
5922 Clear 18 1021 63 10000 3 190 11:18 16.10.2019
5923 Clear 16 1021 55 10000 4 180 10:38 16.10.2019
5924 Clear 15 1021 72 10000 2 180 10:20 16.10.2019
5925 -273 0 0 0 0 0 09:55 16.10.2019
5926 Clear 12 1021 87 10000 3 180 09:37 16.10.2019
5927 Clouds 12 1021 87 10000 3 180 09:19 16.10.2019
5928 Clouds 11 1021 87 10000 2 180 08:42 16.10.2019
5929 Clouds 11 1021 100 9000 1 0 08:24 16.10.2019
5930 Mist 10 1021 100 3300 1 0 07:45 16.10.2019
5931 Mist 10 1021 100 3300 1 0 07:45 16.10.2019
5932 Fog 10 1021 100 200 1 0 07:25 16.10.2019
5933 Fog 10 1021 100 200 1 0 07:24 16.10.2019
5934 Fog 10 1020 100 300 1 0 06:57 16.10.2019
5935 Fog 9 1020 100 300 1 0 06:35 16.10.2019
5936 Fog 8 1021 100 1000 2 140 05:39 16.10.2019
5937 Clouds 10 1021 100 9000 1 0 02:57 16.10.2019
5938 Clouds 10 1021 100 9000 1 0 02:37 16.10.2019
5939 Clouds 12 1021 87 10000 2 90 01:18 16.10.2019
5940 Clouds 12 1021 100 10000 2.035 157 00:46 16.10.2019
5941 Clouds 11 1020 100 10000 2.035 157 00:25 16.10.2019
5942 Clouds 12 1020 67 8000 3 140 23:39 15.10.2019
5943 Clouds 12 1020 81 10000 1 0 23:21 15.10.2019
5944 Clouds 12 1020 81 10000 2.504 142 22:55 15.10.2019
5945 Clouds 12 1020 81 10000 2.504 142 22:37 15.10.2019
5946 Clouds 12 1020 81 10000 1 0 22:19 15.10.2019
5947 Clouds 15 1020 63 9000 1 130 21:55 15.10.2019
5948 Clouds 15 1020 63 9000 1 130 21:37 15.10.2019
5949 Clouds 15 1020 63 10000 2 130 21:19 15.10.2019
5950 Clouds 15 1020 63 10000 2 130 21:19 15.10.2019
5951 Clouds 13 1020 71 10000 2 130 20:56 15.10.2019
5952 Clouds 13 1020 71 10000 2 130 20:37 15.10.2019
5953 Clouds 13 1020 76 9000 2.005 109 20:19 15.10.2019
5954 Clouds 13 1020 87 10000 2.005 109 19:56 15.10.2019
5955 Clouds 13 1020 87 10000 2.005 109 19:37 15.10.2019
5956 Clouds 15 1020 82 10000 1 0 19:19 15.10.2019
5957 Clouds 15 1020 76 10000 2 90 18:44 15.10.2019
5958 Clouds 16 1020 72 10000 1.298 113 18:26 15.10.2019
5959 Clouds 18 1020 67 10000 1 120 17:57 15.10.2019
5960 Clouds 18 1020 67 10000 1 120 17:38 15.10.2019
5961 Clouds 20 1019 63 10000 1 100 17:19 15.10.2019
5962 Clouds 21 1019 52 10000 2 100 16:46 15.10.2019
5963 Clouds 22 1019 56 10000 2 90 16:22 15.10.2019
5964 Clouds 23 1020 46 10000 2 110 15:58 15.10.2019
5965 Clouds 23 1020 46 10000 2 110 15:40 15.10.2019
5966 Clear 24 1020 41 10000 1.059 172 15:20 15.10.2019
5967 Clear 24 1020 41 10000 1 0 14:57 15.10.2019
5968 Clear 23 1020 43 9000 2 70 14:37 15.10.2019
5969 Clear 23 1020 43 9000 2 70 14:19 15.10.2019
5970 Clear 24 1020 43 10000 2 120 13:44 15.10.2019
5971 Smoke 23 1020 43 10000 2 190 13:21 15.10.2019
5972 Smoke 22 1020 46 9000 2 190 12:59 15.10.2019
5973 Smoke 22 1020 46 9000 2 190 12:59 15.10.2019
5974 Clear 23 1021 49 9000 2 120 12:38 15.10.2019
5975 Clear 22 1021 49 9000 2 120 12:20 15.10.2019
5976 Clear 21 1021 52 9000 1 0 11:44 15.10.2019
5977 Clear 20 1021 49 10000 1 0 11:21 15.10.2019
5978 Clear 19 1021 55 10000 2 120 10:57 15.10.2019
5979 Clear 18 1021 59 10000 1 0 10:39 15.10.2019
5980 Clear 18 1021 59 10000 1 0 10:19 15.10.2019
5981 Clear 17 1021 63 10000 1 0 09:56 15.10.2019
5982 -273 0 0 0 0 0 09:37 15.10.2019
5983 Clear 15 1021 67 10000 2 270 09:19 15.10.2019
5984 Clear 12 1020 81 10000 1 260 08:41 15.10.2019
5985 Clear 13 1020 81 10000 1 260 08:21 15.10.2019
5986 -273 0 0 0 0 0 07:55 15.10.2019
5987 Clear 10 1020 100 8000 1 0 07:36 15.10.2019
5988 Clear 10 1020 100 8000 1 0 07:36 15.10.2019
5989 Mist 8 1020 100 8000 2 250 07:18 15.10.2019
5990 Mist 7 1020 100 9000 2 260 06:43 15.10.2019
5991 Clear 8 1020 100 10000 2 240 06:20 15.10.2019
5992 Clear 9 1019 93 6000 2 220 05:37 15.10.2019
5993 Clear 9 1020 100 9000 2 250 04:54 15.10.2019
5994 Clear 8 1020 100 8000 2 250 04:20 15.10.2019
5995 Mist 8 1019 100 5000 2 240 03:35 15.10.2019
5996 Mist 8 1019 100 5000 2 240 03:35 15.10.2019
5997 Smoke 8 1019 100 8000 2 220 02:19 15.10.2019
5998 Clear 8 1019 100 9000 2 240 01:41 15.10.2019
5999 Clear 9 1020 100 6000 2 250 01:18 15.10.2019
6000 Clear 9 1020 93 8000 2 240 00:26 15.10.2019
6001 Clear 10 1020 93 8000 2 230 23:59 14.10.2019
6002 Clear 11 1020 93 8000 2 230 23:39 14.10.2019
6003 Clear 12 1020 87 9000 2 250 23:19 14.10.2019
6004 Clear 12 1019 54 10000 3 210 22:40 14.10.2019
6005 Clear 13 1020 76 9000 2 250 22:21 14.10.2019
6006 Clear 13 1020 76 9000 3 240 21:59 14.10.2019
6007 Clear 14 1020 81 10000 3 210 21:40 14.10.2019
6008 Clear 14 1020 71 10000 3 230 21:21 14.10.2019
6009 Clear 14 1020 71 10000 3 230 21:21 14.10.2019
6010 Clouds 15 1019 58 10000 3 220 20:58 14.10.2019
6011 Clouds 15 1019 58 10000 3 220 20:38 14.10.2019
6012 Clouds 15 1019 54 9000 3 210 20:19 14.10.2019
6013 Clouds 14 1019 62 9000 2 230 19:56 14.10.2019
6014 Clouds 15 1019 62 9000 2 230 19:37 14.10.2019
6015 Clouds 15 1019 58 9000 3 210 19:19 14.10.2019
6016 Clouds 15 1020 58 8000 3 210 18:57 14.10.2019
6017 Clouds 16 1020 51 8000 3 220 18:37 14.10.2019
6018 Smoke 18 1019 48 10000 2 220 18:18 14.10.2019
6019 Clear 19 1019 42 10000 2 220 17:41 14.10.2019
6020 Clear 19 1019 42 10000 2 220 17:23 14.10.2019
6021 -273 0 0 0 0 0 16:55 14.10.2019
6022 Clear 20 1019 40 10000 2 210 16:54 14.10.2019
6023 Clear 22 1019 33 10000 2 230 16:36 14.10.2019
6024 Clear 22 1019 33 10000 2 230 16:18 14.10.2019
6025 Clear 23 1019 31 10000 3 220 15:41 14.10.2019
6026 Clear 23 1020 31 10000 4 230 15:21 14.10.2019
6027 Clear 24 1020 29 10000 4 210 14:44 14.10.2019
6028 Clear 24 1020 29 10000 4 210 14:44 14.10.2019
6029 Clear 24 1020 29 10000 4 220 14:25 14.10.2019
6030 Clear 24 1020 28 10000 4 220 13:58 14.10.2019
6031 Clear 24 1021 31 10000 4 210 13:40 14.10.2019
6032 Clear 24 1021 31 10000 4 210 13:21 14.10.2019
6033 Clear 24 1021 33 10000 5 230 12:42 14.10.2019
6034 Clear 23 1021 33 10000 4 220 12:21 14.10.2019
6035 Clear 22 1021 33 10000 4 220 11:55 14.10.2019
6036 Clear 22 1021 33 10000 4 220 11:54 14.10.2019
6037 Clear 21 1022 35 10000 4 210 11:36 14.10.2019
6038 Clear 20 1022 37 10000 3 220 11:18 14.10.2019
6039 Clear 20 1022 37 10000 3 220 10:43 14.10.2019
6040 Clear 20 1022 40 10000 2 230 10:21 14.10.2019
6041 Clear 18 1022 42 10000 2 230 09:59 14.10.2019
6042 Clear 16 1022 51 10000 2 250 09:38 14.10.2019
6043 Clear 16 1022 51 10000 2 250 09:19 14.10.2019
6044 Clear 13 1022 66 10000 1 240 08:47 14.10.2019
6045 Clear 13 1022 66 10000 1 240 08:23 14.10.2019
6046 Clear 8 1022 93 9000 2 240 07:44 14.10.2019
6047 Clear 8 1022 93 9000 2 240 07:21 14.10.2019
6048 Clear 7 1022 93 10000 2 240 06:55 14.10.2019
6049 Clear 8 1022 93 10000 3 230 06:27 14.10.2019
6050 Clear 7 1022 100 10000 2 230 05:51 14.10.2019
6051 Clear 8 1022 93 10000 2 240 04:51 14.10.2019
6052 Clear 9 1021 93 9000 1 200 03:48 14.10.2019
6053 Clear 9 1021 93 10000 1 210 03:22 14.10.2019
6054 Clear 11 1022 93 10000 1 180 01:46 14.10.2019
6055 Clear 10 1022 87 10000 2.19 245.48 01:18 14.10.2019
6056 Clear 12 1022 76 9000 2.2 239.702 00:23 14.10.2019
6057 Clear 11 1021 87 8000 2 230 23:46 13.10.2019
6058 Clear 11 1021 87 8000 2 230 23:21 13.10.2019
6059 Clear 12 1021 76 8000 2 240 23:00 13.10.2019
6060 Clear 14 1021 71 9000 2 250 22:41 13.10.2019
6061 Clear 14 1021 71 9000 2 250 22:22 13.10.2019
6062 Clear 14 1021 71 9000 2 250 22:22 13.10.2019
6063 Clear 14 1021 76 8000 3 240 21:59 13.10.2019
6064 Clear 14 1021 76 7000 3 230 21:39 13.10.2019
6065 Clear 14 1021 76 7000 3 230 21:19 13.10.2019
6066 Clear 14 1021 71 8000 2 240 20:58 13.10.2019
6067 Clouds 15 1021 66 7000 3 240 20:40 13.10.2019
6068 Clouds 15 1021 66 7000 3 240 20:21 13.10.2019
6069 Clouds 15 1021 71 8000 2 240 20:00 13.10.2019
6070 Clouds 16 1021 67 8000 2 230 19:39 13.10.2019
6071 Clouds 16 1021 62 8000 3 230 19:21 13.10.2019
6072 Clouds 16 1021 62 8000 3 230 18:59 13.10.2019
6073 Clouds 16 1021 62 8000 3 230 18:58 13.10.2019
6074 Clouds 16 1021 62 8000 3 230 18:58 13.10.2019
6075 Smoke 18 1020 55 5000 3 220 18:38 13.10.2019
6076 Smoke 17 1020 55 5000 3 220 18:38 13.10.2019
6077 Clouds 18 1020 52 8000 2 230 18:19 13.10.2019
6078 Clouds 19 1020 52 8000 2 230 17:58 13.10.2019
6079 Clear 20 1020 43 10000 3 230 17:39 13.10.2019
6080 Clear 20 1020 43 10000 3 230 17:21 13.10.2019
6081 Clear 22 1020 37 10000 3 250 16:43 13.10.2019
6082 Clear 23 1020 37 10000 4 250 16:19 13.10.2019
6083 Clear 23 1020 38 10000 5 260 15:57 13.10.2019
6084 Clear 23 1020 38 10000 5 260 15:57 13.10.2019
6085 Clear 24 1020 38 10000 5 260 15:38 13.10.2019
6086 Clear 23 1020 38 10000 5 260 15:19 13.10.2019
6087 Clear 23 1020 38 10000 5 250 14:57 13.10.2019
6088 Clear 23 1020 38 10000 5 260 14:38 13.10.2019
6089 Clear 23 1020 38 10000 5 260 14:19 13.10.2019
6090 Clear 23 1020 40 10000 5 260 13:42 13.10.2019
6091 Clear 23 1020 40 10000 5 260 13:23 13.10.2019
6092 Clear 22 1020 40 10000 6 250 12:59 13.10.2019
6093 Clear 21 1020 43 10000 5 250 12:39 13.10.2019
6094 Clear 21 1020 43 10000 5 250 12:21 13.10.2019
6095 Clear 20 1020 45 10000 5 260 11:59 13.10.2019
6096 Clear 19 1020 48 10000 4 250 11:39 13.10.2019
6097 Clear 19 1020 48 10000 4 250 11:21 13.10.2019
6098 Clear 18 1020 48 10000 4 230 10:59 13.10.2019
6099 Clear 16 1020 55 10000 4 250 10:39 13.10.2019
6100 Clear 16 1020 55 10000 4 250 10:39 13.10.2019
6101 Clear 16 1020 55 10000 4 250 10:20 13.10.2019
6102 Clear 15 1020 58 10000 4 260 09:39 13.10.2019
6103 Clear 14 1020 58 10000 4 260 09:21 13.10.2019
6104 Clear 14 1020 58 10000 4 260 09:21 13.10.2019
6105 Clear 13 1020 58 10000 5 270 08:51 13.10.2019
6106 Clear 12 1020 62 10000 4 260 08:27 13.10.2019
6107 Clear 11 1020 66 10000 3 250 07:55 13.10.2019
6108 Clear 10 1019 66 10000 3 240 07:35 13.10.2019
6109 Clear 9 1019 75 10000 3 260 06:54 13.10.2019
6110 Clear 9 1019 70 10000 3 240 06:24 13.10.2019
6111 Clear 10 1019 71 10000 3 250 05:27 13.10.2019
6112 Clear 10 1019 71 10000 3 250 05:27 13.10.2019
6113 Clear 11 1019 66 10000 3 260 04:35 13.10.2019
6114 Clear 11 1018 66 10000 3 260 03:34 13.10.2019
6115 Clear 11 1018 66 10000 3 250 02:32 13.10.2019
6116 Clear 12 1019 66 10000 4 250 01:37 13.10.2019
6117 Clear 12 1019 66 10000 4 250 01:18 13.10.2019
6118 Clear 12 1018 71 10000 3 250 00:42 13.10.2019
6119 Clear 12 1018 71 10000 3 250 00:19 13.10.2019
6120 Clear 12 1018 66 10000 3 250 23:42 12.10.2019
6121 Clear 12 1018 66 10000 3 250 23:23 12.10.2019
6122 Clear 13 1018 62 10000 4 250 22:59 12.10.2019
6123 Clear 13 1018 62 10000 4 240 22:40 12.10.2019
6124 Clear 13 1018 62 10000 4 240 22:22 12.10.2019
6125 Clear 13 1018 62 10000 5 240 21:58 12.10.2019
6126 Clear 14 1018 58 10000 5 240 21:40 12.10.2019
6127 Clear 14 1018 58 10000 5 240 21:21 12.10.2019
6128 Clear 14 1018 54 10000 5 240 20:54 12.10.2019
6129 Clear 14 1018 54 10000 5 240 20:54 12.10.2019
6130 -273 0 0 0 0 0 20:54 12.10.2019
6131 Clear 14 1017 54 10000 5 240 20:36 12.10.2019
6132 Clear 14 1017 54 10000 5 240 20:18 12.10.2019
6133 Clear 15 1017 51 10000 5 240 19:36 12.10.2019
6134 Clear 15 1017 51 10000 5 240 19:18 12.10.2019
6135 Clear 15 1017 47 10000 4 230 18:42 12.10.2019
6136 Clear 15 1017 47 10000 4 230 18:24 12.10.2019
6137 Clear 15 1017 51 10000 4 230 17:46 12.10.2019
6138 Clear 16 1018 48 10000 4 220 17:21 12.10.2019
6139 Clear 16 1018 48 10000 4 230 16:58 12.10.2019
6140 Clear 16 1018 48 10000 4 230 16:58 12.10.2019
6141 Clear 17 1018 42 10000 6 230 16:40 12.10.2019
6142 Clear 17 1018 42 10000 6 230 16:20 12.10.2019
6143 Clear 17 1018 42 10000 6 220 15:46 12.10.2019
6144 Clear 17 1018 39 10000 7 230 15:27 12.10.2019
6145 Clear 18 1018 36 10000 7 230 14:59 12.10.2019
6146 Clear 18 1018 42 10000 7 230 14:38 12.10.2019
6147 Clear 17 1018 42 10000 7 230 14:20 12.10.2019
6148 Clear 18 1019 36 10000 6 230 13:49 12.10.2019
6149 Clear 17 1019 42 10000 8 240 13:31 12.10.2019
6150 Clear 17 1019 42 10000 6 230 12:55 12.10.2019
6151 Clear 17 1019 42 10000 7 230 12:37 12.10.2019
6152 Clear 17 1019 42 10000 7 230 12:18 12.10.2019
6153 Clear 15 1020 47 10000 6 230 11:41 12.10.2019
6154 Clear 16 1020 47 10000 6 230 11:22 12.10.2019
6155 Clear 15 1020 47 10000 7 230 10:57 12.10.2019
6156 Clear 15 1020 47 10000 5 230 10:38 12.10.2019
6157 Clear 14 1020 47 10000 5 230 10:19 12.10.2019
6158 -273 0 0 0 0 0 09:56 12.10.2019
6159 Clear 13 1020 54 10000 6 240 09:56 12.10.2019
6160 Clear 12 1021 58 10000 5 240 09:37 12.10.2019
6161 Clear 11 1020 62 10000 4 230 09:19 12.10.2019
6162 Clear 11 1021 66 10000 4 230 08:43 12.10.2019
6163 Clear 10 1021 66 10000 4 230 08:23 12.10.2019
6164 Clear 8 1021 75 10000 3 230 07:40 12.10.2019
6165 Clear 8 1021 75 10000 3 230 07:22 12.10.2019
6166 Clear 7 1021 81 10000 3 230 05:54 12.10.2019
6167 Clear 7 1021 81 10000 3 230 05:25 12.10.2019
6168 Clear 6 1021 87 10000 3 240 04:29 12.10.2019
6169 Clear 7 1021 87 10000 2 240 03:46 12.10.2019
6170 Clear 6 1021 93 10000 2 240 02:37 12.10.2019
6171 Clear 6 1021 100 10000 2 240 01:31 12.10.2019
6172 Clear 6 1021 93 10000 2 240 00:44 12.10.2019
6173 Clear 5 1021 93 10000 2 240 00:24 12.10.2019
6174 Clear 8 1021 87 10000 2 230 23:41 11.10.2019
6175 Clear 8 1021 87 10000 2 230 23:21 11.10.2019
6176 Clear 8 1021 81 10000 2 220 22:59 11.10.2019
6177 Clear 8 1021 81 10000 2 240 22:37 11.10.2019
6178 Clear 8 1021 81 10000 2 240 22:37 11.10.2019
6179 Clear 8 1021 81 10000 2 240 22:18 11.10.2019
6180 Clear 9 1021 81 9000 3 240 21:40 11.10.2019
6181 Clouds 9 1021 81 9000 3 240 21:21 11.10.2019
6182 Clear 9 1021 76 10000 3 240 20:54 11.10.2019
6183 Clear 9 1021 76 10000 3 240 20:54 11.10.2019
6184 Clouds 9 1020 81 10000 3 240 20:36 11.10.2019
6185 Clouds 9 1020 81 10000 3 240 20:18 11.10.2019
6186 Clouds 10 1020 76 9000 3 250 19:54 11.10.2019
6187 Clouds 10 1020 76 9000 3 250 19:54 11.10.2019
6188 Clear 10 1020 71 10000 3 250 19:36 11.10.2019
6189 Clear 10 1020 71 10000 3 250 19:18 11.10.2019
6190 Clear 10 1020 71 10000 3 250 19:18 11.10.2019
6191 Clouds 10 1020 71 9000 4 260 19:18 11.10.2019
6192 Clear 11 1020 62 10000 3 260 18:39 11.10.2019
6193 Clear 11 1020 62 10000 3 260 18:19 11.10.2019
6194 Clear 11 1019 62 10000 4 260 17:59 11.10.2019
6195 Clear 12 1019 54 10000 5 280 17:38 11.10.2019
6196 Clear 13 1019 54 10000 5 280 17:20 11.10.2019
6197 Clear 14 1019 47 10000 5 290 16:59 11.10.2019
6198 Clear 14 1019 50 10000 4 290 16:39 11.10.2019
6199 Clear 14 1019 50 10000 5 300 16:19 11.10.2019
6200 Clear 14 1019 50 10000 5 300 15:55 11.10.2019
6201 Clear 14 1019 54 10000 6 280 15:36 11.10.2019
6202 Clouds 14 1018 47 10000 7 300 15:18 11.10.2019
6203 Clouds 14 1018 47 10000 7 300 15:18 11.10.2019
6204 Clouds 15 1018 50 10000 8 290 14:42 11.10.2019
6205 Clouds 15 1018 50 10000 8 290 14:23 11.10.2019
6206 Clouds 14 1018 62 10000 7 280 13:47 11.10.2019
6207 Clouds 14 1018 62 10000 7 280 13:26 11.10.2019
6208 Clouds 14 1018 66 10000 7 260 12:58 11.10.2019
6209 Clouds 14 1018 62 10000 6 270 12:40 11.10.2019
6210 Clouds 14 1018 62 10000 6 270 12:21 11.10.2019
6211 Clear 14 1018 66 10000 5 270 11:59 11.10.2019
6212 Clear 13 1018 71 10000 4 260 11:39 11.10.2019
6213 Clear 13 1018 71 10000 4 260 11:21 11.10.2019
6214 Clear 13 1018 71 10000 4 250 10:56 11.10.2019
6215 Clear 13 1018 71 10000 4 250 10:56 11.10.2019
6216 Clear 13 1018 71 10000 3 250 10:37 11.10.2019
6217 Clear 12 1018 76 10000 4 260 10:18 11.10.2019
6218 Clear 11 1017 81 10000 4 270 09:42 11.10.2019
6219 Clear 11 1017 81 10000 4 270 09:21 11.10.2019
6220 Clear 10 1017 87 10000 3 270 08:59 11.10.2019
6221 Clear 9 1017 87 10000 4 280 08:39 11.10.2019
6222 Clear 9 1017 87 10000 4 280 08:39 11.10.2019
6223 Clear 9 1017 87 10000 4 280 08:20 11.10.2019
6224 Clear 8 1017 87 10000 4 280 07:57 11.10.2019
6225 Clear 8 1017 93 10000 3 260 07:38 11.10.2019
6226 Clear 8 1017 93 10000 3 260 07:19 11.10.2019
6227 Clear 7 1016 93 10000 3 240 06:43 11.10.2019
6228 Clear 7 1016 100 10000 3 240 06:19 11.10.2019
6229 Clear 7 1016 93 10000 2 230 05:32 11.10.2019
6230 Clear 7 1016 87 10000 3 260 04:58 11.10.2019
6231 Clear 8 1015 87 10000 3 270 03:46 11.10.2019
6232 Clear 9 1014 81 10000 3 260 01:57 11.10.2019
6233 Clear 10 1014 76 10000 4 260 00:42 11.10.2019
6234 Clear 10 1014 76 10000 2 250 00:22 11.10.2019
6235 Clear 11 1014 76 10000 3 250 23:41 10.10.2019
6236 Clear 11 1014 76 10000 3 250 23:20 10.10.2019
6237 Clear 11 1014 71 10000 4 230 22:57 10.10.2019
6238 Clear 11 1013 71 10000 3 240 22:36 10.10.2019
6239 Clear 11 1013 71 10000 3 240 22:18 10.10.2019
6240 Clouds 11 1013 76 10000 2 240 21:54 10.10.2019
6241 Clouds 11 1013 76 10000 3 240 21:36 10.10.2019
6242 Clouds 11 1013 76 10000 3 240 21:18 10.10.2019
6243 Clear 11 1012 71 10000 2 240 20:40 10.10.2019
6244 Clear 11 1012 71 10000 2 240 20:20 10.10.2019
6245 Clear 12 1012 66 10000 4 280 19:57 10.10.2019
6246 Clear 13 1012 62 10000 4 270 19:39 10.10.2019
6247 Clear 13 1012 62 10000 4 270 19:19 10.10.2019
6248 -273 0 0 0 0 0 18:54 10.10.2019
6249 Clouds 13 1012 62 9000 2 230 18:36 10.10.2019
6250 Clouds 13 1012 62 9000 2 230 18:18 10.10.2019
6251 Clear 14 1011 54 10000 3 260 17:40 10.10.2019
6252 Clear 14 1011 54 10000 3 260 17:19 10.10.2019
6253 Clear 15 1011 58 10000 4 270 16:57 10.10.2019
6254 Clear 15 1011 55 10000 5 290 16:38 10.10.2019
6255 Clear 16 1011 55 10000 5 290 16:20 10.10.2019
6256 Clouds 16 1010 55 10000 7 280 15:42 10.10.2019
6257 Clouds 16 1010 55 10000 7 280 15:23 10.10.2019
6258 Clouds 17 1010 51 10000 9 270 14:59 10.10.2019
6259 Clouds 17 1010 55 10000 9 280 14:37 10.10.2019
6260 Clouds 17 1010 55 10000 9 280 14:19 10.10.2019
6261 Clouds 17 1010 59 10000 7 270 13:58 10.10.2019
6262 Clouds 17 1010 55 10000 8 270 13:39 10.10.2019
6263 Clouds 18 1010 55 10000 8 270 13:18 10.10.2019
6264 Clear 17 1009 62 10000 4 230 12:42 10.10.2019
6265 Clear 16 1009 62 10000 4 230 12:42 10.10.2019
6266 Clear 16 1009 62 10000 4 230 12:21 10.10.2019
6267 Clear 15 1009 62 10000 5 240 11:58 10.10.2019
6268 Clear 15 1009 62 10000 6 260 11:40 10.10.2019
6269 Clear 15 1009 62 10000 6 260 11:19 10.10.2019
6270 Clear 15 1009 67 10000 6 250 10:57 10.10.2019
6271 Clear 15 1009 67 10000 5 240 10:39 10.10.2019
6272 Clear 15 1009 67 10000 5 240 10:20 10.10.2019
6273 Clear 15 1008 72 10000 5 230 09:41 10.10.2019
6274 Clear 14 1008 71 10000 4 210 09:23 10.10.2019
6275 Clear 14 1009 76 10000 4 210 08:59 10.10.2019
6276 Clear 13 1008 81 10000 4 200 08:40 10.10.2019
6277 Clear 13 1008 81 10000 4 200 08:21 10.10.2019
6278 Clear 12 1009 81 10000 4 200 07:47 10.10.2019
6279 Clear 12 1009 81 10000 4 200 07:26 10.10.2019
6280 Clear 11 1009 76 10000 3 190 06:55 10.10.2019
6281 Clear 11 1009 76 10000 3 170 06:36 10.10.2019
6282 Clear 11 1010 76 10000 3 140 05:39 10.10.2019
6283 Clear 10 1010 76 10000 3 140 05:18 10.10.2019
6284 Clear 10 1011 76 10000 3 130 04:34 10.10.2019
6285 Clouds 10 1012 81 10000 3 120 02:29 10.10.2019
6286 Rain 9 1014 81 10000 3 150 01:37 10.10.2019
6287 Rain 9 1014 81 10000 3 150 01:18 10.10.2019
6288 Rain 9 1014 87 10000 2 170 00:33 10.10.2019
6289 Clear 9 1015 87 10000 1 110 23:42 09.10.2019
6290 Clear 9 1015 87 10000 1 110 23:24 09.10.2019
6291 Clear 9 1015 87 10000 1 110 23:24 09.10.2019
6292 Clear 8 1015 87 10000 1 0 22:59 09.10.2019
6293 Clear 9 1015 76 10000 1 0 22:41 09.10.2019
6294 Clear 9 1015 76 10000 1 0 22:22 09.10.2019
6295 Clear 10 1015 71 10000 2 210 21:57 09.10.2019
6296 Clear 10 1015 71 10000 3 230 21:38 09.10.2019
6297 Clear 10 1015 71 10000 3 230 21:19 09.10.2019
6298 Clear 10 1015 71 10000 3 230 20:55 09.10.2019
6299 Clear 10 1016 71 10000 3 230 20:36 09.10.2019
6300 Clear 10 1016 71 10000 3 230 20:18 09.10.2019
6301 Clear 10 1016 71 10000 3 230 20:18 09.10.2019
6302 Clouds 10 1015 66 7000 3 230 19:43 09.10.2019
6303 Clouds 10 1015 66 7000 3 230 19:22 09.10.2019
6304 Clouds 10 1015 66 10000 3 240 18:39 09.10.2019
6305 Clouds 10 1015 66 10000 3 240 18:21 09.10.2019
6306 Clear 11 1015 62 10000 3 230 17:58 09.10.2019
6307 Clear 11 1015 62 10000 2 220 17:40 09.10.2019
6308 Clear 11 1015 62 10000 2 220 17:22 09.10.2019
6309 Clear 12 1015 54 10000 2 230 16:57 09.10.2019
6310 Clear 12 1015 50 10000 3 240 16:39 09.10.2019
6311 Clear 13 1015 50 10000 3 240 16:21 09.10.2019
6312 Clouds 13 1015 50 10000 5 240 15:57 09.10.2019
6313 Clouds 13 1015 50 10000 4 260 15:37 09.10.2019
6314 Clouds 13 1015 50 10000 4 260 15:19 09.10.2019
6315 Clouds 13 1015 50 10000 5 240 14:45 09.10.2019
6316 Clouds 13 1015 50 10000 5 240 14:20 09.10.2019
6317 Clear 13 1015 47 10000 4 240 14:00 09.10.2019
6318 Clear 12 1015 53 10000 4 220 13:38 09.10.2019
6319 Clear 11 1015 57 10000 5 220 13:18 09.10.2019
6320 Clear 11 1015 57 10000 5 220 12:44 09.10.2019
6321 Clear 11 1015 57 10000 4 200 12:23 09.10.2019
6322 Clear 11 1015 57 10000 4 200 11:58 09.10.2019
6323 Clouds 10 1015 66 10000 3 200 11:40 09.10.2019
6324 -273 0 0 0 0 0 11:20 09.10.2019
6325 Clouds 9 1015 70 10000 3 220 10:59 09.10.2019
6326 Clouds 8 1016 65 10000 5 230 10:40 09.10.2019
6327 Clouds 8 1016 65 10000 5 230 10:40 09.10.2019
6328 Clouds 8 1016 65 10000 5 230 10:18 09.10.2019
6329 Clear 8 1016 65 10000 3 230 09:43 09.10.2019
6330 Clear 8 1016 65 10000 5 230 09:20 09.10.2019
6331 Clear 7 1015 70 10000 5 220 08:58 09.10.2019
6332 Clear 7 1016 70 10000 4 230 08:38 09.10.2019
6333 Rain 7 1016 70 10000 3 230 08:19 09.10.2019
6334 Rain 7 1016 70 10000 3 230 07:47 09.10.2019
6335 Rain 7 1016 70 10000 3 230 07:47 09.10.2019
6336 Clear 7 1016 65 10000 4 220 07:24 09.10.2019
6337 Clear 7 1015 65 10000 5 220 06:57 09.10.2019
6338 Clear 7 1015 65 10000 4 220 06:34 09.10.2019
6339 Clear 7 1015 65 10000 4 210 05:51 09.10.2019
6340 Clear 7 1015 65 10000 5 200 04:50 09.10.2019
6341 Clear 6 1016 58 10000 6 200 03:47 09.10.2019
6342 Clear 6 1017 56 10000 5 200 02:27 09.10.2019
6343 Clear 6 1018 52 10000 4 210 01:24 09.10.2019
6344 Clear 6 1018 52 10000 4 210 00:59 09.10.2019
6345 Clear 6 1018 56 10000 4 210 00:40 09.10.2019
6346 Clear 6 1018 56 10000 4 210 00:22 09.10.2019
6347 Clear 6 1018 56 10000 4 210 23:58 08.10.2019
6348 Clear 7 1019 52 10000 4 220 23:38 08.10.2019
6349 Clear 7 1019 52 10000 4 220 23:18 08.10.2019
6350 Clear 7 1019 52 10000 3 220 22:41 08.10.2019
6351 Clear 7 1019 52 10000 3 220 22:21 08.10.2019
6352 Clear 7 1019 52 10000 3 220 21:58 08.10.2019
6353 Clear 7 1019 52 10000 4 210 21:39 08.10.2019
6354 Clear 7 1019 52 10000 4 210 21:20 08.10.2019
6355 Clear 7 1019 56 10000 4 200 20:58 08.10.2019
6356 Clear 7 1019 56 10000 3 210 20:39 08.10.2019
6357 Clear 7 1019 56 10000 3 210 20:21 08.10.2019
6358 Clear 7 1019 56 10000 3 210 19:59 08.10.2019
6359 Clear 7 1019 56 10000 3 220 19:41 08.10.2019
6360 Clear 7 1019 56 10000 3 220 19:23 08.10.2019
6361 Clear 7 1019 56 10000 3 220 18:55 08.10.2019
6362 Clear 7 1019 52 10000 2 220 18:37 08.10.2019
6363 Clear 8 1019 52 10000 2 220 18:19 08.10.2019
6364 Clear 8 1019 52 10000 3 220 17:55 08.10.2019
6365 Clear 9 1019 49 10000 2 230 17:36 08.10.2019
6366 Clear 9 1019 49 10000 2 230 17:18 08.10.2019
6367 Clear 10 1019 43 10000 5 240 16:40 08.10.2019
6368 Clear 10 1019 43 10000 5 240 16:22 08.10.2019
6369 Clear 10 1019 46 10000 6 250 15:41 08.10.2019
6370 Clear 11 1019 46 10000 6 250 15:22 08.10.2019
6371 Clear 11 1019 46 10000 6 250 15:22 08.10.2019
6372 Clear 11 1019 43 10000 5 230 14:59 08.10.2019
6373 Clouds 11 1019 46 10000 5 270 14:41 08.10.2019
6374 Clouds 11 1019 46 10000 5 270 14:21 08.10.2019
6375 Clear 10 1019 46 10000 5 270 13:57 08.10.2019
6376 Clouds 10 1020 49 10000 5 240 13:39 08.10.2019
6377 Clouds 11 1020 49 10000 5 240 13:19 08.10.2019
6378 Clouds 11 1020 40 10000 5 270 12:58 08.10.2019
6379 Clouds 10 1020 40 10000 6 290 12:38 08.10.2019
6380 Clouds 9 1020 52 10000 6 260 12:18 08.10.2019
6381 Clouds 9 1021 61 10000 6 260 11:42 08.10.2019
6382 Clouds 9 1021 61 10000 6 260 11:24 08.10.2019
6383 Clear 7 1021 65 10000 5 260 10:58 08.10.2019
6384 Clear 6 1021 70 10000 6 270 10:37 08.10.2019
6385 Clear 6 1021 70 10000 6 270 10:19 08.10.2019
6386 Clear 5 1021 75 10000 4 260 09:55 08.10.2019
6387 Clear 5 1021 80 10000 3 260 09:37 08.10.2019
6388 Clear 5 1021 80 10000 3 260 09:19 08.10.2019
6389 Clear 2 1021 69 10000 4 250 08:42 08.10.2019
6390 Clear 2 1021 69 10000 4 250 08:23 08.10.2019
6391 Clear 0 1020 92 10000 2 240 07:44 08.10.2019
6392 Clear 0 1020 92 10000 2 240 07:21 08.10.2019
6393 Clear -1 1020 92 10000 3 230 06:51 08.10.2019
6394 Clear -1 1020 92 9000 2 230 06:28 08.10.2019
6395 Clear -2 1020 92 10000 2 260 05:46 08.10.2019
6396 Clear -1 1020 92 10000 2 230 05:26 08.10.2019
6397 Clear -1 1019 92 10000 2 240 04:31 08.10.2019
6398 Clear -1 1019 100 10000 3 240 03:27 08.10.2019
6399 Clear 0 1019 92 10000 3 220 02:36 08.10.2019
6400 Clear 0 1019 68 10000 2 220 01:47 08.10.2019
6401 Clear 0 1019 92 10000 2 230 01:27 08.10.2019
6402 Clear 0 1018 92 10000 1 0 00:46 08.10.2019
6403 Clear 0 1018 92 10000 1 0 00:20 08.10.2019
6404 Clear 1 1018 80 10000 3 260 23:39 07.10.2019
6405 Clear 1 1018 80 10000 3 260 23:20 07.10.2019
6406 Clear 2 1018 74 10000 3 260 22:56 07.10.2019
6407 Clear 3 1018 69 10000 3 270 22:38 07.10.2019
6408 Clear 3 1018 69 10000 3 270 22:20 07.10.2019
6409 Clear 3 1018 69 10000 3 290 21:56 07.10.2019
6410 Clear 3 1018 64 10000 3 300 21:37 07.10.2019
6411 Clear 3 1018 64 10000 3 300 21:19 07.10.2019
6412 Clear 3 1018 64 10000 4 310 20:57 07.10.2019
6413 Clouds 3 1018 64 10000 5 310 20:38 07.10.2019
6414 Clouds 3 1018 64 10000 5 310 20:19 07.10.2019
6415 Rain 4 1017 69 10000 4 270 19:56 07.10.2019
6416 Clear 4 1017 69 10000 4 280 19:38 07.10.2019
6417 Rain 4 1017 64 10000 3 290 19:18 07.10.2019
6418 Clear 4 1017 64 10000 4 280 18:43 07.10.2019
6419 Clear 4 1017 64 10000 4 280 18:19 07.10.2019
6420 Clear 4 1017 60 10000 4 280 17:59 07.10.2019
6421 Clouds 5 1017 56 10000 4 290 17:41 07.10.2019
6422 Clouds 5 1017 56 10000 4 290 17:19 07.10.2019
6423 Clouds 5 1016 56 10000 5 280 16:46 07.10.2019
6424 Clouds 5 1016 56 10000 5 280 16:46 07.10.2019
6425 Clouds 5 1016 52 10000 5 280 16:28 07.10.2019
6426 Clouds 5 1016 52 10000 4 290 15:59 07.10.2019
6427 Clear 6 1016 48 10000 4 300 15:40 07.10.2019
6428 Clear 6 1016 48 10000 4 300 15:21 07.10.2019
6429 Clear 6 1016 48 10000 3 300 14:42 07.10.2019
6430 Clear 6 1016 48 10000 3 300 14:23 07.10.2019
6431 Clear 7 1016 48 10000 3 300 13:45 07.10.2019
6432 Clear 6 1016 56 10000 4 310 13:21 07.10.2019
6433 Clear 6 1016 52 10000 5 310 12:59 07.10.2019
6434 Clear 6 1016 48 10000 5 320 12:40 07.10.2019
6435 Clear 6 1016 48 10000 5 320 12:21 07.10.2019
6436 Clouds 5 1016 48 10000 5 320 11:59 07.10.2019
6437 Clouds 5 1016 52 10000 4 330 11:40 07.10.2019
6438 Clouds 5 1016 52 10000 4 330 11:21 07.10.2019
6439 Clouds 5 1016 48 10000 5 320 10:57 07.10.2019
6440 Clouds 5 1016 51 10000 5 330 10:39 07.10.2019
6441 Clouds 5 1016 51 10000 5 330 10:20 07.10.2019
6442 Clear 3 1016 64 10000 4 310 09:39 07.10.2019
6443 Clear 3 1016 64 10000 4 310 09:39 07.10.2019
6444 Clear 4 1016 64 10000 4 310 09:21 07.10.2019
6445 Clear 2 1016 74 10000 4 300 08:44 07.10.2019
6446 Clear 3 1016 74 10000 4 300 08:21 07.10.2019
6447 Clear 2 1016 86 10000 3 290 07:56 07.10.2019
6448 Clear 1 1015 62 10000 2 290 07:38 07.10.2019
6449 Clear 1 1015 62 10000 2 290 07:19 07.10.2019
6450 Clear 0 1015 62 10000 4 300 06:43 07.10.2019
6451 Clear 0 1015 62 10000 4 300 06:22 07.10.2019
6452 Clear 1 1015 86 10000 4 310 05:27 07.10.2019
6453 Clear 2 1015 80 10000 4 300 04:56 07.10.2019
6454 Clouds 3 1014 62 10000 4 320 03:51 07.10.2019
6455 Clouds 3 1014 62 10000 4 320 03:51 07.10.2019
6456 Clouds 3 1014 86 10000 4 310 03:32 07.10.2019
6457 Clouds 3 1014 86 10000 4 320 02:53 07.10.2019
6458 Rain 3 1014 86 10000 4 330 02:19 07.10.2019
6459 Clouds 4 1014 80 10000 5 320 01:24 07.10.2019
6460 Clouds 5 1014 80 10000 4 330 00:53 07.10.2019
6461 Clouds 5 1013 80 10000 4 330 00:26 07.10.2019
6462 Clouds 5 1013 80 10000 5 330 23:59 06.10.2019
6463 Clouds 5 1013 80 10000 5 340 23:40 06.10.2019
6464 Clouds 5 1013 80 10000 5 340 23:20 06.10.2019
6465 Clouds 5 1013 80 10000 5 340 22:57 06.10.2019
6466 Clouds 6 1013 81 10000 5 340 22:39 06.10.2019
6467 Clouds 6 1013 81 10000 4 350 22:20 06.10.2019
6468 Clouds 6 1013 81 10000 4 350 21:55 06.10.2019
6469 Clear 6 1013 81 10000 4 350 21:37 06.10.2019
6470 Clear 6 1013 81 10000 4 350 21:18 06.10.2019
6471 Clear 6 1013 81 10000 4 330 20:55 06.10.2019
6472 Clear 6 1013 81 10000 4 320 20:36 06.10.2019
6473 Clear 6 1013 81 10000 4 320 20:18 06.10.2019
6474 Clear 6 1012 87 10000 4 330 19:55 06.10.2019
6475 Clouds 6 1012 87 10000 4 330 19:36 06.10.2019
6476 Clouds 6 1012 87 10000 4 330 19:18 06.10.2019
6477 Rain 6 1012 87 10000 3 310 18:55 06.10.2019
6478 Rain 6 1012 87 10000 3 310 18:55 06.10.2019
6479 Clouds 6 1012 75 10000 5 300 18:36 06.10.2019
6480 Clouds 7 1012 75 10000 5 300 18:18 06.10.2019
6481 Clouds 7 1012 75 10000 5 300 18:18 06.10.2019
6482 Clouds 8 1012 65 10000 3 330 17:42 06.10.2019
6483 Clouds 8 1012 65 10000 3 330 17:20 06.10.2019
6484 Clouds 8 1011 65 10000 4 330 16:55 06.10.2019
6485 Clouds 8 1011 70 10000 5 330 16:37 06.10.2019
6486 Clouds 8 1011 70 10000 5 330 16:18 06.10.2019
6487 Clouds 9 1011 70 10000 5 350 15:42 06.10.2019
6488 Clouds 9 1011 70 10000 5 350 15:42 06.10.2019
6489 Clouds 9 1011 70 10000 5 350 15:21 06.10.2019
6490 Clouds 9 1011 66 10000 4 10 14:44 06.10.2019
6491 Clouds 9 1010 70 10000 4 30 14:26 06.10.2019
6492 Rain 10 1010 61 10000 5 340 13:59 06.10.2019
6493 Clouds 11 1010 57 10000 4 340 13:40 06.10.2019
6494 Clouds 10 1010 57 10000 4 340 13:21 06.10.2019
6495 Clouds 10 1010 66 10000 5 330 12:58 06.10.2019
6496 Clouds 11 1010 61 10000 5 340 12:39 06.10.2019
6497 Clouds 10 1010 61 10000 5 340 12:21 06.10.2019
6498 Clouds 10 1010 66 10000 3 360 11:58 06.10.2019
6499 Clouds 10 1010 70 10000 4 350 11:39 06.10.2019
6500 Clouds 9 1010 70 10000 4 360 11:21 06.10.2019
6501 Clouds 9 1010 70 10000 4 360 10:54 06.10.2019
6502 Clouds 9 1010 70 10000 4 330 10:36 06.10.2019
6503 Clouds 9 1010 70 10000 4 330 10:18 06.10.2019
6504 Clouds 8 1010 75 10000 4 360 09:41 06.10.2019
6505 Clouds 8 1010 81 10000 4 340 09:19 06.10.2019
6506 Clouds 8 1010 81 10000 4 340 09:19 06.10.2019
6507 Clouds 7 1010 93 10000 4 330 08:47 06.10.2019
6508 Clouds 7 1010 93 10000 4 330 08:21 06.10.2019
6509 Clouds 6 1009 93 10000 4 340 07:57 06.10.2019
6510 Clouds 6 1009 93 10000 3 330 07:38 06.10.2019
6511 Clouds 6 1009 93 10000 4 330 06:39 06.10.2019
6512 Clouds 6 1009 93 10000 3 330 05:36 06.10.2019
6513 Clouds 6 1009 93 10000 2 330 04:29 06.10.2019
6514 Clear 6 1009 93 10000 3 330 02:48 06.10.2019
6515 Clear 6 1009 87 10000 2 340 02:28 06.10.2019
6516 Clear 7 1008 87 10000 3 330 01:46 06.10.2019
6517 Clear 7 1009 87 10000 2 320 01:27 06.10.2019
6518 Clear 7 1009 87 10000 2 320 01:27 06.10.2019
6519 Clouds 8 1008 75 10000 3 360 00:59 06.10.2019
6520 Clouds 8 1008 75 10000 3 360 00:59 06.10.2019
6521 Clouds 8 1008 70 10000 4 10 00:31 06.10.2019
6522 Clouds 8 1009 70 10000 3 10 23:46 05.10.2019
6523 Clouds 8 1009 70 10000 3 10 23:24 05.10.2019
6524 Clouds 9 1009 70 10000 3 10 22:59 05.10.2019
6525 Clouds 9 1009 70 10000 4 10 22:40 05.10.2019
6526 Clouds 9 1009 70 10000 4 10 22:21 05.10.2019
6527 Clouds 9 1009 70 10000 4 10 22:21 05.10.2019
6528 Rain 9 1009 70 10000 4 20 21:59 05.10.2019
6529 Rain 9 1009 66 10000 4 20 21:40 05.10.2019
6530 Rain 9 1009 66 10000 4 20 21:21 05.10.2019
6531 Clear 9 1009 71 10000 4 20 20:56 05.10.2019
6532 Clear 9 1009 71 10000 4 30 20:38 05.10.2019
6533 Clear 10 1009 71 10000 4 30 20:19 05.10.2019
6534 Clear 10 1009 71 10000 3 10 19:39 05.10.2019
6535 Clear 10 1009 71 10000 3 10 19:21 05.10.2019
6536 Clear 10 1009 71 10000 2 10 18:57 05.10.2019
6537 Clear 10 1009 71 10000 3 10 18:39 05.10.2019
6538 Clear 10 1009 71 10000 3 10 18:39 05.10.2019
6539 Clear 10 1009 71 10000 3 10 18:20 05.10.2019
6540 Clear 10 1009 71 10000 4 10 17:46 05.10.2019
6541 Clear 10 1009 71 10000 4 360 17:28 05.10.2019
6542 Clouds 11 1009 66 10000 4 10 16:59 05.10.2019
6543 Clear 11 1009 57 10000 4 20 16:41 05.10.2019
6544 Clear 11 1009 57 10000 4 20 16:21 05.10.2019
6545 Clouds 12 1009 62 10000 4 30 15:57 05.10.2019
6546 Clouds 12 1009 66 10000 4 40 15:39 05.10.2019
6547 Clouds 12 1009 66 10000 4 40 15:21 05.10.2019
6548 Clouds 11 1009 66 10000 4 30 14:56 05.10.2019
6549 Clouds 11 1009 66 10000 4 30 14:56 05.10.2019
6550 Clouds 11 1009 66 10000 4 30 14:56 05.10.2019
6551 Clouds 12 1009 66 10000 3 40 14:38 05.10.2019
6552 Clouds 12 1009 66 10000 3 40 14:38 05.10.2019
6553 Clouds 12 1009 66 10000 3 40 14:19 05.10.2019
6554 Clouds 12 1010 66 10000 3 40 13:41 05.10.2019
6555 Clouds 12 1010 66 10000 3 40 13:21 05.10.2019
6556 Clear 12 1010 66 10000 3 30 12:46 05.10.2019
6557 Clouds 11 1010 71 10000 2 360 12:21 05.10.2019
6558 Clouds 12 1010 71 10000 2 360 11:54 05.10.2019
6559 Clear 11 1011 71 10000 2 30 11:36 05.10.2019
6560 Clear 11 1011 71 10000 2 30 11:18 05.10.2019
6561 Clear 10 1011 76 10000 1 0 10:44 05.10.2019
6562 Clear 10 1011 76 10000 1 0 10:24 05.10.2019
6563 Clear 9 1011 87 10000 2 60 09:57 05.10.2019
6564 Clear 8 1011 87 10000 2 60 09:38 05.10.2019
6565 Clear 8 1011 87 10000 2 60 09:20 05.10.2019
6566 Clouds 7 1011 100 9000 1 0 08:39 05.10.2019
6567 Clouds 7 1011 100 9000 1 0 08:39 05.10.2019
6568 Clouds 7 1011 100 9000 1 0 08:19 05.10.2019
6569 Clouds 6 1011 100 7000 2.06 1.642 07:56 05.10.2019
6570 Mist 6 1011 100 5000 2.06 1.642 07:33 05.10.2019
6571 Mist 6 1011 100 8000 2 10 06:58 05.10.2019
6572 Mist 5 1011 100 10000 1 360 06:26 05.10.2019
6573 Mist 5 1011 100 9000 2 290 05:40 05.10.2019
6574 Mist 4 1011 100 8000 2 290 03:56 05.10.2019
6575 Fog 4 1011 93 10000 2 280 03:28 05.10.2019
6576 Clouds 6 1011 100 9000 2 290 01:41 05.10.2019
6577 Clouds 6 1011 100 9000 2 290 01:18 05.10.2019
6578 Clouds 6 1011 100 8000 1.6 331.547 00:41 05.10.2019
6579 Clouds 6 1011 100 8000 2.11 332.247 00:23 05.10.2019
6580 Clear 6 1011 93 10000 1 270 23:44 04.10.2019
6581 Clear 6 1011 93 10000 1 270 23:25 04.10.2019
6582 Clear 7 1011 93 10000 1 300 22:59 04.10.2019
6583 Clear 7 1011 93 10000 2 320 22:39 04.10.2019
6584 Clear 7 1011 93 10000 2 320 22:19 04.10.2019
6585 Clear 8 1010 93 10000 1 330 22:19 04.10.2019
6586 Clear 8 1010 93 10000 1 330 21:55 04.10.2019
6587 Clouds 8 1011 93 10000 1 0 21:36 04.10.2019
6588 Clouds 9 1011 87 10000 2 310 21:18 04.10.2019
6589 Clouds 9 1011 81 10000 2 310 20:42 04.10.2019
6590 Clouds 9 1011 81 10000 2 310 20:23 04.10.2019
6591 Clear 9 1011 76 10000 2 320 19:58 04.10.2019
6592 Clear 9 1011 76 10000 2 330 19:39 04.10.2019
6593 Clear 10 1010 76 10000 2 330 19:20 04.10.2019
6594 Clear 10 1010 76 10000 2 330 18:56 04.10.2019
6595 Clouds 10 1011 87 10000 1 290 18:37 04.10.2019
6596 Clouds 10 1011 87 10000 1 290 18:18 04.10.2019
6597 Clear 11 1011 71 10000 2 330 17:41 04.10.2019
6598 Clear 11 1011 71 10000 2 330 17:22 04.10.2019
6599 Clear 11 1011 71 10000 3 330 16:58 04.10.2019
6600 Clear 11 1011 66 10000 2 340 16:40 04.10.2019
6601 Clear 11 1011 66 10000 3 360 16:19 04.10.2019
6602 Clear 11 1011 66 10000 3 360 15:56 04.10.2019
6603 Clouds 11 1011 66 10000 4 360 15:38 04.10.2019
6604 Clouds 11 1011 66 10000 3 340 15:19 04.10.2019
6605 Clouds 11 1011 66 10000 3 340 14:56 04.10.2019
6606 Clouds 12 1011 71 10000 4 340 14:37 04.10.2019
6607 Clouds 12 1011 71 10000 4 340 14:19 04.10.2019
6608 Clouds 12 1011 71 10000 3 360 13:44 04.10.2019
6609 Clouds 12 1011 71 10000 3 360 13:22 04.10.2019
6610 -273 0 0 0 0 0 12:54 04.10.2019
6611 Clouds 12 1012 76 10000 3 320 12:36 04.10.2019
6612 Clouds 11 1012 76 10000 3 320 12:18 04.10.2019
6613 Clouds 11 1012 81 10000 3 330 11:42 04.10.2019
6614 Clouds 11 1012 81 10000 3 330 11:41 04.10.2019
6615 Clouds 11 1012 81 10000 3 330 11:21 04.10.2019
6616 Clouds 10 1012 81 10000 3 340 10:41 04.10.2019
6617 Clouds 10 1012 81 10000 3 340 10:21 04.10.2019
6618 Clouds 10 1012 81 10000 3 340 10:21 04.10.2019
6619 Clouds 10 1012 87 10000 3 340 09:50 04.10.2019
6620 Clouds 9 1012 87 10000 4 340 09:32 04.10.2019
6621 Clouds 9 1011 87 10000 5 350 08:59 04.10.2019
6622 Clouds 9 1011 93 10000 4 340 08:41 04.10.2019
6623 Clouds 9 1011 93 10000 4 340 08:41 04.10.2019
6624 Clouds 9 1011 93 10000 4 340 08:23 04.10.2019
6625 Clouds 8 1011 93 10000 4 340 07:47 04.10.2019
6626 Clouds 8 1011 93 10000 4 340 07:23 04.10.2019
6627 Clouds 8 1010 93 10000 5 320 06:48 04.10.2019
6628 Clouds 8 1010 93 10000 5 320 06:27 04.10.2019
6629 Clouds 9 1010 93 10000 5 310 05:52 04.10.2019
6630 Clouds 8 1010 93 10000 5 310 05:19 04.10.2019
6631 Rain 9 1009 93 10000 5 320 04:25 04.10.2019
6632 Rain 9 1008 93 10000 6 320 02:56 04.10.2019
6633 Rain 9 1008 93 10000 6 320 02:56 04.10.2019
6634 Rain 9 1008 93 9000 6 320 02:37 04.10.2019
6635 Rain 9 1008 93 10000 6 330 01:43 04.10.2019
6636 Rain 10 1008 93 10000 6 330 01:24 04.10.2019
6637 Rain 10 1008 100 10000 6 310 00:24 04.10.2019
6638 Rain 11 1008 100 10000 7 300 23:38 03.10.2019
6639 Rain 12 1006 93 10000 6 300 23:19 03.10.2019
6640 Rain 12 1006 93 10000 6 300 22:57 03.10.2019
6641 Clouds 12 1006 93 10000 7 320 22:39 03.10.2019
6642 Clouds 12 1006 93 10000 7 320 22:21 03.10.2019
6643 Clouds 13 1006 93 10000 7 310 21:56 03.10.2019
6644 Rain 14 1005 93 10000 7 300 21:37 03.10.2019
6645 Rain 14 1005 93 10000 7 300 21:37 03.10.2019
6646 Rain 15 1004 87 10000 6 290 21:19 03.10.2019
6647 Rain 16 1004 87 10000 6 290 20:56 03.10.2019
6648 Rain 16 1004 100 7000 2 230 20:37 03.10.2019
6649 Thunderstorm 16 1004 100 7000 2 230 20:19 03.10.2019
6650 Rain 17 1004 100 8000 1 0 19:55 03.10.2019
6651 Thunderstorm 18 1004 88 8000 6 280 19:36 03.10.2019
6652 Thunderstorm 18 1004 88 8000 6 280 19:18 03.10.2019
6653 Rain 20 1003 64 9000 2 160 18:40 03.10.2019
6654 Rain 20 1003 64 9000 2 160 18:20 03.10.2019
6655 Clear 20 1004 68 10000 1 0 17:59 03.10.2019
6656 Clear 22 1004 60 10000 2 170 17:41 03.10.2019
6657 Clouds 23 1004 53 10000 3 200 17:20 03.10.2019
6658 Clouds 24 1004 53 10000 3 200 16:54 03.10.2019
6659 Clouds 24 1004 53 10000 2 210 16:36 03.10.2019
6660 Clouds 24 1004 53 10000 2 210 16:18 03.10.2019
6661 Clouds 24 1004 56 10000 4 220 15:41 03.10.2019
6662 Clouds 23 1004 56 10000 4 210 15:23 03.10.2019
6663 Clear 24 1004 56 10000 4 210 14:54 03.10.2019
6664 Clear 24 1004 56 10000 4 180 14:36 03.10.2019
6665 Clear 23 1004 56 10000 4 180 14:18 03.10.2019
6666 Clear 23 1004 60 10000 5 190 13:41 03.10.2019
6667 Clear 23 1004 60 10000 5 190 13:19 03.10.2019
6668 Clear 22 1005 60 10000 4 170 12:57 03.10.2019
6669 Clouds 21 1005 64 10000 4 200 12:38 03.10.2019
6670 Clouds 21 1005 64 10000 4 200 12:19 03.10.2019
6671 Clouds 20 1005 77 10000 3 160 11:42 03.10.2019
6672 Clouds 19 1005 77 10000 3 160 11:23 03.10.2019
6673 Clouds 18 1005 77 10000 4 160 10:59 03.10.2019
6674 Clouds 18 1005 77 10000 3 160 10:40 03.10.2019
6675 Clouds 18 1005 77 10000 3 160 10:19 03.10.2019
6676 Clouds 17 1006 77 10000 4 160 10:19 03.10.2019
6677 Clouds 17 1006 77 10000 4 160 09:58 03.10.2019
6678 Clouds 17 1006 82 10000 3 180 09:40 03.10.2019
6679 Clouds 17 1006 82 10000 3 180 09:21 03.10.2019
6680 Clear 16 1006 82 10000 3 160 08:46 03.10.2019
6681 Clear 15 1006 87 10000 3 160 08:27 03.10.2019
6682 Clear 15 1006 82 10000 3 150 07:59 03.10.2019
6683 Clear 15 1006 82 10000 3 150 07:59 03.10.2019
6684 Clear 14 1005 87 10000 2 150 07:41 03.10.2019
6685 Clear 14 1005 87 10000 2 150 07:19 03.10.2019
6686 Clear 12 1005 93 10000 2 150 06:50 03.10.2019
6687 Clear 12 1005 93 10000 2 150 06:24 03.10.2019
6688 Clouds 12 1005 87 10000 5 160 05:46 03.10.2019
6689 Clear 12 1006 87 10000 3 160 05:19 03.10.2019
6690 Clear 13 1006 71 10000 2 150 04:27 03.10.2019
6691 Clear 13 1006 67 10000 2 150 03:24 03.10.2019
6692 Clear 14 1007 67 10000 2 180 02:39 03.10.2019
6693 Clear 14 1007 67 10000 2 180 01:52 03.10.2019
6694 Clear 15 1007 67 10000 3 180 01:33 03.10.2019
6695 Clear 15 1007 63 10000 3 180 00:49 03.10.2019
6696 Clear 16 1007 63 10000 3 180 00:19 03.10.2019
6697 Clear 16 1007 59 10000 3 180 23:43 02.10.2019
6698 Clear 16 1007 59 10000 3 180 23:21 02.10.2019
6699 Clear 17 1007 55 10000 3 190 22:44 02.10.2019
6700 Clear 17 1007 55 10000 3 190 22:22 02.10.2019
6701 Clear 17 1007 55 10000 3 180 21:57 02.10.2019
6702 Clear 17 1007 55 10000 3 180 21:57 02.10.2019
6703 Clear 17 1007 59 10000 3 170 21:38 02.10.2019
6704 Clear 17 1007 59 10000 3 170 21:20 02.10.2019
6705 Clear 18 1007 55 10000 4 170 20:57 02.10.2019
6706 Clear 18 1007 55 10000 3 160 20:38 02.10.2019
6707 Clear 18 1007 55 10000 3 160 20:20 02.10.2019
6708 Clear 18 1007 55 10000 3 160 20:20 02.10.2019
6709 Clear 17 1007 55 10000 2 160 19:55 02.10.2019
6710 Clear 17 1007 55 10000 2 160 19:55 02.10.2019
6711 Clear 17 1007 55 10000 2 160 19:55 02.10.2019
6712 Clear 18 1008 55 10000 2 160 19:36 02.10.2019
6713 Clear 18 1008 55 10000 2 160 19:36 02.10.2019
6714 Clear 18 1008 55 10000 2 160 19:18 02.10.2019
6715 Clear 19 1008 55 10000 2 160 18:56 02.10.2019
6716 Clear 19 1008 52 10000 1 0 18:36 02.10.2019
6717 Clear 19 1008 52 10000 1 0 18:18 02.10.2019
6718 Clear 20 1008 52 10000 2 160 17:42 02.10.2019
6719 Clear 21 1008 46 10000 2 180 17:21 02.10.2019
6720 Clear 22 1008 46 10000 3 190 16:58 02.10.2019
6721 Clear 22 1008 46 10000 3 190 16:39 02.10.2019
6722 Clear 23 1008 40 10000 3 190 16:20 02.10.2019
6723 Clear 23 1008 40 10000 3 190 15:56 02.10.2019
6724 Clear 23 1008 38 10000 5 200 15:37 02.10.2019
6725 Clear 23 1009 40 10000 3 190 15:18 02.10.2019
6726 Clear 23 1009 40 10000 5 190 14:45 02.10.2019
6727 Clear 23 1009 40 10000 5 190 14:27 02.10.2019
6728 Clear 23 1009 40 10000 4 200 13:58 02.10.2019
6729 Clear 23 1009 40 10000 3 200 13:40 02.10.2019
6730 Clear 22 1009 43 10000 4 200 13:21 02.10.2019
6731 Clear 21 1010 45 10000 4 210 12:41 02.10.2019
6732 Clear 21 1010 49 10000 4 190 12:23 02.10.2019
6733 Clear 21 1010 49 10000 4 190 11:59 02.10.2019
6734 Clear 20 1010 52 10000 3 170 11:41 02.10.2019
6735 Clear 19 1010 52 10000 3 180 11:21 02.10.2019
6736 Clear 19 1010 52 10000 3 180 10:39 02.10.2019
6737 Clear 19 1010 52 10000 3 180 10:19 02.10.2019
6738 Clear 19 1010 52 10000 3 180 10:19 02.10.2019
6739 Clear 16 1010 62 10000 3 190 09:41 02.10.2019
6740 Clear 16 1010 62 10000 3 190 09:20 02.10.2019
6741 Clear 14 1010 66 10000 5 200 08:57 02.10.2019
6742 Clear 14 1010 66 10000 5 200 08:38 02.10.2019
6743 Clear 14 1010 66 10000 5 200 08:20 02.10.2019
6744 Clear 11 1010 76 10000 4 210 07:43 02.10.2019
6745 Clear 11 1010 76 10000 4 210 07:24 02.10.2019
6746 Clear 11 1010 76 10000 4 220 06:58 02.10.2019
6747 Clear 10 1010 76 10000 4 220 06:27 02.10.2019
6748 Clear 10 1010 76 10000 5 220 05:51 02.10.2019
6749 Clear 10 1010 76 10000 5 220 05:21 02.10.2019
6750 Clear 10 1010 76 10000 5 210 03:53 02.10.2019
6751 Clear 10 1011 81 10000 5 210 03:31 02.10.2019
6752 Clear 10 1011 76 10000 2 200 02:27 02.10.2019
6753 Clear 11 1011 76 10000 2 210 01:59 02.10.2019
6754 Clear 10 1011 81 10000 2 200 00:52 02.10.2019
6755 Clear 10 1011 81 10000 1 0 00:29 02.10.2019
6756 Clear 10 1011 81 10000 2 210 23:55 01.10.2019
6757 Clear 10 1011 81 10000 3 200 23:36 01.10.2019
6758 Clear 10 1011 81 10000 3 200 23:18 01.10.2019
6759 Clear 10 1011 81 10000 3 210 22:57 01.10.2019
6760 Clear 10 1011 87 10000 1 220 22:37 01.10.2019
6761 Clear 10 1011 87 10000 1 220 22:18 01.10.2019
6762 Clear 10 1011 81 10000 2 220 22:18 01.10.2019
6763 Clear 11 1011 76 10000 3 230 21:42 01.10.2019
6764 Clear 11 1011 71 10000 3 230 21:22 01.10.2019
6765 Clear 11 1011 71 10000 3 230 20:58 01.10.2019
6766 Clear 12 1011 71 10000 2 230 20:39 01.10.2019
6767 Clear 11 1011 71 10000 3 250 20:20 01.10.2019
6768 Clear 12 1011 71 10000 2 230 20:20 01.10.2019
6769 Clear 11 1011 71 10000 3 250 19:57 01.10.2019
6770 Clear 12 1010 66 10000 3 250 19:39 01.10.2019
6771 Clear 12 1010 66 10000 3 250 19:20 01.10.2019
6772 Clear 13 1010 66 10000 3 260 18:55 01.10.2019
6773 Clear 13 1010 62 10000 4 250 18:37 01.10.2019
6774 Clear 14 1010 58 10000 4 260 18:19 01.10.2019
6775 Clear 16 1010 54 10000 6 270 17:43 01.10.2019
6776 Clear 15 1009 48 10000 7 270 17:20 01.10.2019
6777 Clear 16 1009 48 10000 7 270 16:59 01.10.2019
6778 Clear 16 1009 48 10000 7 290 16:40 01.10.2019
6779 Clear 16 1009 48 10000 7 290 16:22 01.10.2019
6780 Clear 16 1009 48 10000 7 290 16:22 01.10.2019
6781 Clear 17 1009 48 10000 8 270 15:48 01.10.2019
6782 Clear 17 1009 48 10000 8 270 15:24 01.10.2019
6783 Clouds 17 1009 48 10000 7 290 14:58 01.10.2019
6784 Clouds 16 1009 51 10000 9 280 14:37 01.10.2019
6785 Clouds 16 1009 48 10000 8 290 14:19 01.10.2019
6786 Clouds 17 1009 48 10000 8 290 13:55 01.10.2019
6787 Clouds 17 1008 51 10000 7 290 13:36 01.10.2019
6788 Clouds 16 1008 58 10000 8 280 13:18 01.10.2019
6789 Clouds 16 1008 62 10000 7 300 12:42 01.10.2019
6790 Clouds 15 1008 62 10000 7 300 12:21 01.10.2019
6791 Clouds 14 1007 71 10000 9 300 11:59 01.10.2019
6792 Clouds 14 1007 71 10000 9 300 11:39 01.10.2019
6793 Clouds 14 1007 71 10000 9 300 11:19 01.10.2019
6794 Rain 14 1007 71 10000 9 300 10:59 01.10.2019
6795 Rain 14 1006 67 10000 7 290 10:41 01.10.2019
6796 Rain 14 1